<?xml version="1.0" encoding="UTF-8" standalone="no" ?>
<gpx xmlns="http://www.topografix.com/GPX/1/1" xmlns:xsi="http://www.w3.org/2001/XMLSchema-instance" xsi:schemaLocation="http://www.topografix.com/GPX/1/1 http://www.topografix.com/GPX/1/1/gpx.xsd" version="1.1" creator="VisuGPX - https://www.visugpx.com">
  <metadata>
    <name>2016-09-29 Walk from Frontenas</name>
    <desc><![CDATA[2016-09-29 Walk from Frontenas]]></desc>
  </metadata>
  <wpt lat="45.92439" lon="4.61892">
    <ele>359</ele>
    <name><![CDATA[2016-09-29 08:35 (Start)]]></name>
  </wpt>
  <wpt lat="45.92546" lon="4.61828">
    <ele>367</ele>
    <name><![CDATA[2016-09-29 08:35 (End)]]></name>
    <desc><![CDATA[Created by Google My Tracks on Android  Name: 2016-09-29 08:35 Activity type: walking Description: - Total distance: 24.36 km (15.1 mi) Total time: 7:46:27 Moving time: 7:29:34 Average speed: 3.13 km/h (1.9 mi/h) Average moving speed: 3.25 km/h (2.0 mi/h) Max speed: 22.39 km/h (13.9 mi/h) Average pace: 19:09 min/km (30:49 min/mi) Average moving pace: 18:28 min/km (29:42 min/mi) Fastest pace: 2:41 min/km (4:19 min/mi) Max elevation: 756 m (2482 ft) Min elevation: 391 m (1284 ft) Elevation gain: 1321 m (4336 ft) Max grade: 110 % Min grade: -30 % Recorded: 29/09/2016 08:35]]></desc>
  </wpt>
  <trk>
    <name><![CDATA[2016-09-29 08:35]]></name>
    <trkseg>
      <trkpt lat="45.92439" lon="4.61892">
        <ele>359</ele>
        <time>2016-09-29T06:35:17.532Z</time>
      </trkpt>
      <trkpt lat="45.92435" lon="4.61901">
        <ele>358</ele>
        <time>2016-09-29T06:35:25.915Z</time>
      </trkpt>
      <trkpt lat="45.92435" lon="4.61916">
        <ele>357</ele>
        <time>2016-09-29T06:35:26.925Z</time>
      </trkpt>
      <trkpt lat="45.92445" lon="4.61907">
        <ele>358</ele>
        <time>2016-09-29T06:35:27.927Z</time>
      </trkpt>
      <trkpt lat="45.92447" lon="4.61893">
        <ele>359</ele>
        <time>2016-09-29T06:35:28.924Z</time>
      </trkpt>
      <trkpt lat="45.9244" lon="4.61898">
        <ele>358</ele>
        <time>2016-09-29T06:35:31.895Z</time>
      </trkpt>
      <trkpt lat="45.92438" lon="4.61895">
        <ele>358</ele>
        <time>2016-09-29T06:35:32.908Z</time>
      </trkpt>
      <trkpt lat="45.9243" lon="4.61898">
        <ele>358</ele>
        <time>2016-09-29T06:36:14Z</time>
      </trkpt>
      <trkpt lat="45.92429" lon="4.61898">
        <ele>358</ele>
        <time>2016-09-29T06:36:15Z</time>
      </trkpt>
      <trkpt lat="45.92437" lon="4.61895">
        <ele>358</ele>
        <time>2016-09-29T06:38:51Z</time>
      </trkpt>
      <trkpt lat="45.92438" lon="4.61895">
        <ele>358</ele>
        <time>2016-09-29T06:38:52Z</time>
      </trkpt>
      <trkpt lat="45.92446" lon="4.61889">
        <ele>359</ele>
        <time>2016-09-29T06:39:02Z</time>
      </trkpt>
      <trkpt lat="45.92447" lon="4.61889">
        <ele>359</ele>
        <time>2016-09-29T06:39:03Z</time>
      </trkpt>
      <trkpt lat="45.92455" lon="4.61884">
        <ele>359</ele>
        <time>2016-09-29T06:39:12Z</time>
      </trkpt>
      <trkpt lat="45.92456" lon="4.61884">
        <ele>359</ele>
        <time>2016-09-29T06:39:13Z</time>
      </trkpt>
      <trkpt lat="45.92464" lon="4.61884">
        <ele>360</ele>
        <time>2016-09-29T06:39:22Z</time>
      </trkpt>
      <trkpt lat="45.92465" lon="4.61884">
        <ele>360</ele>
        <time>2016-09-29T06:39:23Z</time>
      </trkpt>
      <trkpt lat="45.92473" lon="4.61878">
        <ele>360</ele>
        <time>2016-09-29T06:39:33Z</time>
      </trkpt>
      <trkpt lat="45.92473" lon="4.61877">
        <ele>360</ele>
        <time>2016-09-29T06:39:34Z</time>
      </trkpt>
      <trkpt lat="45.9248" lon="4.61871">
        <ele>360</ele>
        <time>2016-09-29T06:39:42Z</time>
      </trkpt>
      <trkpt lat="45.92481" lon="4.61871">
        <ele>360</ele>
        <time>2016-09-29T06:39:43Z</time>
      </trkpt>
      <trkpt lat="45.92489" lon="4.61865">
        <ele>361</ele>
        <time>2016-09-29T06:39:52Z</time>
      </trkpt>
      <trkpt lat="45.92489" lon="4.61864">
        <ele>361</ele>
        <time>2016-09-29T06:39:53Z</time>
      </trkpt>
      <trkpt lat="45.92497" lon="4.61861">
        <ele>361</ele>
        <time>2016-09-29T06:40:03Z</time>
      </trkpt>
      <trkpt lat="45.92498" lon="4.61861">
        <ele>361</ele>
        <time>2016-09-29T06:40:04Z</time>
      </trkpt>
      <trkpt lat="45.92505" lon="4.61855">
        <ele>364</ele>
        <time>2016-09-29T06:40:10Z</time>
      </trkpt>
      <trkpt lat="45.92506" lon="4.61854">
        <ele>364</ele>
        <time>2016-09-29T06:40:11Z</time>
      </trkpt>
      <trkpt lat="45.92512" lon="4.61847">
        <ele>364</ele>
        <time>2016-09-29T06:40:18Z</time>
      </trkpt>
      <trkpt lat="45.92513" lon="4.61846">
        <ele>364</ele>
        <time>2016-09-29T06:40:19Z</time>
      </trkpt>
      <trkpt lat="45.92521" lon="4.61841">
        <ele>364</ele>
        <time>2016-09-29T06:40:27Z</time>
      </trkpt>
      <trkpt lat="45.92522" lon="4.6184">
        <ele>364</ele>
        <time>2016-09-29T06:40:28Z</time>
      </trkpt>
      <trkpt lat="45.92529" lon="4.61833">
        <ele>366</ele>
        <time>2016-09-29T06:40:36Z</time>
      </trkpt>
      <trkpt lat="45.9253" lon="4.61832">
        <ele>366</ele>
        <time>2016-09-29T06:40:37Z</time>
      </trkpt>
      <trkpt lat="45.92538" lon="4.61832">
        <ele>367</ele>
        <time>2016-09-29T06:40:44Z</time>
      </trkpt>
      <trkpt lat="45.9254" lon="4.61832">
        <ele>367</ele>
        <time>2016-09-29T06:40:45Z</time>
      </trkpt>
      <trkpt lat="45.92548" lon="4.6183">
        <ele>367</ele>
        <time>2016-09-29T06:40:51Z</time>
      </trkpt>
      <trkpt lat="45.92549" lon="4.6183">
        <ele>367</ele>
        <time>2016-09-29T06:40:52Z</time>
      </trkpt>
      <trkpt lat="45.92555" lon="4.61837">
        <ele>365</ele>
        <time>2016-09-29T06:40:58Z</time>
      </trkpt>
      <trkpt lat="45.92556" lon="4.61839">
        <ele>365</ele>
        <time>2016-09-29T06:40:59Z</time>
      </trkpt>
      <trkpt lat="45.92559" lon="4.61851">
        <ele>365</ele>
        <time>2016-09-29T06:41:06Z</time>
      </trkpt>
      <trkpt lat="45.92559" lon="4.61852">
        <ele>365</ele>
        <time>2016-09-29T06:41:07Z</time>
      </trkpt>
      <trkpt lat="45.92565" lon="4.61861">
        <ele>365</ele>
        <time>2016-09-29T06:41:14Z</time>
      </trkpt>
      <trkpt lat="45.92566" lon="4.61862">
        <ele>365</ele>
        <time>2016-09-29T06:41:15Z</time>
      </trkpt>
      <trkpt lat="45.92572" lon="4.6187">
        <ele>365</ele>
        <time>2016-09-29T06:41:30Z</time>
      </trkpt>
      <trkpt lat="45.92573" lon="4.6187">
        <ele>365</ele>
        <time>2016-09-29T06:41:31Z</time>
      </trkpt>
      <trkpt lat="45.92581" lon="4.6187">
        <ele>365</ele>
        <time>2016-09-29T06:41:36Z</time>
      </trkpt>
      <trkpt lat="45.92583" lon="4.61871">
        <ele>365</ele>
        <time>2016-09-29T06:41:37Z</time>
      </trkpt>
      <trkpt lat="45.92589" lon="4.61878">
        <ele>368</ele>
        <time>2016-09-29T06:41:41Z</time>
      </trkpt>
      <trkpt lat="45.9259" lon="4.6188">
        <ele>368</ele>
        <time>2016-09-29T06:41:42Z</time>
      </trkpt>
      <trkpt lat="45.92595" lon="4.61889">
        <ele>368</ele>
        <time>2016-09-29T06:41:47Z</time>
      </trkpt>
      <trkpt lat="45.92596" lon="4.61891">
        <ele>368</ele>
        <time>2016-09-29T06:41:48Z</time>
      </trkpt>
      <trkpt lat="45.92599" lon="4.61902">
        <ele>367</ele>
        <time>2016-09-29T06:41:54Z</time>
      </trkpt>
      <trkpt lat="45.92599" lon="4.61904">
        <ele>367</ele>
        <time>2016-09-29T06:41:55Z</time>
      </trkpt>
      <trkpt lat="45.92604" lon="4.61914">
        <ele>367</ele>
        <time>2016-09-29T06:42:02Z</time>
      </trkpt>
      <trkpt lat="45.92605" lon="4.61915">
        <ele>367</ele>
        <time>2016-09-29T06:42:03Z</time>
      </trkpt>
      <trkpt lat="45.92609" lon="4.61925">
        <ele>368</ele>
        <time>2016-09-29T06:42:09Z</time>
      </trkpt>
      <trkpt lat="45.9261" lon="4.61927">
        <ele>368</ele>
        <time>2016-09-29T06:42:10Z</time>
      </trkpt>
      <trkpt lat="45.92614" lon="4.61937">
        <ele>368</ele>
        <time>2016-09-29T06:42:16Z</time>
      </trkpt>
      <trkpt lat="45.92615" lon="4.61938">
        <ele>368</ele>
        <time>2016-09-29T06:42:17Z</time>
      </trkpt>
      <trkpt lat="45.92619" lon="4.61948">
        <ele>369</ele>
        <time>2016-09-29T06:42:23Z</time>
      </trkpt>
      <trkpt lat="45.9262" lon="4.61949">
        <ele>369</ele>
        <time>2016-09-29T06:42:24Z</time>
      </trkpt>
      <trkpt lat="45.92624" lon="4.6196">
        <ele>369</ele>
        <time>2016-09-29T06:42:30Z</time>
      </trkpt>
      <trkpt lat="45.92625" lon="4.61961">
        <ele>369</ele>
        <time>2016-09-29T06:42:31Z</time>
      </trkpt>
      <trkpt lat="45.92629" lon="4.61971">
        <ele>369</ele>
        <time>2016-09-29T06:42:37Z</time>
      </trkpt>
      <trkpt lat="45.92629" lon="4.61973">
        <ele>369</ele>
        <time>2016-09-29T06:42:38Z</time>
      </trkpt>
      <trkpt lat="45.92633" lon="4.61984">
        <ele>370</ele>
        <time>2016-09-29T06:42:45Z</time>
      </trkpt>
      <trkpt lat="45.92634" lon="4.61986">
        <ele>370</ele>
        <time>2016-09-29T06:42:46Z</time>
      </trkpt>
      <trkpt lat="45.92635" lon="4.61998">
        <ele>370</ele>
        <time>2016-09-29T06:42:52Z</time>
      </trkpt>
      <trkpt lat="45.92635" lon="4.62">
        <ele>370</ele>
        <time>2016-09-29T06:42:53Z</time>
      </trkpt>
      <trkpt lat="45.92633" lon="4.62011">
        <ele>371</ele>
        <time>2016-09-29T06:42:59Z</time>
      </trkpt>
      <trkpt lat="45.92633" lon="4.62013">
        <ele>371</ele>
        <time>2016-09-29T06:43:00Z</time>
      </trkpt>
      <trkpt lat="45.92633" lon="4.62025">
        <ele>371</ele>
        <time>2016-09-29T06:43:06Z</time>
      </trkpt>
      <trkpt lat="45.92633" lon="4.62027">
        <ele>371</ele>
        <time>2016-09-29T06:43:07Z</time>
      </trkpt>
      <trkpt lat="45.9264" lon="4.62034">
        <ele>371</ele>
        <time>2016-09-29T06:43:14Z</time>
      </trkpt>
      <trkpt lat="45.92641" lon="4.62034">
        <ele>371</ele>
        <time>2016-09-29T06:43:15Z</time>
      </trkpt>
      <trkpt lat="45.92648" lon="4.62041">
        <ele>371</ele>
        <time>2016-09-29T06:43:23Z</time>
      </trkpt>
      <trkpt lat="45.92649" lon="4.62042">
        <ele>371</ele>
        <time>2016-09-29T06:43:24Z</time>
      </trkpt>
      <trkpt lat="45.92656" lon="4.62049">
        <ele>372</ele>
        <time>2016-09-29T06:43:32Z</time>
      </trkpt>
      <trkpt lat="45.92657" lon="4.6205">
        <ele>372</ele>
        <time>2016-09-29T06:43:33Z</time>
      </trkpt>
      <trkpt lat="45.92665" lon="4.62056">
        <ele>372</ele>
        <time>2016-09-29T06:43:40Z</time>
      </trkpt>
      <trkpt lat="45.92666" lon="4.62057">
        <ele>372</ele>
        <time>2016-09-29T06:43:41Z</time>
      </trkpt>
      <trkpt lat="45.92673" lon="4.62062">
        <ele>374</ele>
        <time>2016-09-29T06:43:47Z</time>
      </trkpt>
      <trkpt lat="45.92674" lon="4.62063">
        <ele>374</ele>
        <time>2016-09-29T06:43:48Z</time>
      </trkpt>
      <trkpt lat="45.92681" lon="4.62068">
        <ele>374</ele>
        <time>2016-09-29T06:43:54Z</time>
      </trkpt>
      <trkpt lat="45.92682" lon="4.62069">
        <ele>374</ele>
        <time>2016-09-29T06:43:55Z</time>
      </trkpt>
      <trkpt lat="45.9269" lon="4.62073">
        <ele>374</ele>
        <time>2016-09-29T06:44:01Z</time>
      </trkpt>
      <trkpt lat="45.92691" lon="4.62073">
        <ele>374</ele>
        <time>2016-09-29T06:44:02Z</time>
      </trkpt>
      <trkpt lat="45.927" lon="4.62075">
        <ele>374</ele>
        <time>2016-09-29T06:44:10Z</time>
      </trkpt>
      <trkpt lat="45.92701" lon="4.62075">
        <ele>374</ele>
        <time>2016-09-29T06:44:11Z</time>
      </trkpt>
      <trkpt lat="45.92709" lon="4.62079">
        <ele>375</ele>
        <time>2016-09-29T06:44:18Z</time>
      </trkpt>
      <trkpt lat="45.9271" lon="4.6208">
        <ele>375</ele>
        <time>2016-09-29T06:44:19Z</time>
      </trkpt>
      <trkpt lat="45.92718" lon="4.62082">
        <ele>375</ele>
        <time>2016-09-29T06:44:26Z</time>
      </trkpt>
      <trkpt lat="45.9272" lon="4.62082">
        <ele>375</ele>
        <time>2016-09-29T06:44:27Z</time>
      </trkpt>
      <trkpt lat="45.92728" lon="4.62081">
        <ele>375</ele>
        <time>2016-09-29T06:44:34Z</time>
      </trkpt>
      <trkpt lat="45.92729" lon="4.62081">
        <ele>375</ele>
        <time>2016-09-29T06:44:35Z</time>
      </trkpt>
      <trkpt lat="45.92737" lon="4.62083">
        <ele>375</ele>
        <time>2016-09-29T06:44:42Z</time>
      </trkpt>
      <trkpt lat="45.92739" lon="4.62084">
        <ele>376</ele>
        <time>2016-09-29T06:44:43Z</time>
      </trkpt>
      <trkpt lat="45.92747" lon="4.62087">
        <ele>376</ele>
        <time>2016-09-29T06:44:49Z</time>
      </trkpt>
      <trkpt lat="45.92748" lon="4.62088">
        <ele>376</ele>
        <time>2016-09-29T06:44:50Z</time>
      </trkpt>
      <trkpt lat="45.92756" lon="4.62089">
        <ele>376</ele>
        <time>2016-09-29T06:44:57Z</time>
      </trkpt>
      <trkpt lat="45.92757" lon="4.62089">
        <ele>376</ele>
        <time>2016-09-29T06:44:58Z</time>
      </trkpt>
      <trkpt lat="45.92765" lon="4.6209">
        <ele>375</ele>
        <time>2016-09-29T06:45:05Z</time>
      </trkpt>
      <trkpt lat="45.92766" lon="4.6209">
        <ele>375</ele>
        <time>2016-09-29T06:45:06Z</time>
      </trkpt>
      <trkpt lat="45.92774" lon="4.62092">
        <ele>375</ele>
        <time>2016-09-29T06:45:12Z</time>
      </trkpt>
      <trkpt lat="45.92775" lon="4.62092">
        <ele>375</ele>
        <time>2016-09-29T06:45:13Z</time>
      </trkpt>
      <trkpt lat="45.92783" lon="4.62096">
        <ele>375</ele>
        <time>2016-09-29T06:45:20Z</time>
      </trkpt>
      <trkpt lat="45.92784" lon="4.62096">
        <ele>375</ele>
        <time>2016-09-29T06:45:21Z</time>
      </trkpt>
      <trkpt lat="45.92792" lon="4.62099">
        <ele>375</ele>
        <time>2016-09-29T06:45:27Z</time>
      </trkpt>
      <trkpt lat="45.92793" lon="4.621">
        <ele>375</ele>
        <time>2016-09-29T06:45:28Z</time>
      </trkpt>
      <trkpt lat="45.928" lon="4.62105">
        <ele>375</ele>
        <time>2016-09-29T06:45:33Z</time>
      </trkpt>
      <trkpt lat="45.92802" lon="4.62105">
        <ele>375</ele>
        <time>2016-09-29T06:45:34Z</time>
      </trkpt>
      <trkpt lat="45.9281" lon="4.62107">
        <ele>375</ele>
        <time>2016-09-29T06:45:40Z</time>
      </trkpt>
      <trkpt lat="45.92811" lon="4.62108">
        <ele>375</ele>
        <time>2016-09-29T06:45:41Z</time>
      </trkpt>
      <trkpt lat="45.92819" lon="4.6211">
        <ele>374</ele>
        <time>2016-09-29T06:45:48Z</time>
      </trkpt>
      <trkpt lat="45.92821" lon="4.62111">
        <ele>374</ele>
        <time>2016-09-29T06:45:49Z</time>
      </trkpt>
      <trkpt lat="45.92828" lon="4.62114">
        <ele>374</ele>
        <time>2016-09-29T06:45:56Z</time>
      </trkpt>
      <trkpt lat="45.92829" lon="4.62115">
        <ele>374</ele>
        <time>2016-09-29T06:45:57Z</time>
      </trkpt>
      <trkpt lat="45.92836" lon="4.62122">
        <ele>372</ele>
        <time>2016-09-29T06:46:03Z</time>
      </trkpt>
      <trkpt lat="45.92837" lon="4.62123">
        <ele>372</ele>
        <time>2016-09-29T06:46:04Z</time>
      </trkpt>
      <trkpt lat="45.92841" lon="4.62132">
        <ele>372</ele>
        <time>2016-09-29T06:46:09Z</time>
      </trkpt>
      <trkpt lat="45.92842" lon="4.62134">
        <ele>372</ele>
        <time>2016-09-29T06:46:10Z</time>
      </trkpt>
      <trkpt lat="45.92845" lon="4.62144">
        <ele>372</ele>
        <time>2016-09-29T06:46:16Z</time>
      </trkpt>
      <trkpt lat="45.92846" lon="4.62146">
        <ele>372</ele>
        <time>2016-09-29T06:46:17Z</time>
      </trkpt>
      <trkpt lat="45.92848" lon="4.62156">
        <ele>372</ele>
        <time>2016-09-29T06:46:23Z</time>
      </trkpt>
      <trkpt lat="45.92849" lon="4.62158">
        <ele>372</ele>
        <time>2016-09-29T06:46:24Z</time>
      </trkpt>
      <trkpt lat="45.92853" lon="4.62169">
        <ele>372</ele>
        <time>2016-09-29T06:46:31Z</time>
      </trkpt>
      <trkpt lat="45.92854" lon="4.6217">
        <ele>372</ele>
        <time>2016-09-29T06:46:32Z</time>
      </trkpt>
      <trkpt lat="45.92859" lon="4.6218">
        <ele>371</ele>
        <time>2016-09-29T06:46:39Z</time>
      </trkpt>
      <trkpt lat="45.9286" lon="4.62181">
        <ele>371</ele>
        <time>2016-09-29T06:46:40Z</time>
      </trkpt>
      <trkpt lat="45.92866" lon="4.6219">
        <ele>371</ele>
        <time>2016-09-29T06:46:47Z</time>
      </trkpt>
      <trkpt lat="45.92867" lon="4.62191">
        <ele>371</ele>
        <time>2016-09-29T06:46:48Z</time>
      </trkpt>
      <trkpt lat="45.92873" lon="4.622">
        <ele>371</ele>
        <time>2016-09-29T06:46:55Z</time>
      </trkpt>
      <trkpt lat="45.92874" lon="4.62201">
        <ele>371</ele>
        <time>2016-09-29T06:46:56Z</time>
      </trkpt>
      <trkpt lat="45.92881" lon="4.62208">
        <ele>371</ele>
        <time>2016-09-29T06:47:02Z</time>
      </trkpt>
      <trkpt lat="45.92882" lon="4.6221">
        <ele>371</ele>
        <time>2016-09-29T06:47:03Z</time>
      </trkpt>
      <trkpt lat="45.92889" lon="4.62216">
        <ele>370</ele>
        <time>2016-09-29T06:47:09Z</time>
      </trkpt>
      <trkpt lat="45.9289" lon="4.62216">
        <ele>370</ele>
        <time>2016-09-29T06:47:10Z</time>
      </trkpt>
      <trkpt lat="45.92898" lon="4.6222">
        <ele>370</ele>
        <time>2016-09-29T06:47:16Z</time>
      </trkpt>
      <trkpt lat="45.92899" lon="4.62221">
        <ele>370</ele>
        <time>2016-09-29T06:47:17Z</time>
      </trkpt>
      <trkpt lat="45.92907" lon="4.62222">
        <ele>370</ele>
        <time>2016-09-29T06:47:24Z</time>
      </trkpt>
      <trkpt lat="45.92908" lon="4.62223">
        <ele>369</ele>
        <time>2016-09-29T06:47:25Z</time>
      </trkpt>
      <trkpt lat="45.92916" lon="4.62225">
        <ele>369</ele>
        <time>2016-09-29T06:47:32Z</time>
      </trkpt>
      <trkpt lat="45.92918" lon="4.62226">
        <ele>365</ele>
        <time>2016-09-29T06:47:33Z</time>
      </trkpt>
      <trkpt lat="45.92926" lon="4.6223">
        <ele>365</ele>
        <time>2016-09-29T06:47:40Z</time>
      </trkpt>
      <trkpt lat="45.92927" lon="4.6223">
        <ele>365</ele>
        <time>2016-09-29T06:47:41Z</time>
      </trkpt>
      <trkpt lat="45.92935" lon="4.62225">
        <ele>364</ele>
        <time>2016-09-29T06:47:49Z</time>
      </trkpt>
      <trkpt lat="45.92935" lon="4.62224">
        <ele>364</ele>
        <time>2016-09-29T06:47:50Z</time>
      </trkpt>
      <trkpt lat="45.92938" lon="4.62212">
        <ele>364</ele>
        <time>2016-09-29T06:47:57Z</time>
      </trkpt>
      <trkpt lat="45.92938" lon="4.6221">
        <ele>364</ele>
        <time>2016-09-29T06:47:58Z</time>
      </trkpt>
      <trkpt lat="45.9294" lon="4.62198">
        <ele>364</ele>
        <time>2016-09-29T06:48:05Z</time>
      </trkpt>
      <trkpt lat="45.9294" lon="4.62196">
        <ele>364</ele>
        <time>2016-09-29T06:48:06Z</time>
      </trkpt>
      <trkpt lat="45.92941" lon="4.62184">
        <ele>364</ele>
        <time>2016-09-29T06:48:13Z</time>
      </trkpt>
      <trkpt lat="45.92942" lon="4.62183">
        <ele>364</ele>
        <time>2016-09-29T06:48:14Z</time>
      </trkpt>
      <trkpt lat="45.92945" lon="4.62171">
        <ele>364</ele>
        <time>2016-09-29T06:48:21Z</time>
      </trkpt>
      <trkpt lat="45.92946" lon="4.62169">
        <ele>364</ele>
        <time>2016-09-29T06:48:22Z</time>
      </trkpt>
      <trkpt lat="45.92948" lon="4.62158">
        <ele>364</ele>
        <time>2016-09-29T06:48:28Z</time>
      </trkpt>
      <trkpt lat="45.92949" lon="4.62156">
        <ele>364</ele>
        <time>2016-09-29T06:48:29Z</time>
      </trkpt>
      <trkpt lat="45.92953" lon="4.62147">
        <ele>364</ele>
        <time>2016-09-29T06:48:35Z</time>
      </trkpt>
      <trkpt lat="45.92954" lon="4.62145">
        <ele>364</ele>
        <time>2016-09-29T06:48:36Z</time>
      </trkpt>
      <trkpt lat="45.92958" lon="4.62135">
        <ele>363</ele>
        <time>2016-09-29T06:48:42Z</time>
      </trkpt>
      <trkpt lat="45.92959" lon="4.62133">
        <ele>363</ele>
        <time>2016-09-29T06:48:43Z</time>
      </trkpt>
      <trkpt lat="45.92962" lon="4.62122">
        <ele>363</ele>
        <time>2016-09-29T06:48:49Z</time>
      </trkpt>
      <trkpt lat="45.92963" lon="4.6212">
        <ele>363</ele>
        <time>2016-09-29T06:48:50Z</time>
      </trkpt>
      <trkpt lat="45.92967" lon="4.6211">
        <ele>363</ele>
        <time>2016-09-29T06:48:56Z</time>
      </trkpt>
      <trkpt lat="45.92967" lon="4.62108">
        <ele>363</ele>
        <time>2016-09-29T06:48:57Z</time>
      </trkpt>
      <trkpt lat="45.92971" lon="4.62097">
        <ele>363</ele>
        <time>2016-09-29T06:49:03Z</time>
      </trkpt>
      <trkpt lat="45.92972" lon="4.62095">
        <ele>363</ele>
        <time>2016-09-29T06:49:04Z</time>
      </trkpt>
      <trkpt lat="45.92976" lon="4.62085">
        <ele>362</ele>
        <time>2016-09-29T06:49:10Z</time>
      </trkpt>
      <trkpt lat="45.92977" lon="4.62083">
        <ele>362</ele>
        <time>2016-09-29T06:49:11Z</time>
      </trkpt>
      <trkpt lat="45.92982" lon="4.62074">
        <ele>363</ele>
        <time>2016-09-29T06:49:17Z</time>
      </trkpt>
      <trkpt lat="45.92983" lon="4.62073">
        <ele>363</ele>
        <time>2016-09-29T06:49:18Z</time>
      </trkpt>
      <trkpt lat="45.92987" lon="4.62061">
        <ele>363</ele>
        <time>2016-09-29T06:49:25Z</time>
      </trkpt>
      <trkpt lat="45.92987" lon="4.6206">
        <ele>363</ele>
        <time>2016-09-29T06:49:26Z</time>
      </trkpt>
      <trkpt lat="45.92992" lon="4.62049">
        <ele>364</ele>
        <time>2016-09-29T06:49:32Z</time>
      </trkpt>
      <trkpt lat="45.92993" lon="4.62048">
        <ele>364</ele>
        <time>2016-09-29T06:49:33Z</time>
      </trkpt>
      <trkpt lat="45.92996" lon="4.62037">
        <ele>364</ele>
        <time>2016-09-29T06:49:39Z</time>
      </trkpt>
      <trkpt lat="45.92997" lon="4.62035">
        <ele>364</ele>
        <time>2016-09-29T06:49:40Z</time>
      </trkpt>
      <trkpt lat="45.92999" lon="4.62025">
        <ele>365</ele>
        <time>2016-09-29T06:49:46Z</time>
      </trkpt>
      <trkpt lat="45.93" lon="4.62023">
        <ele>365</ele>
        <time>2016-09-29T06:49:47Z</time>
      </trkpt>
      <trkpt lat="45.93001" lon="4.6201">
        <ele>360</ele>
        <time>2016-09-29T06:49:54Z</time>
      </trkpt>
      <trkpt lat="45.93002" lon="4.62009">
        <ele>361</ele>
        <time>2016-09-29T06:49:55Z</time>
      </trkpt>
      <trkpt lat="45.93004" lon="4.61998">
        <ele>363</ele>
        <time>2016-09-29T06:50:01Z</time>
      </trkpt>
      <trkpt lat="45.93004" lon="4.61996">
        <ele>362</ele>
        <time>2016-09-29T06:50:02Z</time>
      </trkpt>
      <trkpt lat="45.93008" lon="4.61984">
        <ele>360</ele>
        <time>2016-09-29T06:50:08Z</time>
      </trkpt>
      <trkpt lat="45.93008" lon="4.61982">
        <ele>360</ele>
        <time>2016-09-29T06:50:09Z</time>
      </trkpt>
      <trkpt lat="45.93009" lon="4.61971">
        <ele>359</ele>
        <time>2016-09-29T06:50:16Z</time>
      </trkpt>
      <trkpt lat="45.9301" lon="4.61969">
        <ele>359</ele>
        <time>2016-09-29T06:50:17Z</time>
      </trkpt>
      <trkpt lat="45.93011" lon="4.61958">
        <ele>359</ele>
        <time>2016-09-29T06:50:23Z</time>
      </trkpt>
      <trkpt lat="45.93011" lon="4.61955">
        <ele>359</ele>
        <time>2016-09-29T06:50:24Z</time>
      </trkpt>
      <trkpt lat="45.93012" lon="4.61944">
        <ele>360</ele>
        <time>2016-09-29T06:50:29Z</time>
      </trkpt>
      <trkpt lat="45.93012" lon="4.61942">
        <ele>360</ele>
        <time>2016-09-29T06:50:30Z</time>
      </trkpt>
      <trkpt lat="45.93014" lon="4.6193">
        <ele>361</ele>
        <time>2016-09-29T06:50:36Z</time>
      </trkpt>
      <trkpt lat="45.93014" lon="4.61928">
        <ele>361</ele>
        <time>2016-09-29T06:50:37Z</time>
      </trkpt>
      <trkpt lat="45.93018" lon="4.61918">
        <ele>361</ele>
        <time>2016-09-29T06:50:43Z</time>
      </trkpt>
      <trkpt lat="45.93019" lon="4.61916">
        <ele>363</ele>
        <time>2016-09-29T06:50:44Z</time>
      </trkpt>
      <trkpt lat="45.93024" lon="4.61906">
        <ele>362</ele>
        <time>2016-09-29T06:50:50Z</time>
      </trkpt>
      <trkpt lat="45.93025" lon="4.61905">
        <ele>362</ele>
        <time>2016-09-29T06:50:51Z</time>
      </trkpt>
      <trkpt lat="45.93031" lon="4.61897">
        <ele>361</ele>
        <time>2016-09-29T06:50:57Z</time>
      </trkpt>
      <trkpt lat="45.93032" lon="4.61896">
        <ele>361</ele>
        <time>2016-09-29T06:50:58Z</time>
      </trkpt>
      <trkpt lat="45.93039" lon="4.61889">
        <ele>360</ele>
        <time>2016-09-29T06:51:05Z</time>
      </trkpt>
      <trkpt lat="45.9304" lon="4.61889">
        <ele>360</ele>
        <time>2016-09-29T06:51:06Z</time>
      </trkpt>
      <trkpt lat="45.93049" lon="4.61886">
        <ele>359</ele>
        <time>2016-09-29T06:51:13Z</time>
      </trkpt>
      <trkpt lat="45.9305" lon="4.61886">
        <ele>359</ele>
        <time>2016-09-29T06:51:14Z</time>
      </trkpt>
      <trkpt lat="45.93058" lon="4.6188">
        <ele>359</ele>
        <time>2016-09-29T06:51:20Z</time>
      </trkpt>
      <trkpt lat="45.93059" lon="4.61879">
        <ele>359</ele>
        <time>2016-09-29T06:51:21Z</time>
      </trkpt>
      <trkpt lat="45.93067" lon="4.61872">
        <ele>358</ele>
        <time>2016-09-29T06:51:28Z</time>
      </trkpt>
      <trkpt lat="45.93068" lon="4.61871">
        <ele>358</ele>
        <time>2016-09-29T06:51:29Z</time>
      </trkpt>
      <trkpt lat="45.93074" lon="4.61864">
        <ele>358</ele>
        <time>2016-09-29T06:51:35Z</time>
      </trkpt>
      <trkpt lat="45.93075" lon="4.61863">
        <ele>358</ele>
        <time>2016-09-29T06:51:36Z</time>
      </trkpt>
      <trkpt lat="45.93081" lon="4.61855">
        <ele>358</ele>
        <time>2016-09-29T06:51:42Z</time>
      </trkpt>
      <trkpt lat="45.93082" lon="4.61854">
        <ele>357</ele>
        <time>2016-09-29T06:51:43Z</time>
      </trkpt>
      <trkpt lat="45.93087" lon="4.61844">
        <ele>353</ele>
        <time>2016-09-29T06:51:49Z</time>
      </trkpt>
      <trkpt lat="45.93088" lon="4.61842">
        <ele>353</ele>
        <time>2016-09-29T06:51:50Z</time>
      </trkpt>
      <trkpt lat="45.93094" lon="4.61832">
        <ele>355</ele>
        <time>2016-09-29T06:51:55Z</time>
      </trkpt>
      <trkpt lat="45.93094" lon="4.6183">
        <ele>355</ele>
        <time>2016-09-29T06:51:56Z</time>
      </trkpt>
      <trkpt lat="45.93101" lon="4.61823">
        <ele>355</ele>
        <time>2016-09-29T06:52:02Z</time>
      </trkpt>
      <trkpt lat="45.93101" lon="4.61821">
        <ele>355</ele>
        <time>2016-09-29T06:52:03Z</time>
      </trkpt>
      <trkpt lat="45.93108" lon="4.61813">
        <ele>355</ele>
        <time>2016-09-29T06:52:10Z</time>
      </trkpt>
      <trkpt lat="45.93109" lon="4.61812">
        <ele>355</ele>
        <time>2016-09-29T06:52:11Z</time>
      </trkpt>
      <trkpt lat="45.93117" lon="4.61806">
        <ele>355</ele>
        <time>2016-09-29T06:52:18Z</time>
      </trkpt>
      <trkpt lat="45.93118" lon="4.61805">
        <ele>355</ele>
        <time>2016-09-29T06:52:19Z</time>
      </trkpt>
      <trkpt lat="45.93125" lon="4.61799">
        <ele>355</ele>
        <time>2016-09-29T06:52:25Z</time>
      </trkpt>
      <trkpt lat="45.93127" lon="4.61798">
        <ele>355</ele>
        <time>2016-09-29T06:52:26Z</time>
      </trkpt>
      <trkpt lat="45.93135" lon="4.61795">
        <ele>354</ele>
        <time>2016-09-29T06:52:32Z</time>
      </trkpt>
      <trkpt lat="45.93137" lon="4.61795">
        <ele>354</ele>
        <time>2016-09-29T06:52:33Z</time>
      </trkpt>
      <trkpt lat="45.93145" lon="4.61796">
        <ele>354</ele>
        <time>2016-09-29T06:52:39Z</time>
      </trkpt>
      <trkpt lat="45.93146" lon="4.61796">
        <ele>354</ele>
        <time>2016-09-29T06:52:40Z</time>
      </trkpt>
      <trkpt lat="45.93155" lon="4.61796">
        <ele>354</ele>
        <time>2016-09-29T06:52:49Z</time>
      </trkpt>
      <trkpt lat="45.93156" lon="4.61796">
        <ele>354</ele>
        <time>2016-09-29T06:52:50Z</time>
      </trkpt>
      <trkpt lat="45.93165" lon="4.61796">
        <ele>353</ele>
        <time>2016-09-29T06:52:57Z</time>
      </trkpt>
      <trkpt lat="45.93166" lon="4.61797">
        <ele>353</ele>
        <time>2016-09-29T06:52:58Z</time>
      </trkpt>
      <trkpt lat="45.93174" lon="4.61797">
        <ele>350</ele>
        <time>2016-09-29T06:53:04Z</time>
      </trkpt>
      <trkpt lat="45.93175" lon="4.61797">
        <ele>350</ele>
        <time>2016-09-29T06:53:05Z</time>
      </trkpt>
      <trkpt lat="45.93183" lon="4.61796">
        <ele>350</ele>
        <time>2016-09-29T06:53:11Z</time>
      </trkpt>
      <trkpt lat="45.93184" lon="4.61795">
        <ele>350</ele>
        <time>2016-09-29T06:53:12Z</time>
      </trkpt>
      <trkpt lat="45.93192" lon="4.61795">
        <ele>350</ele>
        <time>2016-09-29T06:53:18Z</time>
      </trkpt>
      <trkpt lat="45.93194" lon="4.61795">
        <ele>350</ele>
        <time>2016-09-29T06:53:19Z</time>
      </trkpt>
      <trkpt lat="45.93202" lon="4.61793">
        <ele>350</ele>
        <time>2016-09-29T06:53:26Z</time>
      </trkpt>
      <trkpt lat="45.93203" lon="4.61793">
        <ele>350</ele>
        <time>2016-09-29T06:53:27Z</time>
      </trkpt>
      <trkpt lat="45.93212" lon="4.61792">
        <ele>350</ele>
        <time>2016-09-29T06:53:34Z</time>
      </trkpt>
      <trkpt lat="45.93213" lon="4.61792">
        <ele>350</ele>
        <time>2016-09-29T06:53:35Z</time>
      </trkpt>
      <trkpt lat="45.93221" lon="4.61794">
        <ele>350</ele>
        <time>2016-09-29T06:53:42Z</time>
      </trkpt>
      <trkpt lat="45.93222" lon="4.61795">
        <ele>350</ele>
        <time>2016-09-29T06:53:43Z</time>
      </trkpt>
      <trkpt lat="45.9323" lon="4.61799">
        <ele>350</ele>
        <time>2016-09-29T06:53:49Z</time>
      </trkpt>
      <trkpt lat="45.93232" lon="4.61799">
        <ele>350</ele>
        <time>2016-09-29T06:53:50Z</time>
      </trkpt>
      <trkpt lat="45.9324" lon="4.61801">
        <ele>349</ele>
        <time>2016-09-29T06:53:56Z</time>
      </trkpt>
      <trkpt lat="45.93242" lon="4.61801">
        <ele>349</ele>
        <time>2016-09-29T06:53:57Z</time>
      </trkpt>
      <trkpt lat="45.93251" lon="4.61803">
        <ele>351</ele>
        <time>2016-09-29T06:54:03Z</time>
      </trkpt>
      <trkpt lat="45.93252" lon="4.61803">
        <ele>351</ele>
        <time>2016-09-29T06:54:04Z</time>
      </trkpt>
      <trkpt lat="45.93259" lon="4.61806">
        <ele>351</ele>
        <time>2016-09-29T06:54:09Z</time>
      </trkpt>
      <trkpt lat="45.93261" lon="4.61806">
        <ele>351</ele>
        <time>2016-09-29T06:54:10Z</time>
      </trkpt>
      <trkpt lat="45.93269" lon="4.61808">
        <ele>351</ele>
        <time>2016-09-29T06:54:16Z</time>
      </trkpt>
      <trkpt lat="45.93271" lon="4.61808">
        <ele>351</ele>
        <time>2016-09-29T06:54:17Z</time>
      </trkpt>
      <trkpt lat="45.93278" lon="4.61811">
        <ele>352</ele>
        <time>2016-09-29T06:54:23Z</time>
      </trkpt>
      <trkpt lat="45.93279" lon="4.6181">
        <ele>352</ele>
        <time>2016-09-29T06:54:24Z</time>
      </trkpt>
      <trkpt lat="45.93288" lon="4.61807">
        <ele>352</ele>
        <time>2016-09-29T06:54:31Z</time>
      </trkpt>
      <trkpt lat="45.93289" lon="4.61806">
        <ele>352</ele>
        <time>2016-09-29T06:54:32Z</time>
      </trkpt>
      <trkpt lat="45.93295" lon="4.618">
        <ele>353</ele>
        <time>2016-09-29T06:54:39Z</time>
      </trkpt>
      <trkpt lat="45.93296" lon="4.61798">
        <ele>353</ele>
        <time>2016-09-29T06:54:40Z</time>
      </trkpt>
      <trkpt lat="45.93303" lon="4.61791">
        <ele>353</ele>
        <time>2016-09-29T06:54:47Z</time>
      </trkpt>
      <trkpt lat="45.93304" lon="4.6179">
        <ele>353</ele>
        <time>2016-09-29T06:54:48Z</time>
      </trkpt>
      <trkpt lat="45.93311" lon="4.61783">
        <ele>354</ele>
        <time>2016-09-29T06:54:55Z</time>
      </trkpt>
      <trkpt lat="45.93311" lon="4.61782">
        <ele>354</ele>
        <time>2016-09-29T06:54:56Z</time>
      </trkpt>
      <trkpt lat="45.93317" lon="4.61772">
        <ele>355</ele>
        <time>2016-09-29T06:55:04Z</time>
      </trkpt>
      <trkpt lat="45.93318" lon="4.61772">
        <ele>355</ele>
        <time>2016-09-29T06:55:05Z</time>
      </trkpt>
      <trkpt lat="45.93327" lon="4.61773">
        <ele>355</ele>
        <time>2016-09-29T06:55:13Z</time>
      </trkpt>
      <trkpt lat="45.93328" lon="4.61774">
        <ele>355</ele>
        <time>2016-09-29T06:55:14Z</time>
      </trkpt>
      <trkpt lat="45.93333" lon="4.61784">
        <ele>354</ele>
        <time>2016-09-29T06:55:22Z</time>
      </trkpt>
      <trkpt lat="45.93334" lon="4.61785">
        <ele>361</ele>
        <time>2016-09-29T06:55:23Z</time>
      </trkpt>
      <trkpt lat="45.93339" lon="4.61794">
        <ele>361</ele>
        <time>2016-09-29T06:55:31Z</time>
      </trkpt>
      <trkpt lat="45.9334" lon="4.61794">
        <ele>361</ele>
        <time>2016-09-29T06:55:32Z</time>
      </trkpt>
      <trkpt lat="45.93348" lon="4.61799">
        <ele>362</ele>
        <time>2016-09-29T06:55:42Z</time>
      </trkpt>
      <trkpt lat="45.93349" lon="4.61799">
        <ele>362</ele>
        <time>2016-09-29T06:55:43Z</time>
      </trkpt>
      <trkpt lat="45.93357" lon="4.61803">
        <ele>362</ele>
        <time>2016-09-29T06:55:52Z</time>
      </trkpt>
      <trkpt lat="45.93358" lon="4.61804">
        <ele>362</ele>
        <time>2016-09-29T06:55:53Z</time>
      </trkpt>
      <trkpt lat="45.93366" lon="4.61808">
        <ele>363</ele>
        <time>2016-09-29T06:56:01Z</time>
      </trkpt>
      <trkpt lat="45.93367" lon="4.61809">
        <ele>363</ele>
        <time>2016-09-29T06:56:02Z</time>
      </trkpt>
      <trkpt lat="45.93376" lon="4.6181">
        <ele>364</ele>
        <time>2016-09-29T06:56:12Z</time>
      </trkpt>
      <trkpt lat="45.93377" lon="4.6181">
        <ele>364</ele>
        <time>2016-09-29T06:56:13Z</time>
      </trkpt>
      <trkpt lat="45.93385" lon="4.61811">
        <ele>365</ele>
        <time>2016-09-29T06:56:23Z</time>
      </trkpt>
      <trkpt lat="45.93386" lon="4.61812">
        <ele>365</ele>
        <time>2016-09-29T06:56:24Z</time>
      </trkpt>
      <trkpt lat="45.93395" lon="4.61813">
        <ele>366</ele>
        <time>2016-09-29T06:56:33Z</time>
      </trkpt>
      <trkpt lat="45.93396" lon="4.61814">
        <ele>366</ele>
        <time>2016-09-29T06:56:34Z</time>
      </trkpt>
      <trkpt lat="45.93404" lon="4.61817">
        <ele>367</ele>
        <time>2016-09-29T06:56:42Z</time>
      </trkpt>
      <trkpt lat="45.93405" lon="4.61817">
        <ele>367</ele>
        <time>2016-09-29T06:56:43Z</time>
      </trkpt>
      <trkpt lat="45.93413" lon="4.61819">
        <ele>368</ele>
        <time>2016-09-29T06:56:52Z</time>
      </trkpt>
      <trkpt lat="45.93414" lon="4.61819">
        <ele>368</ele>
        <time>2016-09-29T06:56:53Z</time>
      </trkpt>
      <trkpt lat="45.93422" lon="4.61819">
        <ele>375</ele>
        <time>2016-09-29T06:57:02Z</time>
      </trkpt>
      <trkpt lat="45.93423" lon="4.61819">
        <ele>375</ele>
        <time>2016-09-29T06:57:03Z</time>
      </trkpt>
      <trkpt lat="45.93431" lon="4.61819">
        <ele>376</ele>
        <time>2016-09-29T06:57:12Z</time>
      </trkpt>
      <trkpt lat="45.93432" lon="4.61819">
        <ele>376</ele>
        <time>2016-09-29T06:57:13Z</time>
      </trkpt>
      <trkpt lat="45.9344" lon="4.6182">
        <ele>377</ele>
        <time>2016-09-29T06:57:22Z</time>
      </trkpt>
      <trkpt lat="45.93441" lon="4.6182">
        <ele>378</ele>
        <time>2016-09-29T06:57:23Z</time>
      </trkpt>
      <trkpt lat="45.9345" lon="4.61821">
        <ele>379</ele>
        <time>2016-09-29T06:57:32Z</time>
      </trkpt>
      <trkpt lat="45.93451" lon="4.61821">
        <ele>379</ele>
        <time>2016-09-29T06:57:33Z</time>
      </trkpt>
      <trkpt lat="45.93459" lon="4.61825">
        <ele>380</ele>
        <time>2016-09-29T06:57:41Z</time>
      </trkpt>
      <trkpt lat="45.9346" lon="4.61825">
        <ele>380</ele>
        <time>2016-09-29T06:57:42Z</time>
      </trkpt>
      <trkpt lat="45.93467" lon="4.6183">
        <ele>381</ele>
        <time>2016-09-29T06:57:51Z</time>
      </trkpt>
      <trkpt lat="45.93468" lon="4.61831">
        <ele>381</ele>
        <time>2016-09-29T06:57:52Z</time>
      </trkpt>
      <trkpt lat="45.93476" lon="4.61833">
        <ele>382</ele>
        <time>2016-09-29T06:58:03Z</time>
      </trkpt>
      <trkpt lat="45.93477" lon="4.61832">
        <ele>383</ele>
        <time>2016-09-29T06:58:04Z</time>
      </trkpt>
      <trkpt lat="45.93485" lon="4.61834">
        <ele>383</ele>
        <time>2016-09-29T06:58:12Z</time>
      </trkpt>
      <trkpt lat="45.93486" lon="4.61835">
        <ele>383</ele>
        <time>2016-09-29T06:58:13Z</time>
      </trkpt>
      <trkpt lat="45.93494" lon="4.61839">
        <ele>385</ele>
        <time>2016-09-29T06:58:22Z</time>
      </trkpt>
      <trkpt lat="45.93495" lon="4.6184">
        <ele>385</ele>
        <time>2016-09-29T06:58:23Z</time>
      </trkpt>
      <trkpt lat="45.93502" lon="4.61845">
        <ele>389</ele>
        <time>2016-09-29T06:58:33Z</time>
      </trkpt>
      <trkpt lat="45.93503" lon="4.61846">
        <ele>389</ele>
        <time>2016-09-29T06:58:34Z</time>
      </trkpt>
      <trkpt lat="45.93508" lon="4.61854">
        <ele>390</ele>
        <time>2016-09-29T06:58:44Z</time>
      </trkpt>
      <trkpt lat="45.93509" lon="4.61855">
        <ele>390</ele>
        <time>2016-09-29T06:58:45Z</time>
      </trkpt>
      <trkpt lat="45.93514" lon="4.61865">
        <ele>390</ele>
        <time>2016-09-29T06:58:57Z</time>
      </trkpt>
      <trkpt lat="45.93515" lon="4.61866">
        <ele>390</ele>
        <time>2016-09-29T06:58:58Z</time>
      </trkpt>
      <trkpt lat="45.93522" lon="4.61871">
        <ele>391</ele>
        <time>2016-09-29T06:59:05Z</time>
      </trkpt>
      <trkpt lat="45.93523" lon="4.61872">
        <ele>391</ele>
        <time>2016-09-29T06:59:06Z</time>
      </trkpt>
      <trkpt lat="45.93532" lon="4.61874">
        <ele>391</ele>
        <time>2016-09-29T06:59:14Z</time>
      </trkpt>
      <trkpt lat="45.93533" lon="4.61875">
        <ele>391</ele>
        <time>2016-09-29T06:59:15Z</time>
      </trkpt>
      <trkpt lat="45.93541" lon="4.61875">
        <ele>392</ele>
        <time>2016-09-29T06:59:24Z</time>
      </trkpt>
      <trkpt lat="45.93542" lon="4.61875">
        <ele>392</ele>
        <time>2016-09-29T06:59:25Z</time>
      </trkpt>
      <trkpt lat="45.9355" lon="4.61874">
        <ele>393</ele>
        <time>2016-09-29T06:59:35Z</time>
      </trkpt>
      <trkpt lat="45.93551" lon="4.61873">
        <ele>393</ele>
        <time>2016-09-29T06:59:36Z</time>
      </trkpt>
      <trkpt lat="45.93559" lon="4.6187">
        <ele>393</ele>
        <time>2016-09-29T06:59:46Z</time>
      </trkpt>
      <trkpt lat="45.9356" lon="4.61869">
        <ele>393</ele>
        <time>2016-09-29T06:59:47Z</time>
      </trkpt>
      <trkpt lat="45.93568" lon="4.61866">
        <ele>394</ele>
        <time>2016-09-29T06:59:58Z</time>
      </trkpt>
      <trkpt lat="45.93569" lon="4.61866">
        <ele>394</ele>
        <time>2016-09-29T06:59:59Z</time>
      </trkpt>
      <trkpt lat="45.93576" lon="4.61861">
        <ele>395</ele>
        <time>2016-09-29T07:00:08Z</time>
      </trkpt>
      <trkpt lat="45.93577" lon="4.6186">
        <ele>395</ele>
        <time>2016-09-29T07:00:09Z</time>
      </trkpt>
      <trkpt lat="45.93585" lon="4.61856">
        <ele>401</ele>
        <time>2016-09-29T07:00:18Z</time>
      </trkpt>
      <trkpt lat="45.93586" lon="4.61855">
        <ele>401</ele>
        <time>2016-09-29T07:00:19Z</time>
      </trkpt>
      <trkpt lat="45.93594" lon="4.6185">
        <ele>402</ele>
        <time>2016-09-29T07:00:27Z</time>
      </trkpt>
      <trkpt lat="45.93595" lon="4.6185">
        <ele>402</ele>
        <time>2016-09-29T07:00:28Z</time>
      </trkpt>
      <trkpt lat="45.93602" lon="4.61845">
        <ele>402</ele>
        <time>2016-09-29T07:00:36Z</time>
      </trkpt>
      <trkpt lat="45.93604" lon="4.61845">
        <ele>402</ele>
        <time>2016-09-29T07:00:37Z</time>
      </trkpt>
      <trkpt lat="45.93612" lon="4.61843">
        <ele>403</ele>
        <time>2016-09-29T07:00:45Z</time>
      </trkpt>
      <trkpt lat="45.93613" lon="4.61843">
        <ele>403</ele>
        <time>2016-09-29T07:00:46Z</time>
      </trkpt>
      <trkpt lat="45.93621" lon="4.61843">
        <ele>404</ele>
        <time>2016-09-29T07:00:54Z</time>
      </trkpt>
      <trkpt lat="45.93622" lon="4.61843">
        <ele>404</ele>
        <time>2016-09-29T07:00:55Z</time>
      </trkpt>
      <trkpt lat="45.9363" lon="4.61844">
        <ele>405</ele>
        <time>2016-09-29T07:01:03Z</time>
      </trkpt>
      <trkpt lat="45.93631" lon="4.61844">
        <ele>405</ele>
        <time>2016-09-29T07:01:04Z</time>
      </trkpt>
      <trkpt lat="45.9364" lon="4.61844">
        <ele>406</ele>
        <time>2016-09-29T07:01:11Z</time>
      </trkpt>
      <trkpt lat="45.93641" lon="4.61844">
        <ele>406</ele>
        <time>2016-09-29T07:01:12Z</time>
      </trkpt>
      <trkpt lat="45.93649" lon="4.61842">
        <ele>407</ele>
        <time>2016-09-29T07:01:20Z</time>
      </trkpt>
      <trkpt lat="45.9365" lon="4.61842">
        <ele>408</ele>
        <time>2016-09-29T07:01:21Z</time>
      </trkpt>
      <trkpt lat="45.93658" lon="4.61839">
        <ele>409</ele>
        <time>2016-09-29T07:01:29Z</time>
      </trkpt>
      <trkpt lat="45.9366" lon="4.61839">
        <ele>409</ele>
        <time>2016-09-29T07:01:30Z</time>
      </trkpt>
      <trkpt lat="45.93668" lon="4.61836">
        <ele>412</ele>
        <time>2016-09-29T07:01:38Z</time>
      </trkpt>
      <trkpt lat="45.93669" lon="4.61835">
        <ele>412</ele>
        <time>2016-09-29T07:01:39Z</time>
      </trkpt>
      <trkpt lat="45.93677" lon="4.61832">
        <ele>414</ele>
        <time>2016-09-29T07:01:46Z</time>
      </trkpt>
      <trkpt lat="45.93678" lon="4.61831">
        <ele>414</ele>
        <time>2016-09-29T07:01:47Z</time>
      </trkpt>
      <trkpt lat="45.93687" lon="4.6183">
        <ele>415</ele>
        <time>2016-09-29T07:01:55Z</time>
      </trkpt>
      <trkpt lat="45.93688" lon="4.6183">
        <ele>415</ele>
        <time>2016-09-29T07:01:56Z</time>
      </trkpt>
      <trkpt lat="45.93696" lon="4.61828">
        <ele>415</ele>
        <time>2016-09-29T07:02:04Z</time>
      </trkpt>
      <trkpt lat="45.93697" lon="4.61828">
        <ele>416</ele>
        <time>2016-09-29T07:02:05Z</time>
      </trkpt>
      <trkpt lat="45.93706" lon="4.61827">
        <ele>416</ele>
        <time>2016-09-29T07:02:13Z</time>
      </trkpt>
      <trkpt lat="45.93707" lon="4.61827">
        <ele>416</ele>
        <time>2016-09-29T07:02:14Z</time>
      </trkpt>
      <trkpt lat="45.93716" lon="4.61825">
        <ele>417</ele>
        <time>2016-09-29T07:02:22Z</time>
      </trkpt>
      <trkpt lat="45.93717" lon="4.61825">
        <ele>417</ele>
        <time>2016-09-29T07:02:23Z</time>
      </trkpt>
      <trkpt lat="45.93725" lon="4.61823">
        <ele>417</ele>
        <time>2016-09-29T07:02:32Z</time>
      </trkpt>
      <trkpt lat="45.93726" lon="4.61822">
        <ele>417</ele>
        <time>2016-09-29T07:02:33Z</time>
      </trkpt>
      <trkpt lat="45.93735" lon="4.6182">
        <ele>418</ele>
        <time>2016-09-29T07:02:43Z</time>
      </trkpt>
      <trkpt lat="45.93735" lon="4.6182">
        <ele>418</ele>
        <time>2016-09-29T07:02:44Z</time>
      </trkpt>
      <trkpt lat="45.93744" lon="4.61821">
        <ele>418</ele>
        <time>2016-09-29T07:02:52Z</time>
      </trkpt>
      <trkpt lat="45.93745" lon="4.61821">
        <ele>418</ele>
        <time>2016-09-29T07:02:53Z</time>
      </trkpt>
      <trkpt lat="45.93753" lon="4.61821">
        <ele>422</ele>
        <time>2016-09-29T07:03:00Z</time>
      </trkpt>
      <trkpt lat="45.93754" lon="4.61821">
        <ele>422</ele>
        <time>2016-09-29T07:03:01Z</time>
      </trkpt>
      <trkpt lat="45.93762" lon="4.61822">
        <ele>423</ele>
        <time>2016-09-29T07:03:09Z</time>
      </trkpt>
      <trkpt lat="45.93764" lon="4.61822">
        <ele>423</ele>
        <time>2016-09-29T07:03:10Z</time>
      </trkpt>
      <trkpt lat="45.93772" lon="4.61823">
        <ele>424</ele>
        <time>2016-09-29T07:03:19Z</time>
      </trkpt>
      <trkpt lat="45.93773" lon="4.61823">
        <ele>424</ele>
        <time>2016-09-29T07:03:20Z</time>
      </trkpt>
      <trkpt lat="45.93781" lon="4.61823">
        <ele>425</ele>
        <time>2016-09-29T07:03:29Z</time>
      </trkpt>
      <trkpt lat="45.93782" lon="4.61823">
        <ele>425</ele>
        <time>2016-09-29T07:03:30Z</time>
      </trkpt>
      <trkpt lat="45.93791" lon="4.61822">
        <ele>426</ele>
        <time>2016-09-29T07:03:40Z</time>
      </trkpt>
      <trkpt lat="45.93792" lon="4.61822">
        <ele>426</ele>
        <time>2016-09-29T07:03:41Z</time>
      </trkpt>
      <trkpt lat="45.93801" lon="4.6182">
        <ele>427</ele>
        <time>2016-09-29T07:03:50Z</time>
      </trkpt>
      <trkpt lat="45.93802" lon="4.6182">
        <ele>427</ele>
        <time>2016-09-29T07:03:51Z</time>
      </trkpt>
      <trkpt lat="45.9381" lon="4.61817">
        <ele>428</ele>
        <time>2016-09-29T07:03:59Z</time>
      </trkpt>
      <trkpt lat="45.93811" lon="4.61816">
        <ele>428</ele>
        <time>2016-09-29T07:04:00Z</time>
      </trkpt>
      <trkpt lat="45.93819" lon="4.61814">
        <ele>429</ele>
        <time>2016-09-29T07:04:08Z</time>
      </trkpt>
      <trkpt lat="45.9382" lon="4.61814">
        <ele>429</ele>
        <time>2016-09-29T07:04:09Z</time>
      </trkpt>
      <trkpt lat="45.93829" lon="4.61811">
        <ele>429</ele>
        <time>2016-09-29T07:04:17Z</time>
      </trkpt>
      <trkpt lat="45.9383" lon="4.61811">
        <ele>429</ele>
        <time>2016-09-29T07:04:18Z</time>
      </trkpt>
      <trkpt lat="45.93838" lon="4.61807">
        <ele>436</ele>
        <time>2016-09-29T07:04:26Z</time>
      </trkpt>
      <trkpt lat="45.93839" lon="4.61807">
        <ele>436</ele>
        <time>2016-09-29T07:04:27Z</time>
      </trkpt>
      <trkpt lat="45.93848" lon="4.61803">
        <ele>437</ele>
        <time>2016-09-29T07:04:36Z</time>
      </trkpt>
      <trkpt lat="45.93849" lon="4.61803">
        <ele>437</ele>
        <time>2016-09-29T07:04:37Z</time>
      </trkpt>
      <trkpt lat="45.93857" lon="4.61799">
        <ele>438</ele>
        <time>2016-09-29T07:04:45Z</time>
      </trkpt>
      <trkpt lat="45.93858" lon="4.61799">
        <ele>438</ele>
        <time>2016-09-29T07:04:46Z</time>
      </trkpt>
      <trkpt lat="45.93866" lon="4.61794">
        <ele>438</ele>
        <time>2016-09-29T07:04:54Z</time>
      </trkpt>
      <trkpt lat="45.93867" lon="4.61794">
        <ele>439</ele>
        <time>2016-09-29T07:04:55Z</time>
      </trkpt>
      <trkpt lat="45.93874" lon="4.61788">
        <ele>439</ele>
        <time>2016-09-29T07:05:04Z</time>
      </trkpt>
      <trkpt lat="45.93875" lon="4.61787">
        <ele>439</ele>
        <time>2016-09-29T07:05:05Z</time>
      </trkpt>
      <trkpt lat="45.93884" lon="4.61789">
        <ele>440</ele>
        <time>2016-09-29T07:05:16Z</time>
      </trkpt>
      <trkpt lat="45.93884" lon="4.61789">
        <ele>440</ele>
        <time>2016-09-29T07:05:17Z</time>
      </trkpt>
      <trkpt lat="45.93891" lon="4.61795">
        <ele>440</ele>
        <time>2016-09-29T07:07:14Z</time>
      </trkpt>
      <trkpt lat="45.93892" lon="4.61796">
        <ele>440</ele>
        <time>2016-09-29T07:07:15Z</time>
      </trkpt>
      <trkpt lat="45.93899" lon="4.61803">
        <ele>441</ele>
        <time>2016-09-29T07:07:22Z</time>
      </trkpt>
      <trkpt lat="45.93899" lon="4.61804">
        <ele>441</ele>
        <time>2016-09-29T07:07:23Z</time>
      </trkpt>
      <trkpt lat="45.93906" lon="4.61812">
        <ele>441</ele>
        <time>2016-09-29T07:07:32Z</time>
      </trkpt>
      <trkpt lat="45.93906" lon="4.61813">
        <ele>441</ele>
        <time>2016-09-29T07:07:33Z</time>
      </trkpt>
      <trkpt lat="45.93907" lon="4.618">
        <ele>441</ele>
        <time>2016-09-29T07:07:44Z</time>
      </trkpt>
      <trkpt lat="45.93907" lon="4.61799">
        <ele>441</ele>
        <time>2016-09-29T07:07:45Z</time>
      </trkpt>
      <trkpt lat="45.9391" lon="4.61788">
        <ele>442</ele>
        <time>2016-09-29T07:07:53Z</time>
      </trkpt>
      <trkpt lat="45.93911" lon="4.61786">
        <ele>442</ele>
        <time>2016-09-29T07:07:54Z</time>
      </trkpt>
      <trkpt lat="45.93913" lon="4.61774">
        <ele>443</ele>
        <time>2016-09-29T07:08:03Z</time>
      </trkpt>
      <trkpt lat="45.93913" lon="4.61773">
        <ele>443</ele>
        <time>2016-09-29T07:08:04Z</time>
      </trkpt>
      <trkpt lat="45.93916" lon="4.61761">
        <ele>446</ele>
        <time>2016-09-29T07:08:12Z</time>
      </trkpt>
      <trkpt lat="45.93916" lon="4.6176">
        <ele>446</ele>
        <time>2016-09-29T07:08:13Z</time>
      </trkpt>
      <trkpt lat="45.93919" lon="4.61748">
        <ele>450</ele>
        <time>2016-09-29T07:08:21Z</time>
      </trkpt>
      <trkpt lat="45.93919" lon="4.61747">
        <ele>450</ele>
        <time>2016-09-29T07:08:22Z</time>
      </trkpt>
      <trkpt lat="45.93917" lon="4.61735">
        <ele>452</ele>
        <time>2016-09-29T07:08:31Z</time>
      </trkpt>
      <trkpt lat="45.93918" lon="4.61733">
        <ele>452</ele>
        <time>2016-09-29T07:08:32Z</time>
      </trkpt>
      <trkpt lat="45.9392" lon="4.61721">
        <ele>453</ele>
        <time>2016-09-29T07:08:40Z</time>
      </trkpt>
      <trkpt lat="45.9392" lon="4.6172">
        <ele>453</ele>
        <time>2016-09-29T07:08:41Z</time>
      </trkpt>
      <trkpt lat="45.93923" lon="4.61708">
        <ele>454</ele>
        <time>2016-09-29T07:08:49Z</time>
      </trkpt>
      <trkpt lat="45.93923" lon="4.61707">
        <ele>454</ele>
        <time>2016-09-29T07:08:50Z</time>
      </trkpt>
      <trkpt lat="45.93926" lon="4.61696">
        <ele>454</ele>
        <time>2016-09-29T07:08:59Z</time>
      </trkpt>
      <trkpt lat="45.93926" lon="4.61694">
        <ele>454</ele>
        <time>2016-09-29T07:09:00Z</time>
      </trkpt>
      <trkpt lat="45.9393" lon="4.61684">
        <ele>454</ele>
        <time>2016-09-29T07:09:08Z</time>
      </trkpt>
      <trkpt lat="45.93931" lon="4.61683">
        <ele>454</ele>
        <time>2016-09-29T07:09:09Z</time>
      </trkpt>
      <trkpt lat="45.93936" lon="4.61672">
        <ele>454</ele>
        <time>2016-09-29T07:09:17Z</time>
      </trkpt>
      <trkpt lat="45.93936" lon="4.61671">
        <ele>454</ele>
        <time>2016-09-29T07:09:18Z</time>
      </trkpt>
      <trkpt lat="45.93941" lon="4.6166">
        <ele>454</ele>
        <time>2016-09-29T07:09:25Z</time>
      </trkpt>
      <trkpt lat="45.93942" lon="4.61659">
        <ele>454</ele>
        <time>2016-09-29T07:09:26Z</time>
      </trkpt>
      <trkpt lat="45.93946" lon="4.61648">
        <ele>455</ele>
        <time>2016-09-29T07:09:33Z</time>
      </trkpt>
      <trkpt lat="45.93947" lon="4.61647">
        <ele>455</ele>
        <time>2016-09-29T07:09:34Z</time>
      </trkpt>
      <trkpt lat="45.93952" lon="4.61638">
        <ele>455</ele>
        <time>2016-09-29T07:09:41Z</time>
      </trkpt>
      <trkpt lat="45.93953" lon="4.61637">
        <ele>455</ele>
        <time>2016-09-29T07:09:42Z</time>
      </trkpt>
      <trkpt lat="45.93961" lon="4.61633">
        <ele>456</ele>
        <time>2016-09-29T07:09:51Z</time>
      </trkpt>
      <trkpt lat="45.93962" lon="4.61633">
        <ele>456</ele>
        <time>2016-09-29T07:09:52Z</time>
      </trkpt>
      <trkpt lat="45.93969" lon="4.61642">
        <ele>457</ele>
        <time>2016-09-29T07:09:59Z</time>
      </trkpt>
      <trkpt lat="45.9397" lon="4.61642">
        <ele>457</ele>
        <time>2016-09-29T07:10:00Z</time>
      </trkpt>
      <trkpt lat="45.93979" lon="4.61646">
        <ele>458</ele>
        <time>2016-09-29T07:10:38Z</time>
      </trkpt>
      <trkpt lat="45.93979" lon="4.61647">
        <ele>458</ele>
        <time>2016-09-29T07:10:39Z</time>
      </trkpt>
      <trkpt lat="45.93985" lon="4.61654">
        <ele>459</ele>
        <time>2016-09-29T07:10:46Z</time>
      </trkpt>
      <trkpt lat="45.93986" lon="4.61655">
        <ele>460</ele>
        <time>2016-09-29T07:10:47Z</time>
      </trkpt>
      <trkpt lat="45.93992" lon="4.61665">
        <ele>462</ele>
        <time>2016-09-29T07:11:05Z</time>
      </trkpt>
      <trkpt lat="45.93993" lon="4.61665">
        <ele>462</ele>
        <time>2016-09-29T07:11:06Z</time>
      </trkpt>
      <trkpt lat="45.93998" lon="4.61673">
        <ele>462</ele>
        <time>2016-09-29T07:11:13Z</time>
      </trkpt>
      <trkpt lat="45.93999" lon="4.61674">
        <ele>462</ele>
        <time>2016-09-29T07:11:14Z</time>
      </trkpt>
      <trkpt lat="45.94007" lon="4.61675">
        <ele>465</ele>
        <time>2016-09-29T07:11:29Z</time>
      </trkpt>
      <trkpt lat="45.94008" lon="4.61675">
        <ele>465</ele>
        <time>2016-09-29T07:11:30Z</time>
      </trkpt>
      <trkpt lat="45.94015" lon="4.61683">
        <ele>465</ele>
        <time>2016-09-29T07:11:39Z</time>
      </trkpt>
      <trkpt lat="45.94015" lon="4.61684">
        <ele>465</ele>
        <time>2016-09-29T07:11:40Z</time>
      </trkpt>
      <trkpt lat="45.94023" lon="4.6168">
        <ele>466</ele>
        <time>2016-09-29T07:11:50Z</time>
      </trkpt>
      <trkpt lat="45.94024" lon="4.61679">
        <ele>466</ele>
        <time>2016-09-29T07:11:51Z</time>
      </trkpt>
      <trkpt lat="45.94029" lon="4.6167">
        <ele>466</ele>
        <time>2016-09-29T07:11:59Z</time>
      </trkpt>
      <trkpt lat="45.9403" lon="4.61669">
        <ele>466</ele>
        <time>2016-09-29T07:12:00Z</time>
      </trkpt>
      <trkpt lat="45.94037" lon="4.61663">
        <ele>467</ele>
        <time>2016-09-29T07:12:08Z</time>
      </trkpt>
      <trkpt lat="45.94038" lon="4.61662">
        <ele>467</ele>
        <time>2016-09-29T07:12:09Z</time>
      </trkpt>
      <trkpt lat="45.94046" lon="4.61659">
        <ele>468</ele>
        <time>2016-09-29T07:12:17Z</time>
      </trkpt>
      <trkpt lat="45.94047" lon="4.61658">
        <ele>468</ele>
        <time>2016-09-29T07:12:18Z</time>
      </trkpt>
      <trkpt lat="45.94056" lon="4.61655">
        <ele>468</ele>
        <time>2016-09-29T07:12:26Z</time>
      </trkpt>
      <trkpt lat="45.94057" lon="4.61655">
        <ele>469</ele>
        <time>2016-09-29T07:12:27Z</time>
      </trkpt>
      <trkpt lat="45.94065" lon="4.61657">
        <ele>469</ele>
        <time>2016-09-29T07:12:34Z</time>
      </trkpt>
      <trkpt lat="45.94066" lon="4.61657">
        <ele>470</ele>
        <time>2016-09-29T07:12:35Z</time>
      </trkpt>
      <trkpt lat="45.94074" lon="4.61654">
        <ele>470</ele>
        <time>2016-09-29T07:12:42Z</time>
      </trkpt>
      <trkpt lat="45.94075" lon="4.61653">
        <ele>470</ele>
        <time>2016-09-29T07:12:43Z</time>
      </trkpt>
      <trkpt lat="45.94082" lon="4.61646">
        <ele>470</ele>
        <time>2016-09-29T07:12:51Z</time>
      </trkpt>
      <trkpt lat="45.94083" lon="4.61645">
        <ele>470</ele>
        <time>2016-09-29T07:12:52Z</time>
      </trkpt>
      <trkpt lat="45.9409" lon="4.61639">
        <ele>477</ele>
        <time>2016-09-29T07:13:00Z</time>
      </trkpt>
      <trkpt lat="45.94091" lon="4.61638">
        <ele>477</ele>
        <time>2016-09-29T07:13:01Z</time>
      </trkpt>
      <trkpt lat="45.941" lon="4.61636">
        <ele>477</ele>
        <time>2016-09-29T07:13:10Z</time>
      </trkpt>
      <trkpt lat="45.94101" lon="4.61635">
        <ele>478</ele>
        <time>2016-09-29T07:13:11Z</time>
      </trkpt>
      <trkpt lat="45.94109" lon="4.61632">
        <ele>478</ele>
        <time>2016-09-29T07:13:40Z</time>
      </trkpt>
      <trkpt lat="45.9411" lon="4.61631">
        <ele>478</ele>
        <time>2016-09-29T07:13:41Z</time>
      </trkpt>
      <trkpt lat="45.94118" lon="4.61629">
        <ele>479</ele>
        <time>2016-09-29T07:13:53Z</time>
      </trkpt>
      <trkpt lat="45.94119" lon="4.61628">
        <ele>479</ele>
        <time>2016-09-29T07:13:54Z</time>
      </trkpt>
      <trkpt lat="45.94127" lon="4.61624">
        <ele>480</ele>
        <time>2016-09-29T07:14:07Z</time>
      </trkpt>
      <trkpt lat="45.94128" lon="4.61624">
        <ele>480</ele>
        <time>2016-09-29T07:14:08Z</time>
      </trkpt>
      <trkpt lat="45.94136" lon="4.61623">
        <ele>481</ele>
        <time>2016-09-29T07:14:22Z</time>
      </trkpt>
      <trkpt lat="45.94137" lon="4.61623">
        <ele>481</ele>
        <time>2016-09-29T07:14:23Z</time>
      </trkpt>
      <trkpt lat="45.94146" lon="4.61624">
        <ele>482</ele>
        <time>2016-09-29T07:14:41Z</time>
      </trkpt>
      <trkpt lat="45.94147" lon="4.61624">
        <ele>482</ele>
        <time>2016-09-29T07:14:42Z</time>
      </trkpt>
      <trkpt lat="45.94155" lon="4.61626">
        <ele>482</ele>
        <time>2016-09-29T07:14:54Z</time>
      </trkpt>
      <trkpt lat="45.94156" lon="4.61626">
        <ele>482</ele>
        <time>2016-09-29T07:14:55Z</time>
      </trkpt>
      <trkpt lat="45.94163" lon="4.61619">
        <ele>483</ele>
        <time>2016-09-29T07:15:13Z</time>
      </trkpt>
      <trkpt lat="45.94163" lon="4.61618">
        <ele>483</ele>
        <time>2016-09-29T07:15:14Z</time>
      </trkpt>
      <trkpt lat="45.94171" lon="4.61614">
        <ele>491</ele>
        <time>2016-09-29T07:15:26Z</time>
      </trkpt>
      <trkpt lat="45.94171" lon="4.61613">
        <ele>491</ele>
        <time>2016-09-29T07:15:27Z</time>
      </trkpt>
      <trkpt lat="45.94179" lon="4.61609">
        <ele>492</ele>
        <time>2016-09-29T07:15:39Z</time>
      </trkpt>
      <trkpt lat="45.9418" lon="4.61608">
        <ele>492</ele>
        <time>2016-09-29T07:15:40Z</time>
      </trkpt>
      <trkpt lat="45.94188" lon="4.61606">
        <ele>492</ele>
        <time>2016-09-29T07:15:50Z</time>
      </trkpt>
      <trkpt lat="45.94189" lon="4.61605">
        <ele>493</ele>
        <time>2016-09-29T07:15:51Z</time>
      </trkpt>
      <trkpt lat="45.94195" lon="4.61596">
        <ele>493</ele>
        <time>2016-09-29T07:16:02Z</time>
      </trkpt>
      <trkpt lat="45.94196" lon="4.61596">
        <ele>493</ele>
        <time>2016-09-29T07:16:03Z</time>
      </trkpt>
      <trkpt lat="45.94202" lon="4.61587">
        <ele>494</ele>
        <time>2016-09-29T07:16:17Z</time>
      </trkpt>
      <trkpt lat="45.94202" lon="4.61586">
        <ele>494</ele>
        <time>2016-09-29T07:16:18Z</time>
      </trkpt>
      <trkpt lat="45.94204" lon="4.61574">
        <ele>503</ele>
        <time>2016-09-29T07:16:31Z</time>
      </trkpt>
      <trkpt lat="45.94204" lon="4.61573">
        <ele>503</ele>
        <time>2016-09-29T07:16:32Z</time>
      </trkpt>
      <trkpt lat="45.94205" lon="4.6156">
        <ele>504</ele>
        <time>2016-09-29T07:16:45Z</time>
      </trkpt>
      <trkpt lat="45.94205" lon="4.61559">
        <ele>504</ele>
        <time>2016-09-29T07:16:46Z</time>
      </trkpt>
      <trkpt lat="45.94209" lon="4.61548">
        <ele>505</ele>
        <time>2016-09-29T07:16:58Z</time>
      </trkpt>
      <trkpt lat="45.94209" lon="4.61547">
        <ele>505</ele>
        <time>2016-09-29T07:16:59Z</time>
      </trkpt>
      <trkpt lat="45.94212" lon="4.61535">
        <ele>506</ele>
        <time>2016-09-29T07:17:11Z</time>
      </trkpt>
      <trkpt lat="45.94212" lon="4.61534">
        <ele>506</ele>
        <time>2016-09-29T07:17:12Z</time>
      </trkpt>
      <trkpt lat="45.94213" lon="4.61522">
        <ele>507</ele>
        <time>2016-09-29T07:17:26Z</time>
      </trkpt>
      <trkpt lat="45.94213" lon="4.61521">
        <ele>507</ele>
        <time>2016-09-29T07:17:27Z</time>
      </trkpt>
      <trkpt lat="45.94215" lon="4.61508">
        <ele>508</ele>
        <time>2016-09-29T07:17:41Z</time>
      </trkpt>
      <trkpt lat="45.94215" lon="4.61507">
        <ele>508</ele>
        <time>2016-09-29T07:17:42Z</time>
      </trkpt>
      <trkpt lat="45.9422" lon="4.61497">
        <ele>513</ele>
        <time>2016-09-29T07:17:54Z</time>
      </trkpt>
      <trkpt lat="45.9422" lon="4.61496">
        <ele>513</ele>
        <time>2016-09-29T07:17:55Z</time>
      </trkpt>
      <trkpt lat="45.94228" lon="4.61491">
        <ele>514</ele>
        <time>2016-09-29T07:18:09Z</time>
      </trkpt>
      <trkpt lat="45.94229" lon="4.61491">
        <ele>515</ele>
        <time>2016-09-29T07:18:10Z</time>
      </trkpt>
      <trkpt lat="45.94237" lon="4.61494">
        <ele>517</ele>
        <time>2016-09-29T07:18:23Z</time>
      </trkpt>
      <trkpt lat="45.94237" lon="4.61494">
        <ele>517</ele>
        <time>2016-09-29T07:18:24Z</time>
      </trkpt>
      <trkpt lat="45.94246" lon="4.61492">
        <ele>519</ele>
        <time>2016-09-29T07:18:35Z</time>
      </trkpt>
      <trkpt lat="45.94246" lon="4.61492">
        <ele>519</ele>
        <time>2016-09-29T07:18:36Z</time>
      </trkpt>
      <trkpt lat="45.94251" lon="4.61481">
        <ele>525</ele>
        <time>2016-09-29T07:19:29Z</time>
      </trkpt>
      <trkpt lat="45.94251" lon="4.6148">
        <ele>525</ele>
        <time>2016-09-29T07:19:30Z</time>
      </trkpt>
      <trkpt lat="45.94255" lon="4.61469">
        <ele>526</ele>
        <time>2016-09-29T07:19:41Z</time>
      </trkpt>
      <trkpt lat="45.94255" lon="4.61468">
        <ele>526</ele>
        <time>2016-09-29T07:19:42Z</time>
      </trkpt>
      <trkpt lat="45.94262" lon="4.61459">
        <ele>527</ele>
        <time>2016-09-29T07:19:55Z</time>
      </trkpt>
      <trkpt lat="45.94262" lon="4.61458">
        <ele>527</ele>
        <time>2016-09-29T07:19:56Z</time>
      </trkpt>
      <trkpt lat="45.94264" lon="4.61447">
        <ele>527</ele>
        <time>2016-09-29T07:20:07Z</time>
      </trkpt>
      <trkpt lat="45.94265" lon="4.61445">
        <ele>527</ele>
        <time>2016-09-29T07:20:08Z</time>
      </trkpt>
      <trkpt lat="45.9427" lon="4.61436">
        <ele>528</ele>
        <time>2016-09-29T07:20:18Z</time>
      </trkpt>
      <trkpt lat="45.94271" lon="4.61435">
        <ele>528</ele>
        <time>2016-09-29T07:20:19Z</time>
      </trkpt>
      <trkpt lat="45.94277" lon="4.61425">
        <ele>528</ele>
        <time>2016-09-29T07:20:31Z</time>
      </trkpt>
      <trkpt lat="45.94277" lon="4.61425">
        <ele>528</ele>
        <time>2016-09-29T07:20:32Z</time>
      </trkpt>
      <trkpt lat="45.94284" lon="4.61417">
        <ele>529</ele>
        <time>2016-09-29T07:20:42Z</time>
      </trkpt>
      <trkpt lat="45.94284" lon="4.61416">
        <ele>531</ele>
        <time>2016-09-29T07:20:43Z</time>
      </trkpt>
      <trkpt lat="45.9429" lon="4.61407">
        <ele>532</ele>
        <time>2016-09-29T07:20:52Z</time>
      </trkpt>
      <trkpt lat="45.9429" lon="4.61406">
        <ele>532</ele>
        <time>2016-09-29T07:20:53Z</time>
      </trkpt>
      <trkpt lat="45.94297" lon="4.61399">
        <ele>533</ele>
        <time>2016-09-29T07:21:02Z</time>
      </trkpt>
      <trkpt lat="45.94298" lon="4.61398">
        <ele>533</ele>
        <time>2016-09-29T07:21:03Z</time>
      </trkpt>
      <trkpt lat="45.94303" lon="4.61389">
        <ele>533</ele>
        <time>2016-09-29T07:21:13Z</time>
      </trkpt>
      <trkpt lat="45.94304" lon="4.61388">
        <ele>533</ele>
        <time>2016-09-29T07:21:14Z</time>
      </trkpt>
      <trkpt lat="45.9431" lon="4.6138">
        <ele>534</ele>
        <time>2016-09-29T07:21:25Z</time>
      </trkpt>
      <trkpt lat="45.94311" lon="4.61379">
        <ele>534</ele>
        <time>2016-09-29T07:21:26Z</time>
      </trkpt>
      <trkpt lat="45.94316" lon="4.6137">
        <ele>535</ele>
        <time>2016-09-29T07:21:35Z</time>
      </trkpt>
      <trkpt lat="45.94317" lon="4.61369">
        <ele>535</ele>
        <time>2016-09-29T07:21:36Z</time>
      </trkpt>
      <trkpt lat="45.94321" lon="4.61359">
        <ele>536</ele>
        <time>2016-09-29T07:21:47Z</time>
      </trkpt>
      <trkpt lat="45.94322" lon="4.61358">
        <ele>536</ele>
        <time>2016-09-29T07:21:48Z</time>
      </trkpt>
      <trkpt lat="45.94328" lon="4.6135">
        <ele>538</ele>
        <time>2016-09-29T07:21:58Z</time>
      </trkpt>
      <trkpt lat="45.94328" lon="4.61349">
        <ele>538</ele>
        <time>2016-09-29T07:21:59Z</time>
      </trkpt>
      <trkpt lat="45.94334" lon="4.61341">
        <ele>544</ele>
        <time>2016-09-29T07:22:09Z</time>
      </trkpt>
      <trkpt lat="45.94335" lon="4.6134">
        <ele>544</ele>
        <time>2016-09-29T07:22:10Z</time>
      </trkpt>
      <trkpt lat="45.94342" lon="4.61332">
        <ele>546</ele>
        <time>2016-09-29T07:22:19Z</time>
      </trkpt>
      <trkpt lat="45.94342" lon="4.61331">
        <ele>546</ele>
        <time>2016-09-29T07:22:20Z</time>
      </trkpt>
      <trkpt lat="45.94349" lon="4.61323">
        <ele>547</ele>
        <time>2016-09-29T07:22:30Z</time>
      </trkpt>
      <trkpt lat="45.94349" lon="4.61323">
        <ele>547</ele>
        <time>2016-09-29T07:22:31Z</time>
      </trkpt>
      <trkpt lat="45.94355" lon="4.61314">
        <ele>548</ele>
        <time>2016-09-29T07:22:40Z</time>
      </trkpt>
      <trkpt lat="45.94356" lon="4.61314">
        <ele>548</ele>
        <time>2016-09-29T07:22:41Z</time>
      </trkpt>
      <trkpt lat="45.94363" lon="4.61307">
        <ele>549</ele>
        <time>2016-09-29T07:22:50Z</time>
      </trkpt>
      <trkpt lat="45.94364" lon="4.61306">
        <ele>549</ele>
        <time>2016-09-29T07:22:51Z</time>
      </trkpt>
      <trkpt lat="45.9437" lon="4.61298">
        <ele>550</ele>
        <time>2016-09-29T07:23:01Z</time>
      </trkpt>
      <trkpt lat="45.94371" lon="4.61298">
        <ele>550</ele>
        <time>2016-09-29T07:23:02Z</time>
      </trkpt>
      <trkpt lat="45.94378" lon="4.61292">
        <ele>550</ele>
        <time>2016-09-29T07:23:12Z</time>
      </trkpt>
      <trkpt lat="45.94379" lon="4.61291">
        <ele>550</ele>
        <time>2016-09-29T07:23:13Z</time>
      </trkpt>
      <trkpt lat="45.94385" lon="4.61283">
        <ele>551</ele>
        <time>2016-09-29T07:23:23Z</time>
      </trkpt>
      <trkpt lat="45.94386" lon="4.61282">
        <ele>551</ele>
        <time>2016-09-29T07:23:24Z</time>
      </trkpt>
      <trkpt lat="45.94391" lon="4.61272">
        <ele>552</ele>
        <time>2016-09-29T07:23:33Z</time>
      </trkpt>
      <trkpt lat="45.94392" lon="4.61271">
        <ele>552</ele>
        <time>2016-09-29T07:23:34Z</time>
      </trkpt>
      <trkpt lat="45.94398" lon="4.61264">
        <ele>554</ele>
        <time>2016-09-29T07:23:43Z</time>
      </trkpt>
      <trkpt lat="45.94399" lon="4.61263">
        <ele>554</ele>
        <time>2016-09-29T07:23:44Z</time>
      </trkpt>
      <trkpt lat="45.94405" lon="4.61255">
        <ele>556</ele>
        <time>2016-09-29T07:23:53Z</time>
      </trkpt>
      <trkpt lat="45.94406" lon="4.61254">
        <ele>556</ele>
        <time>2016-09-29T07:23:54Z</time>
      </trkpt>
      <trkpt lat="45.94412" lon="4.61245">
        <ele>557</ele>
        <time>2016-09-29T07:24:04Z</time>
      </trkpt>
      <trkpt lat="45.94412" lon="4.61244">
        <ele>557</ele>
        <time>2016-09-29T07:24:05Z</time>
      </trkpt>
      <trkpt lat="45.94419" lon="4.61237">
        <ele>560</ele>
        <time>2016-09-29T07:24:17Z</time>
      </trkpt>
      <trkpt lat="45.9442" lon="4.61236">
        <ele>560</ele>
        <time>2016-09-29T07:24:18Z</time>
      </trkpt>
      <trkpt lat="45.94428" lon="4.61232">
        <ele>560</ele>
        <time>2016-09-29T07:24:28Z</time>
      </trkpt>
      <trkpt lat="45.94428" lon="4.61231">
        <ele>560</ele>
        <time>2016-09-29T07:24:29Z</time>
      </trkpt>
      <trkpt lat="45.94434" lon="4.61222">
        <ele>561</ele>
        <time>2016-09-29T07:24:37Z</time>
      </trkpt>
      <trkpt lat="45.94435" lon="4.61221">
        <ele>561</ele>
        <time>2016-09-29T07:24:38Z</time>
      </trkpt>
      <trkpt lat="45.94441" lon="4.61214">
        <ele>561</ele>
        <time>2016-09-29T07:24:47Z</time>
      </trkpt>
      <trkpt lat="45.94442" lon="4.61213">
        <ele>561</ele>
        <time>2016-09-29T07:24:48Z</time>
      </trkpt>
      <trkpt lat="45.94449" lon="4.61205">
        <ele>561</ele>
        <time>2016-09-29T07:24:57Z</time>
      </trkpt>
      <trkpt lat="45.9445" lon="4.61204">
        <ele>561</ele>
        <time>2016-09-29T07:24:58Z</time>
      </trkpt>
      <trkpt lat="45.94455" lon="4.61196">
        <ele>561</ele>
        <time>2016-09-29T07:25:05Z</time>
      </trkpt>
      <trkpt lat="45.94456" lon="4.61195">
        <ele>561</ele>
        <time>2016-09-29T07:25:06Z</time>
      </trkpt>
      <trkpt lat="45.94461" lon="4.61185">
        <ele>562</ele>
        <time>2016-09-29T07:25:14Z</time>
      </trkpt>
      <trkpt lat="45.94461" lon="4.61184">
        <ele>562</ele>
        <time>2016-09-29T07:25:15Z</time>
      </trkpt>
      <trkpt lat="45.94466" lon="4.61174">
        <ele>562</ele>
        <time>2016-09-29T07:25:24Z</time>
      </trkpt>
      <trkpt lat="45.94467" lon="4.61173">
        <ele>562</ele>
        <time>2016-09-29T07:25:25Z</time>
      </trkpt>
      <trkpt lat="45.94472" lon="4.61164">
        <ele>562</ele>
        <time>2016-09-29T07:25:32Z</time>
      </trkpt>
      <trkpt lat="45.94473" lon="4.61163">
        <ele>562</ele>
        <time>2016-09-29T07:25:33Z</time>
      </trkpt>
      <trkpt lat="45.94481" lon="4.61159">
        <ele>563</ele>
        <time>2016-09-29T07:25:41Z</time>
      </trkpt>
      <trkpt lat="45.94482" lon="4.61158">
        <ele>563</ele>
        <time>2016-09-29T07:25:42Z</time>
      </trkpt>
      <trkpt lat="45.94489" lon="4.61152">
        <ele>564</ele>
        <time>2016-09-29T07:25:50Z</time>
      </trkpt>
      <trkpt lat="45.9449" lon="4.61151">
        <ele>564</ele>
        <time>2016-09-29T07:25:51Z</time>
      </trkpt>
      <trkpt lat="45.94495" lon="4.61143">
        <ele>563</ele>
        <time>2016-09-29T07:25:58Z</time>
      </trkpt>
      <trkpt lat="45.94496" lon="4.61141">
        <ele>563</ele>
        <time>2016-09-29T07:25:59Z</time>
      </trkpt>
      <trkpt lat="45.94502" lon="4.61132">
        <ele>569</ele>
        <time>2016-09-29T07:26:06Z</time>
      </trkpt>
      <trkpt lat="45.94502" lon="4.61131">
        <ele>570</ele>
        <time>2016-09-29T07:26:07Z</time>
      </trkpt>
      <trkpt lat="45.94508" lon="4.61122">
        <ele>570</ele>
        <time>2016-09-29T07:26:14Z</time>
      </trkpt>
      <trkpt lat="45.94509" lon="4.61121">
        <ele>570</ele>
        <time>2016-09-29T07:26:15Z</time>
      </trkpt>
      <trkpt lat="45.94515" lon="4.61111">
        <ele>570</ele>
        <time>2016-09-29T07:26:23Z</time>
      </trkpt>
      <trkpt lat="45.94515" lon="4.61111">
        <ele>570</ele>
        <time>2016-09-29T07:26:24Z</time>
      </trkpt>
      <trkpt lat="45.94523" lon="4.61103">
        <ele>570</ele>
        <time>2016-09-29T07:26:32Z</time>
      </trkpt>
      <trkpt lat="45.94523" lon="4.61102">
        <ele>570</ele>
        <time>2016-09-29T07:26:33Z</time>
      </trkpt>
      <trkpt lat="45.94529" lon="4.61094">
        <ele>570</ele>
        <time>2016-09-29T07:26:41Z</time>
      </trkpt>
      <trkpt lat="45.9453" lon="4.61093">
        <ele>570</ele>
        <time>2016-09-29T07:26:42Z</time>
      </trkpt>
      <trkpt lat="45.94535" lon="4.61083">
        <ele>571</ele>
        <time>2016-09-29T07:26:50Z</time>
      </trkpt>
      <trkpt lat="45.94535" lon="4.61082">
        <ele>571</ele>
        <time>2016-09-29T07:26:51Z</time>
      </trkpt>
      <trkpt lat="45.94542" lon="4.61076">
        <ele>572</ele>
        <time>2016-09-29T07:26:59Z</time>
      </trkpt>
      <trkpt lat="45.94543" lon="4.61075">
        <ele>572</ele>
        <time>2016-09-29T07:27:00Z</time>
      </trkpt>
      <trkpt lat="45.9455" lon="4.61067">
        <ele>572</ele>
        <time>2016-09-29T07:27:09Z</time>
      </trkpt>
      <trkpt lat="45.9455" lon="4.61065">
        <ele>572</ele>
        <time>2016-09-29T07:27:10Z</time>
      </trkpt>
      <trkpt lat="45.94548" lon="4.61053">
        <ele>572</ele>
        <time>2016-09-29T07:27:18Z</time>
      </trkpt>
      <trkpt lat="45.94547" lon="4.61052">
        <ele>572</ele>
        <time>2016-09-29T07:27:19Z</time>
      </trkpt>
      <trkpt lat="45.94548" lon="4.61041">
        <ele>571</ele>
        <time>2016-09-29T07:27:26Z</time>
      </trkpt>
      <trkpt lat="45.94548" lon="4.61039">
        <ele>571</ele>
        <time>2016-09-29T07:27:27Z</time>
      </trkpt>
      <trkpt lat="45.94553" lon="4.61029">
        <ele>572</ele>
        <time>2016-09-29T07:27:35Z</time>
      </trkpt>
      <trkpt lat="45.94553" lon="4.61028">
        <ele>572</ele>
        <time>2016-09-29T07:27:36Z</time>
      </trkpt>
      <trkpt lat="45.94558" lon="4.61019">
        <ele>572</ele>
        <time>2016-09-29T07:27:44Z</time>
      </trkpt>
      <trkpt lat="45.94559" lon="4.61018">
        <ele>573</ele>
        <time>2016-09-29T07:27:45Z</time>
      </trkpt>
      <trkpt lat="45.94563" lon="4.61008">
        <ele>574</ele>
        <time>2016-09-29T07:27:52Z</time>
      </trkpt>
      <trkpt lat="45.94563" lon="4.61006">
        <ele>574</ele>
        <time>2016-09-29T07:27:53Z</time>
      </trkpt>
      <trkpt lat="45.94568" lon="4.60997">
        <ele>573</ele>
        <time>2016-09-29T07:28:01Z</time>
      </trkpt>
      <trkpt lat="45.94569" lon="4.60996">
        <ele>573</ele>
        <time>2016-09-29T07:28:02Z</time>
      </trkpt>
      <trkpt lat="45.94574" lon="4.60986">
        <ele>572</ele>
        <time>2016-09-29T07:28:10Z</time>
      </trkpt>
      <trkpt lat="45.94575" lon="4.60984">
        <ele>572</ele>
        <time>2016-09-29T07:28:11Z</time>
      </trkpt>
      <trkpt lat="45.94579" lon="4.60973">
        <ele>571</ele>
        <time>2016-09-29T07:28:19Z</time>
      </trkpt>
      <trkpt lat="45.94579" lon="4.60972">
        <ele>571</ele>
        <time>2016-09-29T07:28:20Z</time>
      </trkpt>
      <trkpt lat="45.94583" lon="4.60962">
        <ele>570</ele>
        <time>2016-09-29T07:28:27Z</time>
      </trkpt>
      <trkpt lat="45.94583" lon="4.6096">
        <ele>581</ele>
        <time>2016-09-29T07:28:28Z</time>
      </trkpt>
      <trkpt lat="45.94587" lon="4.6095">
        <ele>581</ele>
        <time>2016-09-29T07:28:37Z</time>
      </trkpt>
      <trkpt lat="45.94588" lon="4.60949">
        <ele>581</ele>
        <time>2016-09-29T07:28:38Z</time>
      </trkpt>
      <trkpt lat="45.94592" lon="4.60939">
        <ele>580</ele>
        <time>2016-09-29T07:28:48Z</time>
      </trkpt>
      <trkpt lat="45.94593" lon="4.60938">
        <ele>580</ele>
        <time>2016-09-29T07:28:49Z</time>
      </trkpt>
      <trkpt lat="45.94601" lon="4.60932">
        <ele>580</ele>
        <time>2016-09-29T07:28:57Z</time>
      </trkpt>
      <trkpt lat="45.94601" lon="4.60932">
        <ele>581</ele>
        <time>2016-09-29T07:28:58Z</time>
      </trkpt>
      <trkpt lat="45.94609" lon="4.60929">
        <ele>581</ele>
        <time>2016-09-29T07:29:09Z</time>
      </trkpt>
      <trkpt lat="45.9461" lon="4.60928">
        <ele>581</ele>
        <time>2016-09-29T07:29:10Z</time>
      </trkpt>
      <trkpt lat="45.94618" lon="4.60923">
        <ele>583</ele>
        <time>2016-09-29T07:29:20Z</time>
      </trkpt>
      <trkpt lat="45.94619" lon="4.60922">
        <ele>583</ele>
        <time>2016-09-29T07:29:21Z</time>
      </trkpt>
      <trkpt lat="45.94626" lon="4.60915">
        <ele>580</ele>
        <time>2016-09-29T07:29:29Z</time>
      </trkpt>
      <trkpt lat="45.94627" lon="4.60914">
        <ele>580</ele>
        <time>2016-09-29T07:29:30Z</time>
      </trkpt>
      <trkpt lat="45.94634" lon="4.60907">
        <ele>581</ele>
        <time>2016-09-29T07:29:38Z</time>
      </trkpt>
      <trkpt lat="45.94634" lon="4.60906">
        <ele>581</ele>
        <time>2016-09-29T07:29:39Z</time>
      </trkpt>
      <trkpt lat="45.94641" lon="4.60898">
        <ele>582</ele>
        <time>2016-09-29T07:29:47Z</time>
      </trkpt>
      <trkpt lat="45.94642" lon="4.60898">
        <ele>582</ele>
        <time>2016-09-29T07:29:48Z</time>
      </trkpt>
      <trkpt lat="45.94649" lon="4.60891">
        <ele>582</ele>
        <time>2016-09-29T07:29:56Z</time>
      </trkpt>
      <trkpt lat="45.9465" lon="4.6089">
        <ele>582</ele>
        <time>2016-09-29T07:29:57Z</time>
      </trkpt>
      <trkpt lat="45.94656" lon="4.60884">
        <ele>582</ele>
        <time>2016-09-29T07:30:04Z</time>
      </trkpt>
      <trkpt lat="45.94658" lon="4.60883">
        <ele>582</ele>
        <time>2016-09-29T07:30:05Z</time>
      </trkpt>
      <trkpt lat="45.94665" lon="4.60875">
        <ele>582</ele>
        <time>2016-09-29T07:30:13Z</time>
      </trkpt>
      <trkpt lat="45.94666" lon="4.60874">
        <ele>582</ele>
        <time>2016-09-29T07:30:14Z</time>
      </trkpt>
      <trkpt lat="45.94673" lon="4.60869">
        <ele>589</ele>
        <time>2016-09-29T07:30:22Z</time>
      </trkpt>
      <trkpt lat="45.94674" lon="4.60868">
        <ele>589</ele>
        <time>2016-09-29T07:30:23Z</time>
      </trkpt>
      <trkpt lat="45.94683" lon="4.60864">
        <ele>589</ele>
        <time>2016-09-29T07:30:31Z</time>
      </trkpt>
      <trkpt lat="45.94683" lon="4.60863">
        <ele>589</ele>
        <time>2016-09-29T07:30:32Z</time>
      </trkpt>
      <trkpt lat="45.94691" lon="4.60858">
        <ele>589</ele>
        <time>2016-09-29T07:30:40Z</time>
      </trkpt>
      <trkpt lat="45.94692" lon="4.60857">
        <ele>589</ele>
        <time>2016-09-29T07:30:41Z</time>
      </trkpt>
      <trkpt lat="45.94699" lon="4.6085">
        <ele>589</ele>
        <time>2016-09-29T07:30:48Z</time>
      </trkpt>
      <trkpt lat="45.947" lon="4.6085">
        <ele>589</ele>
        <time>2016-09-29T07:30:49Z</time>
      </trkpt>
      <trkpt lat="45.94707" lon="4.60845">
        <ele>590</ele>
        <time>2016-09-29T07:30:56Z</time>
      </trkpt>
      <trkpt lat="45.94708" lon="4.60844">
        <ele>590</ele>
        <time>2016-09-29T07:30:57Z</time>
      </trkpt>
      <trkpt lat="45.94715" lon="4.60839">
        <ele>590</ele>
        <time>2016-09-29T07:31:04Z</time>
      </trkpt>
      <trkpt lat="45.94716" lon="4.60838">
        <ele>590</ele>
        <time>2016-09-29T07:31:05Z</time>
      </trkpt>
      <trkpt lat="45.94724" lon="4.60834">
        <ele>591</ele>
        <time>2016-09-29T07:31:12Z</time>
      </trkpt>
      <trkpt lat="45.94726" lon="4.60833">
        <ele>588</ele>
        <time>2016-09-29T07:31:13Z</time>
      </trkpt>
      <trkpt lat="45.94734" lon="4.60828">
        <ele>589</ele>
        <time>2016-09-29T07:31:21Z</time>
      </trkpt>
      <trkpt lat="45.94734" lon="4.60827">
        <ele>589</ele>
        <time>2016-09-29T07:31:22Z</time>
      </trkpt>
      <trkpt lat="45.94742" lon="4.60821">
        <ele>590</ele>
        <time>2016-09-29T07:31:30Z</time>
      </trkpt>
      <trkpt lat="45.94742" lon="4.6082">
        <ele>590</ele>
        <time>2016-09-29T07:31:31Z</time>
      </trkpt>
      <trkpt lat="45.9475" lon="4.60815">
        <ele>591</ele>
        <time>2016-09-29T07:39:40Z</time>
      </trkpt>
      <trkpt lat="45.94751" lon="4.60814">
        <ele>591</ele>
        <time>2016-09-29T07:39:41Z</time>
      </trkpt>
      <trkpt lat="45.94758" lon="4.60806">
        <ele>590</ele>
        <time>2016-09-29T07:39:49Z</time>
      </trkpt>
      <trkpt lat="45.94759" lon="4.60806">
        <ele>589</ele>
        <time>2016-09-29T07:39:50Z</time>
      </trkpt>
      <trkpt lat="45.94766" lon="4.60801">
        <ele>589</ele>
        <time>2016-09-29T07:39:58Z</time>
      </trkpt>
      <trkpt lat="45.94767" lon="4.608">
        <ele>589</ele>
        <time>2016-09-29T07:39:59Z</time>
      </trkpt>
      <trkpt lat="45.94775" lon="4.60795">
        <ele>588</ele>
        <time>2016-09-29T07:40:07Z</time>
      </trkpt>
      <trkpt lat="45.94776" lon="4.60793">
        <ele>588</ele>
        <time>2016-09-29T07:40:08Z</time>
      </trkpt>
      <trkpt lat="45.94782" lon="4.60785">
        <ele>587</ele>
        <time>2016-09-29T07:40:15Z</time>
      </trkpt>
      <trkpt lat="45.94783" lon="4.60784">
        <ele>587</ele>
        <time>2016-09-29T07:40:16Z</time>
      </trkpt>
      <trkpt lat="45.94787" lon="4.60773">
        <ele>587</ele>
        <time>2016-09-29T07:40:24Z</time>
      </trkpt>
      <trkpt lat="45.94787" lon="4.60772">
        <ele>587</ele>
        <time>2016-09-29T07:40:25Z</time>
      </trkpt>
      <trkpt lat="45.94788" lon="4.6076">
        <ele>586</ele>
        <time>2016-09-29T07:40:38Z</time>
      </trkpt>
      <trkpt lat="45.94788" lon="4.60759">
        <ele>586</ele>
        <time>2016-09-29T07:40:39Z</time>
      </trkpt>
      <trkpt lat="45.9479" lon="4.60746">
        <ele>581</ele>
        <time>2016-09-29T07:40:55Z</time>
      </trkpt>
      <trkpt lat="45.94791" lon="4.60746">
        <ele>581</ele>
        <time>2016-09-29T07:40:56Z</time>
      </trkpt>
      <trkpt lat="45.94794" lon="4.60735">
        <ele>580</ele>
        <time>2016-09-29T07:41:09Z</time>
      </trkpt>
      <trkpt lat="45.94795" lon="4.60734">
        <ele>580</ele>
        <time>2016-09-29T07:41:10Z</time>
      </trkpt>
      <trkpt lat="45.94798" lon="4.60722">
        <ele>579</ele>
        <time>2016-09-29T07:41:22Z</time>
      </trkpt>
      <trkpt lat="45.94798" lon="4.60721">
        <ele>579</ele>
        <time>2016-09-29T07:41:23Z</time>
      </trkpt>
      <trkpt lat="45.948" lon="4.60709">
        <ele>579</ele>
        <time>2016-09-29T07:41:36Z</time>
      </trkpt>
      <trkpt lat="45.94801" lon="4.60708">
        <ele>579</ele>
        <time>2016-09-29T07:41:37Z</time>
      </trkpt>
      <trkpt lat="45.94803" lon="4.60696">
        <ele>578</ele>
        <time>2016-09-29T07:41:48Z</time>
      </trkpt>
      <trkpt lat="45.94804" lon="4.60695">
        <ele>578</ele>
        <time>2016-09-29T07:41:49Z</time>
      </trkpt>
      <trkpt lat="45.94805" lon="4.60683">
        <ele>577</ele>
        <time>2016-09-29T07:41:59Z</time>
      </trkpt>
      <trkpt lat="45.94805" lon="4.60682">
        <ele>577</ele>
        <time>2016-09-29T07:42:00Z</time>
      </trkpt>
      <trkpt lat="45.94807" lon="4.60669">
        <ele>577</ele>
        <time>2016-09-29T07:42:09Z</time>
      </trkpt>
      <trkpt lat="45.94807" lon="4.60668">
        <ele>577</ele>
        <time>2016-09-29T07:42:10Z</time>
      </trkpt>
      <trkpt lat="45.94807" lon="4.60655">
        <ele>572</ele>
        <time>2016-09-29T07:42:35Z</time>
      </trkpt>
      <trkpt lat="45.94807" lon="4.60655">
        <ele>572</ele>
        <time>2016-09-29T07:42:36Z</time>
      </trkpt>
      <trkpt lat="45.94811" lon="4.60645">
        <ele>572</ele>
        <time>2016-09-29T07:43:27Z</time>
      </trkpt>
      <trkpt lat="45.94811" lon="4.60644">
        <ele>572</ele>
        <time>2016-09-29T07:43:28Z</time>
      </trkpt>
      <trkpt lat="45.94813" lon="4.60632">
        <ele>572</ele>
        <time>2016-09-29T07:43:36Z</time>
      </trkpt>
      <trkpt lat="45.94813" lon="4.6063">
        <ele>572</ele>
        <time>2016-09-29T07:43:37Z</time>
      </trkpt>
      <trkpt lat="45.94814" lon="4.60619">
        <ele>572</ele>
        <time>2016-09-29T07:45:24Z</time>
      </trkpt>
      <trkpt lat="45.94814" lon="4.60617">
        <ele>572</ele>
        <time>2016-09-29T07:45:25Z</time>
      </trkpt>
      <trkpt lat="45.94816" lon="4.60606">
        <ele>572</ele>
        <time>2016-09-29T07:45:33Z</time>
      </trkpt>
      <trkpt lat="45.94816" lon="4.60605">
        <ele>572</ele>
        <time>2016-09-29T07:45:34Z</time>
      </trkpt>
      <trkpt lat="45.94818" lon="4.60593">
        <ele>573</ele>
        <time>2016-09-29T07:45:42Z</time>
      </trkpt>
      <trkpt lat="45.94818" lon="4.60591">
        <ele>573</ele>
        <time>2016-09-29T07:45:43Z</time>
      </trkpt>
      <trkpt lat="45.9482" lon="4.6058">
        <ele>571</ele>
        <time>2016-09-29T07:45:50Z</time>
      </trkpt>
      <trkpt lat="45.9482" lon="4.60578">
        <ele>570</ele>
        <time>2016-09-29T07:45:51Z</time>
      </trkpt>
      <trkpt lat="45.94823" lon="4.60567">
        <ele>570</ele>
        <time>2016-09-29T07:45:58Z</time>
      </trkpt>
      <trkpt lat="45.94823" lon="4.60566">
        <ele>569</ele>
        <time>2016-09-29T07:45:59Z</time>
      </trkpt>
      <trkpt lat="45.94828" lon="4.60555">
        <ele>568</ele>
        <time>2016-09-29T07:46:07Z</time>
      </trkpt>
      <trkpt lat="45.94829" lon="4.60554">
        <ele>568</ele>
        <time>2016-09-29T07:46:08Z</time>
      </trkpt>
      <trkpt lat="45.94834" lon="4.60546">
        <ele>570</ele>
        <time>2016-09-29T07:46:16Z</time>
      </trkpt>
      <trkpt lat="45.94835" lon="4.60544">
        <ele>569</ele>
        <time>2016-09-29T07:46:17Z</time>
      </trkpt>
      <trkpt lat="45.9484" lon="4.60536">
        <ele>569</ele>
        <time>2016-09-29T07:46:24Z</time>
      </trkpt>
      <trkpt lat="45.94841" lon="4.60535">
        <ele>569</ele>
        <time>2016-09-29T07:46:25Z</time>
      </trkpt>
      <trkpt lat="45.94846" lon="4.60526">
        <ele>569</ele>
        <time>2016-09-29T07:46:31Z</time>
      </trkpt>
      <trkpt lat="45.94846" lon="4.60524">
        <ele>569</ele>
        <time>2016-09-29T07:46:32Z</time>
      </trkpt>
      <trkpt lat="45.9485" lon="4.60515">
        <ele>569</ele>
        <time>2016-09-29T07:46:38Z</time>
      </trkpt>
      <trkpt lat="45.94851" lon="4.60513">
        <ele>569</ele>
        <time>2016-09-29T07:46:39Z</time>
      </trkpt>
      <trkpt lat="45.94858" lon="4.60505">
        <ele>568</ele>
        <time>2016-09-29T07:46:46Z</time>
      </trkpt>
      <trkpt lat="45.94859" lon="4.60504">
        <ele>568</ele>
        <time>2016-09-29T07:46:47Z</time>
      </trkpt>
      <trkpt lat="45.94864" lon="4.60495">
        <ele>568</ele>
        <time>2016-09-29T07:46:54Z</time>
      </trkpt>
      <trkpt lat="45.94864" lon="4.60493">
        <ele>568</ele>
        <time>2016-09-29T07:46:55Z</time>
      </trkpt>
      <trkpt lat="45.94869" lon="4.60484">
        <ele>568</ele>
        <time>2016-09-29T07:47:01Z</time>
      </trkpt>
      <trkpt lat="45.9487" lon="4.60483">
        <ele>568</ele>
        <time>2016-09-29T07:47:02Z</time>
      </trkpt>
      <trkpt lat="45.94876" lon="4.60475">
        <ele>568</ele>
        <time>2016-09-29T07:47:08Z</time>
      </trkpt>
      <trkpt lat="45.94877" lon="4.60474">
        <ele>568</ele>
        <time>2016-09-29T07:47:09Z</time>
      </trkpt>
      <trkpt lat="45.94884" lon="4.60466">
        <ele>568</ele>
        <time>2016-09-29T07:47:15Z</time>
      </trkpt>
      <trkpt lat="45.94885" lon="4.60465">
        <ele>568</ele>
        <time>2016-09-29T07:47:16Z</time>
      </trkpt>
      <trkpt lat="45.9489" lon="4.60455">
        <ele>568</ele>
        <time>2016-09-29T07:47:23Z</time>
      </trkpt>
      <trkpt lat="45.94891" lon="4.60454">
        <ele>568</ele>
        <time>2016-09-29T07:47:24Z</time>
      </trkpt>
      <trkpt lat="45.94896" lon="4.60446">
        <ele>569</ele>
        <time>2016-09-29T07:47:30Z</time>
      </trkpt>
      <trkpt lat="45.94897" lon="4.60444">
        <ele>569</ele>
        <time>2016-09-29T07:47:31Z</time>
      </trkpt>
      <trkpt lat="45.94902" lon="4.60434">
        <ele>570</ele>
        <time>2016-09-29T07:47:37Z</time>
      </trkpt>
      <trkpt lat="45.94903" lon="4.60433">
        <ele>570</ele>
        <time>2016-09-29T07:47:38Z</time>
      </trkpt>
      <trkpt lat="45.94907" lon="4.60423">
        <ele>571</ele>
        <time>2016-09-29T07:47:44Z</time>
      </trkpt>
      <trkpt lat="45.94908" lon="4.60422">
        <ele>572</ele>
        <time>2016-09-29T07:47:45Z</time>
      </trkpt>
      <trkpt lat="45.94914" lon="4.60413">
        <ele>572</ele>
        <time>2016-09-29T07:47:52Z</time>
      </trkpt>
      <trkpt lat="45.94915" lon="4.60411">
        <ele>572</ele>
        <time>2016-09-29T07:47:53Z</time>
      </trkpt>
      <trkpt lat="45.94921" lon="4.60403">
        <ele>572</ele>
        <time>2016-09-29T07:47:59Z</time>
      </trkpt>
      <trkpt lat="45.94922" lon="4.60402">
        <ele>571</ele>
        <time>2016-09-29T07:48:00Z</time>
      </trkpt>
      <trkpt lat="45.94928" lon="4.60393">
        <ele>571</ele>
        <time>2016-09-29T07:48:07Z</time>
      </trkpt>
      <trkpt lat="45.94928" lon="4.60392">
        <ele>570</ele>
        <time>2016-09-29T07:48:08Z</time>
      </trkpt>
      <trkpt lat="45.94935" lon="4.60384">
        <ele>570</ele>
        <time>2016-09-29T07:48:15Z</time>
      </trkpt>
      <trkpt lat="45.94936" lon="4.60383">
        <ele>570</ele>
        <time>2016-09-29T07:48:16Z</time>
      </trkpt>
      <trkpt lat="45.94942" lon="4.60374">
        <ele>569</ele>
        <time>2016-09-29T07:48:23Z</time>
      </trkpt>
      <trkpt lat="45.94943" lon="4.60373">
        <ele>569</ele>
        <time>2016-09-29T07:48:24Z</time>
      </trkpt>
      <trkpt lat="45.94949" lon="4.60365">
        <ele>569</ele>
        <time>2016-09-29T07:48:31Z</time>
      </trkpt>
      <trkpt lat="45.9495" lon="4.60364">
        <ele>569</ele>
        <time>2016-09-29T07:48:32Z</time>
      </trkpt>
      <trkpt lat="45.94957" lon="4.60356">
        <ele>569</ele>
        <time>2016-09-29T07:48:39Z</time>
      </trkpt>
      <trkpt lat="45.94958" lon="4.60355">
        <ele>569</ele>
        <time>2016-09-29T07:48:40Z</time>
      </trkpt>
      <trkpt lat="45.94964" lon="4.60347">
        <ele>569</ele>
        <time>2016-09-29T07:48:46Z</time>
      </trkpt>
      <trkpt lat="45.94965" lon="4.60345">
        <ele>569</ele>
        <time>2016-09-29T07:48:47Z</time>
      </trkpt>
      <trkpt lat="45.94971" lon="4.60335">
        <ele>570</ele>
        <time>2016-09-29T07:48:54Z</time>
      </trkpt>
      <trkpt lat="45.94971" lon="4.60334">
        <ele>570</ele>
        <time>2016-09-29T07:48:55Z</time>
      </trkpt>
      <trkpt lat="45.94977" lon="4.60324">
        <ele>568</ele>
        <time>2016-09-29T07:49:02Z</time>
      </trkpt>
      <trkpt lat="45.94978" lon="4.60323">
        <ele>568</ele>
        <time>2016-09-29T07:49:03Z</time>
      </trkpt>
      <trkpt lat="45.94985" lon="4.60316">
        <ele>569</ele>
        <time>2016-09-29T07:49:10Z</time>
      </trkpt>
      <trkpt lat="45.94986" lon="4.60315">
        <ele>569</ele>
        <time>2016-09-29T07:49:11Z</time>
      </trkpt>
      <trkpt lat="45.94992" lon="4.60306">
        <ele>568</ele>
        <time>2016-09-29T07:49:18Z</time>
      </trkpt>
      <trkpt lat="45.94993" lon="4.60305">
        <ele>568</ele>
        <time>2016-09-29T07:49:19Z</time>
      </trkpt>
      <trkpt lat="45.94997" lon="4.60295">
        <ele>568</ele>
        <time>2016-09-29T07:49:26Z</time>
      </trkpt>
      <trkpt lat="45.94998" lon="4.60294">
        <ele>568</ele>
        <time>2016-09-29T07:49:27Z</time>
      </trkpt>
      <trkpt lat="45.95003" lon="4.60285">
        <ele>572</ele>
        <time>2016-09-29T07:49:34Z</time>
      </trkpt>
      <trkpt lat="45.95004" lon="4.60283">
        <ele>572</ele>
        <time>2016-09-29T07:49:35Z</time>
      </trkpt>
      <trkpt lat="45.9501" lon="4.60278">
        <ele>572</ele>
        <time>2016-09-29T07:49:41Z</time>
      </trkpt>
      <trkpt lat="45.95012" lon="4.60277">
        <ele>572</ele>
        <time>2016-09-29T07:49:42Z</time>
      </trkpt>
      <trkpt lat="45.95019" lon="4.60272">
        <ele>572</ele>
        <time>2016-09-29T07:49:48Z</time>
      </trkpt>
      <trkpt lat="45.9502" lon="4.60271">
        <ele>572</ele>
        <time>2016-09-29T07:49:49Z</time>
      </trkpt>
      <trkpt lat="45.95027" lon="4.60263">
        <ele>572</ele>
        <time>2016-09-29T07:49:56Z</time>
      </trkpt>
      <trkpt lat="45.95028" lon="4.60262">
        <ele>572</ele>
        <time>2016-09-29T07:49:57Z</time>
      </trkpt>
      <trkpt lat="45.95035" lon="4.60256">
        <ele>572</ele>
        <time>2016-09-29T07:50:04Z</time>
      </trkpt>
      <trkpt lat="45.95036" lon="4.60256">
        <ele>572</ele>
        <time>2016-09-29T07:50:05Z</time>
      </trkpt>
      <trkpt lat="45.95044" lon="4.60252">
        <ele>572</ele>
        <time>2016-09-29T07:50:12Z</time>
      </trkpt>
      <trkpt lat="45.95045" lon="4.60251">
        <ele>572</ele>
        <time>2016-09-29T07:50:13Z</time>
      </trkpt>
      <trkpt lat="45.95051" lon="4.60243">
        <ele>573</ele>
        <time>2016-09-29T07:50:20Z</time>
      </trkpt>
      <trkpt lat="45.95052" lon="4.60242">
        <ele>573</ele>
        <time>2016-09-29T07:50:21Z</time>
      </trkpt>
      <trkpt lat="45.9506" lon="4.60238">
        <ele>573</ele>
        <time>2016-09-29T07:50:28Z</time>
      </trkpt>
      <trkpt lat="45.95062" lon="4.60237">
        <ele>574</ele>
        <time>2016-09-29T07:50:29Z</time>
      </trkpt>
      <trkpt lat="45.9507" lon="4.60232">
        <ele>574</ele>
        <time>2016-09-29T07:50:36Z</time>
      </trkpt>
      <trkpt lat="45.9507" lon="4.60231">
        <ele>574</ele>
        <time>2016-09-29T07:50:37Z</time>
      </trkpt>
      <trkpt lat="45.95079" lon="4.60227">
        <ele>574</ele>
        <time>2016-09-29T07:50:46Z</time>
      </trkpt>
      <trkpt lat="45.95079" lon="4.60227">
        <ele>574</ele>
        <time>2016-09-29T07:50:47Z</time>
      </trkpt>
      <trkpt lat="45.95086" lon="4.60219">
        <ele>581</ele>
        <time>2016-09-29T07:50:55Z</time>
      </trkpt>
      <trkpt lat="45.95087" lon="4.60218">
        <ele>581</ele>
        <time>2016-09-29T07:50:56Z</time>
      </trkpt>
      <trkpt lat="45.95093" lon="4.60209">
        <ele>582</ele>
        <time>2016-09-29T07:51:05Z</time>
      </trkpt>
      <trkpt lat="45.95093" lon="4.60208">
        <ele>582</ele>
        <time>2016-09-29T07:51:06Z</time>
      </trkpt>
      <trkpt lat="45.95098" lon="4.60198">
        <ele>583</ele>
        <time>2016-09-29T07:51:18Z</time>
      </trkpt>
      <trkpt lat="45.95098" lon="4.60198">
        <ele>583</ele>
        <time>2016-09-29T07:51:19Z</time>
      </trkpt>
      <trkpt lat="45.95105" lon="4.60189">
        <ele>584</ele>
        <time>2016-09-29T07:51:32Z</time>
      </trkpt>
      <trkpt lat="45.95105" lon="4.60188">
        <ele>584</ele>
        <time>2016-09-29T07:51:33Z</time>
      </trkpt>
      <trkpt lat="45.95111" lon="4.60179">
        <ele>584</ele>
        <time>2016-09-29T07:51:44Z</time>
      </trkpt>
      <trkpt lat="45.95111" lon="4.60178">
        <ele>584</ele>
        <time>2016-09-29T07:51:45Z</time>
      </trkpt>
      <trkpt lat="45.95117" lon="4.60169">
        <ele>585</ele>
        <time>2016-09-29T07:52:43Z</time>
      </trkpt>
      <trkpt lat="45.95117" lon="4.60168">
        <ele>585</ele>
        <time>2016-09-29T07:52:44Z</time>
      </trkpt>
      <trkpt lat="45.95122" lon="4.60159">
        <ele>590</ele>
        <time>2016-09-29T07:52:53Z</time>
      </trkpt>
      <trkpt lat="45.95123" lon="4.60157">
        <ele>590</ele>
        <time>2016-09-29T07:52:54Z</time>
      </trkpt>
      <trkpt lat="45.95128" lon="4.60148">
        <ele>591</ele>
        <time>2016-09-29T07:53:03Z</time>
      </trkpt>
      <trkpt lat="45.95129" lon="4.60147">
        <ele>591</ele>
        <time>2016-09-29T07:53:04Z</time>
      </trkpt>
      <trkpt lat="45.95135" lon="4.60138">
        <ele>592</ele>
        <time>2016-09-29T07:53:15Z</time>
      </trkpt>
      <trkpt lat="45.95135" lon="4.60137">
        <ele>592</ele>
        <time>2016-09-29T07:53:16Z</time>
      </trkpt>
      <trkpt lat="45.95139" lon="4.60126">
        <ele>593</ele>
        <time>2016-09-29T07:53:31Z</time>
      </trkpt>
      <trkpt lat="45.95139" lon="4.60125">
        <ele>593</ele>
        <time>2016-09-29T07:53:32Z</time>
      </trkpt>
      <trkpt lat="45.95145" lon="4.60116">
        <ele>594</ele>
        <time>2016-09-29T07:53:42Z</time>
      </trkpt>
      <trkpt lat="45.95145" lon="4.60115">
        <ele>594</ele>
        <time>2016-09-29T07:53:43Z</time>
      </trkpt>
      <trkpt lat="45.95152" lon="4.60107">
        <ele>596</ele>
        <time>2016-09-29T07:53:55Z</time>
      </trkpt>
      <trkpt lat="45.95152" lon="4.60106">
        <ele>596</ele>
        <time>2016-09-29T07:53:56Z</time>
      </trkpt>
      <trkpt lat="45.95158" lon="4.60096">
        <ele>598</ele>
        <time>2016-09-29T07:54:06Z</time>
      </trkpt>
      <trkpt lat="45.95157" lon="4.60096">
        <ele>599</ele>
        <time>2016-09-29T07:54:07Z</time>
      </trkpt>
      <trkpt lat="45.95164" lon="4.60088">
        <ele>602</ele>
        <time>2016-09-29T07:54:19Z</time>
      </trkpt>
      <trkpt lat="45.95165" lon="4.60087">
        <ele>603</ele>
        <time>2016-09-29T07:54:20Z</time>
      </trkpt>
      <trkpt lat="45.95171" lon="4.60078">
        <ele>607</ele>
        <time>2016-09-29T07:54:30Z</time>
      </trkpt>
      <trkpt lat="45.95171" lon="4.60077">
        <ele>607</ele>
        <time>2016-09-29T07:54:31Z</time>
      </trkpt>
      <trkpt lat="45.95175" lon="4.60067">
        <ele>609</ele>
        <time>2016-09-29T07:54:39Z</time>
      </trkpt>
      <trkpt lat="45.95176" lon="4.60066">
        <ele>610</ele>
        <time>2016-09-29T07:54:40Z</time>
      </trkpt>
      <trkpt lat="45.95181" lon="4.60056">
        <ele>611</ele>
        <time>2016-09-29T07:54:49Z</time>
      </trkpt>
      <trkpt lat="45.95181" lon="4.60055">
        <ele>611</ele>
        <time>2016-09-29T07:54:50Z</time>
      </trkpt>
      <trkpt lat="45.95187" lon="4.60046">
        <ele>612</ele>
        <time>2016-09-29T07:55:01Z</time>
      </trkpt>
      <trkpt lat="45.95187" lon="4.60045">
        <ele>612</ele>
        <time>2016-09-29T07:55:02Z</time>
      </trkpt>
      <trkpt lat="45.95193" lon="4.60036">
        <ele>613</ele>
        <time>2016-09-29T07:55:14Z</time>
      </trkpt>
      <trkpt lat="45.95193" lon="4.60035">
        <ele>613</ele>
        <time>2016-09-29T07:55:15Z</time>
      </trkpt>
      <trkpt lat="45.95198" lon="4.60025">
        <ele>614</ele>
        <time>2016-09-29T07:55:25Z</time>
      </trkpt>
      <trkpt lat="45.95199" lon="4.60024">
        <ele>614</ele>
        <time>2016-09-29T07:55:26Z</time>
      </trkpt>
      <trkpt lat="45.95203" lon="4.60014">
        <ele>614</ele>
        <time>2016-09-29T07:55:36Z</time>
      </trkpt>
      <trkpt lat="45.95203" lon="4.60013">
        <ele>614</ele>
        <time>2016-09-29T07:55:37Z</time>
      </trkpt>
      <trkpt lat="45.95207" lon="4.60001">
        <ele>615</ele>
        <time>2016-09-29T07:55:49Z</time>
      </trkpt>
      <trkpt lat="45.95207" lon="4.6">
        <ele>619</ele>
        <time>2016-09-29T07:55:50Z</time>
      </trkpt>
      <trkpt lat="45.9521" lon="4.59988">
        <ele>619</ele>
        <time>2016-09-29T07:55:59Z</time>
      </trkpt>
      <trkpt lat="45.9521" lon="4.59987">
        <ele>619</ele>
        <time>2016-09-29T07:56:00Z</time>
      </trkpt>
      <trkpt lat="45.95215" lon="4.59977">
        <ele>620</ele>
        <time>2016-09-29T07:56:07Z</time>
      </trkpt>
      <trkpt lat="45.95216" lon="4.59976">
        <ele>620</ele>
        <time>2016-09-29T07:56:08Z</time>
      </trkpt>
      <trkpt lat="45.95218" lon="4.59965">
        <ele>621</ele>
        <time>2016-09-29T07:56:18Z</time>
      </trkpt>
      <trkpt lat="45.95218" lon="4.59964">
        <ele>621</ele>
        <time>2016-09-29T07:56:19Z</time>
      </trkpt>
      <trkpt lat="45.95221" lon="4.59952">
        <ele>621</ele>
        <time>2016-09-29T07:56:28Z</time>
      </trkpt>
      <trkpt lat="45.95221" lon="4.59951">
        <ele>621</ele>
        <time>2016-09-29T07:56:29Z</time>
      </trkpt>
      <trkpt lat="45.95224" lon="4.5994">
        <ele>622</ele>
        <time>2016-09-29T07:56:37Z</time>
      </trkpt>
      <trkpt lat="45.95224" lon="4.59938">
        <ele>623</ele>
        <time>2016-09-29T07:56:38Z</time>
      </trkpt>
      <trkpt lat="45.95228" lon="4.59927">
        <ele>624</ele>
        <time>2016-09-29T07:56:47Z</time>
      </trkpt>
      <trkpt lat="45.95228" lon="4.59926">
        <ele>625</ele>
        <time>2016-09-29T07:56:48Z</time>
      </trkpt>
      <trkpt lat="45.95231" lon="4.59915">
        <ele>627</ele>
        <time>2016-09-29T07:56:58Z</time>
      </trkpt>
      <trkpt lat="45.95232" lon="4.59913">
        <ele>627</ele>
        <time>2016-09-29T07:56:59Z</time>
      </trkpt>
      <trkpt lat="45.95236" lon="4.59903">
        <ele>627</ele>
        <time>2016-09-29T07:57:07Z</time>
      </trkpt>
      <trkpt lat="45.95236" lon="4.59901">
        <ele>627</ele>
        <time>2016-09-29T07:57:08Z</time>
      </trkpt>
      <trkpt lat="45.95239" lon="4.5989">
        <ele>627</ele>
        <time>2016-09-29T07:57:17Z</time>
      </trkpt>
      <trkpt lat="45.95239" lon="4.59889">
        <ele>627</ele>
        <time>2016-09-29T07:57:18Z</time>
      </trkpt>
      <trkpt lat="45.95241" lon="4.59877">
        <ele>626</ele>
        <time>2016-09-29T07:57:29Z</time>
      </trkpt>
      <trkpt lat="45.95241" lon="4.59875">
        <ele>626</ele>
        <time>2016-09-29T07:57:30Z</time>
      </trkpt>
      <trkpt lat="45.95244" lon="4.59863">
        <ele>628</ele>
        <time>2016-09-29T07:57:41Z</time>
      </trkpt>
      <trkpt lat="45.95244" lon="4.59862">
        <ele>628</ele>
        <time>2016-09-29T07:57:42Z</time>
      </trkpt>
      <trkpt lat="45.95248" lon="4.5985">
        <ele>630</ele>
        <time>2016-09-29T07:57:52Z</time>
      </trkpt>
      <trkpt lat="45.95248" lon="4.59849">
        <ele>630</ele>
        <time>2016-09-29T07:57:53Z</time>
      </trkpt>
      <trkpt lat="45.95248" lon="4.59837">
        <ele>635</ele>
        <time>2016-09-29T07:58:01Z</time>
      </trkpt>
      <trkpt lat="45.95249" lon="4.59835">
        <ele>636</ele>
        <time>2016-09-29T07:58:02Z</time>
      </trkpt>
      <trkpt lat="45.95252" lon="4.59824">
        <ele>639</ele>
        <time>2016-09-29T07:58:10Z</time>
      </trkpt>
      <trkpt lat="45.95252" lon="4.59822">
        <ele>639</ele>
        <time>2016-09-29T07:58:11Z</time>
      </trkpt>
      <trkpt lat="45.95254" lon="4.5981">
        <ele>640</ele>
        <time>2016-09-29T07:58:20Z</time>
      </trkpt>
      <trkpt lat="45.95254" lon="4.59809">
        <ele>640</ele>
        <time>2016-09-29T07:58:21Z</time>
      </trkpt>
      <trkpt lat="45.95256" lon="4.59797">
        <ele>640</ele>
        <time>2016-09-29T07:58:29Z</time>
      </trkpt>
      <trkpt lat="45.95256" lon="4.59796">
        <ele>641</ele>
        <time>2016-09-29T07:58:30Z</time>
      </trkpt>
      <trkpt lat="45.95261" lon="4.59786">
        <ele>641</ele>
        <time>2016-09-29T07:58:37Z</time>
      </trkpt>
      <trkpt lat="45.95261" lon="4.59784">
        <ele>641</ele>
        <time>2016-09-29T07:58:38Z</time>
      </trkpt>
      <trkpt lat="45.95266" lon="4.59774">
        <ele>641</ele>
        <time>2016-09-29T07:59:43Z</time>
      </trkpt>
      <trkpt lat="45.95267" lon="4.59772">
        <ele>641</ele>
        <time>2016-09-29T07:59:44Z</time>
      </trkpt>
      <trkpt lat="45.9527" lon="4.59761">
        <ele>641</ele>
        <time>2016-09-29T07:59:53Z</time>
      </trkpt>
      <trkpt lat="45.9527" lon="4.5976">
        <ele>641</ele>
        <time>2016-09-29T07:59:54Z</time>
      </trkpt>
      <trkpt lat="45.95274" lon="4.59749">
        <ele>641</ele>
        <time>2016-09-29T08:00:02Z</time>
      </trkpt>
      <trkpt lat="45.95275" lon="4.59748">
        <ele>641</ele>
        <time>2016-09-29T08:00:03Z</time>
      </trkpt>
      <trkpt lat="45.9528" lon="4.59739">
        <ele>641</ele>
        <time>2016-09-29T08:00:09Z</time>
      </trkpt>
      <trkpt lat="45.95281" lon="4.59738">
        <ele>641</ele>
        <time>2016-09-29T08:00:10Z</time>
      </trkpt>
      <trkpt lat="45.95285" lon="4.59727">
        <ele>641</ele>
        <time>2016-09-29T08:00:17Z</time>
      </trkpt>
      <trkpt lat="45.95285" lon="4.59725">
        <ele>641</ele>
        <time>2016-09-29T08:00:18Z</time>
      </trkpt>
      <trkpt lat="45.95288" lon="4.59714">
        <ele>642</ele>
        <time>2016-09-29T08:00:26Z</time>
      </trkpt>
      <trkpt lat="45.95288" lon="4.59713">
        <ele>642</ele>
        <time>2016-09-29T08:00:27Z</time>
      </trkpt>
      <trkpt lat="45.95292" lon="4.59704">
        <ele>642</ele>
        <time>2016-09-29T08:00:34Z</time>
      </trkpt>
      <trkpt lat="45.95293" lon="4.59702">
        <ele>642</ele>
        <time>2016-09-29T08:00:35Z</time>
      </trkpt>
      <trkpt lat="45.95297" lon="4.59691">
        <ele>642</ele>
        <time>2016-09-29T08:00:42Z</time>
      </trkpt>
      <trkpt lat="45.95297" lon="4.59689">
        <ele>642</ele>
        <time>2016-09-29T08:00:43Z</time>
      </trkpt>
      <trkpt lat="45.95302" lon="4.5968">
        <ele>643</ele>
        <time>2016-09-29T08:00:52Z</time>
      </trkpt>
      <trkpt lat="45.95303" lon="4.59679">
        <ele>643</ele>
        <time>2016-09-29T08:00:53Z</time>
      </trkpt>
      <trkpt lat="45.9531" lon="4.59672">
        <ele>644</ele>
        <time>2016-09-29T08:01:00Z</time>
      </trkpt>
      <trkpt lat="45.95311" lon="4.59671">
        <ele>644</ele>
        <time>2016-09-29T08:01:01Z</time>
      </trkpt>
      <trkpt lat="45.95316" lon="4.59661">
        <ele>643</ele>
        <time>2016-09-29T08:01:08Z</time>
      </trkpt>
      <trkpt lat="45.95317" lon="4.5966">
        <ele>643</ele>
        <time>2016-09-29T08:01:09Z</time>
      </trkpt>
      <trkpt lat="45.95318" lon="4.59648">
        <ele>642</ele>
        <time>2016-09-29T08:01:25Z</time>
      </trkpt>
      <trkpt lat="45.95317" lon="4.59646">
        <ele>642</ele>
        <time>2016-09-29T08:01:26Z</time>
      </trkpt>
      <trkpt lat="45.95316" lon="4.59634">
        <ele>641</ele>
        <time>2016-09-29T08:01:34Z</time>
      </trkpt>
      <trkpt lat="45.95315" lon="4.59632">
        <ele>641</ele>
        <time>2016-09-29T08:01:35Z</time>
      </trkpt>
      <trkpt lat="45.95313" lon="4.5962">
        <ele>640</ele>
        <time>2016-09-29T08:01:48Z</time>
      </trkpt>
      <trkpt lat="45.95313" lon="4.5962">
        <ele>640</ele>
        <time>2016-09-29T08:01:49Z</time>
      </trkpt>
      <trkpt lat="45.95321" lon="4.59617">
        <ele>641</ele>
        <time>2016-09-29T08:03:17Z</time>
      </trkpt>
      <trkpt lat="45.95322" lon="4.59617">
        <ele>641</ele>
        <time>2016-09-29T08:03:18Z</time>
      </trkpt>
      <trkpt lat="45.95331" lon="4.59619">
        <ele>641</ele>
        <time>2016-09-29T08:03:29Z</time>
      </trkpt>
      <trkpt lat="45.95331" lon="4.5962">
        <ele>641</ele>
        <time>2016-09-29T08:03:30Z</time>
      </trkpt>
      <trkpt lat="45.9534" lon="4.59621">
        <ele>647</ele>
        <time>2016-09-29T08:04:00Z</time>
      </trkpt>
      <trkpt lat="45.9534" lon="4.5962">
        <ele>647</ele>
        <time>2016-09-29T08:04:01Z</time>
      </trkpt>
      <trkpt lat="45.95345" lon="4.5961">
        <ele>647</ele>
        <time>2016-09-29T08:04:15Z</time>
      </trkpt>
      <trkpt lat="45.95346" lon="4.59609">
        <ele>647</ele>
        <time>2016-09-29T08:04:16Z</time>
      </trkpt>
      <trkpt lat="45.9535" lon="4.59598">
        <ele>646</ele>
        <time>2016-09-29T08:04:23Z</time>
      </trkpt>
      <trkpt lat="45.9535" lon="4.59597">
        <ele>646</ele>
        <time>2016-09-29T08:04:24Z</time>
      </trkpt>
      <trkpt lat="45.95355" lon="4.59587">
        <ele>646</ele>
        <time>2016-09-29T08:04:32Z</time>
      </trkpt>
      <trkpt lat="45.95356" lon="4.59587">
        <ele>646</ele>
        <time>2016-09-29T08:04:33Z</time>
      </trkpt>
      <trkpt lat="45.95361" lon="4.59577">
        <ele>645</ele>
        <time>2016-09-29T08:04:42Z</time>
      </trkpt>
      <trkpt lat="45.95362" lon="4.59575">
        <ele>645</ele>
        <time>2016-09-29T08:04:43Z</time>
      </trkpt>
      <trkpt lat="45.95366" lon="4.59566">
        <ele>645</ele>
        <time>2016-09-29T08:04:50Z</time>
      </trkpt>
      <trkpt lat="45.95367" lon="4.59564">
        <ele>645</ele>
        <time>2016-09-29T08:04:51Z</time>
      </trkpt>
      <trkpt lat="45.95371" lon="4.59553">
        <ele>645</ele>
        <time>2016-09-29T08:05:06Z</time>
      </trkpt>
      <trkpt lat="45.95372" lon="4.59553">
        <ele>645</ele>
        <time>2016-09-29T08:05:07Z</time>
      </trkpt>
      <trkpt lat="45.95376" lon="4.59542">
        <ele>645</ele>
        <time>2016-09-29T08:05:30Z</time>
      </trkpt>
      <trkpt lat="45.95376" lon="4.59541">
        <ele>645</ele>
        <time>2016-09-29T08:05:31Z</time>
      </trkpt>
      <trkpt lat="45.95381" lon="4.59533">
        <ele>645</ele>
        <time>2016-09-29T08:05:38Z</time>
      </trkpt>
      <trkpt lat="45.95382" lon="4.59531">
        <ele>645</ele>
        <time>2016-09-29T08:05:39Z</time>
      </trkpt>
      <trkpt lat="45.95388" lon="4.59522">
        <ele>645</ele>
        <time>2016-09-29T08:05:45Z</time>
      </trkpt>
      <trkpt lat="45.95388" lon="4.59521">
        <ele>645</ele>
        <time>2016-09-29T08:05:46Z</time>
      </trkpt>
      <trkpt lat="45.95394" lon="4.59513">
        <ele>645</ele>
        <time>2016-09-29T08:05:52Z</time>
      </trkpt>
      <trkpt lat="45.95395" lon="4.59512">
        <ele>645</ele>
        <time>2016-09-29T08:05:53Z</time>
      </trkpt>
      <trkpt lat="45.95401" lon="4.59505">
        <ele>646</ele>
        <time>2016-09-29T08:05:58Z</time>
      </trkpt>
      <trkpt lat="45.95402" lon="4.59503">
        <ele>646</ele>
        <time>2016-09-29T08:05:59Z</time>
      </trkpt>
      <trkpt lat="45.95409" lon="4.59498">
        <ele>645</ele>
        <time>2016-09-29T08:06:05Z</time>
      </trkpt>
      <trkpt lat="45.9541" lon="4.59497">
        <ele>645</ele>
        <time>2016-09-29T08:06:06Z</time>
      </trkpt>
      <trkpt lat="45.95418" lon="4.59491">
        <ele>647</ele>
        <time>2016-09-29T08:06:14Z</time>
      </trkpt>
      <trkpt lat="45.95418" lon="4.59489">
        <ele>647</ele>
        <time>2016-09-29T08:06:15Z</time>
      </trkpt>
      <trkpt lat="45.95425" lon="4.59484">
        <ele>647</ele>
        <time>2016-09-29T08:06:22Z</time>
      </trkpt>
      <trkpt lat="45.95426" lon="4.59483">
        <ele>647</ele>
        <time>2016-09-29T08:06:23Z</time>
      </trkpt>
      <trkpt lat="45.95433" lon="4.59476">
        <ele>647</ele>
        <time>2016-09-29T08:06:30Z</time>
      </trkpt>
      <trkpt lat="45.95434" lon="4.59475">
        <ele>647</ele>
        <time>2016-09-29T08:06:31Z</time>
      </trkpt>
      <trkpt lat="45.95443" lon="4.59471">
        <ele>647</ele>
        <time>2016-09-29T08:06:38Z</time>
      </trkpt>
      <trkpt lat="45.95443" lon="4.5947">
        <ele>647</ele>
        <time>2016-09-29T08:06:39Z</time>
      </trkpt>
      <trkpt lat="45.95449" lon="4.59461">
        <ele>647</ele>
        <time>2016-09-29T08:06:45Z</time>
      </trkpt>
      <trkpt lat="45.9545" lon="4.5946">
        <ele>647</ele>
        <time>2016-09-29T08:06:46Z</time>
      </trkpt>
      <trkpt lat="45.95457" lon="4.59454">
        <ele>647</ele>
        <time>2016-09-29T08:06:52Z</time>
      </trkpt>
      <trkpt lat="45.95459" lon="4.59453">
        <ele>647</ele>
        <time>2016-09-29T08:06:53Z</time>
      </trkpt>
      <trkpt lat="45.95465" lon="4.59444">
        <ele>647</ele>
        <time>2016-09-29T08:07:00Z</time>
      </trkpt>
      <trkpt lat="45.95466" lon="4.59443">
        <ele>647</ele>
        <time>2016-09-29T08:07:01Z</time>
      </trkpt>
      <trkpt lat="45.95473" lon="4.59436">
        <ele>647</ele>
        <time>2016-09-29T08:07:07Z</time>
      </trkpt>
      <trkpt lat="45.95474" lon="4.59435">
        <ele>647</ele>
        <time>2016-09-29T08:07:08Z</time>
      </trkpt>
      <trkpt lat="45.95482" lon="4.59431">
        <ele>648</ele>
        <time>2016-09-29T08:07:15Z</time>
      </trkpt>
      <trkpt lat="45.95482" lon="4.5943">
        <ele>648</ele>
        <time>2016-09-29T08:07:16Z</time>
      </trkpt>
      <trkpt lat="45.95488" lon="4.59422">
        <ele>648</ele>
        <time>2016-09-29T08:07:24Z</time>
      </trkpt>
      <trkpt lat="45.95489" lon="4.59421">
        <ele>648</ele>
        <time>2016-09-29T08:07:25Z</time>
      </trkpt>
      <trkpt lat="45.95496" lon="4.59414">
        <ele>648</ele>
        <time>2016-09-29T08:07:32Z</time>
      </trkpt>
      <trkpt lat="45.95497" lon="4.59413">
        <ele>648</ele>
        <time>2016-09-29T08:07:33Z</time>
      </trkpt>
      <trkpt lat="45.95506" lon="4.5941">
        <ele>648</ele>
        <time>2016-09-29T08:07:39Z</time>
      </trkpt>
      <trkpt lat="45.95507" lon="4.59409">
        <ele>648</ele>
        <time>2016-09-29T08:07:40Z</time>
      </trkpt>
      <trkpt lat="45.95514" lon="4.59401">
        <ele>647</ele>
        <time>2016-09-29T08:07:47Z</time>
      </trkpt>
      <trkpt lat="45.95515" lon="4.594">
        <ele>647</ele>
        <time>2016-09-29T08:07:48Z</time>
      </trkpt>
      <trkpt lat="45.95521" lon="4.59393">
        <ele>646</ele>
        <time>2016-09-29T08:07:53Z</time>
      </trkpt>
      <trkpt lat="45.95522" lon="4.59392">
        <ele>646</ele>
        <time>2016-09-29T08:07:54Z</time>
      </trkpt>
      <trkpt lat="45.9553" lon="4.59387">
        <ele>646</ele>
        <time>2016-09-29T08:08:00Z</time>
      </trkpt>
      <trkpt lat="45.95531" lon="4.59386">
        <ele>646</ele>
        <time>2016-09-29T08:08:01Z</time>
      </trkpt>
      <trkpt lat="45.95539" lon="4.59383">
        <ele>646</ele>
        <time>2016-09-29T08:08:07Z</time>
      </trkpt>
      <trkpt lat="45.9554" lon="4.59382">
        <ele>646</ele>
        <time>2016-09-29T08:08:08Z</time>
      </trkpt>
      <trkpt lat="45.95548" lon="4.59376">
        <ele>646</ele>
        <time>2016-09-29T08:08:15Z</time>
      </trkpt>
      <trkpt lat="45.95549" lon="4.59376">
        <ele>646</ele>
        <time>2016-09-29T08:08:16Z</time>
      </trkpt>
      <trkpt lat="45.95557" lon="4.5937">
        <ele>645</ele>
        <time>2016-09-29T08:08:23Z</time>
      </trkpt>
      <trkpt lat="45.95558" lon="4.59369">
        <ele>645</ele>
        <time>2016-09-29T08:08:24Z</time>
      </trkpt>
      <trkpt lat="45.95565" lon="4.59363">
        <ele>645</ele>
        <time>2016-09-29T08:08:31Z</time>
      </trkpt>
      <trkpt lat="45.95566" lon="4.59363">
        <ele>645</ele>
        <time>2016-09-29T08:08:32Z</time>
      </trkpt>
      <trkpt lat="45.95575" lon="4.59358">
        <ele>645</ele>
        <time>2016-09-29T08:08:40Z</time>
      </trkpt>
      <trkpt lat="45.95576" lon="4.59357">
        <ele>645</ele>
        <time>2016-09-29T08:08:41Z</time>
      </trkpt>
      <trkpt lat="45.95583" lon="4.59355">
        <ele>645</ele>
        <time>2016-09-29T08:08:47Z</time>
      </trkpt>
      <trkpt lat="45.95584" lon="4.59354">
        <ele>644</ele>
        <time>2016-09-29T08:08:48Z</time>
      </trkpt>
      <trkpt lat="45.95593" lon="4.59351">
        <ele>644</ele>
        <time>2016-09-29T08:08:54Z</time>
      </trkpt>
      <trkpt lat="45.95594" lon="4.59351">
        <ele>644</ele>
        <time>2016-09-29T08:08:55Z</time>
      </trkpt>
      <trkpt lat="45.95602" lon="4.59347">
        <ele>644</ele>
        <time>2016-09-29T08:09:01Z</time>
      </trkpt>
      <trkpt lat="45.95603" lon="4.59346">
        <ele>644</ele>
        <time>2016-09-29T08:09:02Z</time>
      </trkpt>
      <trkpt lat="45.95611" lon="4.59343">
        <ele>644</ele>
        <time>2016-09-29T08:09:08Z</time>
      </trkpt>
      <trkpt lat="45.95612" lon="4.59342">
        <ele>644</ele>
        <time>2016-09-29T08:09:09Z</time>
      </trkpt>
      <trkpt lat="45.95619" lon="4.59336">
        <ele>644</ele>
        <time>2016-09-29T08:09:15Z</time>
      </trkpt>
      <trkpt lat="45.95621" lon="4.59335">
        <ele>644</ele>
        <time>2016-09-29T08:09:16Z</time>
      </trkpt>
      <trkpt lat="45.95627" lon="4.5933">
        <ele>639</ele>
        <time>2016-09-29T08:09:22Z</time>
      </trkpt>
      <trkpt lat="45.95629" lon="4.59329">
        <ele>639</ele>
        <time>2016-09-29T08:09:23Z</time>
      </trkpt>
      <trkpt lat="45.95637" lon="4.59327">
        <ele>639</ele>
        <time>2016-09-29T08:09:29Z</time>
      </trkpt>
      <trkpt lat="45.95638" lon="4.59327">
        <ele>639</ele>
        <time>2016-09-29T08:09:30Z</time>
      </trkpt>
      <trkpt lat="45.95647" lon="4.59324">
        <ele>639</ele>
        <time>2016-09-29T08:09:37Z</time>
      </trkpt>
      <trkpt lat="45.95648" lon="4.59324">
        <ele>639</ele>
        <time>2016-09-29T08:09:38Z</time>
      </trkpt>
      <trkpt lat="45.95657" lon="4.5932">
        <ele>639</ele>
        <time>2016-09-29T08:09:45Z</time>
      </trkpt>
      <trkpt lat="45.95658" lon="4.5932">
        <ele>639</ele>
        <time>2016-09-29T08:09:46Z</time>
      </trkpt>
      <trkpt lat="45.95665" lon="4.59315">
        <ele>639</ele>
        <time>2016-09-29T08:09:53Z</time>
      </trkpt>
      <trkpt lat="45.95666" lon="4.59314">
        <ele>639</ele>
        <time>2016-09-29T08:09:54Z</time>
      </trkpt>
      <trkpt lat="45.95674" lon="4.59311">
        <ele>638</ele>
        <time>2016-09-29T08:10:04Z</time>
      </trkpt>
      <trkpt lat="45.95675" lon="4.5931">
        <ele>638</ele>
        <time>2016-09-29T08:10:05Z</time>
      </trkpt>
      <trkpt lat="45.95683" lon="4.59305">
        <ele>637</ele>
        <time>2016-09-29T08:10:12Z</time>
      </trkpt>
      <trkpt lat="45.95684" lon="4.59304">
        <ele>637</ele>
        <time>2016-09-29T08:10:13Z</time>
      </trkpt>
      <trkpt lat="45.95692" lon="4.59299">
        <ele>636</ele>
        <time>2016-09-29T08:10:20Z</time>
      </trkpt>
      <trkpt lat="45.95693" lon="4.59299">
        <ele>636</ele>
        <time>2016-09-29T08:10:21Z</time>
      </trkpt>
      <trkpt lat="45.95701" lon="4.59294">
        <ele>636</ele>
        <time>2016-09-29T08:10:27Z</time>
      </trkpt>
      <trkpt lat="45.95703" lon="4.59293">
        <ele>636</ele>
        <time>2016-09-29T08:10:28Z</time>
      </trkpt>
      <trkpt lat="45.9571" lon="4.59289">
        <ele>636</ele>
        <time>2016-09-29T08:10:34Z</time>
      </trkpt>
      <trkpt lat="45.95712" lon="4.59288">
        <ele>636</ele>
        <time>2016-09-29T08:10:35Z</time>
      </trkpt>
      <trkpt lat="45.9572" lon="4.59287">
        <ele>636</ele>
        <time>2016-09-29T08:11:50Z</time>
      </trkpt>
      <trkpt lat="45.95721" lon="4.59286">
        <ele>636</ele>
        <time>2016-09-29T08:11:51Z</time>
      </trkpt>
      <trkpt lat="45.9573" lon="4.59284">
        <ele>635</ele>
        <time>2016-09-29T08:11:57Z</time>
      </trkpt>
      <trkpt lat="45.95731" lon="4.59284">
        <ele>635</ele>
        <time>2016-09-29T08:11:58Z</time>
      </trkpt>
      <trkpt lat="45.95739" lon="4.5928">
        <ele>635</ele>
        <time>2016-09-29T08:12:04Z</time>
      </trkpt>
      <trkpt lat="45.9574" lon="4.59279">
        <ele>635</ele>
        <time>2016-09-29T08:12:05Z</time>
      </trkpt>
      <trkpt lat="45.95747" lon="4.59274">
        <ele>635</ele>
        <time>2016-09-29T08:12:11Z</time>
      </trkpt>
      <trkpt lat="45.95748" lon="4.59273">
        <ele>635</ele>
        <time>2016-09-29T08:12:12Z</time>
      </trkpt>
      <trkpt lat="45.95754" lon="4.59266">
        <ele>634</ele>
        <time>2016-09-29T08:12:19Z</time>
      </trkpt>
      <trkpt lat="45.95755" lon="4.59265">
        <ele>634</ele>
        <time>2016-09-29T08:12:20Z</time>
      </trkpt>
      <trkpt lat="45.95762" lon="4.59258">
        <ele>634</ele>
        <time>2016-09-29T08:12:28Z</time>
      </trkpt>
      <trkpt lat="45.95763" lon="4.59257">
        <ele>634</ele>
        <time>2016-09-29T08:12:29Z</time>
      </trkpt>
      <trkpt lat="45.95771" lon="4.59255">
        <ele>633</ele>
        <time>2016-09-29T08:12:35Z</time>
      </trkpt>
      <trkpt lat="45.95772" lon="4.59254">
        <ele>633</ele>
        <time>2016-09-29T08:12:36Z</time>
      </trkpt>
      <trkpt lat="45.95781" lon="4.59254">
        <ele>633</ele>
        <time>2016-09-29T08:12:43Z</time>
      </trkpt>
      <trkpt lat="45.95782" lon="4.59253">
        <ele>633</ele>
        <time>2016-09-29T08:12:44Z</time>
      </trkpt>
      <trkpt lat="45.9579" lon="4.5925">
        <ele>633</ele>
        <time>2016-09-29T08:12:50Z</time>
      </trkpt>
      <trkpt lat="45.95791" lon="4.59249">
        <ele>631</ele>
        <time>2016-09-29T08:12:51Z</time>
      </trkpt>
      <trkpt lat="45.95798" lon="4.59243">
        <ele>631</ele>
        <time>2016-09-29T08:12:57Z</time>
      </trkpt>
      <trkpt lat="45.95799" lon="4.59242">
        <ele>631</ele>
        <time>2016-09-29T08:12:58Z</time>
      </trkpt>
      <trkpt lat="45.95807" lon="4.5924">
        <ele>631</ele>
        <time>2016-09-29T08:13:04Z</time>
      </trkpt>
      <trkpt lat="45.95808" lon="4.5924">
        <ele>631</ele>
        <time>2016-09-29T08:13:05Z</time>
      </trkpt>
      <trkpt lat="45.95816" lon="4.5924">
        <ele>631</ele>
        <time>2016-09-29T08:13:11Z</time>
      </trkpt>
      <trkpt lat="45.95817" lon="4.59239">
        <ele>631</ele>
        <time>2016-09-29T08:13:12Z</time>
      </trkpt>
      <trkpt lat="45.95826" lon="4.5924">
        <ele>631</ele>
        <time>2016-09-29T08:13:18Z</time>
      </trkpt>
      <trkpt lat="45.95827" lon="4.5924">
        <ele>631</ele>
        <time>2016-09-29T08:13:19Z</time>
      </trkpt>
      <trkpt lat="45.95835" lon="4.59237">
        <ele>631</ele>
        <time>2016-09-29T08:13:26Z</time>
      </trkpt>
      <trkpt lat="45.95836" lon="4.59236">
        <ele>631</ele>
        <time>2016-09-29T08:13:27Z</time>
      </trkpt>
      <trkpt lat="45.95844" lon="4.59233">
        <ele>631</ele>
        <time>2016-09-29T08:13:34Z</time>
      </trkpt>
      <trkpt lat="45.95846" lon="4.59232">
        <ele>631</ele>
        <time>2016-09-29T08:13:35Z</time>
      </trkpt>
      <trkpt lat="45.95854" lon="4.59228">
        <ele>631</ele>
        <time>2016-09-29T08:13:42Z</time>
      </trkpt>
      <trkpt lat="45.95855" lon="4.59228">
        <ele>631</ele>
        <time>2016-09-29T08:13:43Z</time>
      </trkpt>
      <trkpt lat="45.95863" lon="4.59225">
        <ele>631</ele>
        <time>2016-09-29T08:13:49Z</time>
      </trkpt>
      <trkpt lat="45.95864" lon="4.59224">
        <ele>631</ele>
        <time>2016-09-29T08:13:50Z</time>
      </trkpt>
      <trkpt lat="45.95872" lon="4.59221">
        <ele>631</ele>
        <time>2016-09-29T08:13:57Z</time>
      </trkpt>
      <trkpt lat="45.95874" lon="4.59221">
        <ele>631</ele>
        <time>2016-09-29T08:13:58Z</time>
      </trkpt>
      <trkpt lat="45.95881" lon="4.59217">
        <ele>631</ele>
        <time>2016-09-29T08:14:04Z</time>
      </trkpt>
      <trkpt lat="45.95882" lon="4.59216">
        <ele>631</ele>
        <time>2016-09-29T08:14:05Z</time>
      </trkpt>
      <trkpt lat="45.9589" lon="4.59212">
        <ele>631</ele>
        <time>2016-09-29T08:14:11Z</time>
      </trkpt>
      <trkpt lat="45.95891" lon="4.59211">
        <ele>631</ele>
        <time>2016-09-29T08:14:12Z</time>
      </trkpt>
      <trkpt lat="45.95898" lon="4.59207">
        <ele>631</ele>
        <time>2016-09-29T08:14:18Z</time>
      </trkpt>
      <trkpt lat="45.95899" lon="4.59206">
        <ele>631</ele>
        <time>2016-09-29T08:14:19Z</time>
      </trkpt>
      <trkpt lat="45.95905" lon="4.59196">
        <ele>630</ele>
        <time>2016-09-29T08:14:26Z</time>
      </trkpt>
      <trkpt lat="45.95905" lon="4.59194">
        <ele>630</ele>
        <time>2016-09-29T08:14:27Z</time>
      </trkpt>
      <trkpt lat="45.95911" lon="4.59185">
        <ele>630</ele>
        <time>2016-09-29T08:14:34Z</time>
      </trkpt>
      <trkpt lat="45.95913" lon="4.59184">
        <ele>630</ele>
        <time>2016-09-29T08:14:35Z</time>
      </trkpt>
      <trkpt lat="45.9592" lon="4.59178">
        <ele>630</ele>
        <time>2016-09-29T08:14:41Z</time>
      </trkpt>
      <trkpt lat="45.95921" lon="4.59177">
        <ele>630</ele>
        <time>2016-09-29T08:14:42Z</time>
      </trkpt>
      <trkpt lat="45.95929" lon="4.5917">
        <ele>630</ele>
        <time>2016-09-29T08:14:48Z</time>
      </trkpt>
      <trkpt lat="45.9593" lon="4.59169">
        <ele>630</ele>
        <time>2016-09-29T08:14:49Z</time>
      </trkpt>
      <trkpt lat="45.95936" lon="4.59161">
        <ele>628</ele>
        <time>2016-09-29T08:14:55Z</time>
      </trkpt>
      <trkpt lat="45.95937" lon="4.5916">
        <ele>628</ele>
        <time>2016-09-29T08:14:56Z</time>
      </trkpt>
      <trkpt lat="45.95945" lon="4.59156">
        <ele>628</ele>
        <time>2016-09-29T08:15:03Z</time>
      </trkpt>
      <trkpt lat="45.95946" lon="4.59155">
        <ele>628</ele>
        <time>2016-09-29T08:15:04Z</time>
      </trkpt>
      <trkpt lat="45.95955" lon="4.59154">
        <ele>629</ele>
        <time>2016-09-29T08:21:06Z</time>
      </trkpt>
      <trkpt lat="45.95955" lon="4.59154">
        <ele>629</ele>
        <time>2016-09-29T08:21:07Z</time>
      </trkpt>
      <trkpt lat="45.95962" lon="4.59149">
        <ele>629</ele>
        <time>2016-09-29T08:21:20Z</time>
      </trkpt>
      <trkpt lat="45.95963" lon="4.59148">
        <ele>629</ele>
        <time>2016-09-29T08:21:21Z</time>
      </trkpt>
      <trkpt lat="45.95971" lon="4.59144">
        <ele>629</ele>
        <time>2016-09-29T08:21:28Z</time>
      </trkpt>
      <trkpt lat="45.95972" lon="4.59143">
        <ele>629</ele>
        <time>2016-09-29T08:21:29Z</time>
      </trkpt>
      <trkpt lat="45.95979" lon="4.59135">
        <ele>629</ele>
        <time>2016-09-29T08:21:36Z</time>
      </trkpt>
      <trkpt lat="45.9598" lon="4.59135">
        <ele>629</ele>
        <time>2016-09-29T08:21:37Z</time>
      </trkpt>
      <trkpt lat="45.95988" lon="4.59132">
        <ele>629</ele>
        <time>2016-09-29T08:21:44Z</time>
      </trkpt>
      <trkpt lat="45.95989" lon="4.59132">
        <ele>629</ele>
        <time>2016-09-29T08:21:45Z</time>
      </trkpt>
      <trkpt lat="45.95997" lon="4.59128">
        <ele>629</ele>
        <time>2016-09-29T08:21:52Z</time>
      </trkpt>
      <trkpt lat="45.95998" lon="4.59127">
        <ele>629</ele>
        <time>2016-09-29T08:21:53Z</time>
      </trkpt>
      <trkpt lat="45.96005" lon="4.59119">
        <ele>630</ele>
        <time>2016-09-29T08:22:00Z</time>
      </trkpt>
      <trkpt lat="45.96006" lon="4.59118">
        <ele>630</ele>
        <time>2016-09-29T08:22:01Z</time>
      </trkpt>
      <trkpt lat="45.96012" lon="4.59111">
        <ele>629</ele>
        <time>2016-09-29T08:22:08Z</time>
      </trkpt>
      <trkpt lat="45.96013" lon="4.5911">
        <ele>629</ele>
        <time>2016-09-29T08:22:09Z</time>
      </trkpt>
      <trkpt lat="45.9602" lon="4.59107">
        <ele>629</ele>
        <time>2016-09-29T08:22:15Z</time>
      </trkpt>
      <trkpt lat="45.96021" lon="4.59106">
        <ele>629</ele>
        <time>2016-09-29T08:22:16Z</time>
      </trkpt>
      <trkpt lat="45.96029" lon="4.59102">
        <ele>629</ele>
        <time>2016-09-29T08:22:22Z</time>
      </trkpt>
      <trkpt lat="45.96031" lon="4.59101">
        <ele>629</ele>
        <time>2016-09-29T08:22:23Z</time>
      </trkpt>
      <trkpt lat="45.96039" lon="4.59098">
        <ele>628</ele>
        <time>2016-09-29T08:22:29Z</time>
      </trkpt>
      <trkpt lat="45.9604" lon="4.59098">
        <ele>628</ele>
        <time>2016-09-29T08:22:30Z</time>
      </trkpt>
      <trkpt lat="45.96048" lon="4.59092">
        <ele>628</ele>
        <time>2016-09-29T08:22:36Z</time>
      </trkpt>
      <trkpt lat="45.96049" lon="4.59091">
        <ele>628</ele>
        <time>2016-09-29T08:22:37Z</time>
      </trkpt>
      <trkpt lat="45.96056" lon="4.59088">
        <ele>627</ele>
        <time>2016-09-29T08:22:43Z</time>
      </trkpt>
      <trkpt lat="45.96058" lon="4.59087">
        <ele>627</ele>
        <time>2016-09-29T08:22:44Z</time>
      </trkpt>
      <trkpt lat="45.96063" lon="4.59079">
        <ele>622</ele>
        <time>2016-09-29T08:22:50Z</time>
      </trkpt>
      <trkpt lat="45.96064" lon="4.59078">
        <ele>622</ele>
        <time>2016-09-29T08:22:51Z</time>
      </trkpt>
      <trkpt lat="45.9607" lon="4.5907">
        <ele>621</ele>
        <time>2016-09-29T08:22:58Z</time>
      </trkpt>
      <trkpt lat="45.96071" lon="4.59069">
        <ele>621</ele>
        <time>2016-09-29T08:22:59Z</time>
      </trkpt>
      <trkpt lat="45.96078" lon="4.59063">
        <ele>621</ele>
        <time>2016-09-29T08:23:07Z</time>
      </trkpt>
      <trkpt lat="45.96079" lon="4.59061">
        <ele>621</ele>
        <time>2016-09-29T08:23:08Z</time>
      </trkpt>
      <trkpt lat="45.96085" lon="4.59052">
        <ele>617</ele>
        <time>2016-09-29T08:23:15Z</time>
      </trkpt>
      <trkpt lat="45.96085" lon="4.5905">
        <ele>617</ele>
        <time>2016-09-29T08:23:16Z</time>
      </trkpt>
      <trkpt lat="45.96088" lon="4.5904">
        <ele>616</ele>
        <time>2016-09-29T08:23:22Z</time>
      </trkpt>
      <trkpt lat="45.96089" lon="4.59038">
        <ele>615</ele>
        <time>2016-09-29T08:23:23Z</time>
      </trkpt>
      <trkpt lat="45.96093" lon="4.59028">
        <ele>614</ele>
        <time>2016-09-29T08:23:31Z</time>
      </trkpt>
      <trkpt lat="45.96094" lon="4.59027">
        <ele>614</ele>
        <time>2016-09-29T08:23:32Z</time>
      </trkpt>
      <trkpt lat="45.96101" lon="4.5902">
        <ele>614</ele>
        <time>2016-09-29T08:23:39Z</time>
      </trkpt>
      <trkpt lat="45.96102" lon="4.5902">
        <ele>614</ele>
        <time>2016-09-29T08:23:40Z</time>
      </trkpt>
      <trkpt lat="45.96111" lon="4.59018">
        <ele>614</ele>
        <time>2016-09-29T08:23:48Z</time>
      </trkpt>
      <trkpt lat="45.96112" lon="4.59018">
        <ele>614</ele>
        <time>2016-09-29T08:23:49Z</time>
      </trkpt>
      <trkpt lat="45.96121" lon="4.59018">
        <ele>614</ele>
        <time>2016-09-29T08:23:56Z</time>
      </trkpt>
      <trkpt lat="45.96122" lon="4.59017">
        <ele>614</ele>
        <time>2016-09-29T08:23:57Z</time>
      </trkpt>
      <trkpt lat="45.96129" lon="4.59012">
        <ele>613</ele>
        <time>2016-09-29T08:24:04Z</time>
      </trkpt>
      <trkpt lat="45.96131" lon="4.59011">
        <ele>613</ele>
        <time>2016-09-29T08:24:05Z</time>
      </trkpt>
      <trkpt lat="45.96138" lon="4.59005">
        <ele>612</ele>
        <time>2016-09-29T08:24:13Z</time>
      </trkpt>
      <trkpt lat="45.96139" lon="4.59005">
        <ele>612</ele>
        <time>2016-09-29T08:24:14Z</time>
      </trkpt>
      <trkpt lat="45.96143" lon="4.58994">
        <ele>606</ele>
        <time>2016-09-29T08:24:23Z</time>
      </trkpt>
      <trkpt lat="45.96143" lon="4.58992">
        <ele>606</ele>
        <time>2016-09-29T08:24:24Z</time>
      </trkpt>
      <trkpt lat="45.96147" lon="4.58981">
        <ele>606</ele>
        <time>2016-09-29T08:24:32Z</time>
      </trkpt>
      <trkpt lat="45.96147" lon="4.58979">
        <ele>606</ele>
        <time>2016-09-29T08:24:33Z</time>
      </trkpt>
      <trkpt lat="45.96147" lon="4.58966">
        <ele>605</ele>
        <time>2016-09-29T08:24:41Z</time>
      </trkpt>
      <trkpt lat="45.96147" lon="4.58965">
        <ele>605</ele>
        <time>2016-09-29T08:24:42Z</time>
      </trkpt>
      <trkpt lat="45.96155" lon="4.5896">
        <ele>605</ele>
        <time>2016-09-29T08:24:49Z</time>
      </trkpt>
      <trkpt lat="45.96156" lon="4.5896">
        <ele>605</ele>
        <time>2016-09-29T08:24:50Z</time>
      </trkpt>
      <trkpt lat="45.96164" lon="4.58957">
        <ele>605</ele>
        <time>2016-09-29T08:24:59Z</time>
      </trkpt>
      <trkpt lat="45.96165" lon="4.58957">
        <ele>605</ele>
        <time>2016-09-29T08:25:00Z</time>
      </trkpt>
      <trkpt lat="45.96172" lon="4.58953">
        <ele>606</ele>
        <time>2016-09-29T08:25:05Z</time>
      </trkpt>
      <trkpt lat="45.96174" lon="4.58952">
        <ele>606</ele>
        <time>2016-09-29T08:25:06Z</time>
      </trkpt>
      <trkpt lat="45.96182" lon="4.58952">
        <ele>606</ele>
        <time>2016-09-29T08:25:12Z</time>
      </trkpt>
      <trkpt lat="45.96184" lon="4.58951">
        <ele>606</ele>
        <time>2016-09-29T08:25:13Z</time>
      </trkpt>
      <trkpt lat="45.96192" lon="4.58949">
        <ele>606</ele>
        <time>2016-09-29T08:25:19Z</time>
      </trkpt>
      <trkpt lat="45.96193" lon="4.58949">
        <ele>606</ele>
        <time>2016-09-29T08:25:20Z</time>
      </trkpt>
      <trkpt lat="45.96202" lon="4.58948">
        <ele>606</ele>
        <time>2016-09-29T08:25:27Z</time>
      </trkpt>
      <trkpt lat="45.96204" lon="4.58948">
        <ele>606</ele>
        <time>2016-09-29T08:25:28Z</time>
      </trkpt>
      <trkpt lat="45.96212" lon="4.58948">
        <ele>607</ele>
        <time>2016-09-29T08:25:34Z</time>
      </trkpt>
      <trkpt lat="45.96214" lon="4.58948">
        <ele>607</ele>
        <time>2016-09-29T08:25:35Z</time>
      </trkpt>
      <trkpt lat="45.96223" lon="4.58946">
        <ele>607</ele>
        <time>2016-09-29T08:25:41Z</time>
      </trkpt>
      <trkpt lat="45.96224" lon="4.58945">
        <ele>607</ele>
        <time>2016-09-29T08:25:42Z</time>
      </trkpt>
      <trkpt lat="45.96232" lon="4.58942">
        <ele>607</ele>
        <time>2016-09-29T08:25:48Z</time>
      </trkpt>
      <trkpt lat="45.96233" lon="4.58941">
        <ele>607</ele>
        <time>2016-09-29T08:25:49Z</time>
      </trkpt>
      <trkpt lat="45.96239" lon="4.58932">
        <ele>606</ele>
        <time>2016-09-29T08:25:56Z</time>
      </trkpt>
      <trkpt lat="45.9624" lon="4.58931">
        <ele>606</ele>
        <time>2016-09-29T08:25:57Z</time>
      </trkpt>
      <trkpt lat="45.96248" lon="4.58925">
        <ele>606</ele>
        <time>2016-09-29T08:26:04Z</time>
      </trkpt>
      <trkpt lat="45.96249" lon="4.58925">
        <ele>606</ele>
        <time>2016-09-29T08:26:05Z</time>
      </trkpt>
      <trkpt lat="45.96257" lon="4.5892">
        <ele>607</ele>
        <time>2016-09-29T08:26:12Z</time>
      </trkpt>
      <trkpt lat="45.96258" lon="4.5892">
        <ele>607</ele>
        <time>2016-09-29T08:26:13Z</time>
      </trkpt>
      <trkpt lat="45.96266" lon="4.58916">
        <ele>605</ele>
        <time>2016-09-29T08:26:19Z</time>
      </trkpt>
      <trkpt lat="45.96268" lon="4.58916">
        <ele>605</ele>
        <time>2016-09-29T08:26:20Z</time>
      </trkpt>
      <trkpt lat="45.96276" lon="4.58911">
        <ele>605</ele>
        <time>2016-09-29T08:26:26Z</time>
      </trkpt>
      <trkpt lat="45.96277" lon="4.58911">
        <ele>605</ele>
        <time>2016-09-29T08:26:27Z</time>
      </trkpt>
      <trkpt lat="45.96285" lon="4.58908">
        <ele>605</ele>
        <time>2016-09-29T08:26:33Z</time>
      </trkpt>
      <trkpt lat="45.96286" lon="4.58907">
        <ele>605</ele>
        <time>2016-09-29T08:26:34Z</time>
      </trkpt>
      <trkpt lat="45.96294" lon="4.58902">
        <ele>605</ele>
        <time>2016-09-29T08:26:40Z</time>
      </trkpt>
      <trkpt lat="45.96295" lon="4.58902">
        <ele>605</ele>
        <time>2016-09-29T08:26:41Z</time>
      </trkpt>
      <trkpt lat="45.96303" lon="4.58897">
        <ele>605</ele>
        <time>2016-09-29T08:26:47Z</time>
      </trkpt>
      <trkpt lat="45.96304" lon="4.58896">
        <ele>605</ele>
        <time>2016-09-29T08:26:48Z</time>
      </trkpt>
      <trkpt lat="45.96311" lon="4.58891">
        <ele>605</ele>
        <time>2016-09-29T08:26:53Z</time>
      </trkpt>
      <trkpt lat="45.96313" lon="4.58891">
        <ele>605</ele>
        <time>2016-09-29T08:26:54Z</time>
      </trkpt>
      <trkpt lat="45.9632" lon="4.58885">
        <ele>605</ele>
        <time>2016-09-29T08:27:00Z</time>
      </trkpt>
      <trkpt lat="45.96322" lon="4.58885">
        <ele>605</ele>
        <time>2016-09-29T08:27:01Z</time>
      </trkpt>
      <trkpt lat="45.9633" lon="4.58882">
        <ele>605</ele>
        <time>2016-09-29T08:27:07Z</time>
      </trkpt>
      <trkpt lat="45.96331" lon="4.58881">
        <ele>605</ele>
        <time>2016-09-29T08:27:08Z</time>
      </trkpt>
      <trkpt lat="45.9634" lon="4.58881">
        <ele>606</ele>
        <time>2016-09-29T08:27:14Z</time>
      </trkpt>
      <trkpt lat="45.96341" lon="4.58881">
        <ele>606</ele>
        <time>2016-09-29T08:27:15Z</time>
      </trkpt>
      <trkpt lat="45.96349" lon="4.5888">
        <ele>605</ele>
        <time>2016-09-29T08:27:20Z</time>
      </trkpt>
      <trkpt lat="45.9635" lon="4.58879">
        <ele>605</ele>
        <time>2016-09-29T08:27:21Z</time>
      </trkpt>
      <trkpt lat="45.96359" lon="4.58878">
        <ele>605</ele>
        <time>2016-09-29T08:27:27Z</time>
      </trkpt>
      <trkpt lat="45.9636" lon="4.58878">
        <ele>605</ele>
        <time>2016-09-29T08:27:28Z</time>
      </trkpt>
      <trkpt lat="45.96369" lon="4.58875">
        <ele>605</ele>
        <time>2016-09-29T08:27:34Z</time>
      </trkpt>
      <trkpt lat="45.9637" lon="4.58874">
        <ele>605</ele>
        <time>2016-09-29T08:27:35Z</time>
      </trkpt>
      <trkpt lat="45.96378" lon="4.58873">
        <ele>605</ele>
        <time>2016-09-29T08:27:41Z</time>
      </trkpt>
      <trkpt lat="45.96379" lon="4.58873">
        <ele>605</ele>
        <time>2016-09-29T08:27:42Z</time>
      </trkpt>
      <trkpt lat="45.96387" lon="4.58874">
        <ele>605</ele>
        <time>2016-09-29T08:27:48Z</time>
      </trkpt>
      <trkpt lat="45.96389" lon="4.58874">
        <ele>605</ele>
        <time>2016-09-29T08:27:49Z</time>
      </trkpt>
      <trkpt lat="45.96396" lon="4.58877">
        <ele>606</ele>
        <time>2016-09-29T08:27:54Z</time>
      </trkpt>
      <trkpt lat="45.96398" lon="4.58878">
        <ele>606</ele>
        <time>2016-09-29T08:27:55Z</time>
      </trkpt>
      <trkpt lat="45.96406" lon="4.58879">
        <ele>606</ele>
        <time>2016-09-29T08:28:01Z</time>
      </trkpt>
      <trkpt lat="45.96407" lon="4.58879">
        <ele>606</ele>
        <time>2016-09-29T08:28:02Z</time>
      </trkpt>
      <trkpt lat="45.96415" lon="4.58877">
        <ele>606</ele>
        <time>2016-09-29T08:28:08Z</time>
      </trkpt>
      <trkpt lat="45.96417" lon="4.58877">
        <ele>606</ele>
        <time>2016-09-29T08:28:09Z</time>
      </trkpt>
      <trkpt lat="45.96424" lon="4.58873">
        <ele>606</ele>
        <time>2016-09-29T08:28:14Z</time>
      </trkpt>
      <trkpt lat="45.96426" lon="4.58872">
        <ele>606</ele>
        <time>2016-09-29T08:28:15Z</time>
      </trkpt>
      <trkpt lat="45.96434" lon="4.58868">
        <ele>606</ele>
        <time>2016-09-29T08:28:21Z</time>
      </trkpt>
      <trkpt lat="45.96435" lon="4.58868">
        <ele>606</ele>
        <time>2016-09-29T08:28:22Z</time>
      </trkpt>
      <trkpt lat="45.96443" lon="4.58867">
        <ele>606</ele>
        <time>2016-09-29T08:28:29Z</time>
      </trkpt>
      <trkpt lat="45.96444" lon="4.58867">
        <ele>606</ele>
        <time>2016-09-29T08:28:30Z</time>
      </trkpt>
      <trkpt lat="45.96453" lon="4.58868">
        <ele>606</ele>
        <time>2016-09-29T08:28:37Z</time>
      </trkpt>
      <trkpt lat="45.96454" lon="4.58868">
        <ele>606</ele>
        <time>2016-09-29T08:28:38Z</time>
      </trkpt>
      <trkpt lat="45.96462" lon="4.5887">
        <ele>606</ele>
        <time>2016-09-29T08:28:43Z</time>
      </trkpt>
      <trkpt lat="45.96463" lon="4.5887">
        <ele>606</ele>
        <time>2016-09-29T08:28:44Z</time>
      </trkpt>
      <trkpt lat="45.96471" lon="4.58873">
        <ele>606</ele>
        <time>2016-09-29T08:28:50Z</time>
      </trkpt>
      <trkpt lat="45.96472" lon="4.58873">
        <ele>606</ele>
        <time>2016-09-29T08:28:51Z</time>
      </trkpt>
      <trkpt lat="45.96481" lon="4.58873">
        <ele>606</ele>
        <time>2016-09-29T08:28:57Z</time>
      </trkpt>
      <trkpt lat="45.96482" lon="4.58873">
        <ele>606</ele>
        <time>2016-09-29T08:28:58Z</time>
      </trkpt>
      <trkpt lat="45.9649" lon="4.58875">
        <ele>606</ele>
        <time>2016-09-29T08:29:04Z</time>
      </trkpt>
      <trkpt lat="45.96492" lon="4.58875">
        <ele>606</ele>
        <time>2016-09-29T08:29:05Z</time>
      </trkpt>
      <trkpt lat="45.96499" lon="4.58875">
        <ele>606</ele>
        <time>2016-09-29T08:29:10Z</time>
      </trkpt>
      <trkpt lat="45.96501" lon="4.58874">
        <ele>605</ele>
        <time>2016-09-29T08:29:11Z</time>
      </trkpt>
      <trkpt lat="45.96508" lon="4.58872">
        <ele>605</ele>
        <time>2016-09-29T08:29:16Z</time>
      </trkpt>
      <trkpt lat="45.9651" lon="4.58872">
        <ele>605</ele>
        <time>2016-09-29T08:29:17Z</time>
      </trkpt>
      <trkpt lat="45.96517" lon="4.58872">
        <ele>605</ele>
        <time>2016-09-29T08:29:22Z</time>
      </trkpt>
      <trkpt lat="45.96519" lon="4.58872">
        <ele>605</ele>
        <time>2016-09-29T08:29:23Z</time>
      </trkpt>
      <trkpt lat="45.96527" lon="4.58871">
        <ele>604</ele>
        <time>2016-09-29T08:29:29Z</time>
      </trkpt>
      <trkpt lat="45.96528" lon="4.58872">
        <ele>604</ele>
        <time>2016-09-29T08:29:30Z</time>
      </trkpt>
      <trkpt lat="45.96536" lon="4.58872">
        <ele>604</ele>
        <time>2016-09-29T08:29:36Z</time>
      </trkpt>
      <trkpt lat="45.96538" lon="4.58872">
        <ele>604</ele>
        <time>2016-09-29T08:29:37Z</time>
      </trkpt>
      <trkpt lat="45.96546" lon="4.58875">
        <ele>604</ele>
        <time>2016-09-29T08:29:43Z</time>
      </trkpt>
      <trkpt lat="45.96547" lon="4.58875">
        <ele>604</ele>
        <time>2016-09-29T08:29:44Z</time>
      </trkpt>
      <trkpt lat="45.96555" lon="4.58878">
        <ele>604</ele>
        <time>2016-09-29T08:29:49Z</time>
      </trkpt>
      <trkpt lat="45.96556" lon="4.58879">
        <ele>604</ele>
        <time>2016-09-29T08:29:50Z</time>
      </trkpt>
      <trkpt lat="45.96564" lon="4.58878">
        <ele>604</ele>
        <time>2016-09-29T08:29:55Z</time>
      </trkpt>
      <trkpt lat="45.96566" lon="4.58878">
        <ele>604</ele>
        <time>2016-09-29T08:29:56Z</time>
      </trkpt>
      <trkpt lat="45.96574" lon="4.58877">
        <ele>604</ele>
        <time>2016-09-29T08:30:03Z</time>
      </trkpt>
      <trkpt lat="45.96575" lon="4.58877">
        <ele>604</ele>
        <time>2016-09-29T08:30:04Z</time>
      </trkpt>
      <trkpt lat="45.96584" lon="4.58878">
        <ele>602</ele>
        <time>2016-09-29T08:30:11Z</time>
      </trkpt>
      <trkpt lat="45.96585" lon="4.58878">
        <ele>602</ele>
        <time>2016-09-29T08:30:12Z</time>
      </trkpt>
      <trkpt lat="45.96594" lon="4.58878">
        <ele>601</ele>
        <time>2016-09-29T08:30:19Z</time>
      </trkpt>
      <trkpt lat="45.96595" lon="4.58877">
        <ele>601</ele>
        <time>2016-09-29T08:30:20Z</time>
      </trkpt>
      <trkpt lat="45.96603" lon="4.58874">
        <ele>601</ele>
        <time>2016-09-29T08:30:27Z</time>
      </trkpt>
      <trkpt lat="45.96604" lon="4.58873">
        <ele>601</ele>
        <time>2016-09-29T08:30:28Z</time>
      </trkpt>
      <trkpt lat="45.96612" lon="4.58871">
        <ele>601</ele>
        <time>2016-09-29T08:30:34Z</time>
      </trkpt>
      <trkpt lat="45.96614" lon="4.58871">
        <ele>601</ele>
        <time>2016-09-29T08:30:35Z</time>
      </trkpt>
      <trkpt lat="45.96622" lon="4.5887">
        <ele>601</ele>
        <time>2016-09-29T08:30:41Z</time>
      </trkpt>
      <trkpt lat="45.96623" lon="4.5887">
        <ele>601</ele>
        <time>2016-09-29T08:30:42Z</time>
      </trkpt>
      <trkpt lat="45.96632" lon="4.58869">
        <ele>601</ele>
        <time>2016-09-29T08:30:48Z</time>
      </trkpt>
      <trkpt lat="45.96633" lon="4.58868">
        <ele>601</ele>
        <time>2016-09-29T08:30:49Z</time>
      </trkpt>
      <trkpt lat="45.96641" lon="4.58864">
        <ele>600</ele>
        <time>2016-09-29T08:30:56Z</time>
      </trkpt>
      <trkpt lat="45.96642" lon="4.58863">
        <ele>600</ele>
        <time>2016-09-29T08:30:57Z</time>
      </trkpt>
      <trkpt lat="45.9665" lon="4.58857">
        <ele>600</ele>
        <time>2016-09-29T08:31:04Z</time>
      </trkpt>
      <trkpt lat="45.96651" lon="4.58856">
        <ele>600</ele>
        <time>2016-09-29T08:31:05Z</time>
      </trkpt>
      <trkpt lat="45.96658" lon="4.58852">
        <ele>599</ele>
        <time>2016-09-29T08:31:11Z</time>
      </trkpt>
      <trkpt lat="45.9666" lon="4.58851">
        <ele>599</ele>
        <time>2016-09-29T08:31:12Z</time>
      </trkpt>
      <trkpt lat="45.96667" lon="4.58844">
        <ele>598</ele>
        <time>2016-09-29T08:31:18Z</time>
      </trkpt>
      <trkpt lat="45.96668" lon="4.58843">
        <ele>598</ele>
        <time>2016-09-29T08:31:19Z</time>
      </trkpt>
      <trkpt lat="45.96676" lon="4.58839">
        <ele>598</ele>
        <time>2016-09-29T08:31:25Z</time>
      </trkpt>
      <trkpt lat="45.96677" lon="4.58839">
        <ele>598</ele>
        <time>2016-09-29T08:31:26Z</time>
      </trkpt>
      <trkpt lat="45.96684" lon="4.58833">
        <ele>595</ele>
        <time>2016-09-29T08:31:32Z</time>
      </trkpt>
      <trkpt lat="45.96685" lon="4.58832">
        <ele>595</ele>
        <time>2016-09-29T08:31:33Z</time>
      </trkpt>
      <trkpt lat="45.96692" lon="4.58825">
        <ele>594</ele>
        <time>2016-09-29T08:31:39Z</time>
      </trkpt>
      <trkpt lat="45.96693" lon="4.58825">
        <ele>594</ele>
        <time>2016-09-29T08:31:40Z</time>
      </trkpt>
      <trkpt lat="45.96701" lon="4.5882">
        <ele>593</ele>
        <time>2016-09-29T08:31:46Z</time>
      </trkpt>
      <trkpt lat="45.96702" lon="4.5882">
        <ele>593</ele>
        <time>2016-09-29T08:31:47Z</time>
      </trkpt>
      <trkpt lat="45.96709" lon="4.58815">
        <ele>593</ele>
        <time>2016-09-29T08:31:53Z</time>
      </trkpt>
      <trkpt lat="45.96711" lon="4.58814">
        <ele>593</ele>
        <time>2016-09-29T08:31:54Z</time>
      </trkpt>
      <trkpt lat="45.96718" lon="4.58809">
        <ele>593</ele>
        <time>2016-09-29T08:32:00Z</time>
      </trkpt>
      <trkpt lat="45.96719" lon="4.58808">
        <ele>593</ele>
        <time>2016-09-29T08:32:01Z</time>
      </trkpt>
      <trkpt lat="45.96727" lon="4.58803">
        <ele>592</ele>
        <time>2016-09-29T08:32:08Z</time>
      </trkpt>
      <trkpt lat="45.96728" lon="4.58802">
        <ele>592</ele>
        <time>2016-09-29T08:32:09Z</time>
      </trkpt>
      <trkpt lat="45.96736" lon="4.58799">
        <ele>592</ele>
        <time>2016-09-29T08:32:16Z</time>
      </trkpt>
      <trkpt lat="45.96737" lon="4.58799">
        <ele>592</ele>
        <time>2016-09-29T08:32:17Z</time>
      </trkpt>
      <trkpt lat="45.96746" lon="4.58796">
        <ele>592</ele>
        <time>2016-09-29T08:32:25Z</time>
      </trkpt>
      <trkpt lat="45.96747" lon="4.58796">
        <ele>592</ele>
        <time>2016-09-29T08:32:26Z</time>
      </trkpt>
      <trkpt lat="45.96754" lon="4.58789">
        <ele>590</ele>
        <time>2016-09-29T08:32:33Z</time>
      </trkpt>
      <trkpt lat="45.96755" lon="4.58788">
        <ele>590</ele>
        <time>2016-09-29T08:32:34Z</time>
      </trkpt>
      <trkpt lat="45.96763" lon="4.58784">
        <ele>590</ele>
        <time>2016-09-29T08:32:40Z</time>
      </trkpt>
      <trkpt lat="45.96764" lon="4.58783">
        <ele>590</ele>
        <time>2016-09-29T08:32:41Z</time>
      </trkpt>
      <trkpt lat="45.96773" lon="4.58781">
        <ele>590</ele>
        <time>2016-09-29T08:32:48Z</time>
      </trkpt>
      <trkpt lat="45.96774" lon="4.58781">
        <ele>590</ele>
        <time>2016-09-29T08:32:49Z</time>
      </trkpt>
      <trkpt lat="45.96782" lon="4.58781">
        <ele>590</ele>
        <time>2016-09-29T08:33:00Z</time>
      </trkpt>
      <trkpt lat="45.96784" lon="4.5878">
        <ele>590</ele>
        <time>2016-09-29T08:33:01Z</time>
      </trkpt>
      <trkpt lat="45.96791" lon="4.58775">
        <ele>590</ele>
        <time>2016-09-29T08:33:07Z</time>
      </trkpt>
      <trkpt lat="45.96793" lon="4.58774">
        <ele>590</ele>
        <time>2016-09-29T08:33:08Z</time>
      </trkpt>
      <trkpt lat="45.968" lon="4.58768">
        <ele>589</ele>
        <time>2016-09-29T08:33:14Z</time>
      </trkpt>
      <trkpt lat="45.96802" lon="4.58767">
        <ele>589</ele>
        <time>2016-09-29T08:33:15Z</time>
      </trkpt>
      <trkpt lat="45.9681" lon="4.58762">
        <ele>589</ele>
        <time>2016-09-29T08:33:38Z</time>
      </trkpt>
      <trkpt lat="45.96811" lon="4.58761">
        <ele>589</ele>
        <time>2016-09-29T08:33:39Z</time>
      </trkpt>
      <trkpt lat="45.96818" lon="4.58759">
        <ele>589</ele>
        <time>2016-09-29T08:33:46Z</time>
      </trkpt>
      <trkpt lat="45.9682" lon="4.58758">
        <ele>588</ele>
        <time>2016-09-29T08:33:47Z</time>
      </trkpt>
      <trkpt lat="45.96827" lon="4.58755">
        <ele>588</ele>
        <time>2016-09-29T08:33:53Z</time>
      </trkpt>
      <trkpt lat="45.96829" lon="4.58754">
        <ele>588</ele>
        <time>2016-09-29T08:33:54Z</time>
      </trkpt>
      <trkpt lat="45.96836" lon="4.58749">
        <ele>587</ele>
        <time>2016-09-29T08:34:00Z</time>
      </trkpt>
      <trkpt lat="45.96837" lon="4.58747">
        <ele>587</ele>
        <time>2016-09-29T08:34:01Z</time>
      </trkpt>
      <trkpt lat="45.96844" lon="4.58741">
        <ele>587</ele>
        <time>2016-09-29T08:34:07Z</time>
      </trkpt>
      <trkpt lat="45.96845" lon="4.5874">
        <ele>587</ele>
        <time>2016-09-29T08:34:08Z</time>
      </trkpt>
      <trkpt lat="45.96852" lon="4.58733">
        <ele>587</ele>
        <time>2016-09-29T08:34:14Z</time>
      </trkpt>
      <trkpt lat="45.96853" lon="4.58732">
        <ele>587</ele>
        <time>2016-09-29T08:34:15Z</time>
      </trkpt>
      <trkpt lat="45.96861" lon="4.58727">
        <ele>587</ele>
        <time>2016-09-29T08:34:22Z</time>
      </trkpt>
      <trkpt lat="45.96862" lon="4.58726">
        <ele>587</ele>
        <time>2016-09-29T08:34:23Z</time>
      </trkpt>
      <trkpt lat="45.9687" lon="4.58722">
        <ele>588</ele>
        <time>2016-09-29T08:34:30Z</time>
      </trkpt>
      <trkpt lat="45.96871" lon="4.58721">
        <ele>588</ele>
        <time>2016-09-29T08:34:31Z</time>
      </trkpt>
      <trkpt lat="45.9688" lon="4.58718">
        <ele>588</ele>
        <time>2016-09-29T08:34:39Z</time>
      </trkpt>
      <trkpt lat="45.96881" lon="4.58718">
        <ele>588</ele>
        <time>2016-09-29T08:34:40Z</time>
      </trkpt>
      <trkpt lat="45.9689" lon="4.58715">
        <ele>588</ele>
        <time>2016-09-29T08:34:47Z</time>
      </trkpt>
      <trkpt lat="45.96891" lon="4.58714">
        <ele>588</ele>
        <time>2016-09-29T08:34:48Z</time>
      </trkpt>
      <trkpt lat="45.96899" lon="4.58711">
        <ele>588</ele>
        <time>2016-09-29T08:34:55Z</time>
      </trkpt>
      <trkpt lat="45.969" lon="4.5871">
        <ele>589</ele>
        <time>2016-09-29T08:34:56Z</time>
      </trkpt>
      <trkpt lat="45.96908" lon="4.58705">
        <ele>589</ele>
        <time>2016-09-29T08:35:02Z</time>
      </trkpt>
      <trkpt lat="45.96909" lon="4.58704">
        <ele>589</ele>
        <time>2016-09-29T08:35:03Z</time>
      </trkpt>
      <trkpt lat="45.96915" lon="4.58697">
        <ele>589</ele>
        <time>2016-09-29T08:35:09Z</time>
      </trkpt>
      <trkpt lat="45.96916" lon="4.58696">
        <ele>589</ele>
        <time>2016-09-29T08:35:10Z</time>
      </trkpt>
      <trkpt lat="45.96923" lon="4.58688">
        <ele>591</ele>
        <time>2016-09-29T08:35:17Z</time>
      </trkpt>
      <trkpt lat="45.96924" lon="4.58687">
        <ele>591</ele>
        <time>2016-09-29T08:35:18Z</time>
      </trkpt>
      <trkpt lat="45.9693" lon="4.5868">
        <ele>590</ele>
        <time>2016-09-29T08:35:24Z</time>
      </trkpt>
      <trkpt lat="45.96931" lon="4.58679">
        <ele>590</ele>
        <time>2016-09-29T08:35:25Z</time>
      </trkpt>
      <trkpt lat="45.96939" lon="4.58673">
        <ele>590</ele>
        <time>2016-09-29T08:35:31Z</time>
      </trkpt>
      <trkpt lat="45.9694" lon="4.58672">
        <ele>590</ele>
        <time>2016-09-29T08:35:32Z</time>
      </trkpt>
      <trkpt lat="45.96947" lon="4.58666">
        <ele>590</ele>
        <time>2016-09-29T08:35:38Z</time>
      </trkpt>
      <trkpt lat="45.96948" lon="4.58666">
        <ele>590</ele>
        <time>2016-09-29T08:35:39Z</time>
      </trkpt>
      <trkpt lat="45.96956" lon="4.58663">
        <ele>590</ele>
        <time>2016-09-29T08:35:46Z</time>
      </trkpt>
      <trkpt lat="45.96958" lon="4.58663">
        <ele>590</ele>
        <time>2016-09-29T08:35:47Z</time>
      </trkpt>
      <trkpt lat="45.96965" lon="4.58656">
        <ele>590</ele>
        <time>2016-09-29T08:36:02Z</time>
      </trkpt>
      <trkpt lat="45.96966" lon="4.58655">
        <ele>590</ele>
        <time>2016-09-29T08:36:03Z</time>
      </trkpt>
      <trkpt lat="45.96971" lon="4.58648">
        <ele>590</ele>
        <time>2016-09-29T08:36:09Z</time>
      </trkpt>
      <trkpt lat="45.96972" lon="4.58646">
        <ele>590</ele>
        <time>2016-09-29T08:36:10Z</time>
      </trkpt>
      <trkpt lat="45.96978" lon="4.58639">
        <ele>590</ele>
        <time>2016-09-29T08:36:15Z</time>
      </trkpt>
      <trkpt lat="45.96979" lon="4.58638">
        <ele>590</ele>
        <time>2016-09-29T08:36:16Z</time>
      </trkpt>
      <trkpt lat="45.96986" lon="4.5863">
        <ele>590</ele>
        <time>2016-09-29T08:36:22Z</time>
      </trkpt>
      <trkpt lat="45.96987" lon="4.58629">
        <ele>590</ele>
        <time>2016-09-29T08:36:23Z</time>
      </trkpt>
      <trkpt lat="45.96995" lon="4.58623">
        <ele>591</ele>
        <time>2016-09-29T08:36:29Z</time>
      </trkpt>
      <trkpt lat="45.96996" lon="4.58622">
        <ele>591</ele>
        <time>2016-09-29T08:36:30Z</time>
      </trkpt>
      <trkpt lat="45.97002" lon="4.58614">
        <ele>590</ele>
        <time>2016-09-29T08:36:37Z</time>
      </trkpt>
      <trkpt lat="45.97003" lon="4.58613">
        <ele>590</ele>
        <time>2016-09-29T08:36:38Z</time>
      </trkpt>
      <trkpt lat="45.9701" lon="4.58607">
        <ele>590</ele>
        <time>2016-09-29T08:36:44Z</time>
      </trkpt>
      <trkpt lat="45.97011" lon="4.58606">
        <ele>590</ele>
        <time>2016-09-29T08:36:45Z</time>
      </trkpt>
      <trkpt lat="45.97019" lon="4.58601">
        <ele>590</ele>
        <time>2016-09-29T08:36:51Z</time>
      </trkpt>
      <trkpt lat="45.9702" lon="4.58601">
        <ele>590</ele>
        <time>2016-09-29T08:36:52Z</time>
      </trkpt>
      <trkpt lat="45.97027" lon="4.58594">
        <ele>590</ele>
        <time>2016-09-29T08:36:59Z</time>
      </trkpt>
      <trkpt lat="45.97028" lon="4.58592">
        <ele>590</ele>
        <time>2016-09-29T08:37:00Z</time>
      </trkpt>
      <trkpt lat="45.97033" lon="4.58583">
        <ele>593</ele>
        <time>2016-09-29T08:37:07Z</time>
      </trkpt>
      <trkpt lat="45.97034" lon="4.58582">
        <ele>593</ele>
        <time>2016-09-29T08:37:08Z</time>
      </trkpt>
      <trkpt lat="45.97039" lon="4.58572">
        <ele>593</ele>
        <time>2016-09-29T08:37:15Z</time>
      </trkpt>
      <trkpt lat="45.9704" lon="4.58571">
        <ele>593</ele>
        <time>2016-09-29T08:37:16Z</time>
      </trkpt>
      <trkpt lat="45.97045" lon="4.58561">
        <ele>593</ele>
        <time>2016-09-29T08:37:23Z</time>
      </trkpt>
      <trkpt lat="45.97046" lon="4.58559">
        <ele>593</ele>
        <time>2016-09-29T08:37:24Z</time>
      </trkpt>
      <trkpt lat="45.9705" lon="4.58549">
        <ele>594</ele>
        <time>2016-09-29T08:37:32Z</time>
      </trkpt>
      <trkpt lat="45.9705" lon="4.58547">
        <ele>594</ele>
        <time>2016-09-29T08:37:33Z</time>
      </trkpt>
      <trkpt lat="45.97055" lon="4.58538">
        <ele>594</ele>
        <time>2016-09-29T08:37:39Z</time>
      </trkpt>
      <trkpt lat="45.97056" lon="4.58537">
        <ele>594</ele>
        <time>2016-09-29T08:37:40Z</time>
      </trkpt>
      <trkpt lat="45.97061" lon="4.58526">
        <ele>594</ele>
        <time>2016-09-29T08:37:47Z</time>
      </trkpt>
      <trkpt lat="45.97062" lon="4.58525">
        <ele>594</ele>
        <time>2016-09-29T08:37:48Z</time>
      </trkpt>
      <trkpt lat="45.97067" lon="4.58516">
        <ele>595</ele>
        <time>2016-09-29T08:37:54Z</time>
      </trkpt>
      <trkpt lat="45.97067" lon="4.58514">
        <ele>595</ele>
        <time>2016-09-29T08:37:55Z</time>
      </trkpt>
      <trkpt lat="45.97073" lon="4.58506">
        <ele>595</ele>
        <time>2016-09-29T08:38:02Z</time>
      </trkpt>
      <trkpt lat="45.97074" lon="4.58505">
        <ele>595</ele>
        <time>2016-09-29T08:38:03Z</time>
      </trkpt>
      <trkpt lat="45.97081" lon="4.58497">
        <ele>596</ele>
        <time>2016-09-29T08:38:09Z</time>
      </trkpt>
      <trkpt lat="45.97082" lon="4.58496">
        <ele>596</ele>
        <time>2016-09-29T08:38:10Z</time>
      </trkpt>
      <trkpt lat="45.97089" lon="4.5849">
        <ele>596</ele>
        <time>2016-09-29T08:38:17Z</time>
      </trkpt>
      <trkpt lat="45.9709" lon="4.5849">
        <ele>596</ele>
        <time>2016-09-29T08:38:18Z</time>
      </trkpt>
      <trkpt lat="45.97097" lon="4.58482">
        <ele>596</ele>
        <time>2016-09-29T08:38:25Z</time>
      </trkpt>
      <trkpt lat="45.97098" lon="4.58481">
        <ele>596</ele>
        <time>2016-09-29T08:38:26Z</time>
      </trkpt>
      <trkpt lat="45.97104" lon="4.58473">
        <ele>596</ele>
        <time>2016-09-29T08:38:33Z</time>
      </trkpt>
      <trkpt lat="45.97105" lon="4.58473">
        <ele>596</ele>
        <time>2016-09-29T08:38:34Z</time>
      </trkpt>
      <trkpt lat="45.97112" lon="4.58469">
        <ele>596</ele>
        <time>2016-09-29T08:38:40Z</time>
      </trkpt>
      <trkpt lat="45.97114" lon="4.58469">
        <ele>596</ele>
        <time>2016-09-29T08:38:41Z</time>
      </trkpt>
      <trkpt lat="45.97121" lon="4.58464">
        <ele>596</ele>
        <time>2016-09-29T08:38:47Z</time>
      </trkpt>
      <trkpt lat="45.97122" lon="4.58463">
        <ele>596</ele>
        <time>2016-09-29T08:38:48Z</time>
      </trkpt>
      <trkpt lat="45.97128" lon="4.58454">
        <ele>596</ele>
        <time>2016-09-29T08:38:55Z</time>
      </trkpt>
      <trkpt lat="45.97129" lon="4.58453">
        <ele>596</ele>
        <time>2016-09-29T08:38:56Z</time>
      </trkpt>
      <trkpt lat="45.97136" lon="4.58445">
        <ele>596</ele>
        <time>2016-09-29T08:39:03Z</time>
      </trkpt>
      <trkpt lat="45.97137" lon="4.58445">
        <ele>596</ele>
        <time>2016-09-29T08:39:04Z</time>
      </trkpt>
      <trkpt lat="45.97145" lon="4.58441">
        <ele>596</ele>
        <time>2016-09-29T08:39:10Z</time>
      </trkpt>
      <trkpt lat="45.97146" lon="4.5844">
        <ele>596</ele>
        <time>2016-09-29T08:39:11Z</time>
      </trkpt>
      <trkpt lat="45.97153" lon="4.58435">
        <ele>596</ele>
        <time>2016-09-29T08:39:18Z</time>
      </trkpt>
      <trkpt lat="45.97154" lon="4.58434">
        <ele>596</ele>
        <time>2016-09-29T08:39:19Z</time>
      </trkpt>
      <trkpt lat="45.97161" lon="4.58429">
        <ele>596</ele>
        <time>2016-09-29T08:39:25Z</time>
      </trkpt>
      <trkpt lat="45.97163" lon="4.58429">
        <ele>596</ele>
        <time>2016-09-29T08:39:26Z</time>
      </trkpt>
      <trkpt lat="45.97171" lon="4.58427">
        <ele>595</ele>
        <time>2016-09-29T08:39:33Z</time>
      </trkpt>
      <trkpt lat="45.97172" lon="4.58427">
        <ele>595</ele>
        <time>2016-09-29T08:39:34Z</time>
      </trkpt>
      <trkpt lat="45.97181" lon="4.58426">
        <ele>594</ele>
        <time>2016-09-29T08:39:41Z</time>
      </trkpt>
      <trkpt lat="45.97182" lon="4.58425">
        <ele>594</ele>
        <time>2016-09-29T08:39:42Z</time>
      </trkpt>
      <trkpt lat="45.9719" lon="4.58422">
        <ele>594</ele>
        <time>2016-09-29T08:39:49Z</time>
      </trkpt>
      <trkpt lat="45.97191" lon="4.58422">
        <ele>594</ele>
        <time>2016-09-29T08:39:50Z</time>
      </trkpt>
      <trkpt lat="45.97199" lon="4.58421">
        <ele>594</ele>
        <time>2016-09-29T08:39:56Z</time>
      </trkpt>
      <trkpt lat="45.97201" lon="4.5842">
        <ele>594</ele>
        <time>2016-09-29T08:39:57Z</time>
      </trkpt>
      <trkpt lat="45.97209" lon="4.5842">
        <ele>594</ele>
        <time>2016-09-29T08:40:03Z</time>
      </trkpt>
      <trkpt lat="45.97211" lon="4.5842">
        <ele>594</ele>
        <time>2016-09-29T08:40:04Z</time>
      </trkpt>
      <trkpt lat="45.97219" lon="4.58417">
        <ele>593</ele>
        <time>2016-09-29T08:40:10Z</time>
      </trkpt>
      <trkpt lat="45.9722" lon="4.58416">
        <ele>593</ele>
        <time>2016-09-29T08:40:11Z</time>
      </trkpt>
      <trkpt lat="45.97228" lon="4.58413">
        <ele>593</ele>
        <time>2016-09-29T08:40:17Z</time>
      </trkpt>
      <trkpt lat="45.97229" lon="4.58412">
        <ele>593</ele>
        <time>2016-09-29T08:40:18Z</time>
      </trkpt>
      <trkpt lat="45.97237" lon="4.58409">
        <ele>593</ele>
        <time>2016-09-29T08:40:25Z</time>
      </trkpt>
      <trkpt lat="45.97238" lon="4.58409">
        <ele>593</ele>
        <time>2016-09-29T08:40:26Z</time>
      </trkpt>
      <trkpt lat="45.97246" lon="4.58404">
        <ele>593</ele>
        <time>2016-09-29T08:41:27Z</time>
      </trkpt>
      <trkpt lat="45.97247" lon="4.58404">
        <ele>593</ele>
        <time>2016-09-29T08:41:28Z</time>
      </trkpt>
      <trkpt lat="45.97255" lon="4.58402">
        <ele>592</ele>
        <time>2016-09-29T08:41:34Z</time>
      </trkpt>
      <trkpt lat="45.97256" lon="4.58402">
        <ele>592</ele>
        <time>2016-09-29T08:41:35Z</time>
      </trkpt>
      <trkpt lat="45.97264" lon="4.58399">
        <ele>591</ele>
        <time>2016-09-29T08:41:41Z</time>
      </trkpt>
      <trkpt lat="45.97265" lon="4.58398">
        <ele>591</ele>
        <time>2016-09-29T08:41:42Z</time>
      </trkpt>
      <trkpt lat="45.97274" lon="4.58399">
        <ele>591</ele>
        <time>2016-09-29T08:41:49Z</time>
      </trkpt>
      <trkpt lat="45.97275" lon="4.584">
        <ele>591</ele>
        <time>2016-09-29T08:41:50Z</time>
      </trkpt>
      <trkpt lat="45.97283" lon="4.58399">
        <ele>591</ele>
        <time>2016-09-29T08:41:57Z</time>
      </trkpt>
      <trkpt lat="45.97285" lon="4.58399">
        <ele>591</ele>
        <time>2016-09-29T08:41:58Z</time>
      </trkpt>
      <trkpt lat="45.97294" lon="4.58398">
        <ele>590</ele>
        <time>2016-09-29T08:42:04Z</time>
      </trkpt>
      <trkpt lat="45.97295" lon="4.58398">
        <ele>590</ele>
        <time>2016-09-29T08:42:05Z</time>
      </trkpt>
      <trkpt lat="45.97303" lon="4.58396">
        <ele>590</ele>
        <time>2016-09-29T08:42:12Z</time>
      </trkpt>
      <trkpt lat="45.97304" lon="4.58395">
        <ele>590</ele>
        <time>2016-09-29T08:42:13Z</time>
      </trkpt>
      <trkpt lat="45.97312" lon="4.58389">
        <ele>590</ele>
        <time>2016-09-29T08:42:20Z</time>
      </trkpt>
      <trkpt lat="45.97313" lon="4.58389">
        <ele>590</ele>
        <time>2016-09-29T08:42:21Z</time>
      </trkpt>
      <trkpt lat="45.97321" lon="4.58383">
        <ele>590</ele>
        <time>2016-09-29T08:42:28Z</time>
      </trkpt>
      <trkpt lat="45.97322" lon="4.58382">
        <ele>590</ele>
        <time>2016-09-29T08:42:29Z</time>
      </trkpt>
      <trkpt lat="45.97328" lon="4.58374">
        <ele>589</ele>
        <time>2016-09-29T08:42:36Z</time>
      </trkpt>
      <trkpt lat="45.97329" lon="4.58372">
        <ele>589</ele>
        <time>2016-09-29T08:42:37Z</time>
      </trkpt>
      <trkpt lat="45.97334" lon="4.58365">
        <ele>586</ele>
        <time>2016-09-29T08:42:43Z</time>
      </trkpt>
      <trkpt lat="45.97336" lon="4.58363">
        <ele>585</ele>
        <time>2016-09-29T08:42:44Z</time>
      </trkpt>
      <trkpt lat="45.97344" lon="4.58361">
        <ele>585</ele>
        <time>2016-09-29T08:42:51Z</time>
      </trkpt>
      <trkpt lat="45.97344" lon="4.5836">
        <ele>585</ele>
        <time>2016-09-29T08:42:52Z</time>
      </trkpt>
      <trkpt lat="45.97353" lon="4.58358">
        <ele>585</ele>
        <time>2016-09-29T08:43:00Z</time>
      </trkpt>
      <trkpt lat="45.97354" lon="4.58357">
        <ele>585</ele>
        <time>2016-09-29T08:43:01Z</time>
      </trkpt>
      <trkpt lat="45.97363" lon="4.58358">
        <ele>585</ele>
        <time>2016-09-29T08:43:07Z</time>
      </trkpt>
      <trkpt lat="45.97365" lon="4.58358">
        <ele>585</ele>
        <time>2016-09-29T08:43:08Z</time>
      </trkpt>
      <trkpt lat="45.97373" lon="4.58359">
        <ele>584</ele>
        <time>2016-09-29T08:43:14Z</time>
      </trkpt>
      <trkpt lat="45.97374" lon="4.58359">
        <ele>584</ele>
        <time>2016-09-29T08:43:15Z</time>
      </trkpt>
      <trkpt lat="45.97382" lon="4.58359">
        <ele>584</ele>
        <time>2016-09-29T08:43:21Z</time>
      </trkpt>
      <trkpt lat="45.97383" lon="4.58359">
        <ele>584</ele>
        <time>2016-09-29T08:43:22Z</time>
      </trkpt>
      <trkpt lat="45.97391" lon="4.58361">
        <ele>584</ele>
        <time>2016-09-29T08:43:55Z</time>
      </trkpt>
      <trkpt lat="45.97392" lon="4.58361">
        <ele>584</ele>
        <time>2016-09-29T08:43:56Z</time>
      </trkpt>
      <trkpt lat="45.974" lon="4.58364">
        <ele>584</ele>
        <time>2016-09-29T08:44:02Z</time>
      </trkpt>
      <trkpt lat="45.97401" lon="4.58364">
        <ele>583</ele>
        <time>2016-09-29T08:44:03Z</time>
      </trkpt>
      <trkpt lat="45.97409" lon="4.58368">
        <ele>583</ele>
        <time>2016-09-29T08:44:10Z</time>
      </trkpt>
      <trkpt lat="45.9741" lon="4.58369">
        <ele>583</ele>
        <time>2016-09-29T08:44:11Z</time>
      </trkpt>
      <trkpt lat="45.97417" lon="4.58375">
        <ele>579</ele>
        <time>2016-09-29T08:44:17Z</time>
      </trkpt>
      <trkpt lat="45.97418" lon="4.58376">
        <ele>579</ele>
        <time>2016-09-29T08:44:18Z</time>
      </trkpt>
      <trkpt lat="45.97426" lon="4.58378">
        <ele>579</ele>
        <time>2016-09-29T08:44:24Z</time>
      </trkpt>
      <trkpt lat="45.97427" lon="4.58378">
        <ele>579</ele>
        <time>2016-09-29T08:44:25Z</time>
      </trkpt>
      <trkpt lat="45.97436" lon="4.5838">
        <ele>578</ele>
        <time>2016-09-29T08:44:32Z</time>
      </trkpt>
      <trkpt lat="45.97437" lon="4.5838">
        <ele>578</ele>
        <time>2016-09-29T08:44:33Z</time>
      </trkpt>
      <trkpt lat="45.97445" lon="4.58381">
        <ele>578</ele>
        <time>2016-09-29T08:44:40Z</time>
      </trkpt>
      <trkpt lat="45.97446" lon="4.58381">
        <ele>578</ele>
        <time>2016-09-29T08:44:41Z</time>
      </trkpt>
      <trkpt lat="45.97455" lon="4.58382">
        <ele>577</ele>
        <time>2016-09-29T08:44:48Z</time>
      </trkpt>
      <trkpt lat="45.97456" lon="4.58382">
        <ele>577</ele>
        <time>2016-09-29T08:44:49Z</time>
      </trkpt>
      <trkpt lat="45.97464" lon="4.58384">
        <ele>577</ele>
        <time>2016-09-29T08:44:55Z</time>
      </trkpt>
      <trkpt lat="45.97465" lon="4.58385">
        <ele>577</ele>
        <time>2016-09-29T08:44:56Z</time>
      </trkpt>
      <trkpt lat="45.97473" lon="4.58387">
        <ele>576</ele>
        <time>2016-09-29T08:45:02Z</time>
      </trkpt>
      <trkpt lat="45.97474" lon="4.58387">
        <ele>576</ele>
        <time>2016-09-29T08:45:03Z</time>
      </trkpt>
      <trkpt lat="45.97482" lon="4.58387">
        <ele>576</ele>
        <time>2016-09-29T08:45:09Z</time>
      </trkpt>
      <trkpt lat="45.97483" lon="4.58387">
        <ele>576</ele>
        <time>2016-09-29T08:45:10Z</time>
      </trkpt>
      <trkpt lat="45.97492" lon="4.5839">
        <ele>576</ele>
        <time>2016-09-29T08:45:35Z</time>
      </trkpt>
      <trkpt lat="45.97493" lon="4.58391">
        <ele>576</ele>
        <time>2016-09-29T08:45:36Z</time>
      </trkpt>
      <trkpt lat="45.975" lon="4.58395">
        <ele>572</ele>
        <time>2016-09-29T08:45:42Z</time>
      </trkpt>
      <trkpt lat="45.97501" lon="4.58396">
        <ele>572</ele>
        <time>2016-09-29T08:45:43Z</time>
      </trkpt>
      <trkpt lat="45.9751" lon="4.58399">
        <ele>572</ele>
        <time>2016-09-29T08:45:50Z</time>
      </trkpt>
      <trkpt lat="45.97511" lon="4.58398">
        <ele>572</ele>
        <time>2016-09-29T08:45:51Z</time>
      </trkpt>
      <trkpt lat="45.9752" lon="4.584">
        <ele>571</ele>
        <time>2016-09-29T08:45:59Z</time>
      </trkpt>
      <trkpt lat="45.97521" lon="4.584">
        <ele>571</ele>
        <time>2016-09-29T08:46:00Z</time>
      </trkpt>
      <trkpt lat="45.97529" lon="4.58402">
        <ele>571</ele>
        <time>2016-09-29T08:46:06Z</time>
      </trkpt>
      <trkpt lat="45.9753" lon="4.58402">
        <ele>571</ele>
        <time>2016-09-29T08:46:07Z</time>
      </trkpt>
      <trkpt lat="45.97538" lon="4.58402">
        <ele>571</ele>
        <time>2016-09-29T08:46:13Z</time>
      </trkpt>
      <trkpt lat="45.97539" lon="4.58402">
        <ele>571</ele>
        <time>2016-09-29T08:46:14Z</time>
      </trkpt>
      <trkpt lat="45.97547" lon="4.58401">
        <ele>570</ele>
        <time>2016-09-29T08:46:20Z</time>
      </trkpt>
      <trkpt lat="45.97549" lon="4.58401">
        <ele>570</ele>
        <time>2016-09-29T08:46:21Z</time>
      </trkpt>
      <trkpt lat="45.97557" lon="4.584">
        <ele>570</ele>
        <time>2016-09-29T08:46:28Z</time>
      </trkpt>
      <trkpt lat="45.97558" lon="4.584">
        <ele>570</ele>
        <time>2016-09-29T08:46:29Z</time>
      </trkpt>
      <trkpt lat="45.97567" lon="4.58399">
        <ele>569</ele>
        <time>2016-09-29T08:46:36Z</time>
      </trkpt>
      <trkpt lat="45.97568" lon="4.58398">
        <ele>569</ele>
        <time>2016-09-29T08:46:37Z</time>
      </trkpt>
      <trkpt lat="45.97575" lon="4.58397">
        <ele>569</ele>
        <time>2016-09-29T08:46:43Z</time>
      </trkpt>
      <trkpt lat="45.97577" lon="4.58397">
        <ele>569</ele>
        <time>2016-09-29T08:46:44Z</time>
      </trkpt>
      <trkpt lat="45.97585" lon="4.58398">
        <ele>566</ele>
        <time>2016-09-29T08:46:50Z</time>
      </trkpt>
      <trkpt lat="45.97586" lon="4.58398">
        <ele>566</ele>
        <time>2016-09-29T08:46:51Z</time>
      </trkpt>
      <trkpt lat="45.97595" lon="4.58398">
        <ele>566</ele>
        <time>2016-09-29T08:46:58Z</time>
      </trkpt>
      <trkpt lat="45.97596" lon="4.58398">
        <ele>566</ele>
        <time>2016-09-29T08:46:59Z</time>
      </trkpt>
      <trkpt lat="45.97605" lon="4.58399">
        <ele>566</ele>
        <time>2016-09-29T08:47:06Z</time>
      </trkpt>
      <trkpt lat="45.97606" lon="4.58399">
        <ele>566</ele>
        <time>2016-09-29T08:47:07Z</time>
      </trkpt>
      <trkpt lat="45.97615" lon="4.58397">
        <ele>565</ele>
        <time>2016-09-29T08:47:14Z</time>
      </trkpt>
      <trkpt lat="45.97616" lon="4.58397">
        <ele>565</ele>
        <time>2016-09-29T08:47:15Z</time>
      </trkpt>
      <trkpt lat="45.97625" lon="4.58397">
        <ele>565</ele>
        <time>2016-09-29T08:47:22Z</time>
      </trkpt>
      <trkpt lat="45.97626" lon="4.58396">
        <ele>565</ele>
        <time>2016-09-29T08:47:23Z</time>
      </trkpt>
      <trkpt lat="45.97633" lon="4.58396">
        <ele>564</ele>
        <time>2016-09-29T08:47:29Z</time>
      </trkpt>
      <trkpt lat="45.97635" lon="4.58396">
        <ele>564</ele>
        <time>2016-09-29T08:47:30Z</time>
      </trkpt>
      <trkpt lat="45.97644" lon="4.58396">
        <ele>564</ele>
        <time>2016-09-29T08:47:37Z</time>
      </trkpt>
      <trkpt lat="45.97645" lon="4.58396">
        <ele>564</ele>
        <time>2016-09-29T08:47:38Z</time>
      </trkpt>
      <trkpt lat="45.97653" lon="4.58398">
        <ele>564</ele>
        <time>2016-09-29T08:47:44Z</time>
      </trkpt>
      <trkpt lat="45.97654" lon="4.58398">
        <ele>564</ele>
        <time>2016-09-29T08:47:45Z</time>
      </trkpt>
      <trkpt lat="45.97662" lon="4.58396">
        <ele>563</ele>
        <time>2016-09-29T08:47:52Z</time>
      </trkpt>
      <trkpt lat="45.97663" lon="4.58396">
        <ele>563</ele>
        <time>2016-09-29T08:47:53Z</time>
      </trkpt>
      <trkpt lat="45.97672" lon="4.58397">
        <ele>559</ele>
        <time>2016-09-29T08:47:59Z</time>
      </trkpt>
      <trkpt lat="45.97673" lon="4.58396">
        <ele>559</ele>
        <time>2016-09-29T08:48:00Z</time>
      </trkpt>
      <trkpt lat="45.97682" lon="4.58396">
        <ele>558</ele>
        <time>2016-09-29T08:48:06Z</time>
      </trkpt>
      <trkpt lat="45.97683" lon="4.58396">
        <ele>558</ele>
        <time>2016-09-29T08:48:07Z</time>
      </trkpt>
      <trkpt lat="45.97692" lon="4.58397">
        <ele>558</ele>
        <time>2016-09-29T08:48:14Z</time>
      </trkpt>
      <trkpt lat="45.97693" lon="4.58397">
        <ele>558</ele>
        <time>2016-09-29T08:48:15Z</time>
      </trkpt>
      <trkpt lat="45.97701" lon="4.58396">
        <ele>557</ele>
        <time>2016-09-29T08:48:22Z</time>
      </trkpt>
      <trkpt lat="45.97703" lon="4.58395">
        <ele>557</ele>
        <time>2016-09-29T08:48:23Z</time>
      </trkpt>
      <trkpt lat="45.9771" lon="4.5839">
        <ele>556</ele>
        <time>2016-09-29T08:48:29Z</time>
      </trkpt>
      <trkpt lat="45.97711" lon="4.58388">
        <ele>556</ele>
        <time>2016-09-29T08:48:30Z</time>
      </trkpt>
      <trkpt lat="45.97717" lon="4.58379">
        <ele>556</ele>
        <time>2016-09-29T08:48:37Z</time>
      </trkpt>
      <trkpt lat="45.97718" lon="4.58377">
        <ele>556</ele>
        <time>2016-09-29T08:48:38Z</time>
      </trkpt>
      <trkpt lat="45.97723" lon="4.58368">
        <ele>555</ele>
        <time>2016-09-29T08:48:45Z</time>
      </trkpt>
      <trkpt lat="45.97724" lon="4.58366">
        <ele>555</ele>
        <time>2016-09-29T08:48:46Z</time>
      </trkpt>
      <trkpt lat="45.9773" lon="4.58358">
        <ele>555</ele>
        <time>2016-09-29T08:48:52Z</time>
      </trkpt>
      <trkpt lat="45.97731" lon="4.58357">
        <ele>555</ele>
        <time>2016-09-29T08:48:53Z</time>
      </trkpt>
      <trkpt lat="45.97735" lon="4.58347">
        <ele>554</ele>
        <time>2016-09-29T08:48:59Z</time>
      </trkpt>
      <trkpt lat="45.97736" lon="4.58346">
        <ele>554</ele>
        <time>2016-09-29T08:49:00Z</time>
      </trkpt>
      <trkpt lat="45.97742" lon="4.5834">
        <ele>553</ele>
        <time>2016-09-29T08:49:06Z</time>
      </trkpt>
      <trkpt lat="45.97743" lon="4.58339">
        <ele>553</ele>
        <time>2016-09-29T08:49:07Z</time>
      </trkpt>
      <trkpt lat="45.9775" lon="4.58333">
        <ele>551</ele>
        <time>2016-09-29T08:49:13Z</time>
      </trkpt>
      <trkpt lat="45.97751" lon="4.58332">
        <ele>551</ele>
        <time>2016-09-29T08:49:14Z</time>
      </trkpt>
      <trkpt lat="45.97759" lon="4.5833">
        <ele>551</ele>
        <time>2016-09-29T08:49:20Z</time>
      </trkpt>
      <trkpt lat="45.9776" lon="4.58329">
        <ele>551</ele>
        <time>2016-09-29T08:49:21Z</time>
      </trkpt>
      <trkpt lat="45.97768" lon="4.58331">
        <ele>551</ele>
        <time>2016-09-29T08:49:28Z</time>
      </trkpt>
      <trkpt lat="45.97769" lon="4.58332">
        <ele>551</ele>
        <time>2016-09-29T08:49:29Z</time>
      </trkpt>
      <trkpt lat="45.97777" lon="4.58335">
        <ele>551</ele>
        <time>2016-09-29T08:49:35Z</time>
      </trkpt>
      <trkpt lat="45.97778" lon="4.58336">
        <ele>551</ele>
        <time>2016-09-29T08:49:36Z</time>
      </trkpt>
      <trkpt lat="45.97786" lon="4.58339">
        <ele>551</ele>
        <time>2016-09-29T08:49:44Z</time>
      </trkpt>
      <trkpt lat="45.97787" lon="4.58339">
        <ele>551</ele>
        <time>2016-09-29T08:49:45Z</time>
      </trkpt>
      <trkpt lat="45.97796" lon="4.58341">
        <ele>551</ele>
        <time>2016-09-29T08:49:53Z</time>
      </trkpt>
      <trkpt lat="45.97797" lon="4.58342">
        <ele>551</ele>
        <time>2016-09-29T08:49:54Z</time>
      </trkpt>
      <trkpt lat="45.97805" lon="4.58342">
        <ele>551</ele>
        <time>2016-09-29T08:50:02Z</time>
      </trkpt>
      <trkpt lat="45.97806" lon="4.58341">
        <ele>551</ele>
        <time>2016-09-29T08:50:03Z</time>
      </trkpt>
      <trkpt lat="45.97812" lon="4.58334">
        <ele>551</ele>
        <time>2016-09-29T08:50:10Z</time>
      </trkpt>
      <trkpt lat="45.97813" lon="4.58333">
        <ele>551</ele>
        <time>2016-09-29T08:50:11Z</time>
      </trkpt>
      <trkpt lat="45.9782" lon="4.58326">
        <ele>551</ele>
        <time>2016-09-29T08:58:09Z</time>
      </trkpt>
      <trkpt lat="45.97821" lon="4.58326">
        <ele>551</ele>
        <time>2016-09-29T08:58:10Z</time>
      </trkpt>
      <trkpt lat="45.97828" lon="4.58319">
        <ele>551</ele>
        <time>2016-09-29T08:58:19Z</time>
      </trkpt>
      <trkpt lat="45.97829" lon="4.58318">
        <ele>551</ele>
        <time>2016-09-29T08:58:20Z</time>
      </trkpt>
      <trkpt lat="45.97837" lon="4.58313">
        <ele>552</ele>
        <time>2016-09-29T08:58:27Z</time>
      </trkpt>
      <trkpt lat="45.97838" lon="4.58312">
        <ele>552</ele>
        <time>2016-09-29T08:58:28Z</time>
      </trkpt>
      <trkpt lat="45.97845" lon="4.58304">
        <ele>552</ele>
        <time>2016-09-29T08:58:36Z</time>
      </trkpt>
      <trkpt lat="45.97845" lon="4.58303">
        <ele>552</ele>
        <time>2016-09-29T08:58:37Z</time>
      </trkpt>
      <trkpt lat="45.97852" lon="4.58294">
        <ele>552</ele>
        <time>2016-09-29T08:58:45Z</time>
      </trkpt>
      <trkpt lat="45.97852" lon="4.58292">
        <ele>552</ele>
        <time>2016-09-29T08:58:46Z</time>
      </trkpt>
      <trkpt lat="45.97858" lon="4.58284">
        <ele>552</ele>
        <time>2016-09-29T08:58:54Z</time>
      </trkpt>
      <trkpt lat="45.97859" lon="4.58283">
        <ele>552</ele>
        <time>2016-09-29T08:58:55Z</time>
      </trkpt>
      <trkpt lat="45.97867" lon="4.58278">
        <ele>553</ele>
        <time>2016-09-29T08:59:03Z</time>
      </trkpt>
      <trkpt lat="45.97867" lon="4.58277">
        <ele>553</ele>
        <time>2016-09-29T08:59:04Z</time>
      </trkpt>
      <trkpt lat="45.97874" lon="4.58269">
        <ele>553</ele>
        <time>2016-09-29T08:59:11Z</time>
      </trkpt>
      <trkpt lat="45.97875" lon="4.58269">
        <ele>553</ele>
        <time>2016-09-29T08:59:12Z</time>
      </trkpt>
      <trkpt lat="45.97883" lon="4.58264">
        <ele>553</ele>
        <time>2016-09-29T08:59:19Z</time>
      </trkpt>
      <trkpt lat="45.97885" lon="4.58263">
        <ele>553</ele>
        <time>2016-09-29T08:59:20Z</time>
      </trkpt>
      <trkpt lat="45.97893" lon="4.58259">
        <ele>554</ele>
        <time>2016-09-29T08:59:26Z</time>
      </trkpt>
      <trkpt lat="45.97894" lon="4.58258">
        <ele>554</ele>
        <time>2016-09-29T08:59:27Z</time>
      </trkpt>
      <trkpt lat="45.97902" lon="4.58252">
        <ele>554</ele>
        <time>2016-09-29T08:59:34Z</time>
      </trkpt>
      <trkpt lat="45.97903" lon="4.58251">
        <ele>555</ele>
        <time>2016-09-29T08:59:35Z</time>
      </trkpt>
      <trkpt lat="45.97911" lon="4.58248">
        <ele>555</ele>
        <time>2016-09-29T08:59:43Z</time>
      </trkpt>
      <trkpt lat="45.97912" lon="4.58247">
        <ele>555</ele>
        <time>2016-09-29T08:59:44Z</time>
      </trkpt>
      <trkpt lat="45.9792" lon="4.58243">
        <ele>557</ele>
        <time>2016-09-29T08:59:52Z</time>
      </trkpt>
      <trkpt lat="45.97922" lon="4.58243">
        <ele>557</ele>
        <time>2016-09-29T08:59:53Z</time>
      </trkpt>
      <trkpt lat="45.97929" lon="4.5824">
        <ele>558</ele>
        <time>2016-09-29T09:00:00Z</time>
      </trkpt>
      <trkpt lat="45.9793" lon="4.58239">
        <ele>559</ele>
        <time>2016-09-29T09:00:01Z</time>
      </trkpt>
      <trkpt lat="45.97938" lon="4.58235">
        <ele>559</ele>
        <time>2016-09-29T09:00:09Z</time>
      </trkpt>
      <trkpt lat="45.97939" lon="4.58234">
        <ele>559</ele>
        <time>2016-09-29T09:00:10Z</time>
      </trkpt>
      <trkpt lat="45.97948" lon="4.58234">
        <ele>560</ele>
        <time>2016-09-29T09:00:17Z</time>
      </trkpt>
      <trkpt lat="45.97949" lon="4.58235">
        <ele>560</ele>
        <time>2016-09-29T09:00:18Z</time>
      </trkpt>
      <trkpt lat="45.97958" lon="4.58236">
        <ele>561</ele>
        <time>2016-09-29T09:00:26Z</time>
      </trkpt>
      <trkpt lat="45.97959" lon="4.58236">
        <ele>561</ele>
        <time>2016-09-29T09:00:27Z</time>
      </trkpt>
      <trkpt lat="45.97967" lon="4.58232">
        <ele>561</ele>
        <time>2016-09-29T09:00:34Z</time>
      </trkpt>
      <trkpt lat="45.97968" lon="4.58232">
        <ele>561</ele>
        <time>2016-09-29T09:00:35Z</time>
      </trkpt>
      <trkpt lat="45.97977" lon="4.58231">
        <ele>562</ele>
        <time>2016-09-29T09:00:43Z</time>
      </trkpt>
      <trkpt lat="45.97978" lon="4.58231">
        <ele>562</ele>
        <time>2016-09-29T09:00:44Z</time>
      </trkpt>
      <trkpt lat="45.97987" lon="4.58232">
        <ele>562</ele>
        <time>2016-09-29T09:00:52Z</time>
      </trkpt>
      <trkpt lat="45.97988" lon="4.58232">
        <ele>562</ele>
        <time>2016-09-29T09:00:53Z</time>
      </trkpt>
      <trkpt lat="45.97996" lon="4.58229">
        <ele>562</ele>
        <time>2016-09-29T09:01:00Z</time>
      </trkpt>
      <trkpt lat="45.97997" lon="4.58229">
        <ele>562</ele>
        <time>2016-09-29T09:01:01Z</time>
      </trkpt>
      <trkpt lat="45.98006" lon="4.58228">
        <ele>566</ele>
        <time>2016-09-29T09:01:08Z</time>
      </trkpt>
      <trkpt lat="45.98007" lon="4.58228">
        <ele>566</ele>
        <time>2016-09-29T09:01:09Z</time>
      </trkpt>
      <trkpt lat="45.98015" lon="4.58228">
        <ele>566</ele>
        <time>2016-09-29T09:01:16Z</time>
      </trkpt>
      <trkpt lat="45.98016" lon="4.58228">
        <ele>566</ele>
        <time>2016-09-29T09:01:17Z</time>
      </trkpt>
      <trkpt lat="45.98025" lon="4.58225">
        <ele>567</ele>
        <time>2016-09-29T09:01:25Z</time>
      </trkpt>
      <trkpt lat="45.98026" lon="4.58224">
        <ele>567</ele>
        <time>2016-09-29T09:01:26Z</time>
      </trkpt>
      <trkpt lat="45.98034" lon="4.58223">
        <ele>567</ele>
        <time>2016-09-29T09:01:33Z</time>
      </trkpt>
      <trkpt lat="45.98035" lon="4.58222">
        <ele>567</ele>
        <time>2016-09-29T09:01:34Z</time>
      </trkpt>
      <trkpt lat="45.9804" lon="4.58213">
        <ele>568</ele>
        <time>2016-09-29T09:02:35Z</time>
      </trkpt>
      <trkpt lat="45.9804" lon="4.58212">
        <ele>568</ele>
        <time>2016-09-29T09:02:36Z</time>
      </trkpt>
      <trkpt lat="45.98047" lon="4.58204">
        <ele>569</ele>
        <time>2016-09-29T09:02:57Z</time>
      </trkpt>
      <trkpt lat="45.98048" lon="4.58203">
        <ele>569</ele>
        <time>2016-09-29T09:02:58Z</time>
      </trkpt>
      <trkpt lat="45.98055" lon="4.58196">
        <ele>569</ele>
        <time>2016-09-29T09:03:48Z</time>
      </trkpt>
      <trkpt lat="45.98055" lon="4.58196">
        <ele>569</ele>
        <time>2016-09-29T09:03:49Z</time>
      </trkpt>
      <trkpt lat="45.98063" lon="4.58192">
        <ele>570</ele>
        <time>2016-09-29T09:04:05Z</time>
      </trkpt>
      <trkpt lat="45.98064" lon="4.58191">
        <ele>570</ele>
        <time>2016-09-29T09:04:06Z</time>
      </trkpt>
      <trkpt lat="45.98071" lon="4.58184">
        <ele>571</ele>
        <time>2016-09-29T09:04:19Z</time>
      </trkpt>
      <trkpt lat="45.98071" lon="4.58183">
        <ele>572</ele>
        <time>2016-09-29T09:04:20Z</time>
      </trkpt>
      <trkpt lat="45.98071" lon="4.58171">
        <ele>573</ele>
        <time>2016-09-29T09:04:36Z</time>
      </trkpt>
      <trkpt lat="45.98071" lon="4.5817">
        <ele>573</ele>
        <time>2016-09-29T09:04:37Z</time>
      </trkpt>
      <trkpt lat="45.98076" lon="4.58159">
        <ele>575</ele>
        <time>2016-09-29T09:04:50Z</time>
      </trkpt>
      <trkpt lat="45.98077" lon="4.58159">
        <ele>575</ele>
        <time>2016-09-29T09:04:51Z</time>
      </trkpt>
      <trkpt lat="45.98085" lon="4.58154">
        <ele>578</ele>
        <time>2016-09-29T09:05:00Z</time>
      </trkpt>
      <trkpt lat="45.98086" lon="4.58153">
        <ele>578</ele>
        <time>2016-09-29T09:05:01Z</time>
      </trkpt>
      <trkpt lat="45.98093" lon="4.58147">
        <ele>579</ele>
        <time>2016-09-29T09:05:09Z</time>
      </trkpt>
      <trkpt lat="45.98094" lon="4.58147">
        <ele>579</ele>
        <time>2016-09-29T09:05:10Z</time>
      </trkpt>
      <trkpt lat="45.98102" lon="4.58143">
        <ele>580</ele>
        <time>2016-09-29T09:05:19Z</time>
      </trkpt>
      <trkpt lat="45.98103" lon="4.58143">
        <ele>580</ele>
        <time>2016-09-29T09:05:20Z</time>
      </trkpt>
      <trkpt lat="45.98111" lon="4.58139">
        <ele>581</ele>
        <time>2016-09-29T09:05:29Z</time>
      </trkpt>
      <trkpt lat="45.98112" lon="4.58139">
        <ele>581</ele>
        <time>2016-09-29T09:05:30Z</time>
      </trkpt>
      <trkpt lat="45.9812" lon="4.58135">
        <ele>581</ele>
        <time>2016-09-29T09:05:39Z</time>
      </trkpt>
      <trkpt lat="45.98121" lon="4.58135">
        <ele>581</ele>
        <time>2016-09-29T09:05:40Z</time>
      </trkpt>
      <trkpt lat="45.98128" lon="4.58128">
        <ele>582</ele>
        <time>2016-09-29T09:05:49Z</time>
      </trkpt>
      <trkpt lat="45.98129" lon="4.58127">
        <ele>582</ele>
        <time>2016-09-29T09:05:50Z</time>
      </trkpt>
      <trkpt lat="45.98137" lon="4.58122">
        <ele>582</ele>
        <time>2016-09-29T09:05:59Z</time>
      </trkpt>
      <trkpt lat="45.98138" lon="4.58121">
        <ele>583</ele>
        <time>2016-09-29T09:06:00Z</time>
      </trkpt>
      <trkpt lat="45.98146" lon="4.58117">
        <ele>583</ele>
        <time>2016-09-29T09:06:09Z</time>
      </trkpt>
      <trkpt lat="45.98147" lon="4.58117">
        <ele>583</ele>
        <time>2016-09-29T09:06:10Z</time>
      </trkpt>
      <trkpt lat="45.98155" lon="4.58114">
        <ele>584</ele>
        <time>2016-09-29T09:06:19Z</time>
      </trkpt>
      <trkpt lat="45.98156" lon="4.58113">
        <ele>584</ele>
        <time>2016-09-29T09:06:20Z</time>
      </trkpt>
      <trkpt lat="45.98164" lon="4.58111">
        <ele>584</ele>
        <time>2016-09-29T09:06:28Z</time>
      </trkpt>
      <trkpt lat="45.98165" lon="4.58111">
        <ele>584</ele>
        <time>2016-09-29T09:06:29Z</time>
      </trkpt>
      <trkpt lat="45.98174" lon="4.58108">
        <ele>589</ele>
        <time>2016-09-29T09:06:39Z</time>
      </trkpt>
      <trkpt lat="45.98175" lon="4.58107">
        <ele>589</ele>
        <time>2016-09-29T09:06:40Z</time>
      </trkpt>
      <trkpt lat="45.98182" lon="4.58102">
        <ele>589</ele>
        <time>2016-09-29T09:06:51Z</time>
      </trkpt>
      <trkpt lat="45.98183" lon="4.58102">
        <ele>589</ele>
        <time>2016-09-29T09:06:52Z</time>
      </trkpt>
      <trkpt lat="45.98192" lon="4.58101">
        <ele>590</ele>
        <time>2016-09-29T09:07:04Z</time>
      </trkpt>
      <trkpt lat="45.98193" lon="4.58101">
        <ele>590</ele>
        <time>2016-09-29T09:07:05Z</time>
      </trkpt>
      <trkpt lat="45.98201" lon="4.58099">
        <ele>590</ele>
        <time>2016-09-29T09:07:16Z</time>
      </trkpt>
      <trkpt lat="45.98202" lon="4.58099">
        <ele>590</ele>
        <time>2016-09-29T09:07:17Z</time>
      </trkpt>
      <trkpt lat="45.98211" lon="4.58096">
        <ele>591</ele>
        <time>2016-09-29T09:07:28Z</time>
      </trkpt>
      <trkpt lat="45.98212" lon="4.58095">
        <ele>591</ele>
        <time>2016-09-29T09:07:29Z</time>
      </trkpt>
      <trkpt lat="45.98219" lon="4.58092">
        <ele>592</ele>
        <time>2016-09-29T09:07:38Z</time>
      </trkpt>
      <trkpt lat="45.9822" lon="4.58092">
        <ele>592</ele>
        <time>2016-09-29T09:07:39Z</time>
      </trkpt>
      <trkpt lat="45.98228" lon="4.58086">
        <ele>593</ele>
        <time>2016-09-29T09:07:51Z</time>
      </trkpt>
      <trkpt lat="45.98229" lon="4.58085">
        <ele>593</ele>
        <time>2016-09-29T09:07:52Z</time>
      </trkpt>
      <trkpt lat="45.98236" lon="4.58079">
        <ele>598</ele>
        <time>2016-09-29T09:08:01Z</time>
      </trkpt>
      <trkpt lat="45.98237" lon="4.58078">
        <ele>598</ele>
        <time>2016-09-29T09:08:02Z</time>
      </trkpt>
      <trkpt lat="45.98244" lon="4.58072">
        <ele>599</ele>
        <time>2016-09-29T09:08:12Z</time>
      </trkpt>
      <trkpt lat="45.98245" lon="4.58072">
        <ele>599</ele>
        <time>2016-09-29T09:08:13Z</time>
      </trkpt>
      <trkpt lat="45.98252" lon="4.58064">
        <ele>601</ele>
        <time>2016-09-29T09:08:23Z</time>
      </trkpt>
      <trkpt lat="45.98253" lon="4.58064">
        <ele>601</ele>
        <time>2016-09-29T09:08:24Z</time>
      </trkpt>
      <trkpt lat="45.9826" lon="4.58056">
        <ele>602</ele>
        <time>2016-09-29T09:08:33Z</time>
      </trkpt>
      <trkpt lat="45.9826" lon="4.58055">
        <ele>602</ele>
        <time>2016-09-29T09:08:34Z</time>
      </trkpt>
      <trkpt lat="45.98268" lon="4.58048">
        <ele>602</ele>
        <time>2016-09-29T09:08:43Z</time>
      </trkpt>
      <trkpt lat="45.98268" lon="4.58047">
        <ele>602</ele>
        <time>2016-09-29T09:08:44Z</time>
      </trkpt>
      <trkpt lat="45.98275" lon="4.5804">
        <ele>603</ele>
        <time>2016-09-29T09:08:53Z</time>
      </trkpt>
      <trkpt lat="45.98276" lon="4.58039">
        <ele>603</ele>
        <time>2016-09-29T09:08:54Z</time>
      </trkpt>
      <trkpt lat="45.98284" lon="4.58033">
        <ele>603</ele>
        <time>2016-09-29T09:09:02Z</time>
      </trkpt>
      <trkpt lat="45.98285" lon="4.58033">
        <ele>603</ele>
        <time>2016-09-29T09:09:03Z</time>
      </trkpt>
      <trkpt lat="45.98293" lon="4.58028">
        <ele>603</ele>
        <time>2016-09-29T09:09:12Z</time>
      </trkpt>
      <trkpt lat="45.98294" lon="4.58028">
        <ele>603</ele>
        <time>2016-09-29T09:09:13Z</time>
      </trkpt>
      <trkpt lat="45.98302" lon="4.58021">
        <ele>604</ele>
        <time>2016-09-29T09:09:21Z</time>
      </trkpt>
      <trkpt lat="45.98302" lon="4.5802">
        <ele>604</ele>
        <time>2016-09-29T09:09:22Z</time>
      </trkpt>
      <trkpt lat="45.98309" lon="4.58012">
        <ele>604</ele>
        <time>2016-09-29T09:09:31Z</time>
      </trkpt>
      <trkpt lat="45.9831" lon="4.58012">
        <ele>604</ele>
        <time>2016-09-29T09:09:32Z</time>
      </trkpt>
      <trkpt lat="45.98314" lon="4.58">
        <ele>609</ele>
        <time>2016-09-29T09:10:29Z</time>
      </trkpt>
      <trkpt lat="45.98314" lon="4.57999">
        <ele>609</ele>
        <time>2016-09-29T09:10:30Z</time>
      </trkpt>
      <trkpt lat="45.98317" lon="4.57988">
        <ele>610</ele>
        <time>2016-09-29T09:10:38Z</time>
      </trkpt>
      <trkpt lat="45.98317" lon="4.57986">
        <ele>610</ele>
        <time>2016-09-29T09:10:39Z</time>
      </trkpt>
      <trkpt lat="45.98319" lon="4.57975">
        <ele>611</ele>
        <time>2016-09-29T09:10:47Z</time>
      </trkpt>
      <trkpt lat="45.9832" lon="4.57974">
        <ele>611</ele>
        <time>2016-09-29T09:10:48Z</time>
      </trkpt>
      <trkpt lat="45.98322" lon="4.57961">
        <ele>612</ele>
        <time>2016-09-29T09:10:56Z</time>
      </trkpt>
      <trkpt lat="45.98322" lon="4.5796">
        <ele>612</ele>
        <time>2016-09-29T09:10:57Z</time>
      </trkpt>
      <trkpt lat="45.98325" lon="4.57949">
        <ele>613</ele>
        <time>2016-09-29T09:11:05Z</time>
      </trkpt>
      <trkpt lat="45.98325" lon="4.57947">
        <ele>613</ele>
        <time>2016-09-29T09:11:06Z</time>
      </trkpt>
      <trkpt lat="45.98329" lon="4.57936">
        <ele>615</ele>
        <time>2016-09-29T09:11:14Z</time>
      </trkpt>
      <trkpt lat="45.98329" lon="4.57934">
        <ele>615</ele>
        <time>2016-09-29T09:11:15Z</time>
      </trkpt>
      <trkpt lat="45.98334" lon="4.57923">
        <ele>615</ele>
        <time>2016-09-29T09:11:23Z</time>
      </trkpt>
      <trkpt lat="45.98335" lon="4.57922">
        <ele>616</ele>
        <time>2016-09-29T09:11:24Z</time>
      </trkpt>
      <trkpt lat="45.9834" lon="4.57913">
        <ele>618</ele>
        <time>2016-09-29T09:11:31Z</time>
      </trkpt>
      <trkpt lat="45.9834" lon="4.57911">
        <ele>618</ele>
        <time>2016-09-29T09:11:32Z</time>
      </trkpt>
      <trkpt lat="45.98345" lon="4.57901">
        <ele>618</ele>
        <time>2016-09-29T09:11:40Z</time>
      </trkpt>
      <trkpt lat="45.98346" lon="4.579">
        <ele>618</ele>
        <time>2016-09-29T09:11:41Z</time>
      </trkpt>
      <trkpt lat="45.98347" lon="4.57889">
        <ele>619</ele>
        <time>2016-09-29T09:11:49Z</time>
      </trkpt>
      <trkpt lat="45.98348" lon="4.57887">
        <ele>619</ele>
        <time>2016-09-29T09:11:50Z</time>
      </trkpt>
      <trkpt lat="45.98353" lon="4.57877">
        <ele>620</ele>
        <time>2016-09-29T09:11:58Z</time>
      </trkpt>
      <trkpt lat="45.98354" lon="4.57876">
        <ele>620</ele>
        <time>2016-09-29T09:11:59Z</time>
      </trkpt>
      <trkpt lat="45.98359" lon="4.57866">
        <ele>621</ele>
        <time>2016-09-29T09:12:07Z</time>
      </trkpt>
      <trkpt lat="45.9836" lon="4.57865">
        <ele>621</ele>
        <time>2016-09-29T09:12:08Z</time>
      </trkpt>
      <trkpt lat="45.98365" lon="4.57856">
        <ele>621</ele>
        <time>2016-09-29T09:12:15Z</time>
      </trkpt>
      <trkpt lat="45.98365" lon="4.57854">
        <ele>621</ele>
        <time>2016-09-29T09:12:16Z</time>
      </trkpt>
      <trkpt lat="45.98371" lon="4.57844">
        <ele>621</ele>
        <time>2016-09-29T09:12:25Z</time>
      </trkpt>
      <trkpt lat="45.98371" lon="4.57843">
        <ele>621</ele>
        <time>2016-09-29T09:12:26Z</time>
      </trkpt>
      <trkpt lat="45.98376" lon="4.57833">
        <ele>630</ele>
        <time>2016-09-29T09:12:38Z</time>
      </trkpt>
      <trkpt lat="45.98376" lon="4.57832">
        <ele>630</ele>
        <time>2016-09-29T09:12:39Z</time>
      </trkpt>
      <trkpt lat="45.98383" lon="4.57824">
        <ele>630</ele>
        <time>2016-09-29T09:12:47Z</time>
      </trkpt>
      <trkpt lat="45.98384" lon="4.57823">
        <ele>630</ele>
        <time>2016-09-29T09:12:48Z</time>
      </trkpt>
      <trkpt lat="45.98391" lon="4.57817">
        <ele>630</ele>
        <time>2016-09-29T09:12:55Z</time>
      </trkpt>
      <trkpt lat="45.98392" lon="4.57816">
        <ele>630</ele>
        <time>2016-09-29T09:12:56Z</time>
      </trkpt>
      <trkpt lat="45.98399" lon="4.5781">
        <ele>630</ele>
        <time>2016-09-29T09:13:06Z</time>
      </trkpt>
      <trkpt lat="45.98399" lon="4.57808">
        <ele>630</ele>
        <time>2016-09-29T09:13:07Z</time>
      </trkpt>
      <trkpt lat="45.98406" lon="4.578">
        <ele>631</ele>
        <time>2016-09-29T09:13:18Z</time>
      </trkpt>
      <trkpt lat="45.98407" lon="4.578">
        <ele>631</ele>
        <time>2016-09-29T09:13:19Z</time>
      </trkpt>
      <trkpt lat="45.98413" lon="4.57791">
        <ele>632</ele>
        <time>2016-09-29T09:13:30Z</time>
      </trkpt>
      <trkpt lat="45.98414" lon="4.5779">
        <ele>632</ele>
        <time>2016-09-29T09:13:31Z</time>
      </trkpt>
      <trkpt lat="45.9842" lon="4.5778">
        <ele>627</ele>
        <time>2016-09-29T09:13:39Z</time>
      </trkpt>
      <trkpt lat="45.9842" lon="4.57779">
        <ele>627</ele>
        <time>2016-09-29T09:13:40Z</time>
      </trkpt>
      <trkpt lat="45.98425" lon="4.57769">
        <ele>629</ele>
        <time>2016-09-29T09:13:47Z</time>
      </trkpt>
      <trkpt lat="45.98426" lon="4.57768">
        <ele>629</ele>
        <time>2016-09-29T09:13:48Z</time>
      </trkpt>
      <trkpt lat="45.98431" lon="4.57758">
        <ele>630</ele>
        <time>2016-09-29T09:13:55Z</time>
      </trkpt>
      <trkpt lat="45.98431" lon="4.57756">
        <ele>631</ele>
        <time>2016-09-29T09:13:56Z</time>
      </trkpt>
      <trkpt lat="45.98437" lon="4.57748">
        <ele>639</ele>
        <time>2016-09-29T09:14:03Z</time>
      </trkpt>
      <trkpt lat="45.98438" lon="4.57747">
        <ele>639</ele>
        <time>2016-09-29T09:14:04Z</time>
      </trkpt>
      <trkpt lat="45.98442" lon="4.57736">
        <ele>639</ele>
        <time>2016-09-29T09:14:11Z</time>
      </trkpt>
      <trkpt lat="45.98443" lon="4.57735">
        <ele>639</ele>
        <time>2016-09-29T09:14:12Z</time>
      </trkpt>
      <trkpt lat="45.98446" lon="4.57725">
        <ele>639</ele>
        <time>2016-09-29T09:14:19Z</time>
      </trkpt>
      <trkpt lat="45.98447" lon="4.57723">
        <ele>639</ele>
        <time>2016-09-29T09:14:20Z</time>
      </trkpt>
      <trkpt lat="45.98452" lon="4.57714">
        <ele>640</ele>
        <time>2016-09-29T09:14:28Z</time>
      </trkpt>
      <trkpt lat="45.98453" lon="4.57713">
        <ele>640</ele>
        <time>2016-09-29T09:14:29Z</time>
      </trkpt>
      <trkpt lat="45.98458" lon="4.57704">
        <ele>640</ele>
        <time>2016-09-29T09:14:38Z</time>
      </trkpt>
      <trkpt lat="45.98458" lon="4.57703">
        <ele>641</ele>
        <time>2016-09-29T09:14:39Z</time>
      </trkpt>
      <trkpt lat="45.98464" lon="4.57696">
        <ele>641</ele>
        <time>2016-09-29T09:14:53Z</time>
      </trkpt>
      <trkpt lat="45.98465" lon="4.57694">
        <ele>641</ele>
        <time>2016-09-29T09:14:54Z</time>
      </trkpt>
      <trkpt lat="45.98472" lon="4.57688">
        <ele>641</ele>
        <time>2016-09-29T09:15:03Z</time>
      </trkpt>
      <trkpt lat="45.98473" lon="4.57686">
        <ele>641</ele>
        <time>2016-09-29T09:15:04Z</time>
      </trkpt>
      <trkpt lat="45.98477" lon="4.57676">
        <ele>642</ele>
        <time>2016-09-29T09:15:11Z</time>
      </trkpt>
      <trkpt lat="45.98477" lon="4.57675">
        <ele>642</ele>
        <time>2016-09-29T09:15:12Z</time>
      </trkpt>
      <trkpt lat="45.98482" lon="4.57664">
        <ele>651</ele>
        <time>2016-09-29T09:15:21Z</time>
      </trkpt>
      <trkpt lat="45.98482" lon="4.57662">
        <ele>651</ele>
        <time>2016-09-29T09:15:22Z</time>
      </trkpt>
      <trkpt lat="45.98485" lon="4.57652">
        <ele>651</ele>
        <time>2016-09-29T09:15:32Z</time>
      </trkpt>
      <trkpt lat="45.98486" lon="4.57651">
        <ele>651</ele>
        <time>2016-09-29T09:15:33Z</time>
      </trkpt>
      <trkpt lat="45.98491" lon="4.57641">
        <ele>653</ele>
        <time>2016-09-29T09:15:44Z</time>
      </trkpt>
      <trkpt lat="45.98491" lon="4.5764">
        <ele>653</ele>
        <time>2016-09-29T09:15:45Z</time>
      </trkpt>
      <trkpt lat="45.98496" lon="4.57629">
        <ele>654</ele>
        <time>2016-09-29T09:15:55Z</time>
      </trkpt>
      <trkpt lat="45.98496" lon="4.57628">
        <ele>655</ele>
        <time>2016-09-29T09:15:56Z</time>
      </trkpt>
      <trkpt lat="45.98501" lon="4.57619">
        <ele>642</ele>
        <time>2016-09-29T09:16:05Z</time>
      </trkpt>
      <trkpt lat="45.98502" lon="4.57618">
        <ele>643</ele>
        <time>2016-09-29T09:16:06Z</time>
      </trkpt>
      <trkpt lat="45.98504" lon="4.57606">
        <ele>646</ele>
        <time>2016-09-29T09:16:15Z</time>
      </trkpt>
      <trkpt lat="45.98504" lon="4.57604">
        <ele>646</ele>
        <time>2016-09-29T09:16:16Z</time>
      </trkpt>
      <trkpt lat="45.98508" lon="4.57593">
        <ele>649</ele>
        <time>2016-09-29T09:16:27Z</time>
      </trkpt>
      <trkpt lat="45.98508" lon="4.57593">
        <ele>650</ele>
        <time>2016-09-29T09:16:28Z</time>
      </trkpt>
      <trkpt lat="45.98509" lon="4.57581">
        <ele>654</ele>
        <time>2016-09-29T09:16:37Z</time>
      </trkpt>
      <trkpt lat="45.98509" lon="4.5758">
        <ele>654</ele>
        <time>2016-09-29T09:16:38Z</time>
      </trkpt>
      <trkpt lat="45.98509" lon="4.57568">
        <ele>651</ele>
        <time>2016-09-29T09:16:49Z</time>
      </trkpt>
      <trkpt lat="45.98509" lon="4.57566">
        <ele>651</ele>
        <time>2016-09-29T09:16:50Z</time>
      </trkpt>
      <trkpt lat="45.98511" lon="4.57555">
        <ele>649</ele>
        <time>2016-09-29T09:16:57Z</time>
      </trkpt>
      <trkpt lat="45.98511" lon="4.57554">
        <ele>649</ele>
        <time>2016-09-29T09:16:58Z</time>
      </trkpt>
      <trkpt lat="45.98512" lon="4.57542">
        <ele>648</ele>
        <time>2016-09-29T09:17:04Z</time>
      </trkpt>
      <trkpt lat="45.98512" lon="4.57541">
        <ele>648</ele>
        <time>2016-09-29T09:17:05Z</time>
      </trkpt>
      <trkpt lat="45.98515" lon="4.57529">
        <ele>649</ele>
        <time>2016-09-29T09:17:12Z</time>
      </trkpt>
      <trkpt lat="45.98515" lon="4.57528">
        <ele>649</ele>
        <time>2016-09-29T09:17:13Z</time>
      </trkpt>
      <trkpt lat="45.98515" lon="4.57516">
        <ele>651</ele>
        <time>2016-09-29T09:17:20Z</time>
      </trkpt>
      <trkpt lat="45.98515" lon="4.57514">
        <ele>652</ele>
        <time>2016-09-29T09:17:21Z</time>
      </trkpt>
      <trkpt lat="45.98515" lon="4.57503">
        <ele>654</ele>
        <time>2016-09-29T09:17:29Z</time>
      </trkpt>
      <trkpt lat="45.98515" lon="4.57501">
        <ele>654</ele>
        <time>2016-09-29T09:17:30Z</time>
      </trkpt>
      <trkpt lat="45.98515" lon="4.57489">
        <ele>654</ele>
        <time>2016-09-29T09:17:36Z</time>
      </trkpt>
      <trkpt lat="45.98515" lon="4.57488">
        <ele>654</ele>
        <time>2016-09-29T09:17:37Z</time>
      </trkpt>
      <trkpt lat="45.98516" lon="4.57476">
        <ele>652</ele>
        <time>2016-09-29T09:17:44Z</time>
      </trkpt>
      <trkpt lat="45.98516" lon="4.57474">
        <ele>652</ele>
        <time>2016-09-29T09:17:45Z</time>
      </trkpt>
      <trkpt lat="45.98518" lon="4.57463">
        <ele>651</ele>
        <time>2016-09-29T09:17:51Z</time>
      </trkpt>
      <trkpt lat="45.98519" lon="4.57461">
        <ele>651</ele>
        <time>2016-09-29T09:17:52Z</time>
      </trkpt>
      <trkpt lat="45.9852" lon="4.5745">
        <ele>651</ele>
        <time>2016-09-29T09:17:58Z</time>
      </trkpt>
      <trkpt lat="45.9852" lon="4.57448">
        <ele>651</ele>
        <time>2016-09-29T09:17:59Z</time>
      </trkpt>
      <trkpt lat="45.98523" lon="4.57437">
        <ele>652</ele>
        <time>2016-09-29T09:18:07Z</time>
      </trkpt>
      <trkpt lat="45.98524" lon="4.57435">
        <ele>652</ele>
        <time>2016-09-29T09:18:08Z</time>
      </trkpt>
      <trkpt lat="45.98526" lon="4.57424">
        <ele>652</ele>
        <time>2016-09-29T09:18:13Z</time>
      </trkpt>
      <trkpt lat="45.98526" lon="4.57421">
        <ele>652</ele>
        <time>2016-09-29T09:18:14Z</time>
      </trkpt>
      <trkpt lat="45.9853" lon="4.5741">
        <ele>657</ele>
        <time>2016-09-29T09:18:26Z</time>
      </trkpt>
      <trkpt lat="45.98531" lon="4.57408">
        <ele>657</ele>
        <time>2016-09-29T09:18:27Z</time>
      </trkpt>
      <trkpt lat="45.98533" lon="4.57397">
        <ele>657</ele>
        <time>2016-09-29T09:18:37Z</time>
      </trkpt>
      <trkpt lat="45.98534" lon="4.57396">
        <ele>657</ele>
        <time>2016-09-29T09:18:38Z</time>
      </trkpt>
      <trkpt lat="45.98538" lon="4.57385">
        <ele>657</ele>
        <time>2016-09-29T09:18:47Z</time>
      </trkpt>
      <trkpt lat="45.98539" lon="4.57383">
        <ele>657</ele>
        <time>2016-09-29T09:18:48Z</time>
      </trkpt>
      <trkpt lat="45.98543" lon="4.57374">
        <ele>657</ele>
        <time>2016-09-29T09:18:54Z</time>
      </trkpt>
      <trkpt lat="45.98544" lon="4.57372">
        <ele>657</ele>
        <time>2016-09-29T09:18:55Z</time>
      </trkpt>
      <trkpt lat="45.98548" lon="4.57363">
        <ele>657</ele>
        <time>2016-09-29T09:19:01Z</time>
      </trkpt>
      <trkpt lat="45.98549" lon="4.57362">
        <ele>657</ele>
        <time>2016-09-29T09:19:02Z</time>
      </trkpt>
      <trkpt lat="45.98554" lon="4.57353">
        <ele>656</ele>
        <time>2016-09-29T09:19:10Z</time>
      </trkpt>
      <trkpt lat="45.98555" lon="4.57351">
        <ele>656</ele>
        <time>2016-09-29T09:19:11Z</time>
      </trkpt>
      <trkpt lat="45.98559" lon="4.5734">
        <ele>656</ele>
        <time>2016-09-29T09:19:17Z</time>
      </trkpt>
      <trkpt lat="45.9856" lon="4.57338">
        <ele>655</ele>
        <time>2016-09-29T09:19:18Z</time>
      </trkpt>
      <trkpt lat="45.98564" lon="4.57329">
        <ele>663</ele>
        <time>2016-09-29T09:19:23Z</time>
      </trkpt>
      <trkpt lat="45.98564" lon="4.57326">
        <ele>664</ele>
        <time>2016-09-29T09:19:24Z</time>
      </trkpt>
      <trkpt lat="45.98567" lon="4.57315">
        <ele>665</ele>
        <time>2016-09-29T09:19:31Z</time>
      </trkpt>
      <trkpt lat="45.98567" lon="4.57313">
        <ele>666</ele>
        <time>2016-09-29T09:19:32Z</time>
      </trkpt>
      <trkpt lat="45.98571" lon="4.57302">
        <ele>668</ele>
        <time>2016-09-29T09:19:41Z</time>
      </trkpt>
      <trkpt lat="45.98572" lon="4.57301">
        <ele>668</ele>
        <time>2016-09-29T09:19:42Z</time>
      </trkpt>
      <trkpt lat="45.98576" lon="4.5729">
        <ele>669</ele>
        <time>2016-09-29T09:19:51Z</time>
      </trkpt>
      <trkpt lat="45.98577" lon="4.57288">
        <ele>669</ele>
        <time>2016-09-29T09:19:52Z</time>
      </trkpt>
      <trkpt lat="45.98583" lon="4.57279">
        <ele>670</ele>
        <time>2016-09-29T09:19:59Z</time>
      </trkpt>
      <trkpt lat="45.98584" lon="4.57278">
        <ele>659</ele>
        <time>2016-09-29T09:20:00Z</time>
      </trkpt>
      <trkpt lat="45.98591" lon="4.57273">
        <ele>660</ele>
        <time>2016-09-29T09:20:08Z</time>
      </trkpt>
      <trkpt lat="45.98592" lon="4.57273">
        <ele>660</ele>
        <time>2016-09-29T09:20:09Z</time>
      </trkpt>
      <trkpt lat="45.986" lon="4.57266">
        <ele>661</ele>
        <time>2016-09-29T09:20:18Z</time>
      </trkpt>
      <trkpt lat="45.98601" lon="4.57266">
        <ele>661</ele>
        <time>2016-09-29T09:20:19Z</time>
      </trkpt>
      <trkpt lat="45.98609" lon="4.57267">
        <ele>660</ele>
        <time>2016-09-29T09:20:31Z</time>
      </trkpt>
      <trkpt lat="45.9861" lon="4.57267">
        <ele>660</ele>
        <time>2016-09-29T09:20:32Z</time>
      </trkpt>
      <trkpt lat="45.98619" lon="4.5727">
        <ele>659</ele>
        <time>2016-09-29T09:20:42Z</time>
      </trkpt>
      <trkpt lat="45.9862" lon="4.57269">
        <ele>659</ele>
        <time>2016-09-29T09:20:43Z</time>
      </trkpt>
      <trkpt lat="45.98628" lon="4.57272">
        <ele>659</ele>
        <time>2016-09-29T09:20:51Z</time>
      </trkpt>
      <trkpt lat="45.98629" lon="4.57273">
        <ele>659</ele>
        <time>2016-09-29T09:20:52Z</time>
      </trkpt>
      <trkpt lat="45.98637" lon="4.57277">
        <ele>658</ele>
        <time>2016-09-29T09:21:00Z</time>
      </trkpt>
      <trkpt lat="45.98639" lon="4.57278">
        <ele>658</ele>
        <time>2016-09-29T09:21:01Z</time>
      </trkpt>
      <trkpt lat="45.98647" lon="4.57277">
        <ele>658</ele>
        <time>2016-09-29T09:21:08Z</time>
      </trkpt>
      <trkpt lat="45.98648" lon="4.57277">
        <ele>658</ele>
        <time>2016-09-29T09:21:09Z</time>
      </trkpt>
      <trkpt lat="45.98656" lon="4.57275">
        <ele>659</ele>
        <time>2016-09-29T09:21:16Z</time>
      </trkpt>
      <trkpt lat="45.98658" lon="4.57275">
        <ele>659</ele>
        <time>2016-09-29T09:21:17Z</time>
      </trkpt>
      <trkpt lat="45.98666" lon="4.57272">
        <ele>660</ele>
        <time>2016-09-29T09:21:24Z</time>
      </trkpt>
      <trkpt lat="45.98667" lon="4.57271">
        <ele>659</ele>
        <time>2016-09-29T09:21:25Z</time>
      </trkpt>
      <trkpt lat="45.98673" lon="4.57265">
        <ele>660</ele>
        <time>2016-09-29T09:21:32Z</time>
      </trkpt>
      <trkpt lat="45.98674" lon="4.57264">
        <ele>660</ele>
        <time>2016-09-29T09:21:33Z</time>
      </trkpt>
      <trkpt lat="45.98682" lon="4.5726">
        <ele>660</ele>
        <time>2016-09-29T09:21:41Z</time>
      </trkpt>
      <trkpt lat="45.98684" lon="4.57259">
        <ele>660</ele>
        <time>2016-09-29T09:21:42Z</time>
      </trkpt>
      <trkpt lat="45.98692" lon="4.57259">
        <ele>659</ele>
        <time>2016-09-29T09:21:50Z</time>
      </trkpt>
      <trkpt lat="45.98693" lon="4.57259">
        <ele>659</ele>
        <time>2016-09-29T09:21:51Z</time>
      </trkpt>
      <trkpt lat="45.98701" lon="4.57255">
        <ele>659</ele>
        <time>2016-09-29T09:21:59Z</time>
      </trkpt>
      <trkpt lat="45.98702" lon="4.57254">
        <ele>659</ele>
        <time>2016-09-29T09:22:00Z</time>
      </trkpt>
      <trkpt lat="45.9871" lon="4.57251">
        <ele>659</ele>
        <time>2016-09-29T09:22:07Z</time>
      </trkpt>
      <trkpt lat="45.98711" lon="4.57251">
        <ele>659</ele>
        <time>2016-09-29T09:22:08Z</time>
      </trkpt>
      <trkpt lat="45.9872" lon="4.57251">
        <ele>659</ele>
        <time>2016-09-29T09:22:16Z</time>
      </trkpt>
      <trkpt lat="45.98721" lon="4.57252">
        <ele>659</ele>
        <time>2016-09-29T09:22:17Z</time>
      </trkpt>
      <trkpt lat="45.98729" lon="4.57253">
        <ele>660</ele>
        <time>2016-09-29T09:22:24Z</time>
      </trkpt>
      <trkpt lat="45.9873" lon="4.57253">
        <ele>660</ele>
        <time>2016-09-29T09:22:25Z</time>
      </trkpt>
      <trkpt lat="45.98738" lon="4.57255">
        <ele>661</ele>
        <time>2016-09-29T09:22:33Z</time>
      </trkpt>
      <trkpt lat="45.98739" lon="4.57254">
        <ele>661</ele>
        <time>2016-09-29T09:22:34Z</time>
      </trkpt>
      <trkpt lat="45.98747" lon="4.5725">
        <ele>663</ele>
        <time>2016-09-29T09:22:41Z</time>
      </trkpt>
      <trkpt lat="45.98748" lon="4.57251">
        <ele>663</ele>
        <time>2016-09-29T09:22:42Z</time>
      </trkpt>
      <trkpt lat="45.98757" lon="4.57247">
        <ele>662</ele>
        <time>2016-09-29T09:22:50Z</time>
      </trkpt>
      <trkpt lat="45.98757" lon="4.57246">
        <ele>662</ele>
        <time>2016-09-29T09:22:51Z</time>
      </trkpt>
      <trkpt lat="45.98756" lon="4.57234">
        <ele>661</ele>
        <time>2016-09-29T09:23:03Z</time>
      </trkpt>
      <trkpt lat="45.98756" lon="4.57233">
        <ele>661</ele>
        <time>2016-09-29T09:23:04Z</time>
      </trkpt>
      <trkpt lat="45.98754" lon="4.5722">
        <ele>661</ele>
        <time>2016-09-29T09:23:12Z</time>
      </trkpt>
      <trkpt lat="45.98755" lon="4.57219">
        <ele>661</ele>
        <time>2016-09-29T09:23:13Z</time>
      </trkpt>
      <trkpt lat="45.98753" lon="4.57207">
        <ele>661</ele>
        <time>2016-09-29T09:23:26Z</time>
      </trkpt>
      <trkpt lat="45.98753" lon="4.57206">
        <ele>662</ele>
        <time>2016-09-29T09:23:27Z</time>
      </trkpt>
      <trkpt lat="45.98748" lon="4.57196">
        <ele>671</ele>
        <time>2016-09-29T09:23:36Z</time>
      </trkpt>
      <trkpt lat="45.98747" lon="4.57195">
        <ele>671</ele>
        <time>2016-09-29T09:23:37Z</time>
      </trkpt>
      <trkpt lat="45.98743" lon="4.57185">
        <ele>672</ele>
        <time>2016-09-29T09:23:46Z</time>
      </trkpt>
      <trkpt lat="45.98742" lon="4.57183">
        <ele>672</ele>
        <time>2016-09-29T09:23:47Z</time>
      </trkpt>
      <trkpt lat="45.98739" lon="4.57172">
        <ele>672</ele>
        <time>2016-09-29T09:23:57Z</time>
      </trkpt>
      <trkpt lat="45.98739" lon="4.57171">
        <ele>672</ele>
        <time>2016-09-29T09:23:58Z</time>
      </trkpt>
      <trkpt lat="45.98734" lon="4.5716">
        <ele>675</ele>
        <time>2016-09-29T09:24:07Z</time>
      </trkpt>
      <trkpt lat="45.98734" lon="4.57159">
        <ele>675</ele>
        <time>2016-09-29T09:24:08Z</time>
      </trkpt>
      <trkpt lat="45.9873" lon="4.57149">
        <ele>676</ele>
        <time>2016-09-29T09:24:16Z</time>
      </trkpt>
      <trkpt lat="45.98729" lon="4.57148">
        <ele>676</ele>
        <time>2016-09-29T09:24:17Z</time>
      </trkpt>
      <trkpt lat="45.98725" lon="4.57137">
        <ele>677</ele>
        <time>2016-09-29T09:24:27Z</time>
      </trkpt>
      <trkpt lat="45.98724" lon="4.57136">
        <ele>677</ele>
        <time>2016-09-29T09:24:28Z</time>
      </trkpt>
      <trkpt lat="45.98718" lon="4.57126">
        <ele>677</ele>
        <time>2016-09-29T09:24:37Z</time>
      </trkpt>
      <trkpt lat="45.98718" lon="4.57126">
        <ele>677</ele>
        <time>2016-09-29T09:24:38Z</time>
      </trkpt>
      <trkpt lat="45.98713" lon="4.57115">
        <ele>678</ele>
        <time>2016-09-29T09:24:48Z</time>
      </trkpt>
      <trkpt lat="45.98712" lon="4.57114">
        <ele>678</ele>
        <time>2016-09-29T09:24:49Z</time>
      </trkpt>
      <trkpt lat="45.98708" lon="4.57104">
        <ele>679</ele>
        <time>2016-09-29T09:24:55Z</time>
      </trkpt>
      <trkpt lat="45.98707" lon="4.57102">
        <ele>679</ele>
        <time>2016-09-29T09:24:56Z</time>
      </trkpt>
      <trkpt lat="45.98705" lon="4.57091">
        <ele>679</ele>
        <time>2016-09-29T09:25:03Z</time>
      </trkpt>
      <trkpt lat="45.98705" lon="4.57089">
        <ele>679</ele>
        <time>2016-09-29T09:25:04Z</time>
      </trkpt>
      <trkpt lat="45.98701" lon="4.57078">
        <ele>679</ele>
        <time>2016-09-29T09:25:11Z</time>
      </trkpt>
      <trkpt lat="45.987" lon="4.57077">
        <ele>679</ele>
        <time>2016-09-29T09:25:12Z</time>
      </trkpt>
      <trkpt lat="45.98696" lon="4.57067">
        <ele>679</ele>
        <time>2016-09-29T09:25:19Z</time>
      </trkpt>
      <trkpt lat="45.98696" lon="4.57065">
        <ele>679</ele>
        <time>2016-09-29T09:25:20Z</time>
      </trkpt>
      <trkpt lat="45.98693" lon="4.57054">
        <ele>679</ele>
        <time>2016-09-29T09:25:26Z</time>
      </trkpt>
      <trkpt lat="45.98693" lon="4.57052">
        <ele>679</ele>
        <time>2016-09-29T09:25:27Z</time>
      </trkpt>
      <trkpt lat="45.98693" lon="4.5704">
        <ele>678</ele>
        <time>2016-09-29T09:25:34Z</time>
      </trkpt>
      <trkpt lat="45.98693" lon="4.57038">
        <ele>678</ele>
        <time>2016-09-29T09:25:35Z</time>
      </trkpt>
      <trkpt lat="45.98692" lon="4.57027">
        <ele>678</ele>
        <time>2016-09-29T09:25:41Z</time>
      </trkpt>
      <trkpt lat="45.98693" lon="4.57025">
        <ele>678</ele>
        <time>2016-09-29T09:25:42Z</time>
      </trkpt>
      <trkpt lat="45.98691" lon="4.57013">
        <ele>678</ele>
        <time>2016-09-29T09:25:49Z</time>
      </trkpt>
      <trkpt lat="45.98691" lon="4.57012">
        <ele>679</ele>
        <time>2016-09-29T09:25:50Z</time>
      </trkpt>
      <trkpt lat="45.98687" lon="4.57001">
        <ele>680</ele>
        <time>2016-09-29T09:25:57Z</time>
      </trkpt>
      <trkpt lat="45.98687" lon="4.57">
        <ele>680</ele>
        <time>2016-09-29T09:25:58Z</time>
      </trkpt>
      <trkpt lat="45.98682" lon="4.56989">
        <ele>681</ele>
        <time>2016-09-29T09:26:04Z</time>
      </trkpt>
      <trkpt lat="45.98681" lon="4.56987">
        <ele>681</ele>
        <time>2016-09-29T09:26:05Z</time>
      </trkpt>
      <trkpt lat="45.98678" lon="4.56976">
        <ele>680</ele>
        <time>2016-09-29T09:26:11Z</time>
      </trkpt>
      <trkpt lat="45.98678" lon="4.56975">
        <ele>680</ele>
        <time>2016-09-29T09:26:12Z</time>
      </trkpt>
      <trkpt lat="45.98676" lon="4.56963">
        <ele>680</ele>
        <time>2016-09-29T09:26:19Z</time>
      </trkpt>
      <trkpt lat="45.98676" lon="4.56962">
        <ele>680</ele>
        <time>2016-09-29T09:26:20Z</time>
      </trkpt>
      <trkpt lat="45.98674" lon="4.56949">
        <ele>682</ele>
        <time>2016-09-29T09:26:27Z</time>
      </trkpt>
      <trkpt lat="45.98674" lon="4.56948">
        <ele>682</ele>
        <time>2016-09-29T09:26:28Z</time>
      </trkpt>
      <trkpt lat="45.98671" lon="4.56937">
        <ele>685</ele>
        <time>2016-09-29T09:26:34Z</time>
      </trkpt>
      <trkpt lat="45.9867" lon="4.56935">
        <ele>685</ele>
        <time>2016-09-29T09:26:35Z</time>
      </trkpt>
      <trkpt lat="45.98668" lon="4.56924">
        <ele>690</ele>
        <time>2016-09-29T09:26:42Z</time>
      </trkpt>
      <trkpt lat="45.98668" lon="4.56922">
        <ele>691</ele>
        <time>2016-09-29T09:26:43Z</time>
      </trkpt>
      <trkpt lat="45.98669" lon="4.5691">
        <ele>692</ele>
        <time>2016-09-29T09:26:51Z</time>
      </trkpt>
      <trkpt lat="45.9867" lon="4.56908">
        <ele>692</ele>
        <time>2016-09-29T09:26:52Z</time>
      </trkpt>
      <trkpt lat="45.98674" lon="4.56896">
        <ele>690</ele>
        <time>2016-09-29T09:26:59Z</time>
      </trkpt>
      <trkpt lat="45.98674" lon="4.56894">
        <ele>690</ele>
        <time>2016-09-29T09:27:00Z</time>
      </trkpt>
      <trkpt lat="45.98679" lon="4.56884">
        <ele>689</ele>
        <time>2016-09-29T09:27:07Z</time>
      </trkpt>
      <trkpt lat="45.9868" lon="4.56883">
        <ele>689</ele>
        <time>2016-09-29T09:27:08Z</time>
      </trkpt>
      <trkpt lat="45.98686" lon="4.56875">
        <ele>689</ele>
        <time>2016-09-29T09:27:14Z</time>
      </trkpt>
      <trkpt lat="45.98687" lon="4.56873">
        <ele>689</ele>
        <time>2016-09-29T09:27:15Z</time>
      </trkpt>
      <trkpt lat="45.98691" lon="4.56863">
        <ele>689</ele>
        <time>2016-09-29T09:27:21Z</time>
      </trkpt>
      <trkpt lat="45.98691" lon="4.56861">
        <ele>689</ele>
        <time>2016-09-29T09:27:22Z</time>
      </trkpt>
      <trkpt lat="45.98693" lon="4.5685">
        <ele>690</ele>
        <time>2016-09-29T09:27:28Z</time>
      </trkpt>
      <trkpt lat="45.98694" lon="4.56848">
        <ele>690</ele>
        <time>2016-09-29T09:27:29Z</time>
      </trkpt>
      <trkpt lat="45.98697" lon="4.56838">
        <ele>690</ele>
        <time>2016-09-29T09:27:35Z</time>
      </trkpt>
      <trkpt lat="45.98698" lon="4.56837">
        <ele>690</ele>
        <time>2016-09-29T09:27:36Z</time>
      </trkpt>
      <trkpt lat="45.98703" lon="4.56827">
        <ele>696</ele>
        <time>2016-09-29T09:27:44Z</time>
      </trkpt>
      <trkpt lat="45.98703" lon="4.56826">
        <ele>696</ele>
        <time>2016-09-29T09:27:45Z</time>
      </trkpt>
      <trkpt lat="45.98708" lon="4.56816">
        <ele>695</ele>
        <time>2016-09-29T09:27:52Z</time>
      </trkpt>
      <trkpt lat="45.98708" lon="4.56814">
        <ele>695</ele>
        <time>2016-09-29T09:27:53Z</time>
      </trkpt>
      <trkpt lat="45.98709" lon="4.56803">
        <ele>696</ele>
        <time>2016-09-29T09:28:01Z</time>
      </trkpt>
      <trkpt lat="45.98709" lon="4.56801">
        <ele>696</ele>
        <time>2016-09-29T09:28:02Z</time>
      </trkpt>
      <trkpt lat="45.9871" lon="4.56789">
        <ele>697</ele>
        <time>2016-09-29T09:28:10Z</time>
      </trkpt>
      <trkpt lat="45.9871" lon="4.56788">
        <ele>697</ele>
        <time>2016-09-29T09:28:11Z</time>
      </trkpt>
      <trkpt lat="45.98715" lon="4.56777">
        <ele>697</ele>
        <time>2016-09-29T09:28:19Z</time>
      </trkpt>
      <trkpt lat="45.98716" lon="4.56776">
        <ele>697</ele>
        <time>2016-09-29T09:28:20Z</time>
      </trkpt>
      <trkpt lat="45.98721" lon="4.56765">
        <ele>696</ele>
        <time>2016-09-29T09:28:28Z</time>
      </trkpt>
      <trkpt lat="45.98721" lon="4.56763">
        <ele>696</ele>
        <time>2016-09-29T09:28:29Z</time>
      </trkpt>
      <trkpt lat="45.98723" lon="4.56751">
        <ele>696</ele>
        <time>2016-09-29T09:28:39Z</time>
      </trkpt>
      <trkpt lat="45.98723" lon="4.5675">
        <ele>705</ele>
        <time>2016-09-29T09:28:40Z</time>
      </trkpt>
      <trkpt lat="45.98728" lon="4.56739">
        <ele>705</ele>
        <time>2016-09-29T09:28:48Z</time>
      </trkpt>
      <trkpt lat="45.98728" lon="4.56738">
        <ele>705</ele>
        <time>2016-09-29T09:28:49Z</time>
      </trkpt>
      <trkpt lat="45.98732" lon="4.56727">
        <ele>706</ele>
        <time>2016-09-29T09:28:57Z</time>
      </trkpt>
      <trkpt lat="45.98733" lon="4.56726">
        <ele>706</ele>
        <time>2016-09-29T09:28:58Z</time>
      </trkpt>
      <trkpt lat="45.98739" lon="4.56718">
        <ele>707</ele>
        <time>2016-09-29T09:29:06Z</time>
      </trkpt>
      <trkpt lat="45.9874" lon="4.56718">
        <ele>707</ele>
        <time>2016-09-29T09:29:07Z</time>
      </trkpt>
      <trkpt lat="45.98749" lon="4.56715">
        <ele>707</ele>
        <time>2016-09-29T09:29:14Z</time>
      </trkpt>
      <trkpt lat="45.9875" lon="4.56714">
        <ele>707</ele>
        <time>2016-09-29T09:29:15Z</time>
      </trkpt>
      <trkpt lat="45.98758" lon="4.56709">
        <ele>695</ele>
        <time>2016-09-29T09:29:22Z</time>
      </trkpt>
      <trkpt lat="45.98759" lon="4.56708">
        <ele>695</ele>
        <time>2016-09-29T09:29:23Z</time>
      </trkpt>
      <trkpt lat="45.98767" lon="4.56705">
        <ele>695</ele>
        <time>2016-09-29T09:29:30Z</time>
      </trkpt>
      <trkpt lat="45.98768" lon="4.56704">
        <ele>695</ele>
        <time>2016-09-29T09:29:31Z</time>
      </trkpt>
      <trkpt lat="45.98776" lon="4.567">
        <ele>695</ele>
        <time>2016-09-29T09:29:39Z</time>
      </trkpt>
      <trkpt lat="45.98777" lon="4.567">
        <ele>695</ele>
        <time>2016-09-29T09:29:40Z</time>
      </trkpt>
      <trkpt lat="45.98785" lon="4.56696">
        <ele>694</ele>
        <time>2016-09-29T09:29:46Z</time>
      </trkpt>
      <trkpt lat="45.98786" lon="4.56695">
        <ele>694</ele>
        <time>2016-09-29T09:29:47Z</time>
      </trkpt>
      <trkpt lat="45.98794" lon="4.56696">
        <ele>693</ele>
        <time>2016-09-29T09:29:54Z</time>
      </trkpt>
      <trkpt lat="45.98795" lon="4.56695">
        <ele>693</ele>
        <time>2016-09-29T09:29:55Z</time>
      </trkpt>
      <trkpt lat="45.98801" lon="4.56688">
        <ele>694</ele>
        <time>2016-09-29T09:30:02Z</time>
      </trkpt>
      <trkpt lat="45.98802" lon="4.56687">
        <ele>694</ele>
        <time>2016-09-29T09:30:03Z</time>
      </trkpt>
      <trkpt lat="45.98808" lon="4.56679">
        <ele>694</ele>
        <time>2016-09-29T09:30:09Z</time>
      </trkpt>
      <trkpt lat="45.98809" lon="4.56678">
        <ele>694</ele>
        <time>2016-09-29T09:30:10Z</time>
      </trkpt>
      <trkpt lat="45.98816" lon="4.5667">
        <ele>695</ele>
        <time>2016-09-29T09:30:17Z</time>
      </trkpt>
      <trkpt lat="45.98816" lon="4.56669">
        <ele>695</ele>
        <time>2016-09-29T09:30:18Z</time>
      </trkpt>
      <trkpt lat="45.98821" lon="4.5666">
        <ele>703</ele>
        <time>2016-09-29T09:30:25Z</time>
      </trkpt>
      <trkpt lat="45.98822" lon="4.56658">
        <ele>703</ele>
        <time>2016-09-29T09:30:26Z</time>
      </trkpt>
      <trkpt lat="45.98828" lon="4.56649">
        <ele>705</ele>
        <time>2016-09-29T09:30:33Z</time>
      </trkpt>
      <trkpt lat="45.98829" lon="4.56648">
        <ele>705</ele>
        <time>2016-09-29T09:30:34Z</time>
      </trkpt>
      <trkpt lat="45.98834" lon="4.56639">
        <ele>703</ele>
        <time>2016-09-29T09:30:40Z</time>
      </trkpt>
      <trkpt lat="45.98835" lon="4.56638">
        <ele>703</ele>
        <time>2016-09-29T09:30:41Z</time>
      </trkpt>
      <trkpt lat="45.9884" lon="4.5663">
        <ele>704</ele>
        <time>2016-09-29T09:30:47Z</time>
      </trkpt>
      <trkpt lat="45.98841" lon="4.56628">
        <ele>704</ele>
        <time>2016-09-29T09:30:48Z</time>
      </trkpt>
      <trkpt lat="45.98848" lon="4.56621">
        <ele>705</ele>
        <time>2016-09-29T09:30:56Z</time>
      </trkpt>
      <trkpt lat="45.98849" lon="4.5662">
        <ele>705</ele>
        <time>2016-09-29T09:30:57Z</time>
      </trkpt>
      <trkpt lat="45.98856" lon="4.56614">
        <ele>706</ele>
        <time>2016-09-29T09:31:09Z</time>
      </trkpt>
      <trkpt lat="45.98857" lon="4.56613">
        <ele>706</ele>
        <time>2016-09-29T09:31:10Z</time>
      </trkpt>
      <trkpt lat="45.98863" lon="4.56606">
        <ele>707</ele>
        <time>2016-09-29T09:31:21Z</time>
      </trkpt>
      <trkpt lat="45.98864" lon="4.56606">
        <ele>707</ele>
        <time>2016-09-29T09:31:22Z</time>
      </trkpt>
      <trkpt lat="45.98872" lon="4.56601">
        <ele>707</ele>
        <time>2016-09-29T09:31:36Z</time>
      </trkpt>
      <trkpt lat="45.98873" lon="4.56601">
        <ele>707</ele>
        <time>2016-09-29T09:31:37Z</time>
      </trkpt>
      <trkpt lat="45.98881" lon="4.56604">
        <ele>707</ele>
        <time>2016-09-29T09:31:50Z</time>
      </trkpt>
      <trkpt lat="45.98882" lon="4.56604">
        <ele>707</ele>
        <time>2016-09-29T09:31:51Z</time>
      </trkpt>
      <trkpt lat="45.98891" lon="4.56607">
        <ele>707</ele>
        <time>2016-09-29T09:33:36Z</time>
      </trkpt>
      <trkpt lat="45.98891" lon="4.56607">
        <ele>707</ele>
        <time>2016-09-29T09:33:37Z</time>
      </trkpt>
      <trkpt lat="45.98892" lon="4.56594">
        <ele>708</ele>
        <time>2016-09-29T09:41:00Z</time>
      </trkpt>
      <trkpt lat="45.98892" lon="4.56593">
        <ele>708</ele>
        <time>2016-09-29T09:41:01Z</time>
      </trkpt>
      <trkpt lat="45.98886" lon="4.56583">
        <ele>712</ele>
        <time>2016-09-29T09:41:14Z</time>
      </trkpt>
      <trkpt lat="45.98886" lon="4.56582">
        <ele>712</ele>
        <time>2016-09-29T09:41:15Z</time>
      </trkpt>
      <trkpt lat="45.98888" lon="4.5657">
        <ele>712</ele>
        <time>2016-09-29T09:41:26Z</time>
      </trkpt>
      <trkpt lat="45.98888" lon="4.56569">
        <ele>712</ele>
        <time>2016-09-29T09:41:27Z</time>
      </trkpt>
      <trkpt lat="45.98886" lon="4.56557">
        <ele>712</ele>
        <time>2016-09-29T09:41:37Z</time>
      </trkpt>
      <trkpt lat="45.98886" lon="4.56556">
        <ele>712</ele>
        <time>2016-09-29T09:41:38Z</time>
      </trkpt>
      <trkpt lat="45.98882" lon="4.56545">
        <ele>711</ele>
        <time>2016-09-29T09:41:46Z</time>
      </trkpt>
      <trkpt lat="45.98881" lon="4.56543">
        <ele>711</ele>
        <time>2016-09-29T09:41:47Z</time>
      </trkpt>
      <trkpt lat="45.98878" lon="4.56532">
        <ele>711</ele>
        <time>2016-09-29T09:41:55Z</time>
      </trkpt>
      <trkpt lat="45.98877" lon="4.5653">
        <ele>711</ele>
        <time>2016-09-29T09:41:56Z</time>
      </trkpt>
      <trkpt lat="45.98873" lon="4.5652">
        <ele>711</ele>
        <time>2016-09-29T09:42:04Z</time>
      </trkpt>
      <trkpt lat="45.98872" lon="4.5652">
        <ele>711</ele>
        <time>2016-09-29T09:42:05Z</time>
      </trkpt>
      <trkpt lat="45.98868" lon="4.56509">
        <ele>711</ele>
        <time>2016-09-29T09:42:22Z</time>
      </trkpt>
      <trkpt lat="45.98867" lon="4.56508">
        <ele>711</ele>
        <time>2016-09-29T09:42:23Z</time>
      </trkpt>
      <trkpt lat="45.98862" lon="4.56497">
        <ele>709</ele>
        <time>2016-09-29T09:42:31Z</time>
      </trkpt>
      <trkpt lat="45.98861" lon="4.56496">
        <ele>709</ele>
        <time>2016-09-29T09:42:32Z</time>
      </trkpt>
      <trkpt lat="45.98859" lon="4.56484">
        <ele>708</ele>
        <time>2016-09-29T09:42:39Z</time>
      </trkpt>
      <trkpt lat="45.98859" lon="4.56482">
        <ele>708</ele>
        <time>2016-09-29T09:42:40Z</time>
      </trkpt>
      <trkpt lat="45.98856" lon="4.56471">
        <ele>708</ele>
        <time>2016-09-29T09:42:48Z</time>
      </trkpt>
      <trkpt lat="45.98856" lon="4.5647">
        <ele>708</ele>
        <time>2016-09-29T09:42:49Z</time>
      </trkpt>
      <trkpt lat="45.98855" lon="4.56458">
        <ele>707</ele>
        <time>2016-09-29T09:42:56Z</time>
      </trkpt>
      <trkpt lat="45.98855" lon="4.56457">
        <ele>707</ele>
        <time>2016-09-29T09:42:57Z</time>
      </trkpt>
      <trkpt lat="45.98852" lon="4.56445">
        <ele>706</ele>
        <time>2016-09-29T09:43:05Z</time>
      </trkpt>
      <trkpt lat="45.98851" lon="4.56444">
        <ele>706</ele>
        <time>2016-09-29T09:43:06Z</time>
      </trkpt>
      <trkpt lat="45.98849" lon="4.56431">
        <ele>706</ele>
        <time>2016-09-29T09:43:15Z</time>
      </trkpt>
      <trkpt lat="45.98848" lon="4.5643">
        <ele>705</ele>
        <time>2016-09-29T09:43:16Z</time>
      </trkpt>
      <trkpt lat="45.98847" lon="4.56418">
        <ele>705</ele>
        <time>2016-09-29T09:43:24Z</time>
      </trkpt>
      <trkpt lat="45.98846" lon="4.56417">
        <ele>705</ele>
        <time>2016-09-29T09:43:25Z</time>
      </trkpt>
      <trkpt lat="45.98852" lon="4.56407">
        <ele>699</ele>
        <time>2016-09-29T09:43:35Z</time>
      </trkpt>
      <trkpt lat="45.98852" lon="4.56406">
        <ele>699</ele>
        <time>2016-09-29T09:43:36Z</time>
      </trkpt>
      <trkpt lat="45.9886" lon="4.564">
        <ele>698</ele>
        <time>2016-09-29T09:43:46Z</time>
      </trkpt>
      <trkpt lat="45.98861" lon="4.56399">
        <ele>698</ele>
        <time>2016-09-29T09:43:47Z</time>
      </trkpt>
      <trkpt lat="45.98869" lon="4.56397">
        <ele>697</ele>
        <time>2016-09-29T09:43:56Z</time>
      </trkpt>
      <trkpt lat="45.9887" lon="4.56396">
        <ele>697</ele>
        <time>2016-09-29T09:43:57Z</time>
      </trkpt>
      <trkpt lat="45.98878" lon="4.56391">
        <ele>696</ele>
        <time>2016-09-29T09:44:04Z</time>
      </trkpt>
      <trkpt lat="45.98879" lon="4.5639">
        <ele>696</ele>
        <time>2016-09-29T09:44:05Z</time>
      </trkpt>
      <trkpt lat="45.98885" lon="4.56384">
        <ele>696</ele>
        <time>2016-09-29T09:44:12Z</time>
      </trkpt>
      <trkpt lat="45.98886" lon="4.56382">
        <ele>696</ele>
        <time>2016-09-29T09:44:13Z</time>
      </trkpt>
      <trkpt lat="45.98891" lon="4.56373">
        <ele>695</ele>
        <time>2016-09-29T09:44:20Z</time>
      </trkpt>
      <trkpt lat="45.98892" lon="4.56372">
        <ele>694</ele>
        <time>2016-09-29T09:44:21Z</time>
      </trkpt>
      <trkpt lat="45.98898" lon="4.56364">
        <ele>694</ele>
        <time>2016-09-29T09:44:27Z</time>
      </trkpt>
      <trkpt lat="45.98899" lon="4.56363">
        <ele>693</ele>
        <time>2016-09-29T09:44:28Z</time>
      </trkpt>
      <trkpt lat="45.98907" lon="4.56357">
        <ele>692</ele>
        <time>2016-09-29T09:44:34Z</time>
      </trkpt>
      <trkpt lat="45.98908" lon="4.56356">
        <ele>692</ele>
        <time>2016-09-29T09:44:35Z</time>
      </trkpt>
      <trkpt lat="45.98916" lon="4.56352">
        <ele>691</ele>
        <time>2016-09-29T09:44:42Z</time>
      </trkpt>
      <trkpt lat="45.98917" lon="4.56351">
        <ele>695</ele>
        <time>2016-09-29T09:44:43Z</time>
      </trkpt>
      <trkpt lat="45.98925" lon="4.56348">
        <ele>694</ele>
        <time>2016-09-29T09:44:50Z</time>
      </trkpt>
      <trkpt lat="45.98926" lon="4.56347">
        <ele>694</ele>
        <time>2016-09-29T09:44:51Z</time>
      </trkpt>
      <trkpt lat="45.98932" lon="4.56339">
        <ele>694</ele>
        <time>2016-09-29T09:44:58Z</time>
      </trkpt>
      <trkpt lat="45.98932" lon="4.56337">
        <ele>694</ele>
        <time>2016-09-29T09:44:59Z</time>
      </trkpt>
      <trkpt lat="45.98937" lon="4.56328">
        <ele>687</ele>
        <time>2016-09-29T09:45:06Z</time>
      </trkpt>
      <trkpt lat="45.98938" lon="4.56326">
        <ele>687</ele>
        <time>2016-09-29T09:45:07Z</time>
      </trkpt>
      <trkpt lat="45.98944" lon="4.56318">
        <ele>687</ele>
        <time>2016-09-29T09:45:18Z</time>
      </trkpt>
      <trkpt lat="45.98945" lon="4.56316">
        <ele>687</ele>
        <time>2016-09-29T09:45:19Z</time>
      </trkpt>
      <trkpt lat="45.9895" lon="4.56306">
        <ele>687</ele>
        <time>2016-09-29T09:45:25Z</time>
      </trkpt>
      <trkpt lat="45.9895" lon="4.56304">
        <ele>687</ele>
        <time>2016-09-29T09:45:26Z</time>
      </trkpt>
      <trkpt lat="45.98956" lon="4.56294">
        <ele>687</ele>
        <time>2016-09-29T09:45:36Z</time>
      </trkpt>
      <trkpt lat="45.98957" lon="4.56292">
        <ele>686</ele>
        <time>2016-09-29T09:45:37Z</time>
      </trkpt>
      <trkpt lat="45.98961" lon="4.56282">
        <ele>686</ele>
        <time>2016-09-29T09:45:44Z</time>
      </trkpt>
      <trkpt lat="45.98962" lon="4.5628">
        <ele>686</ele>
        <time>2016-09-29T09:45:45Z</time>
      </trkpt>
      <trkpt lat="45.98967" lon="4.56271">
        <ele>685</ele>
        <time>2016-09-29T09:45:53Z</time>
      </trkpt>
      <trkpt lat="45.98968" lon="4.56269">
        <ele>685</ele>
        <time>2016-09-29T09:45:54Z</time>
      </trkpt>
      <trkpt lat="45.98973" lon="4.5626">
        <ele>685</ele>
        <time>2016-09-29T09:46:03Z</time>
      </trkpt>
      <trkpt lat="45.98974" lon="4.56258">
        <ele>685</ele>
        <time>2016-09-29T09:46:04Z</time>
      </trkpt>
      <trkpt lat="45.9898" lon="4.56249">
        <ele>678</ele>
        <time>2016-09-29T09:46:10Z</time>
      </trkpt>
      <trkpt lat="45.9898" lon="4.56248">
        <ele>678</ele>
        <time>2016-09-29T09:46:11Z</time>
      </trkpt>
      <trkpt lat="45.98987" lon="4.56239">
        <ele>678</ele>
        <time>2016-09-29T09:46:18Z</time>
      </trkpt>
      <trkpt lat="45.98987" lon="4.56238">
        <ele>678</ele>
        <time>2016-09-29T09:46:19Z</time>
      </trkpt>
      <trkpt lat="45.98993" lon="4.5623">
        <ele>677</ele>
        <time>2016-09-29T09:46:25Z</time>
      </trkpt>
      <trkpt lat="45.98994" lon="4.56229">
        <ele>677</ele>
        <time>2016-09-29T09:46:26Z</time>
      </trkpt>
      <trkpt lat="45.99" lon="4.56219">
        <ele>687</ele>
        <time>2016-09-29T09:46:34Z</time>
      </trkpt>
      <trkpt lat="45.99001" lon="4.56218">
        <ele>687</ele>
        <time>2016-09-29T09:46:35Z</time>
      </trkpt>
      <trkpt lat="45.99005" lon="4.56208">
        <ele>686</ele>
        <time>2016-09-29T09:46:41Z</time>
      </trkpt>
      <trkpt lat="45.99005" lon="4.56206">
        <ele>686</ele>
        <time>2016-09-29T09:46:42Z</time>
      </trkpt>
      <trkpt lat="45.99008" lon="4.56195">
        <ele>684</ele>
        <time>2016-09-29T09:46:49Z</time>
      </trkpt>
      <trkpt lat="45.99009" lon="4.56193">
        <ele>684</ele>
        <time>2016-09-29T09:46:50Z</time>
      </trkpt>
      <trkpt lat="45.99015" lon="4.56185">
        <ele>683</ele>
        <time>2016-09-29T09:46:56Z</time>
      </trkpt>
      <trkpt lat="45.99016" lon="4.56184">
        <ele>683</ele>
        <time>2016-09-29T09:46:57Z</time>
      </trkpt>
      <trkpt lat="45.99022" lon="4.56175">
        <ele>683</ele>
        <time>2016-09-29T09:47:04Z</time>
      </trkpt>
      <trkpt lat="45.99023" lon="4.56174">
        <ele>683</ele>
        <time>2016-09-29T09:47:05Z</time>
      </trkpt>
      <trkpt lat="45.99029" lon="4.56164">
        <ele>675</ele>
        <time>2016-09-29T09:47:13Z</time>
      </trkpt>
      <trkpt lat="45.9903" lon="4.56163">
        <ele>675</ele>
        <time>2016-09-29T09:47:14Z</time>
      </trkpt>
      <trkpt lat="45.99033" lon="4.56151">
        <ele>674</ele>
        <time>2016-09-29T09:47:21Z</time>
      </trkpt>
      <trkpt lat="45.99033" lon="4.56149">
        <ele>674</ele>
        <time>2016-09-29T09:47:22Z</time>
      </trkpt>
      <trkpt lat="45.99037" lon="4.5614">
        <ele>674</ele>
        <time>2016-09-29T09:47:29Z</time>
      </trkpt>
      <trkpt lat="45.99038" lon="4.56138">
        <ele>674</ele>
        <time>2016-09-29T09:47:30Z</time>
      </trkpt>
      <trkpt lat="45.99042" lon="4.56127">
        <ele>674</ele>
        <time>2016-09-29T09:47:36Z</time>
      </trkpt>
      <trkpt lat="45.99043" lon="4.56126">
        <ele>674</ele>
        <time>2016-09-29T09:47:37Z</time>
      </trkpt>
      <trkpt lat="45.99049" lon="4.56118">
        <ele>674</ele>
        <time>2016-09-29T09:47:45Z</time>
      </trkpt>
      <trkpt lat="45.99049" lon="4.56117">
        <ele>674</ele>
        <time>2016-09-29T09:47:46Z</time>
      </trkpt>
      <trkpt lat="45.99052" lon="4.56106">
        <ele>673</ele>
        <time>2016-09-29T09:47:53Z</time>
      </trkpt>
      <trkpt lat="45.99053" lon="4.56104">
        <ele>673</ele>
        <time>2016-09-29T09:47:54Z</time>
      </trkpt>
      <trkpt lat="45.99044" lon="4.56105">
        <ele>672</ele>
        <time>2016-09-29T09:48:10Z</time>
      </trkpt>
      <trkpt lat="45.99043" lon="4.56105">
        <ele>672</ele>
        <time>2016-09-29T09:48:11Z</time>
      </trkpt>
      <trkpt lat="45.99034" lon="4.56104">
        <ele>671</ele>
        <time>2016-09-29T09:48:26Z</time>
      </trkpt>
      <trkpt lat="45.99034" lon="4.56104">
        <ele>671</ele>
        <time>2016-09-29T09:48:27Z</time>
      </trkpt>
      <trkpt lat="45.99026" lon="4.56098">
        <ele>669</ele>
        <time>2016-09-29T09:48:38Z</time>
      </trkpt>
      <trkpt lat="45.99025" lon="4.56098">
        <ele>668</ele>
        <time>2016-09-29T09:48:39Z</time>
      </trkpt>
      <trkpt lat="45.99019" lon="4.56106">
        <ele>669</ele>
        <time>2016-09-29T09:48:50Z</time>
      </trkpt>
      <trkpt lat="45.99018" lon="4.56107">
        <ele>669</ele>
        <time>2016-09-29T09:48:51Z</time>
      </trkpt>
      <trkpt lat="45.99009" lon="4.56108">
        <ele>668</ele>
        <time>2016-09-29T09:49:14Z</time>
      </trkpt>
      <trkpt lat="45.99009" lon="4.56109">
        <ele>668</ele>
        <time>2016-09-29T09:49:15Z</time>
      </trkpt>
      <trkpt lat="45.99" lon="4.56111">
        <ele>668</ele>
        <time>2016-09-29T09:49:41Z</time>
      </trkpt>
      <trkpt lat="45.99" lon="4.56111">
        <ele>657</ele>
        <time>2016-09-29T09:49:42Z</time>
      </trkpt>
      <trkpt lat="45.98991" lon="4.5611">
        <ele>657</ele>
        <time>2016-09-29T09:49:52Z</time>
      </trkpt>
      <trkpt lat="45.9899" lon="4.5611">
        <ele>657</ele>
        <time>2016-09-29T09:49:53Z</time>
      </trkpt>
      <trkpt lat="45.98981" lon="4.56109">
        <ele>656</ele>
        <time>2016-09-29T09:50:08Z</time>
      </trkpt>
      <trkpt lat="45.9898" lon="4.5611">
        <ele>656</ele>
        <time>2016-09-29T09:50:09Z</time>
      </trkpt>
      <trkpt lat="45.98972" lon="4.56111">
        <ele>655</ele>
        <time>2016-09-29T09:50:17Z</time>
      </trkpt>
      <trkpt lat="45.9897" lon="4.56111">
        <ele>655</ele>
        <time>2016-09-29T09:50:18Z</time>
      </trkpt>
      <trkpt lat="45.98962" lon="4.56113">
        <ele>655</ele>
        <time>2016-09-29T09:50:25Z</time>
      </trkpt>
      <trkpt lat="45.98961" lon="4.56113">
        <ele>655</ele>
        <time>2016-09-29T09:50:26Z</time>
      </trkpt>
      <trkpt lat="45.98953" lon="4.56117">
        <ele>654</ele>
        <time>2016-09-29T09:50:38Z</time>
      </trkpt>
      <trkpt lat="45.98952" lon="4.56117">
        <ele>654</ele>
        <time>2016-09-29T09:50:39Z</time>
      </trkpt>
      <trkpt lat="45.98944" lon="4.56117">
        <ele>653</ele>
        <time>2016-09-29T09:50:45Z</time>
      </trkpt>
      <trkpt lat="45.98943" lon="4.56117">
        <ele>653</ele>
        <time>2016-09-29T09:50:46Z</time>
      </trkpt>
      <trkpt lat="45.98935" lon="4.56118">
        <ele>652</ele>
        <time>2016-09-29T09:50:52Z</time>
      </trkpt>
      <trkpt lat="45.98934" lon="4.56118">
        <ele>652</ele>
        <time>2016-09-29T09:50:53Z</time>
      </trkpt>
      <trkpt lat="45.98926" lon="4.56125">
        <ele>652</ele>
        <time>2016-09-29T09:51:01Z</time>
      </trkpt>
      <trkpt lat="45.98925" lon="4.56126">
        <ele>652</ele>
        <time>2016-09-29T09:51:02Z</time>
      </trkpt>
      <trkpt lat="45.9892" lon="4.56135">
        <ele>653</ele>
        <time>2016-09-29T09:51:09Z</time>
      </trkpt>
      <trkpt lat="45.9892" lon="4.56136">
        <ele>653</ele>
        <time>2016-09-29T09:51:10Z</time>
      </trkpt>
      <trkpt lat="45.98911" lon="4.56142">
        <ele>648</ele>
        <time>2016-09-29T09:51:17Z</time>
      </trkpt>
      <trkpt lat="45.98911" lon="4.56143">
        <ele>648</ele>
        <time>2016-09-29T09:51:18Z</time>
      </trkpt>
      <trkpt lat="45.98902" lon="4.56145">
        <ele>648</ele>
        <time>2016-09-29T09:51:28Z</time>
      </trkpt>
      <trkpt lat="45.98901" lon="4.56145">
        <ele>648</ele>
        <time>2016-09-29T09:51:29Z</time>
      </trkpt>
      <trkpt lat="45.98893" lon="4.56145">
        <ele>648</ele>
        <time>2016-09-29T09:51:38Z</time>
      </trkpt>
      <trkpt lat="45.98892" lon="4.56145">
        <ele>648</ele>
        <time>2016-09-29T09:51:39Z</time>
      </trkpt>
      <trkpt lat="45.98884" lon="4.5614">
        <ele>647</ele>
        <time>2016-09-29T09:51:48Z</time>
      </trkpt>
      <trkpt lat="45.98883" lon="4.56139">
        <ele>647</ele>
        <time>2016-09-29T09:51:49Z</time>
      </trkpt>
      <trkpt lat="45.98876" lon="4.56133">
        <ele>646</ele>
        <time>2016-09-29T09:51:56Z</time>
      </trkpt>
      <trkpt lat="45.98875" lon="4.56132">
        <ele>646</ele>
        <time>2016-09-29T09:51:57Z</time>
      </trkpt>
      <trkpt lat="45.98868" lon="4.56125">
        <ele>646</ele>
        <time>2016-09-29T09:52:03Z</time>
      </trkpt>
      <trkpt lat="45.98867" lon="4.56124">
        <ele>645</ele>
        <time>2016-09-29T09:52:04Z</time>
      </trkpt>
      <trkpt lat="45.9886" lon="4.56116">
        <ele>644</ele>
        <time>2016-09-29T09:52:13Z</time>
      </trkpt>
      <trkpt lat="45.98859" lon="4.56115">
        <ele>644</ele>
        <time>2016-09-29T09:52:14Z</time>
      </trkpt>
      <trkpt lat="45.98853" lon="4.56108">
        <ele>643</ele>
        <time>2016-09-29T09:52:21Z</time>
      </trkpt>
      <trkpt lat="45.98851" lon="4.56106">
        <ele>643</ele>
        <time>2016-09-29T09:52:22Z</time>
      </trkpt>
      <trkpt lat="45.98845" lon="4.56098">
        <ele>641</ele>
        <time>2016-09-29T09:52:29Z</time>
      </trkpt>
      <trkpt lat="45.98844" lon="4.56097">
        <ele>640</ele>
        <time>2016-09-29T09:52:30Z</time>
      </trkpt>
      <trkpt lat="45.98837" lon="4.56091">
        <ele>638</ele>
        <time>2016-09-29T09:52:36Z</time>
      </trkpt>
      <trkpt lat="45.98836" lon="4.5609">
        <ele>638</ele>
        <time>2016-09-29T09:52:37Z</time>
      </trkpt>
      <trkpt lat="45.98828" lon="4.56083">
        <ele>635</ele>
        <time>2016-09-29T09:52:44Z</time>
      </trkpt>
      <trkpt lat="45.98827" lon="4.56082">
        <ele>635</ele>
        <time>2016-09-29T09:52:45Z</time>
      </trkpt>
      <trkpt lat="45.98823" lon="4.56073">
        <ele>635</ele>
        <time>2016-09-29T09:52:52Z</time>
      </trkpt>
      <trkpt lat="45.98822" lon="4.56071">
        <ele>635</ele>
        <time>2016-09-29T09:52:53Z</time>
      </trkpt>
      <trkpt lat="45.98816" lon="4.56062">
        <ele>634</ele>
        <time>2016-09-29T09:53:00Z</time>
      </trkpt>
      <trkpt lat="45.98815" lon="4.5606">
        <ele>634</ele>
        <time>2016-09-29T09:53:01Z</time>
      </trkpt>
      <trkpt lat="45.98808" lon="4.56053">
        <ele>634</ele>
        <time>2016-09-29T09:53:08Z</time>
      </trkpt>
      <trkpt lat="45.98808" lon="4.56052">
        <ele>634</ele>
        <time>2016-09-29T09:53:09Z</time>
      </trkpt>
      <trkpt lat="45.98803" lon="4.56042">
        <ele>633</ele>
        <time>2016-09-29T09:53:15Z</time>
      </trkpt>
      <trkpt lat="45.98801" lon="4.56041">
        <ele>633</ele>
        <time>2016-09-29T09:53:16Z</time>
      </trkpt>
      <trkpt lat="45.98795" lon="4.56033">
        <ele>633</ele>
        <time>2016-09-29T09:53:22Z</time>
      </trkpt>
      <trkpt lat="45.98794" lon="4.56032">
        <ele>633</ele>
        <time>2016-09-29T09:53:23Z</time>
      </trkpt>
      <trkpt lat="45.98788" lon="4.56026">
        <ele>633</ele>
        <time>2016-09-29T09:53:28Z</time>
      </trkpt>
      <trkpt lat="45.98786" lon="4.56025">
        <ele>633</ele>
        <time>2016-09-29T09:53:29Z</time>
      </trkpt>
      <trkpt lat="45.9878" lon="4.56017">
        <ele>633</ele>
        <time>2016-09-29T09:53:35Z</time>
      </trkpt>
      <trkpt lat="45.98779" lon="4.56016">
        <ele>633</ele>
        <time>2016-09-29T09:53:36Z</time>
      </trkpt>
      <trkpt lat="45.98773" lon="4.56009">
        <ele>633</ele>
        <time>2016-09-29T09:53:44Z</time>
      </trkpt>
      <trkpt lat="45.98772" lon="4.56008">
        <ele>633</ele>
        <time>2016-09-29T09:53:45Z</time>
      </trkpt>
      <trkpt lat="45.98765" lon="4.56">
        <ele>626</ele>
        <time>2016-09-29T09:53:52Z</time>
      </trkpt>
      <trkpt lat="45.98764" lon="4.55999">
        <ele>627</ele>
        <time>2016-09-29T09:53:53Z</time>
      </trkpt>
      <trkpt lat="45.98757" lon="4.5599">
        <ele>627</ele>
        <time>2016-09-29T09:54:01Z</time>
      </trkpt>
      <trkpt lat="45.98756" lon="4.55989">
        <ele>627</ele>
        <time>2016-09-29T09:54:02Z</time>
      </trkpt>
      <trkpt lat="45.98751" lon="4.5598">
        <ele>625</ele>
        <time>2016-09-29T09:54:10Z</time>
      </trkpt>
      <trkpt lat="45.9875" lon="4.55979">
        <ele>630</ele>
        <time>2016-09-29T09:54:11Z</time>
      </trkpt>
      <trkpt lat="45.98745" lon="4.5597">
        <ele>629</ele>
        <time>2016-09-29T09:54:18Z</time>
      </trkpt>
      <trkpt lat="45.98744" lon="4.55969">
        <ele>629</ele>
        <time>2016-09-29T09:54:19Z</time>
      </trkpt>
      <trkpt lat="45.98738" lon="4.55961">
        <ele>628</ele>
        <time>2016-09-29T09:54:26Z</time>
      </trkpt>
      <trkpt lat="45.98737" lon="4.5596">
        <ele>628</ele>
        <time>2016-09-29T09:54:27Z</time>
      </trkpt>
      <trkpt lat="45.98731" lon="4.55951">
        <ele>627</ele>
        <time>2016-09-29T09:54:35Z</time>
      </trkpt>
      <trkpt lat="45.9873" lon="4.5595">
        <ele>627</ele>
        <time>2016-09-29T09:54:36Z</time>
      </trkpt>
      <trkpt lat="45.98726" lon="4.55939">
        <ele>626</ele>
        <time>2016-09-29T09:54:54Z</time>
      </trkpt>
      <trkpt lat="45.98725" lon="4.55938">
        <ele>626</ele>
        <time>2016-09-29T09:54:55Z</time>
      </trkpt>
      <trkpt lat="45.98719" lon="4.5593">
        <ele>625</ele>
        <time>2016-09-29T09:55:01Z</time>
      </trkpt>
      <trkpt lat="45.98718" lon="4.55928">
        <ele>625</ele>
        <time>2016-09-29T09:55:02Z</time>
      </trkpt>
      <trkpt lat="45.9871" lon="4.55921">
        <ele>626</ele>
        <time>2016-09-29T09:55:07Z</time>
      </trkpt>
      <trkpt lat="45.98709" lon="4.5592">
        <ele>626</ele>
        <time>2016-09-29T09:55:08Z</time>
      </trkpt>
      <trkpt lat="45.98702" lon="4.55912">
        <ele>615</ele>
        <time>2016-09-29T09:55:14Z</time>
      </trkpt>
      <trkpt lat="45.98701" lon="4.55911">
        <ele>615</ele>
        <time>2016-09-29T09:55:15Z</time>
      </trkpt>
      <trkpt lat="45.98693" lon="4.55906">
        <ele>615</ele>
        <time>2016-09-29T09:55:22Z</time>
      </trkpt>
      <trkpt lat="45.98692" lon="4.55905">
        <ele>615</ele>
        <time>2016-09-29T09:55:23Z</time>
      </trkpt>
      <trkpt lat="45.98684" lon="4.55904">
        <ele>616</ele>
        <time>2016-09-29T09:55:32Z</time>
      </trkpt>
      <trkpt lat="45.98683" lon="4.55903">
        <ele>616</ele>
        <time>2016-09-29T09:55:33Z</time>
      </trkpt>
      <trkpt lat="45.98675" lon="4.559">
        <ele>617</ele>
        <time>2016-09-29T09:55:40Z</time>
      </trkpt>
      <trkpt lat="45.98674" lon="4.559">
        <ele>617</ele>
        <time>2016-09-29T09:55:41Z</time>
      </trkpt>
      <trkpt lat="45.98667" lon="4.55897">
        <ele>616</ele>
        <time>2016-09-29T09:55:46Z</time>
      </trkpt>
      <trkpt lat="45.98665" lon="4.55897">
        <ele>616</ele>
        <time>2016-09-29T09:55:47Z</time>
      </trkpt>
      <trkpt lat="45.98658" lon="4.55896">
        <ele>615</ele>
        <time>2016-09-29T09:55:52Z</time>
      </trkpt>
      <trkpt lat="45.98656" lon="4.55895">
        <ele>615</ele>
        <time>2016-09-29T09:55:53Z</time>
      </trkpt>
      <trkpt lat="45.98648" lon="4.55895">
        <ele>614</ele>
        <time>2016-09-29T09:55:59Z</time>
      </trkpt>
      <trkpt lat="45.98647" lon="4.55894">
        <ele>613</ele>
        <time>2016-09-29T09:56:00Z</time>
      </trkpt>
      <trkpt lat="45.98638" lon="4.55895">
        <ele>613</ele>
        <time>2016-09-29T09:56:09Z</time>
      </trkpt>
      <trkpt lat="45.98637" lon="4.55896">
        <ele>612</ele>
        <time>2016-09-29T09:56:10Z</time>
      </trkpt>
      <trkpt lat="45.98629" lon="4.55896">
        <ele>612</ele>
        <time>2016-09-29T09:56:17Z</time>
      </trkpt>
      <trkpt lat="45.98627" lon="4.55895">
        <ele>612</ele>
        <time>2016-09-29T09:56:18Z</time>
      </trkpt>
      <trkpt lat="45.98618" lon="4.55896">
        <ele>611</ele>
        <time>2016-09-29T09:56:24Z</time>
      </trkpt>
      <trkpt lat="45.98617" lon="4.55897">
        <ele>611</ele>
        <time>2016-09-29T09:56:25Z</time>
      </trkpt>
      <trkpt lat="45.98609" lon="4.559">
        <ele>611</ele>
        <time>2016-09-29T09:56:31Z</time>
      </trkpt>
      <trkpt lat="45.98608" lon="4.559">
        <ele>611</ele>
        <time>2016-09-29T09:56:32Z</time>
      </trkpt>
      <trkpt lat="45.98599" lon="4.55905">
        <ele>611</ele>
        <time>2016-09-29T09:56:38Z</time>
      </trkpt>
      <trkpt lat="45.98598" lon="4.55905">
        <ele>611</ele>
        <time>2016-09-29T09:56:39Z</time>
      </trkpt>
      <trkpt lat="45.98591" lon="4.55913">
        <ele>611</ele>
        <time>2016-09-29T09:56:47Z</time>
      </trkpt>
      <trkpt lat="45.98591" lon="4.55914">
        <ele>611</ele>
        <time>2016-09-29T09:56:48Z</time>
      </trkpt>
      <trkpt lat="45.98587" lon="4.55925">
        <ele>616</ele>
        <time>2016-09-29T09:56:55Z</time>
      </trkpt>
      <trkpt lat="45.98586" lon="4.55926">
        <ele>616</ele>
        <time>2016-09-29T09:56:56Z</time>
      </trkpt>
      <trkpt lat="45.98581" lon="4.55936">
        <ele>612</ele>
        <time>2016-09-29T09:57:01Z</time>
      </trkpt>
      <trkpt lat="45.9858" lon="4.55938">
        <ele>612</ele>
        <time>2016-09-29T09:57:02Z</time>
      </trkpt>
      <trkpt lat="45.98574" lon="4.55946">
        <ele>612</ele>
        <time>2016-09-29T09:57:08Z</time>
      </trkpt>
      <trkpt lat="45.98573" lon="4.55947">
        <ele>612</ele>
        <time>2016-09-29T09:57:09Z</time>
      </trkpt>
      <trkpt lat="45.98566" lon="4.55955">
        <ele>612</ele>
        <time>2016-09-29T09:57:15Z</time>
      </trkpt>
      <trkpt lat="45.98565" lon="4.55957">
        <ele>612</ele>
        <time>2016-09-29T09:57:16Z</time>
      </trkpt>
      <trkpt lat="45.98561" lon="4.55968">
        <ele>613</ele>
        <time>2016-09-29T09:57:22Z</time>
      </trkpt>
      <trkpt lat="45.9856" lon="4.5597">
        <ele>613</ele>
        <time>2016-09-29T09:57:23Z</time>
      </trkpt>
      <trkpt lat="45.98555" lon="4.55979">
        <ele>614</ele>
        <time>2016-09-29T09:57:30Z</time>
      </trkpt>
      <trkpt lat="45.98555" lon="4.5598">
        <ele>614</ele>
        <time>2016-09-29T09:57:31Z</time>
      </trkpt>
      <trkpt lat="45.98551" lon="4.55991">
        <ele>614</ele>
        <time>2016-09-29T09:57:39Z</time>
      </trkpt>
      <trkpt lat="45.98551" lon="4.55993">
        <ele>615</ele>
        <time>2016-09-29T09:57:40Z</time>
      </trkpt>
      <trkpt lat="45.98546" lon="4.56003">
        <ele>623</ele>
        <time>2016-09-29T09:57:48Z</time>
      </trkpt>
      <trkpt lat="45.98546" lon="4.56004">
        <ele>623</ele>
        <time>2016-09-29T09:57:49Z</time>
      </trkpt>
      <trkpt lat="45.98537" lon="4.56008">
        <ele>622</ele>
        <time>2016-09-29T09:57:57Z</time>
      </trkpt>
      <trkpt lat="45.98536" lon="4.56009">
        <ele>622</ele>
        <time>2016-09-29T09:57:58Z</time>
      </trkpt>
      <trkpt lat="45.98529" lon="4.56016">
        <ele>621</ele>
        <time>2016-09-29T09:58:10Z</time>
      </trkpt>
      <trkpt lat="45.98528" lon="4.56016">
        <ele>621</ele>
        <time>2016-09-29T09:58:11Z</time>
      </trkpt>
      <trkpt lat="45.98522" lon="4.56007">
        <ele>619</ele>
        <time>2016-09-29T09:58:25Z</time>
      </trkpt>
      <trkpt lat="45.98521" lon="4.56006">
        <ele>619</ele>
        <time>2016-09-29T09:58:26Z</time>
      </trkpt>
      <trkpt lat="45.98513" lon="4.56001">
        <ele>616</ele>
        <time>2016-09-29T09:58:33Z</time>
      </trkpt>
      <trkpt lat="45.98512" lon="4.56">
        <ele>610</ele>
        <time>2016-09-29T09:58:34Z</time>
      </trkpt>
      <trkpt lat="45.98504" lon="4.55995">
        <ele>610</ele>
        <time>2016-09-29T09:58:41Z</time>
      </trkpt>
      <trkpt lat="45.98503" lon="4.55994">
        <ele>610</ele>
        <time>2016-09-29T09:58:42Z</time>
      </trkpt>
      <trkpt lat="45.98496" lon="4.55989">
        <ele>606</ele>
        <time>2016-09-29T09:58:48Z</time>
      </trkpt>
      <trkpt lat="45.98495" lon="4.55988">
        <ele>606</ele>
        <time>2016-09-29T09:58:49Z</time>
      </trkpt>
      <trkpt lat="45.98487" lon="4.55981">
        <ele>604</ele>
        <time>2016-09-29T09:58:56Z</time>
      </trkpt>
      <trkpt lat="45.98486" lon="4.5598">
        <ele>604</ele>
        <time>2016-09-29T09:58:57Z</time>
      </trkpt>
      <trkpt lat="45.98478" lon="4.55974">
        <ele>603</ele>
        <time>2016-09-29T09:59:04Z</time>
      </trkpt>
      <trkpt lat="45.98477" lon="4.55973">
        <ele>602</ele>
        <time>2016-09-29T09:59:05Z</time>
      </trkpt>
      <trkpt lat="45.98471" lon="4.55967">
        <ele>602</ele>
        <time>2016-09-29T09:59:11Z</time>
      </trkpt>
      <trkpt lat="45.9847" lon="4.55966">
        <ele>601</ele>
        <time>2016-09-29T09:59:12Z</time>
      </trkpt>
      <trkpt lat="45.98463" lon="4.55958">
        <ele>601</ele>
        <time>2016-09-29T09:59:20Z</time>
      </trkpt>
      <trkpt lat="45.98462" lon="4.55957">
        <ele>600</ele>
        <time>2016-09-29T09:59:21Z</time>
      </trkpt>
      <trkpt lat="45.98454" lon="4.55951">
        <ele>600</ele>
        <time>2016-09-29T09:59:28Z</time>
      </trkpt>
      <trkpt lat="45.98453" lon="4.55951">
        <ele>600</ele>
        <time>2016-09-29T09:59:29Z</time>
      </trkpt>
      <trkpt lat="45.98446" lon="4.55946">
        <ele>599</ele>
        <time>2016-09-29T09:59:36Z</time>
      </trkpt>
      <trkpt lat="45.98445" lon="4.55945">
        <ele>599</ele>
        <time>2016-09-29T09:59:37Z</time>
      </trkpt>
      <trkpt lat="45.98438" lon="4.5594">
        <ele>598</ele>
        <time>2016-09-29T09:59:44Z</time>
      </trkpt>
      <trkpt lat="45.98436" lon="4.55939">
        <ele>598</ele>
        <time>2016-09-29T09:59:45Z</time>
      </trkpt>
      <trkpt lat="45.98428" lon="4.55935">
        <ele>597</ele>
        <time>2016-09-29T09:59:51Z</time>
      </trkpt>
      <trkpt lat="45.98427" lon="4.55934">
        <ele>597</ele>
        <time>2016-09-29T09:59:52Z</time>
      </trkpt>
      <trkpt lat="45.9842" lon="4.55928">
        <ele>596</ele>
        <time>2016-09-29T10:00:03Z</time>
      </trkpt>
      <trkpt lat="45.9842" lon="4.55927">
        <ele>596</ele>
        <time>2016-09-29T10:00:04Z</time>
      </trkpt>
      <trkpt lat="45.98413" lon="4.55919">
        <ele>593</ele>
        <time>2016-09-29T10:02:00Z</time>
      </trkpt>
      <trkpt lat="45.98412" lon="4.5592">
        <ele>593</ele>
        <time>2016-09-29T10:02:01Z</time>
      </trkpt>
      <trkpt lat="45.98405" lon="4.55926">
        <ele>592</ele>
        <time>2016-09-29T10:02:25Z</time>
      </trkpt>
      <trkpt lat="45.98404" lon="4.55926">
        <ele>592</ele>
        <time>2016-09-29T10:02:26Z</time>
      </trkpt>
      <trkpt lat="45.98396" lon="4.55931">
        <ele>592</ele>
        <time>2016-09-29T10:02:35Z</time>
      </trkpt>
      <trkpt lat="45.98395" lon="4.55931">
        <ele>592</ele>
        <time>2016-09-29T10:02:36Z</time>
      </trkpt>
      <trkpt lat="45.98387" lon="4.55935">
        <ele>592</ele>
        <time>2016-09-29T10:02:44Z</time>
      </trkpt>
      <trkpt lat="45.98386" lon="4.55935">
        <ele>591</ele>
        <time>2016-09-29T10:02:45Z</time>
      </trkpt>
      <trkpt lat="45.98381" lon="4.55945">
        <ele>592</ele>
        <time>2016-09-29T10:02:54Z</time>
      </trkpt>
      <trkpt lat="45.98381" lon="4.55947">
        <ele>592</ele>
        <time>2016-09-29T10:02:55Z</time>
      </trkpt>
      <trkpt lat="45.98376" lon="4.55957">
        <ele>592</ele>
        <time>2016-09-29T10:03:02Z</time>
      </trkpt>
      <trkpt lat="45.98375" lon="4.55959">
        <ele>592</ele>
        <time>2016-09-29T10:03:03Z</time>
      </trkpt>
      <trkpt lat="45.98372" lon="4.5597">
        <ele>593</ele>
        <time>2016-09-29T10:03:10Z</time>
      </trkpt>
      <trkpt lat="45.98371" lon="4.55971">
        <ele>593</ele>
        <time>2016-09-29T10:03:11Z</time>
      </trkpt>
      <trkpt lat="45.98363" lon="4.55976">
        <ele>593</ele>
        <time>2016-09-29T10:03:18Z</time>
      </trkpt>
      <trkpt lat="45.98361" lon="4.55976">
        <ele>593</ele>
        <time>2016-09-29T10:03:19Z</time>
      </trkpt>
      <trkpt lat="45.98354" lon="4.55982">
        <ele>593</ele>
        <time>2016-09-29T10:03:29Z</time>
      </trkpt>
      <trkpt lat="45.98352" lon="4.55982">
        <ele>593</ele>
        <time>2016-09-29T10:03:30Z</time>
      </trkpt>
      <trkpt lat="45.98344" lon="4.55983">
        <ele>593</ele>
        <time>2016-09-29T10:03:35Z</time>
      </trkpt>
      <trkpt lat="45.98342" lon="4.55984">
        <ele>593</ele>
        <time>2016-09-29T10:03:36Z</time>
      </trkpt>
      <trkpt lat="45.98334" lon="4.55985">
        <ele>593</ele>
        <time>2016-09-29T10:03:47Z</time>
      </trkpt>
      <trkpt lat="45.98333" lon="4.55985">
        <ele>591</ele>
        <time>2016-09-29T10:03:48Z</time>
      </trkpt>
      <trkpt lat="45.98325" lon="4.5598">
        <ele>590</ele>
        <time>2016-09-29T10:03:58Z</time>
      </trkpt>
      <trkpt lat="45.98324" lon="4.5598">
        <ele>590</ele>
        <time>2016-09-29T10:03:59Z</time>
      </trkpt>
      <trkpt lat="45.98316" lon="4.55976">
        <ele>590</ele>
        <time>2016-09-29T10:04:08Z</time>
      </trkpt>
      <trkpt lat="45.98314" lon="4.55976">
        <ele>590</ele>
        <time>2016-09-29T10:04:09Z</time>
      </trkpt>
      <trkpt lat="45.98306" lon="4.5597">
        <ele>589</ele>
        <time>2016-09-29T10:04:16Z</time>
      </trkpt>
      <trkpt lat="45.98306" lon="4.55969">
        <ele>589</ele>
        <time>2016-09-29T10:04:17Z</time>
      </trkpt>
      <trkpt lat="45.98297" lon="4.55967">
        <ele>589</ele>
        <time>2016-09-29T10:04:30Z</time>
      </trkpt>
      <trkpt lat="45.98297" lon="4.55967">
        <ele>589</ele>
        <time>2016-09-29T10:04:31Z</time>
      </trkpt>
      <trkpt lat="45.98288" lon="4.55965">
        <ele>589</ele>
        <time>2016-09-29T10:04:36Z</time>
      </trkpt>
      <trkpt lat="45.98287" lon="4.55964">
        <ele>589</ele>
        <time>2016-09-29T10:04:37Z</time>
      </trkpt>
      <trkpt lat="45.98278" lon="4.55963">
        <ele>589</ele>
        <time>2016-09-29T10:04:42Z</time>
      </trkpt>
      <trkpt lat="45.98277" lon="4.55963">
        <ele>589</ele>
        <time>2016-09-29T10:04:43Z</time>
      </trkpt>
      <trkpt lat="45.98268" lon="4.5596">
        <ele>589</ele>
        <time>2016-09-29T10:04:52Z</time>
      </trkpt>
      <trkpt lat="45.98267" lon="4.55959">
        <ele>589</ele>
        <time>2016-09-29T10:04:53Z</time>
      </trkpt>
      <trkpt lat="45.98259" lon="4.55957">
        <ele>589</ele>
        <time>2016-09-29T10:04:58Z</time>
      </trkpt>
      <trkpt lat="45.98257" lon="4.55957">
        <ele>589</ele>
        <time>2016-09-29T10:04:59Z</time>
      </trkpt>
      <trkpt lat="45.98249" lon="4.55955">
        <ele>592</ele>
        <time>2016-09-29T10:05:04Z</time>
      </trkpt>
      <trkpt lat="45.98248" lon="4.55954">
        <ele>592</ele>
        <time>2016-09-29T10:05:05Z</time>
      </trkpt>
      <trkpt lat="45.98241" lon="4.55949">
        <ele>591</ele>
        <time>2016-09-29T10:05:14Z</time>
      </trkpt>
      <trkpt lat="45.9824" lon="4.55948">
        <ele>591</ele>
        <time>2016-09-29T10:05:15Z</time>
      </trkpt>
      <trkpt lat="45.98231" lon="4.55946">
        <ele>591</ele>
        <time>2016-09-29T10:05:20Z</time>
      </trkpt>
      <trkpt lat="45.98229" lon="4.55945">
        <ele>591</ele>
        <time>2016-09-29T10:05:21Z</time>
      </trkpt>
      <trkpt lat="45.98221" lon="4.55944">
        <ele>591</ele>
        <time>2016-09-29T10:05:33Z</time>
      </trkpt>
      <trkpt lat="45.98219" lon="4.55944">
        <ele>591</ele>
        <time>2016-09-29T10:05:34Z</time>
      </trkpt>
      <trkpt lat="45.98211" lon="4.55943">
        <ele>591</ele>
        <time>2016-09-29T10:05:40Z</time>
      </trkpt>
      <trkpt lat="45.9821" lon="4.55942">
        <ele>591</ele>
        <time>2016-09-29T10:05:41Z</time>
      </trkpt>
      <trkpt lat="45.98202" lon="4.5594">
        <ele>591</ele>
        <time>2016-09-29T10:05:49Z</time>
      </trkpt>
      <trkpt lat="45.982" lon="4.55939">
        <ele>591</ele>
        <time>2016-09-29T10:05:50Z</time>
      </trkpt>
      <trkpt lat="45.98193" lon="4.55938">
        <ele>591</ele>
        <time>2016-09-29T10:05:54Z</time>
      </trkpt>
      <trkpt lat="45.98191" lon="4.55938">
        <ele>591</ele>
        <time>2016-09-29T10:05:55Z</time>
      </trkpt>
      <trkpt lat="45.98183" lon="4.55936">
        <ele>591</ele>
        <time>2016-09-29T10:06:00Z</time>
      </trkpt>
      <trkpt lat="45.98182" lon="4.55936">
        <ele>591</ele>
        <time>2016-09-29T10:06:01Z</time>
      </trkpt>
      <trkpt lat="45.98173" lon="4.55936">
        <ele>590</ele>
        <time>2016-09-29T10:06:08Z</time>
      </trkpt>
      <trkpt lat="45.98172" lon="4.55936">
        <ele>590</ele>
        <time>2016-09-29T10:06:09Z</time>
      </trkpt>
      <trkpt lat="45.98163" lon="4.55935">
        <ele>589</ele>
        <time>2016-09-29T10:06:16Z</time>
      </trkpt>
      <trkpt lat="45.98162" lon="4.55936">
        <ele>589</ele>
        <time>2016-09-29T10:06:17Z</time>
      </trkpt>
      <trkpt lat="45.98154" lon="4.55939">
        <ele>589</ele>
        <time>2016-09-29T10:06:23Z</time>
      </trkpt>
      <trkpt lat="45.98153" lon="4.55939">
        <ele>589</ele>
        <time>2016-09-29T10:06:24Z</time>
      </trkpt>
      <trkpt lat="45.98145" lon="4.55941">
        <ele>590</ele>
        <time>2016-09-29T10:06:31Z</time>
      </trkpt>
      <trkpt lat="45.98144" lon="4.55941">
        <ele>590</ele>
        <time>2016-09-29T10:06:32Z</time>
      </trkpt>
      <trkpt lat="45.98135" lon="4.55943">
        <ele>590</ele>
        <time>2016-09-29T10:06:40Z</time>
      </trkpt>
      <trkpt lat="45.98134" lon="4.55943">
        <ele>590</ele>
        <time>2016-09-29T10:06:41Z</time>
      </trkpt>
      <trkpt lat="45.98126" lon="4.55947">
        <ele>590</ele>
        <time>2016-09-29T10:06:48Z</time>
      </trkpt>
      <trkpt lat="45.98125" lon="4.55948">
        <ele>590</ele>
        <time>2016-09-29T10:06:49Z</time>
      </trkpt>
      <trkpt lat="45.98117" lon="4.55954">
        <ele>590</ele>
        <time>2016-09-29T10:06:57Z</time>
      </trkpt>
      <trkpt lat="45.98116" lon="4.55954">
        <ele>590</ele>
        <time>2016-09-29T10:06:58Z</time>
      </trkpt>
      <trkpt lat="45.98108" lon="4.55959">
        <ele>590</ele>
        <time>2016-09-29T10:07:08Z</time>
      </trkpt>
      <trkpt lat="45.98107" lon="4.55959">
        <ele>590</ele>
        <time>2016-09-29T10:07:09Z</time>
      </trkpt>
      <trkpt lat="45.981" lon="4.55964">
        <ele>590</ele>
        <time>2016-09-29T10:07:17Z</time>
      </trkpt>
      <trkpt lat="45.98099" lon="4.55965">
        <ele>590</ele>
        <time>2016-09-29T10:07:18Z</time>
      </trkpt>
      <trkpt lat="45.98091" lon="4.55969">
        <ele>590</ele>
        <time>2016-09-29T10:07:25Z</time>
      </trkpt>
      <trkpt lat="45.9809" lon="4.5597">
        <ele>590</ele>
        <time>2016-09-29T10:07:26Z</time>
      </trkpt>
      <trkpt lat="45.98083" lon="4.55977">
        <ele>591</ele>
        <time>2016-09-29T10:07:33Z</time>
      </trkpt>
      <trkpt lat="45.98082" lon="4.55978">
        <ele>582</ele>
        <time>2016-09-29T10:07:34Z</time>
      </trkpt>
      <trkpt lat="45.98075" lon="4.55985">
        <ele>584</ele>
        <time>2016-09-29T10:07:41Z</time>
      </trkpt>
      <trkpt lat="45.98074" lon="4.55986">
        <ele>584</ele>
        <time>2016-09-29T10:07:42Z</time>
      </trkpt>
      <trkpt lat="45.98068" lon="4.55993">
        <ele>583</ele>
        <time>2016-09-29T10:07:48Z</time>
      </trkpt>
      <trkpt lat="45.98067" lon="4.55995">
        <ele>583</ele>
        <time>2016-09-29T10:07:49Z</time>
      </trkpt>
      <trkpt lat="45.98062" lon="4.56005">
        <ele>586</ele>
        <time>2016-09-29T10:07:56Z</time>
      </trkpt>
      <trkpt lat="45.98061" lon="4.56006">
        <ele>586</ele>
        <time>2016-09-29T10:07:57Z</time>
      </trkpt>
      <trkpt lat="45.98054" lon="4.56014">
        <ele>585</ele>
        <time>2016-09-29T10:08:04Z</time>
      </trkpt>
      <trkpt lat="45.98053" lon="4.56015">
        <ele>585</ele>
        <time>2016-09-29T10:08:05Z</time>
      </trkpt>
      <trkpt lat="45.98049" lon="4.56025">
        <ele>584</ele>
        <time>2016-09-29T10:08:12Z</time>
      </trkpt>
      <trkpt lat="45.98049" lon="4.56027">
        <ele>584</ele>
        <time>2016-09-29T10:08:13Z</time>
      </trkpt>
      <trkpt lat="45.98047" lon="4.56038">
        <ele>584</ele>
        <time>2016-09-29T10:08:19Z</time>
      </trkpt>
      <trkpt lat="45.98046" lon="4.5604">
        <ele>584</ele>
        <time>2016-09-29T10:08:20Z</time>
      </trkpt>
      <trkpt lat="45.98042" lon="4.5605">
        <ele>584</ele>
        <time>2016-09-29T10:08:26Z</time>
      </trkpt>
      <trkpt lat="45.98042" lon="4.56051">
        <ele>584</ele>
        <time>2016-09-29T10:08:27Z</time>
      </trkpt>
      <trkpt lat="45.98039" lon="4.56063">
        <ele>584</ele>
        <time>2016-09-29T10:08:34Z</time>
      </trkpt>
      <trkpt lat="45.98038" lon="4.56065">
        <ele>584</ele>
        <time>2016-09-29T10:08:35Z</time>
      </trkpt>
      <trkpt lat="45.98036" lon="4.56077">
        <ele>583</ele>
        <time>2016-09-29T10:08:42Z</time>
      </trkpt>
      <trkpt lat="45.98036" lon="4.56079">
        <ele>583</ele>
        <time>2016-09-29T10:08:43Z</time>
      </trkpt>
      <trkpt lat="45.98036" lon="4.56091">
        <ele>589</ele>
        <time>2016-09-29T10:08:49Z</time>
      </trkpt>
      <trkpt lat="45.98036" lon="4.56093">
        <ele>589</ele>
        <time>2016-09-29T10:08:50Z</time>
      </trkpt>
      <trkpt lat="45.98037" lon="4.56106">
        <ele>590</ele>
        <time>2016-09-29T10:08:56Z</time>
      </trkpt>
      <trkpt lat="45.98037" lon="4.56107">
        <ele>590</ele>
        <time>2016-09-29T10:08:57Z</time>
      </trkpt>
      <trkpt lat="45.98036" lon="4.56118">
        <ele>590</ele>
        <time>2016-09-29T10:09:07Z</time>
      </trkpt>
      <trkpt lat="45.98035" lon="4.5612">
        <ele>590</ele>
        <time>2016-09-29T10:09:08Z</time>
      </trkpt>
      <trkpt lat="45.98029" lon="4.56129">
        <ele>590</ele>
        <time>2016-09-29T10:09:26Z</time>
      </trkpt>
      <trkpt lat="45.98029" lon="4.5613">
        <ele>590</ele>
        <time>2016-09-29T10:09:27Z</time>
      </trkpt>
      <trkpt lat="45.98025" lon="4.56141">
        <ele>589</ele>
        <time>2016-09-29T10:09:42Z</time>
      </trkpt>
      <trkpt lat="45.98024" lon="4.56141">
        <ele>589</ele>
        <time>2016-09-29T10:09:43Z</time>
      </trkpt>
      <trkpt lat="45.98017" lon="4.56148">
        <ele>588</ele>
        <time>2016-09-29T10:10:33Z</time>
      </trkpt>
      <trkpt lat="45.98016" lon="4.56148">
        <ele>588</ele>
        <time>2016-09-29T10:10:34Z</time>
      </trkpt>
      <trkpt lat="45.98008" lon="4.5615">
        <ele>586</ele>
        <time>2016-09-29T10:10:43Z</time>
      </trkpt>
      <trkpt lat="45.98007" lon="4.56151">
        <ele>586</ele>
        <time>2016-09-29T10:10:44Z</time>
      </trkpt>
      <trkpt lat="45.97999" lon="4.56155">
        <ele>576</ele>
        <time>2016-09-29T10:10:51Z</time>
      </trkpt>
      <trkpt lat="45.97998" lon="4.56156">
        <ele>576</ele>
        <time>2016-09-29T10:10:52Z</time>
      </trkpt>
      <trkpt lat="45.9799" lon="4.56161">
        <ele>576</ele>
        <time>2016-09-29T10:11:01Z</time>
      </trkpt>
      <trkpt lat="45.97989" lon="4.56163">
        <ele>576</ele>
        <time>2016-09-29T10:11:02Z</time>
      </trkpt>
      <trkpt lat="45.97982" lon="4.56169">
        <ele>581</ele>
        <time>2016-09-29T10:11:10Z</time>
      </trkpt>
      <trkpt lat="45.97981" lon="4.56169">
        <ele>581</ele>
        <time>2016-09-29T10:11:11Z</time>
      </trkpt>
      <trkpt lat="45.97973" lon="4.56172">
        <ele>581</ele>
        <time>2016-09-29T10:11:19Z</time>
      </trkpt>
      <trkpt lat="45.97972" lon="4.56173">
        <ele>581</ele>
        <time>2016-09-29T10:11:20Z</time>
      </trkpt>
      <trkpt lat="45.97965" lon="4.5618">
        <ele>581</ele>
        <time>2016-09-29T10:11:26Z</time>
      </trkpt>
      <trkpt lat="45.97964" lon="4.5618">
        <ele>581</ele>
        <time>2016-09-29T10:11:27Z</time>
      </trkpt>
      <trkpt lat="45.97956" lon="4.56185">
        <ele>580</ele>
        <time>2016-09-29T10:11:33Z</time>
      </trkpt>
      <trkpt lat="45.97954" lon="4.56187">
        <ele>580</ele>
        <time>2016-09-29T10:11:34Z</time>
      </trkpt>
      <trkpt lat="45.97947" lon="4.56191">
        <ele>580</ele>
        <time>2016-09-29T10:11:41Z</time>
      </trkpt>
      <trkpt lat="45.97945" lon="4.56192">
        <ele>580</ele>
        <time>2016-09-29T10:11:42Z</time>
      </trkpt>
      <trkpt lat="45.97937" lon="4.56196">
        <ele>580</ele>
        <time>2016-09-29T10:11:49Z</time>
      </trkpt>
      <trkpt lat="45.97936" lon="4.56197">
        <ele>580</ele>
        <time>2016-09-29T10:11:50Z</time>
      </trkpt>
      <trkpt lat="45.97928" lon="4.562">
        <ele>580</ele>
        <time>2016-09-29T10:11:57Z</time>
      </trkpt>
      <trkpt lat="45.97926" lon="4.562">
        <ele>580</ele>
        <time>2016-09-29T10:11:58Z</time>
      </trkpt>
      <trkpt lat="45.97919" lon="4.56204">
        <ele>580</ele>
        <time>2016-09-29T10:12:05Z</time>
      </trkpt>
      <trkpt lat="45.97918" lon="4.56205">
        <ele>580</ele>
        <time>2016-09-29T10:12:06Z</time>
      </trkpt>
      <trkpt lat="45.9791" lon="4.56207">
        <ele>572</ele>
        <time>2016-09-29T10:12:12Z</time>
      </trkpt>
      <trkpt lat="45.97908" lon="4.56207">
        <ele>572</ele>
        <time>2016-09-29T10:12:13Z</time>
      </trkpt>
      <trkpt lat="45.97901" lon="4.56213">
        <ele>572</ele>
        <time>2016-09-29T10:12:20Z</time>
      </trkpt>
      <trkpt lat="45.979" lon="4.56215">
        <ele>573</ele>
        <time>2016-09-29T10:12:21Z</time>
      </trkpt>
      <trkpt lat="45.97894" lon="4.56223">
        <ele>573</ele>
        <time>2016-09-29T10:12:28Z</time>
      </trkpt>
      <trkpt lat="45.97893" lon="4.56224">
        <ele>573</ele>
        <time>2016-09-29T10:12:29Z</time>
      </trkpt>
      <trkpt lat="45.97886" lon="4.56232">
        <ele>574</ele>
        <time>2016-09-29T10:12:36Z</time>
      </trkpt>
      <trkpt lat="45.97886" lon="4.56233">
        <ele>574</ele>
        <time>2016-09-29T10:12:37Z</time>
      </trkpt>
      <trkpt lat="45.97878" lon="4.5624">
        <ele>573</ele>
        <time>2016-09-29T10:12:47Z</time>
      </trkpt>
      <trkpt lat="45.97877" lon="4.56241">
        <ele>573</ele>
        <time>2016-09-29T10:12:48Z</time>
      </trkpt>
      <trkpt lat="45.97872" lon="4.56249">
        <ele>573</ele>
        <time>2016-09-29T10:12:55Z</time>
      </trkpt>
      <trkpt lat="45.97872" lon="4.56251">
        <ele>585</ele>
        <time>2016-09-29T10:12:56Z</time>
      </trkpt>
      <trkpt lat="45.97866" lon="4.5626">
        <ele>584</ele>
        <time>2016-09-29T10:13:03Z</time>
      </trkpt>
      <trkpt lat="45.97866" lon="4.56261">
        <ele>584</ele>
        <time>2016-09-29T10:13:04Z</time>
      </trkpt>
      <trkpt lat="45.97858" lon="4.56268">
        <ele>584</ele>
        <time>2016-09-29T10:13:11Z</time>
      </trkpt>
      <trkpt lat="45.97857" lon="4.56269">
        <ele>584</ele>
        <time>2016-09-29T10:13:12Z</time>
      </trkpt>
      <trkpt lat="45.97853" lon="4.56279">
        <ele>585</ele>
        <time>2016-09-29T10:13:19Z</time>
      </trkpt>
      <trkpt lat="45.97852" lon="4.5628">
        <ele>585</ele>
        <time>2016-09-29T10:13:20Z</time>
      </trkpt>
      <trkpt lat="45.97846" lon="4.5629">
        <ele>586</ele>
        <time>2016-09-29T10:13:27Z</time>
      </trkpt>
      <trkpt lat="45.97845" lon="4.56291">
        <ele>587</ele>
        <time>2016-09-29T10:13:28Z</time>
      </trkpt>
      <trkpt lat="45.97839" lon="4.56299">
        <ele>588</ele>
        <time>2016-09-29T10:13:35Z</time>
      </trkpt>
      <trkpt lat="45.97838" lon="4.56299">
        <ele>588</ele>
        <time>2016-09-29T10:13:36Z</time>
      </trkpt>
      <trkpt lat="45.97832" lon="4.56307">
        <ele>582</ele>
        <time>2016-09-29T10:13:43Z</time>
      </trkpt>
      <trkpt lat="45.97832" lon="4.56309">
        <ele>582</ele>
        <time>2016-09-29T10:13:44Z</time>
      </trkpt>
      <trkpt lat="45.97823" lon="4.56311">
        <ele>582</ele>
        <time>2016-09-29T10:13:53Z</time>
      </trkpt>
      <trkpt lat="45.97823" lon="4.56311">
        <ele>582</ele>
        <time>2016-09-29T10:13:54Z</time>
      </trkpt>
      <trkpt lat="45.97815" lon="4.56313">
        <ele>582</ele>
        <time>2016-09-29T10:14:02Z</time>
      </trkpt>
      <trkpt lat="45.97814" lon="4.56313">
        <ele>582</ele>
        <time>2016-09-29T10:14:03Z</time>
      </trkpt>
      <trkpt lat="45.97805" lon="4.56315">
        <ele>581</ele>
        <time>2016-09-29T10:14:09Z</time>
      </trkpt>
      <trkpt lat="45.97804" lon="4.56316">
        <ele>581</ele>
        <time>2016-09-29T10:14:10Z</time>
      </trkpt>
      <trkpt lat="45.97796" lon="4.56319">
        <ele>581</ele>
        <time>2016-09-29T10:14:15Z</time>
      </trkpt>
      <trkpt lat="45.97795" lon="4.56319">
        <ele>581</ele>
        <time>2016-09-29T10:14:16Z</time>
      </trkpt>
      <trkpt lat="45.97786" lon="4.56321">
        <ele>580</ele>
        <time>2016-09-29T10:14:23Z</time>
      </trkpt>
      <trkpt lat="45.97785" lon="4.56322">
        <ele>580</ele>
        <time>2016-09-29T10:14:24Z</time>
      </trkpt>
      <trkpt lat="45.97777" lon="4.56325">
        <ele>580</ele>
        <time>2016-09-29T10:14:30Z</time>
      </trkpt>
      <trkpt lat="45.97776" lon="4.56325">
        <ele>580</ele>
        <time>2016-09-29T10:14:31Z</time>
      </trkpt>
      <trkpt lat="45.97768" lon="4.56326">
        <ele>580</ele>
        <time>2016-09-29T10:14:36Z</time>
      </trkpt>
      <trkpt lat="45.97767" lon="4.56326">
        <ele>580</ele>
        <time>2016-09-29T10:14:37Z</time>
      </trkpt>
      <trkpt lat="45.97758" lon="4.56326">
        <ele>581</ele>
        <time>2016-09-29T10:15:33Z</time>
      </trkpt>
      <trkpt lat="45.97757" lon="4.56326">
        <ele>581</ele>
        <time>2016-09-29T10:15:34Z</time>
      </trkpt>
      <trkpt lat="45.97749" lon="4.56322">
        <ele>580</ele>
        <time>2016-09-29T10:15:41Z</time>
      </trkpt>
      <trkpt lat="45.97748" lon="4.56321">
        <ele>580</ele>
        <time>2016-09-29T10:15:42Z</time>
      </trkpt>
      <trkpt lat="45.9774" lon="4.56315">
        <ele>579</ele>
        <time>2016-09-29T10:15:49Z</time>
      </trkpt>
      <trkpt lat="45.97739" lon="4.56314">
        <ele>579</ele>
        <time>2016-09-29T10:15:50Z</time>
      </trkpt>
      <trkpt lat="45.97731" lon="4.56312">
        <ele>578</ele>
        <time>2016-09-29T10:15:57Z</time>
      </trkpt>
      <trkpt lat="45.97729" lon="4.56311">
        <ele>578</ele>
        <time>2016-09-29T10:15:58Z</time>
      </trkpt>
      <trkpt lat="45.97721" lon="4.5631">
        <ele>578</ele>
        <time>2016-09-29T10:16:05Z</time>
      </trkpt>
      <trkpt lat="45.9772" lon="4.56309">
        <ele>578</ele>
        <time>2016-09-29T10:16:06Z</time>
      </trkpt>
      <trkpt lat="45.97712" lon="4.56303">
        <ele>578</ele>
        <time>2016-09-29T10:16:14Z</time>
      </trkpt>
      <trkpt lat="45.97711" lon="4.56302">
        <ele>578</ele>
        <time>2016-09-29T10:16:15Z</time>
      </trkpt>
      <trkpt lat="45.97704" lon="4.56299">
        <ele>578</ele>
        <time>2016-09-29T10:16:23Z</time>
      </trkpt>
      <trkpt lat="45.97703" lon="4.56298">
        <ele>578</ele>
        <time>2016-09-29T10:16:24Z</time>
      </trkpt>
      <trkpt lat="45.97696" lon="4.56292">
        <ele>577</ele>
        <time>2016-09-29T10:16:31Z</time>
      </trkpt>
      <trkpt lat="45.97695" lon="4.56291">
        <ele>577</ele>
        <time>2016-09-29T10:16:32Z</time>
      </trkpt>
      <trkpt lat="45.97688" lon="4.56284">
        <ele>576</ele>
        <time>2016-09-29T10:16:38Z</time>
      </trkpt>
      <trkpt lat="45.97687" lon="4.56283">
        <ele>576</ele>
        <time>2016-09-29T10:16:39Z</time>
      </trkpt>
      <trkpt lat="45.97679" lon="4.56277">
        <ele>575</ele>
        <time>2016-09-29T10:16:47Z</time>
      </trkpt>
      <trkpt lat="45.97678" lon="4.56276">
        <ele>575</ele>
        <time>2016-09-29T10:16:48Z</time>
      </trkpt>
      <trkpt lat="45.9767" lon="4.56271">
        <ele>574</ele>
        <time>2016-09-29T10:16:55Z</time>
      </trkpt>
      <trkpt lat="45.97669" lon="4.56271">
        <ele>574</ele>
        <time>2016-09-29T10:16:56Z</time>
      </trkpt>
      <trkpt lat="45.97661" lon="4.56266">
        <ele>575</ele>
        <time>2016-09-29T10:17:02Z</time>
      </trkpt>
      <trkpt lat="45.97659" lon="4.56265">
        <ele>575</ele>
        <time>2016-09-29T10:17:03Z</time>
      </trkpt>
      <trkpt lat="45.97651" lon="4.5626">
        <ele>575</ele>
        <time>2016-09-29T10:17:09Z</time>
      </trkpt>
      <trkpt lat="45.9765" lon="4.5626">
        <ele>575</ele>
        <time>2016-09-29T10:17:10Z</time>
      </trkpt>
      <trkpt lat="45.97642" lon="4.5626">
        <ele>576</ele>
        <time>2016-09-29T10:17:16Z</time>
      </trkpt>
      <trkpt lat="45.9764" lon="4.5626">
        <ele>576</ele>
        <time>2016-09-29T10:17:17Z</time>
      </trkpt>
      <trkpt lat="45.97632" lon="4.56263">
        <ele>577</ele>
        <time>2016-09-29T10:17:24Z</time>
      </trkpt>
      <trkpt lat="45.97631" lon="4.56264">
        <ele>577</ele>
        <time>2016-09-29T10:17:25Z</time>
      </trkpt>
      <trkpt lat="45.97623" lon="4.5627">
        <ele>578</ele>
        <time>2016-09-29T10:17:31Z</time>
      </trkpt>
      <trkpt lat="45.97621" lon="4.5627">
        <ele>578</ele>
        <time>2016-09-29T10:17:32Z</time>
      </trkpt>
      <trkpt lat="45.97614" lon="4.56269">
        <ele>578</ele>
        <time>2016-09-29T10:17:38Z</time>
      </trkpt>
      <trkpt lat="45.97612" lon="4.56269">
        <ele>578</ele>
        <time>2016-09-29T10:17:39Z</time>
      </trkpt>
      <trkpt lat="45.97604" lon="4.56268">
        <ele>577</ele>
        <time>2016-09-29T10:17:46Z</time>
      </trkpt>
      <trkpt lat="45.97603" lon="4.56268">
        <ele>577</ele>
        <time>2016-09-29T10:17:47Z</time>
      </trkpt>
      <trkpt lat="45.97595" lon="4.56269">
        <ele>577</ele>
        <time>2016-09-29T10:17:53Z</time>
      </trkpt>
      <trkpt lat="45.97593" lon="4.5627">
        <ele>577</ele>
        <time>2016-09-29T10:17:54Z</time>
      </trkpt>
      <trkpt lat="45.97586" lon="4.56274">
        <ele>577</ele>
        <time>2016-09-29T10:18:00Z</time>
      </trkpt>
      <trkpt lat="45.97585" lon="4.56274">
        <ele>577</ele>
        <time>2016-09-29T10:18:01Z</time>
      </trkpt>
      <trkpt lat="45.97578" lon="4.56279">
        <ele>576</ele>
        <time>2016-09-29T10:18:07Z</time>
      </trkpt>
      <trkpt lat="45.97577" lon="4.5628">
        <ele>576</ele>
        <time>2016-09-29T10:18:08Z</time>
      </trkpt>
      <trkpt lat="45.97569" lon="4.56283">
        <ele>576</ele>
        <time>2016-09-29T10:18:15Z</time>
      </trkpt>
      <trkpt lat="45.97568" lon="4.56284">
        <ele>576</ele>
        <time>2016-09-29T10:18:16Z</time>
      </trkpt>
      <trkpt lat="45.9756" lon="4.5629">
        <ele>576</ele>
        <time>2016-09-29T10:18:23Z</time>
      </trkpt>
      <trkpt lat="45.97559" lon="4.5629">
        <ele>576</ele>
        <time>2016-09-29T10:18:24Z</time>
      </trkpt>
      <trkpt lat="45.97551" lon="4.56294">
        <ele>577</ele>
        <time>2016-09-29T10:18:30Z</time>
      </trkpt>
      <trkpt lat="45.9755" lon="4.56295">
        <ele>577</ele>
        <time>2016-09-29T10:18:31Z</time>
      </trkpt>
      <trkpt lat="45.97542" lon="4.56296">
        <ele>576</ele>
        <time>2016-09-29T10:18:36Z</time>
      </trkpt>
      <trkpt lat="45.97541" lon="4.56296">
        <ele>576</ele>
        <time>2016-09-29T10:18:37Z</time>
      </trkpt>
      <trkpt lat="45.97533" lon="4.56297">
        <ele>576</ele>
        <time>2016-09-29T10:18:43Z</time>
      </trkpt>
      <trkpt lat="45.97531" lon="4.56297">
        <ele>576</ele>
        <time>2016-09-29T10:18:44Z</time>
      </trkpt>
      <trkpt lat="45.97523" lon="4.56299">
        <ele>576</ele>
        <time>2016-09-29T10:18:50Z</time>
      </trkpt>
      <trkpt lat="45.97522" lon="4.56299">
        <ele>576</ele>
        <time>2016-09-29T10:18:51Z</time>
      </trkpt>
      <trkpt lat="45.97514" lon="4.56302">
        <ele>576</ele>
        <time>2016-09-29T10:18:56Z</time>
      </trkpt>
      <trkpt lat="45.97513" lon="4.56303">
        <ele>576</ele>
        <time>2016-09-29T10:18:57Z</time>
      </trkpt>
      <trkpt lat="45.97505" lon="4.56306">
        <ele>576</ele>
        <time>2016-09-29T10:19:03Z</time>
      </trkpt>
      <trkpt lat="45.97504" lon="4.56307">
        <ele>577</ele>
        <time>2016-09-29T10:19:04Z</time>
      </trkpt>
      <trkpt lat="45.97496" lon="4.56312">
        <ele>574</ele>
        <time>2016-09-29T10:19:10Z</time>
      </trkpt>
      <trkpt lat="45.97494" lon="4.56313">
        <ele>574</ele>
        <time>2016-09-29T10:19:11Z</time>
      </trkpt>
      <trkpt lat="45.97486" lon="4.56319">
        <ele>574</ele>
        <time>2016-09-29T10:19:18Z</time>
      </trkpt>
      <trkpt lat="45.97485" lon="4.56319">
        <ele>574</ele>
        <time>2016-09-29T10:19:19Z</time>
      </trkpt>
      <trkpt lat="45.97478" lon="4.56323">
        <ele>574</ele>
        <time>2016-09-29T10:19:25Z</time>
      </trkpt>
      <trkpt lat="45.97477" lon="4.56324">
        <ele>573</ele>
        <time>2016-09-29T10:19:26Z</time>
      </trkpt>
      <trkpt lat="45.97468" lon="4.56327">
        <ele>573</ele>
        <time>2016-09-29T10:19:32Z</time>
      </trkpt>
      <trkpt lat="45.97467" lon="4.56328">
        <ele>573</ele>
        <time>2016-09-29T10:19:33Z</time>
      </trkpt>
      <trkpt lat="45.97458" lon="4.56331">
        <ele>572</ele>
        <time>2016-09-29T10:19:47Z</time>
      </trkpt>
      <trkpt lat="45.97457" lon="4.56332">
        <ele>572</ele>
        <time>2016-09-29T10:19:48Z</time>
      </trkpt>
      <trkpt lat="45.9745" lon="4.56339">
        <ele>579</ele>
        <time>2016-09-29T10:19:59Z</time>
      </trkpt>
      <trkpt lat="45.97449" lon="4.5634">
        <ele>579</ele>
        <time>2016-09-29T10:20:00Z</time>
      </trkpt>
      <trkpt lat="45.97441" lon="4.56337">
        <ele>578</ele>
        <time>2016-09-29T10:20:09Z</time>
      </trkpt>
      <trkpt lat="45.9744" lon="4.56337">
        <ele>578</ele>
        <time>2016-09-29T10:20:10Z</time>
      </trkpt>
      <trkpt lat="45.97432" lon="4.56335">
        <ele>577</ele>
        <time>2016-09-29T10:20:18Z</time>
      </trkpt>
      <trkpt lat="45.97431" lon="4.56336">
        <ele>577</ele>
        <time>2016-09-29T10:20:19Z</time>
      </trkpt>
      <trkpt lat="45.97422" lon="4.56338">
        <ele>575</ele>
        <time>2016-09-29T10:20:27Z</time>
      </trkpt>
      <trkpt lat="45.97421" lon="4.56338">
        <ele>575</ele>
        <time>2016-09-29T10:20:28Z</time>
      </trkpt>
      <trkpt lat="45.97413" lon="4.56338">
        <ele>574</ele>
        <time>2016-09-29T10:20:36Z</time>
      </trkpt>
      <trkpt lat="45.97412" lon="4.56338">
        <ele>574</ele>
        <time>2016-09-29T10:20:37Z</time>
      </trkpt>
      <trkpt lat="45.97403" lon="4.5634">
        <ele>573</ele>
        <time>2016-09-29T10:20:44Z</time>
      </trkpt>
      <trkpt lat="45.97401" lon="4.5634">
        <ele>573</ele>
        <time>2016-09-29T10:20:45Z</time>
      </trkpt>
      <trkpt lat="45.97393" lon="4.56341">
        <ele>573</ele>
        <time>2016-09-29T10:20:52Z</time>
      </trkpt>
      <trkpt lat="45.97392" lon="4.56341">
        <ele>573</ele>
        <time>2016-09-29T10:20:53Z</time>
      </trkpt>
      <trkpt lat="45.97383" lon="4.56342">
        <ele>573</ele>
        <time>2016-09-29T10:20:59Z</time>
      </trkpt>
      <trkpt lat="45.97382" lon="4.56342">
        <ele>573</ele>
        <time>2016-09-29T10:21:00Z</time>
      </trkpt>
      <trkpt lat="45.97374" lon="4.56344">
        <ele>572</ele>
        <time>2016-09-29T10:21:08Z</time>
      </trkpt>
      <trkpt lat="45.97373" lon="4.56344">
        <ele>572</ele>
        <time>2016-09-29T10:21:09Z</time>
      </trkpt>
      <trkpt lat="45.97365" lon="4.56345">
        <ele>572</ele>
        <time>2016-09-29T10:21:16Z</time>
      </trkpt>
      <trkpt lat="45.97364" lon="4.56346">
        <ele>571</ele>
        <time>2016-09-29T10:21:17Z</time>
      </trkpt>
      <trkpt lat="45.97356" lon="4.56353">
        <ele>571</ele>
        <time>2016-09-29T10:21:25Z</time>
      </trkpt>
      <trkpt lat="45.97356" lon="4.56354">
        <ele>571</ele>
        <time>2016-09-29T10:21:26Z</time>
      </trkpt>
      <trkpt lat="45.97348" lon="4.56356">
        <ele>571</ele>
        <time>2016-09-29T10:21:33Z</time>
      </trkpt>
      <trkpt lat="45.97347" lon="4.56356">
        <ele>571</ele>
        <time>2016-09-29T10:21:34Z</time>
      </trkpt>
      <trkpt lat="45.97338" lon="4.5636">
        <ele>571</ele>
        <time>2016-09-29T10:21:42Z</time>
      </trkpt>
      <trkpt lat="45.97337" lon="4.56361">
        <ele>571</ele>
        <time>2016-09-29T10:21:43Z</time>
      </trkpt>
      <trkpt lat="45.9733" lon="4.56365">
        <ele>566</ele>
        <time>2016-09-29T10:21:51Z</time>
      </trkpt>
      <trkpt lat="45.97328" lon="4.56365">
        <ele>566</ele>
        <time>2016-09-29T10:21:52Z</time>
      </trkpt>
      <trkpt lat="45.9732" lon="4.5637">
        <ele>565</ele>
        <time>2016-09-29T10:22:00Z</time>
      </trkpt>
      <trkpt lat="45.97319" lon="4.5637">
        <ele>565</ele>
        <time>2016-09-29T10:22:01Z</time>
      </trkpt>
      <trkpt lat="45.97311" lon="4.56374">
        <ele>565</ele>
        <time>2016-09-29T10:22:08Z</time>
      </trkpt>
      <trkpt lat="45.9731" lon="4.56375">
        <ele>565</ele>
        <time>2016-09-29T10:22:09Z</time>
      </trkpt>
      <trkpt lat="45.97301" lon="4.56379">
        <ele>565</ele>
        <time>2016-09-29T10:22:16Z</time>
      </trkpt>
      <trkpt lat="45.973" lon="4.5638">
        <ele>565</ele>
        <time>2016-09-29T10:22:17Z</time>
      </trkpt>
      <trkpt lat="45.97292" lon="4.56386">
        <ele>564</ele>
        <time>2016-09-29T10:22:24Z</time>
      </trkpt>
      <trkpt lat="45.97291" lon="4.56386">
        <ele>564</ele>
        <time>2016-09-29T10:22:25Z</time>
      </trkpt>
      <trkpt lat="45.97283" lon="4.5639">
        <ele>564</ele>
        <time>2016-09-29T10:22:32Z</time>
      </trkpt>
      <trkpt lat="45.97281" lon="4.5639">
        <ele>564</ele>
        <time>2016-09-29T10:22:33Z</time>
      </trkpt>
      <trkpt lat="45.97273" lon="4.56394">
        <ele>564</ele>
        <time>2016-09-29T10:22:40Z</time>
      </trkpt>
      <trkpt lat="45.97272" lon="4.56395">
        <ele>564</ele>
        <time>2016-09-29T10:22:41Z</time>
      </trkpt>
      <trkpt lat="45.97264" lon="4.56402">
        <ele>563</ele>
        <time>2016-09-29T10:22:48Z</time>
      </trkpt>
      <trkpt lat="45.97263" lon="4.56403">
        <ele>563</ele>
        <time>2016-09-29T10:22:49Z</time>
      </trkpt>
      <trkpt lat="45.97255" lon="4.56407">
        <ele>563</ele>
        <time>2016-09-29T10:22:56Z</time>
      </trkpt>
      <trkpt lat="45.97253" lon="4.56407">
        <ele>563</ele>
        <time>2016-09-29T10:22:57Z</time>
      </trkpt>
      <trkpt lat="45.97245" lon="4.5641">
        <ele>561</ele>
        <time>2016-09-29T10:23:50Z</time>
      </trkpt>
      <trkpt lat="45.97243" lon="4.56411">
        <ele>560</ele>
        <time>2016-09-29T10:23:51Z</time>
      </trkpt>
      <trkpt lat="45.97235" lon="4.56413">
        <ele>559</ele>
        <time>2016-09-29T10:23:58Z</time>
      </trkpt>
      <trkpt lat="45.97234" lon="4.56413">
        <ele>559</ele>
        <time>2016-09-29T10:23:59Z</time>
      </trkpt>
      <trkpt lat="45.97226" lon="4.56419">
        <ele>561</ele>
        <time>2016-09-29T10:24:06Z</time>
      </trkpt>
      <trkpt lat="45.97224" lon="4.56419">
        <ele>561</ele>
        <time>2016-09-29T10:24:07Z</time>
      </trkpt>
      <trkpt lat="45.97217" lon="4.56423">
        <ele>561</ele>
        <time>2016-09-29T10:24:14Z</time>
      </trkpt>
      <trkpt lat="45.97215" lon="4.56423">
        <ele>561</ele>
        <time>2016-09-29T10:24:15Z</time>
      </trkpt>
      <trkpt lat="45.97207" lon="4.56425">
        <ele>560</ele>
        <time>2016-09-29T10:24:23Z</time>
      </trkpt>
      <trkpt lat="45.97205" lon="4.56425">
        <ele>560</ele>
        <time>2016-09-29T10:24:24Z</time>
      </trkpt>
      <trkpt lat="45.97197" lon="4.56428">
        <ele>560</ele>
        <time>2016-09-29T10:24:30Z</time>
      </trkpt>
      <trkpt lat="45.97196" lon="4.56428">
        <ele>560</ele>
        <time>2016-09-29T10:24:31Z</time>
      </trkpt>
      <trkpt lat="45.97188" lon="4.5643">
        <ele>559</ele>
        <time>2016-09-29T10:24:37Z</time>
      </trkpt>
      <trkpt lat="45.97187" lon="4.56431">
        <ele>559</ele>
        <time>2016-09-29T10:24:38Z</time>
      </trkpt>
      <trkpt lat="45.9718" lon="4.56437">
        <ele>559</ele>
        <time>2016-09-29T10:24:45Z</time>
      </trkpt>
      <trkpt lat="45.97179" lon="4.56437">
        <ele>559</ele>
        <time>2016-09-29T10:24:46Z</time>
      </trkpt>
      <trkpt lat="45.97171" lon="4.56442">
        <ele>559</ele>
        <time>2016-09-29T10:24:53Z</time>
      </trkpt>
      <trkpt lat="45.9717" lon="4.56442">
        <ele>559</ele>
        <time>2016-09-29T10:24:54Z</time>
      </trkpt>
      <trkpt lat="45.97161" lon="4.56444">
        <ele>556</ele>
        <time>2016-09-29T10:25:01Z</time>
      </trkpt>
      <trkpt lat="45.9716" lon="4.56444">
        <ele>556</ele>
        <time>2016-09-29T10:25:02Z</time>
      </trkpt>
      <trkpt lat="45.97151" lon="4.56445">
        <ele>556</ele>
        <time>2016-09-29T10:25:09Z</time>
      </trkpt>
      <trkpt lat="45.9715" lon="4.56445">
        <ele>556</ele>
        <time>2016-09-29T10:25:10Z</time>
      </trkpt>
      <trkpt lat="45.97142" lon="4.5645">
        <ele>556</ele>
        <time>2016-09-29T10:25:18Z</time>
      </trkpt>
      <trkpt lat="45.97141" lon="4.5645">
        <ele>556</ele>
        <time>2016-09-29T10:25:19Z</time>
      </trkpt>
      <trkpt lat="45.97133" lon="4.56454">
        <ele>556</ele>
        <time>2016-09-29T10:25:25Z</time>
      </trkpt>
      <trkpt lat="45.97132" lon="4.56455">
        <ele>556</ele>
        <time>2016-09-29T10:25:26Z</time>
      </trkpt>
      <trkpt lat="45.97123" lon="4.56457">
        <ele>556</ele>
        <time>2016-09-29T10:25:33Z</time>
      </trkpt>
      <trkpt lat="45.97122" lon="4.56457">
        <ele>556</ele>
        <time>2016-09-29T10:25:34Z</time>
      </trkpt>
      <trkpt lat="45.97113" lon="4.56458">
        <ele>556</ele>
        <time>2016-09-29T10:25:41Z</time>
      </trkpt>
      <trkpt lat="45.97112" lon="4.56458">
        <ele>556</ele>
        <time>2016-09-29T10:25:42Z</time>
      </trkpt>
      <trkpt lat="45.97104" lon="4.56459">
        <ele>556</ele>
        <time>2016-09-29T10:25:49Z</time>
      </trkpt>
      <trkpt lat="45.97103" lon="4.5646">
        <ele>556</ele>
        <time>2016-09-29T10:25:50Z</time>
      </trkpt>
      <trkpt lat="45.97094" lon="4.56464">
        <ele>556</ele>
        <time>2016-09-29T10:25:57Z</time>
      </trkpt>
      <trkpt lat="45.97093" lon="4.56465">
        <ele>556</ele>
        <time>2016-09-29T10:25:58Z</time>
      </trkpt>
      <trkpt lat="45.97085" lon="4.56467">
        <ele>556</ele>
        <time>2016-09-29T10:26:05Z</time>
      </trkpt>
      <trkpt lat="45.97084" lon="4.56467">
        <ele>556</ele>
        <time>2016-09-29T10:26:06Z</time>
      </trkpt>
      <trkpt lat="45.97075" lon="4.56468">
        <ele>554</ele>
        <time>2016-09-29T10:26:14Z</time>
      </trkpt>
      <trkpt lat="45.97074" lon="4.56468">
        <ele>554</ele>
        <time>2016-09-29T10:26:15Z</time>
      </trkpt>
      <trkpt lat="45.97065" lon="4.56466">
        <ele>554</ele>
        <time>2016-09-29T10:26:22Z</time>
      </trkpt>
      <trkpt lat="45.97064" lon="4.56466">
        <ele>554</ele>
        <time>2016-09-29T10:26:23Z</time>
      </trkpt>
      <trkpt lat="45.97055" lon="4.56465">
        <ele>554</ele>
        <time>2016-09-29T10:26:29Z</time>
      </trkpt>
      <trkpt lat="45.97054" lon="4.56465">
        <ele>554</ele>
        <time>2016-09-29T10:26:30Z</time>
      </trkpt>
      <trkpt lat="45.97046" lon="4.56464">
        <ele>554</ele>
        <time>2016-09-29T10:26:35Z</time>
      </trkpt>
      <trkpt lat="45.97045" lon="4.56464">
        <ele>553</ele>
        <time>2016-09-29T10:26:36Z</time>
      </trkpt>
      <trkpt lat="45.97036" lon="4.56463">
        <ele>553</ele>
        <time>2016-09-29T10:26:43Z</time>
      </trkpt>
      <trkpt lat="45.97035" lon="4.56463">
        <ele>553</ele>
        <time>2016-09-29T10:26:44Z</time>
      </trkpt>
      <trkpt lat="45.97026" lon="4.56462">
        <ele>553</ele>
        <time>2016-09-29T10:26:51Z</time>
      </trkpt>
      <trkpt lat="45.97025" lon="4.56462">
        <ele>553</ele>
        <time>2016-09-29T10:26:52Z</time>
      </trkpt>
      <trkpt lat="45.97016" lon="4.56462">
        <ele>553</ele>
        <time>2016-09-29T10:26:59Z</time>
      </trkpt>
      <trkpt lat="45.97015" lon="4.56461">
        <ele>553</ele>
        <time>2016-09-29T10:27:00Z</time>
      </trkpt>
      <trkpt lat="45.97007" lon="4.56455">
        <ele>553</ele>
        <time>2016-09-29T10:27:08Z</time>
      </trkpt>
      <trkpt lat="45.97006" lon="4.56455">
        <ele>553</ele>
        <time>2016-09-29T10:27:09Z</time>
      </trkpt>
      <trkpt lat="45.96997" lon="4.56455">
        <ele>553</ele>
        <time>2016-09-29T10:27:17Z</time>
      </trkpt>
      <trkpt lat="45.96997" lon="4.56454">
        <ele>553</ele>
        <time>2016-09-29T10:27:18Z</time>
      </trkpt>
      <trkpt lat="45.9699" lon="4.56446">
        <ele>552</ele>
        <time>2016-09-29T10:27:26Z</time>
      </trkpt>
      <trkpt lat="45.9699" lon="4.56445">
        <ele>552</ele>
        <time>2016-09-29T10:27:27Z</time>
      </trkpt>
      <trkpt lat="45.96982" lon="4.56441">
        <ele>552</ele>
        <time>2016-09-29T10:27:35Z</time>
      </trkpt>
      <trkpt lat="45.96981" lon="4.5644">
        <ele>552</ele>
        <time>2016-09-29T10:27:36Z</time>
      </trkpt>
      <trkpt lat="45.96974" lon="4.56433">
        <ele>552</ele>
        <time>2016-09-29T10:27:43Z</time>
      </trkpt>
      <trkpt lat="45.96973" lon="4.56432">
        <ele>552</ele>
        <time>2016-09-29T10:27:44Z</time>
      </trkpt>
      <trkpt lat="45.96965" lon="4.56424">
        <ele>552</ele>
        <time>2016-09-29T10:27:51Z</time>
      </trkpt>
      <trkpt lat="45.96965" lon="4.56423">
        <ele>552</ele>
        <time>2016-09-29T10:27:52Z</time>
      </trkpt>
      <trkpt lat="45.96958" lon="4.56416">
        <ele>549</ele>
        <time>2016-09-29T10:27:59Z</time>
      </trkpt>
      <trkpt lat="45.96957" lon="4.56415">
        <ele>549</ele>
        <time>2016-09-29T10:28:00Z</time>
      </trkpt>
      <trkpt lat="45.96949" lon="4.56409">
        <ele>549</ele>
        <time>2016-09-29T10:28:32Z</time>
      </trkpt>
      <trkpt lat="45.96948" lon="4.56408">
        <ele>549</ele>
        <time>2016-09-29T10:28:33Z</time>
      </trkpt>
      <trkpt lat="45.96942" lon="4.564">
        <ele>549</ele>
        <time>2016-09-29T10:28:39Z</time>
      </trkpt>
      <trkpt lat="45.96941" lon="4.56398">
        <ele>549</ele>
        <time>2016-09-29T10:28:40Z</time>
      </trkpt>
      <trkpt lat="45.96935" lon="4.56391">
        <ele>549</ele>
        <time>2016-09-29T10:28:46Z</time>
      </trkpt>
      <trkpt lat="45.96933" lon="4.5639">
        <ele>549</ele>
        <time>2016-09-29T10:28:47Z</time>
      </trkpt>
      <trkpt lat="45.96926" lon="4.56383">
        <ele>549</ele>
        <time>2016-09-29T10:28:54Z</time>
      </trkpt>
      <trkpt lat="45.96924" lon="4.56383">
        <ele>549</ele>
        <time>2016-09-29T10:28:55Z</time>
      </trkpt>
      <trkpt lat="45.96916" lon="4.56378">
        <ele>552</ele>
        <time>2016-09-29T10:29:01Z</time>
      </trkpt>
      <trkpt lat="45.96915" lon="4.56378">
        <ele>552</ele>
        <time>2016-09-29T10:29:02Z</time>
      </trkpt>
      <trkpt lat="45.96907" lon="4.56372">
        <ele>552</ele>
        <time>2016-09-29T10:29:09Z</time>
      </trkpt>
      <trkpt lat="45.96906" lon="4.56372">
        <ele>552</ele>
        <time>2016-09-29T10:29:10Z</time>
      </trkpt>
      <trkpt lat="45.96898" lon="4.56368">
        <ele>552</ele>
        <time>2016-09-29T10:29:16Z</time>
      </trkpt>
      <trkpt lat="45.96897" lon="4.56368">
        <ele>552</ele>
        <time>2016-09-29T10:29:17Z</time>
      </trkpt>
      <trkpt lat="45.96888" lon="4.56366">
        <ele>552</ele>
        <time>2016-09-29T10:29:23Z</time>
      </trkpt>
      <trkpt lat="45.96887" lon="4.56365">
        <ele>552</ele>
        <time>2016-09-29T10:29:24Z</time>
      </trkpt>
      <trkpt lat="45.96879" lon="4.56363">
        <ele>552</ele>
        <time>2016-09-29T10:29:30Z</time>
      </trkpt>
      <trkpt lat="45.96878" lon="4.56362">
        <ele>552</ele>
        <time>2016-09-29T10:29:31Z</time>
      </trkpt>
      <trkpt lat="45.9687" lon="4.56358">
        <ele>552</ele>
        <time>2016-09-29T10:29:37Z</time>
      </trkpt>
      <trkpt lat="45.96868" lon="4.56358">
        <ele>552</ele>
        <time>2016-09-29T10:29:38Z</time>
      </trkpt>
      <trkpt lat="45.9686" lon="4.56355">
        <ele>552</ele>
        <time>2016-09-29T10:29:44Z</time>
      </trkpt>
      <trkpt lat="45.96859" lon="4.56354">
        <ele>553</ele>
        <time>2016-09-29T10:29:45Z</time>
      </trkpt>
      <trkpt lat="45.9685" lon="4.56351">
        <ele>553</ele>
        <time>2016-09-29T10:29:52Z</time>
      </trkpt>
      <trkpt lat="45.96849" lon="4.5635">
        <ele>553</ele>
        <time>2016-09-29T10:29:53Z</time>
      </trkpt>
      <trkpt lat="45.96841" lon="4.56348">
        <ele>553</ele>
        <time>2016-09-29T10:29:59Z</time>
      </trkpt>
      <trkpt lat="45.9684" lon="4.56348">
        <ele>553</ele>
        <time>2016-09-29T10:30:00Z</time>
      </trkpt>
      <trkpt lat="45.96831" lon="4.56345">
        <ele>554</ele>
        <time>2016-09-29T10:30:07Z</time>
      </trkpt>
      <trkpt lat="45.9683" lon="4.56344">
        <ele>554</ele>
        <time>2016-09-29T10:30:08Z</time>
      </trkpt>
      <trkpt lat="45.96821" lon="4.56346">
        <ele>554</ele>
        <time>2016-09-29T10:30:15Z</time>
      </trkpt>
      <trkpt lat="45.9682" lon="4.56345">
        <ele>554</ele>
        <time>2016-09-29T10:30:16Z</time>
      </trkpt>
      <trkpt lat="45.96817" lon="4.56335">
        <ele>554</ele>
        <time>2016-09-29T10:30:24Z</time>
      </trkpt>
      <trkpt lat="45.96816" lon="4.56333">
        <ele>554</ele>
        <time>2016-09-29T10:30:25Z</time>
      </trkpt>
      <trkpt lat="45.9681" lon="4.56325">
        <ele>554</ele>
        <time>2016-09-29T10:30:33Z</time>
      </trkpt>
      <trkpt lat="45.9681" lon="4.56324">
        <ele>554</ele>
        <time>2016-09-29T10:30:34Z</time>
      </trkpt>
      <trkpt lat="45.96804" lon="4.56315">
        <ele>555</ele>
        <time>2016-09-29T10:30:41Z</time>
      </trkpt>
      <trkpt lat="45.96803" lon="4.56314">
        <ele>555</ele>
        <time>2016-09-29T10:30:42Z</time>
      </trkpt>
      <trkpt lat="45.96797" lon="4.56307">
        <ele>555</ele>
        <time>2016-09-29T10:30:49Z</time>
      </trkpt>
      <trkpt lat="45.96796" lon="4.56306">
        <ele>555</ele>
        <time>2016-09-29T10:30:50Z</time>
      </trkpt>
      <trkpt lat="45.96789" lon="4.563">
        <ele>555</ele>
        <time>2016-09-29T10:30:57Z</time>
      </trkpt>
      <trkpt lat="45.96788" lon="4.56299">
        <ele>555</ele>
        <time>2016-09-29T10:30:58Z</time>
      </trkpt>
      <trkpt lat="45.9678" lon="4.56293">
        <ele>556</ele>
        <time>2016-09-29T10:31:06Z</time>
      </trkpt>
      <trkpt lat="45.96779" lon="4.56292">
        <ele>556</ele>
        <time>2016-09-29T10:31:07Z</time>
      </trkpt>
      <trkpt lat="45.96772" lon="4.56287">
        <ele>556</ele>
        <time>2016-09-29T10:31:14Z</time>
      </trkpt>
      <trkpt lat="45.96771" lon="4.56285">
        <ele>556</ele>
        <time>2016-09-29T10:31:15Z</time>
      </trkpt>
      <trkpt lat="45.96766" lon="4.56277">
        <ele>557</ele>
        <time>2016-09-29T10:31:22Z</time>
      </trkpt>
      <trkpt lat="45.96765" lon="4.56276">
        <ele>557</ele>
        <time>2016-09-29T10:31:23Z</time>
      </trkpt>
      <trkpt lat="45.96757" lon="4.56271">
        <ele>557</ele>
        <time>2016-09-29T10:31:30Z</time>
      </trkpt>
      <trkpt lat="45.96756" lon="4.5627">
        <ele>557</ele>
        <time>2016-09-29T10:31:31Z</time>
      </trkpt>
      <trkpt lat="45.96749" lon="4.56263">
        <ele>560</ele>
        <time>2016-09-29T10:31:37Z</time>
      </trkpt>
      <trkpt lat="45.96748" lon="4.56262">
        <ele>560</ele>
        <time>2016-09-29T10:31:38Z</time>
      </trkpt>
      <trkpt lat="45.9674" lon="4.56256">
        <ele>560</ele>
        <time>2016-09-29T10:31:46Z</time>
      </trkpt>
      <trkpt lat="45.96739" lon="4.56255">
        <ele>560</ele>
        <time>2016-09-29T10:31:47Z</time>
      </trkpt>
      <trkpt lat="45.96732" lon="4.5625">
        <ele>560</ele>
        <time>2016-09-29T10:31:54Z</time>
      </trkpt>
      <trkpt lat="45.96731" lon="4.56249">
        <ele>560</ele>
        <time>2016-09-29T10:31:55Z</time>
      </trkpt>
      <trkpt lat="45.96725" lon="4.56241">
        <ele>561</ele>
        <time>2016-09-29T10:32:03Z</time>
      </trkpt>
      <trkpt lat="45.96724" lon="4.5624">
        <ele>561</ele>
        <time>2016-09-29T10:32:04Z</time>
      </trkpt>
      <trkpt lat="45.96717" lon="4.56234">
        <ele>561</ele>
        <time>2016-09-29T10:32:13Z</time>
      </trkpt>
      <trkpt lat="45.96717" lon="4.56233">
        <ele>561</ele>
        <time>2016-09-29T10:32:14Z</time>
      </trkpt>
      <trkpt lat="45.96711" lon="4.56225">
        <ele>561</ele>
        <time>2016-09-29T10:32:21Z</time>
      </trkpt>
      <trkpt lat="45.9671" lon="4.56224">
        <ele>561</ele>
        <time>2016-09-29T10:32:22Z</time>
      </trkpt>
      <trkpt lat="45.96702" lon="4.56219">
        <ele>561</ele>
        <time>2016-09-29T10:32:30Z</time>
      </trkpt>
      <trkpt lat="45.96701" lon="4.56218">
        <ele>561</ele>
        <time>2016-09-29T10:32:31Z</time>
      </trkpt>
      <trkpt lat="45.96693" lon="4.56211">
        <ele>561</ele>
        <time>2016-09-29T10:32:47Z</time>
      </trkpt>
      <trkpt lat="45.96693" lon="4.5621">
        <ele>561</ele>
        <time>2016-09-29T10:32:48Z</time>
      </trkpt>
      <trkpt lat="45.96687" lon="4.56202">
        <ele>561</ele>
        <time>2016-09-29T10:33:41Z</time>
      </trkpt>
      <trkpt lat="45.96686" lon="4.56201">
        <ele>561</ele>
        <time>2016-09-29T10:33:42Z</time>
      </trkpt>
      <trkpt lat="45.96682" lon="4.5619">
        <ele>562</ele>
        <time>2016-09-29T10:33:50Z</time>
      </trkpt>
      <trkpt lat="45.96681" lon="4.56189">
        <ele>562</ele>
        <time>2016-09-29T10:33:51Z</time>
      </trkpt>
      <trkpt lat="45.96679" lon="4.56178">
        <ele>562</ele>
        <time>2016-09-29T10:33:57Z</time>
      </trkpt>
      <trkpt lat="45.96679" lon="4.56176">
        <ele>562</ele>
        <time>2016-09-29T10:33:58Z</time>
      </trkpt>
      <trkpt lat="45.96674" lon="4.56165">
        <ele>563</ele>
        <time>2016-09-29T10:34:06Z</time>
      </trkpt>
      <trkpt lat="45.96674" lon="4.56164">
        <ele>563</ele>
        <time>2016-09-29T10:34:07Z</time>
      </trkpt>
      <trkpt lat="45.96669" lon="4.56154">
        <ele>563</ele>
        <time>2016-09-29T10:34:13Z</time>
      </trkpt>
      <trkpt lat="45.96668" lon="4.56153">
        <ele>563</ele>
        <time>2016-09-29T10:34:14Z</time>
      </trkpt>
      <trkpt lat="45.96665" lon="4.56142">
        <ele>562</ele>
        <time>2016-09-29T10:34:20Z</time>
      </trkpt>
      <trkpt lat="45.96665" lon="4.5614">
        <ele>562</ele>
        <time>2016-09-29T10:34:21Z</time>
      </trkpt>
      <trkpt lat="45.96661" lon="4.5613">
        <ele>562</ele>
        <time>2016-09-29T10:34:28Z</time>
      </trkpt>
      <trkpt lat="45.9666" lon="4.56128">
        <ele>562</ele>
        <time>2016-09-29T10:34:29Z</time>
      </trkpt>
      <trkpt lat="45.96657" lon="4.56117">
        <ele>562</ele>
        <time>2016-09-29T10:34:36Z</time>
      </trkpt>
      <trkpt lat="45.96656" lon="4.56116">
        <ele>562</ele>
        <time>2016-09-29T10:34:37Z</time>
      </trkpt>
      <trkpt lat="45.96651" lon="4.56105">
        <ele>562</ele>
        <time>2016-09-29T10:34:47Z</time>
      </trkpt>
      <trkpt lat="45.9665" lon="4.56104">
        <ele>562</ele>
        <time>2016-09-29T10:34:48Z</time>
      </trkpt>
      <trkpt lat="45.96643" lon="4.56097">
        <ele>562</ele>
        <time>2016-09-29T10:35:13Z</time>
      </trkpt>
      <trkpt lat="45.96642" lon="4.56096">
        <ele>562</ele>
        <time>2016-09-29T10:35:14Z</time>
      </trkpt>
      <trkpt lat="45.96637" lon="4.56086">
        <ele>561</ele>
        <time>2016-09-29T10:35:22Z</time>
      </trkpt>
      <trkpt lat="45.96636" lon="4.56085">
        <ele>561</ele>
        <time>2016-09-29T10:35:23Z</time>
      </trkpt>
      <trkpt lat="45.9663" lon="4.56076">
        <ele>560</ele>
        <time>2016-09-29T10:35:31Z</time>
      </trkpt>
      <trkpt lat="45.96629" lon="4.56076">
        <ele>560</ele>
        <time>2016-09-29T10:35:32Z</time>
      </trkpt>
      <trkpt lat="45.96622" lon="4.56069">
        <ele>559</ele>
        <time>2016-09-29T10:35:40Z</time>
      </trkpt>
      <trkpt lat="45.96621" lon="4.56067">
        <ele>559</ele>
        <time>2016-09-29T10:35:41Z</time>
      </trkpt>
      <trkpt lat="45.96622" lon="4.56055">
        <ele>559</ele>
        <time>2016-09-29T10:35:55Z</time>
      </trkpt>
      <trkpt lat="45.96622" lon="4.56054">
        <ele>559</ele>
        <time>2016-09-29T10:35:56Z</time>
      </trkpt>
      <trkpt lat="45.96614" lon="4.56049">
        <ele>559</ele>
        <time>2016-09-29T11:11:23Z</time>
      </trkpt>
      <trkpt lat="45.96613" lon="4.56049">
        <ele>559</ele>
        <time>2016-09-29T11:11:24Z</time>
      </trkpt>
      <trkpt lat="45.96605" lon="4.56044">
        <ele>558</ele>
        <time>2016-09-29T11:11:35Z</time>
      </trkpt>
      <trkpt lat="45.96604" lon="4.56044">
        <ele>558</ele>
        <time>2016-09-29T11:11:36Z</time>
      </trkpt>
      <trkpt lat="45.96596" lon="4.5604">
        <ele>558</ele>
        <time>2016-09-29T11:11:45Z</time>
      </trkpt>
      <trkpt lat="45.96596" lon="4.56039">
        <ele>558</ele>
        <time>2016-09-29T11:11:46Z</time>
      </trkpt>
      <trkpt lat="45.96589" lon="4.56031">
        <ele>557</ele>
        <time>2016-09-29T11:11:56Z</time>
      </trkpt>
      <trkpt lat="45.96588" lon="4.5603">
        <ele>557</ele>
        <time>2016-09-29T11:11:57Z</time>
      </trkpt>
      <trkpt lat="45.96584" lon="4.5602">
        <ele>557</ele>
        <time>2016-09-29T11:12:06Z</time>
      </trkpt>
      <trkpt lat="45.96583" lon="4.56019">
        <ele>553</ele>
        <time>2016-09-29T11:12:07Z</time>
      </trkpt>
      <trkpt lat="45.96579" lon="4.56008">
        <ele>553</ele>
        <time>2016-09-29T11:12:16Z</time>
      </trkpt>
      <trkpt lat="45.96578" lon="4.56006">
        <ele>553</ele>
        <time>2016-09-29T11:12:17Z</time>
      </trkpt>
      <trkpt lat="45.96573" lon="4.55996">
        <ele>551</ele>
        <time>2016-09-29T11:12:25Z</time>
      </trkpt>
      <trkpt lat="45.96573" lon="4.55994">
        <ele>551</ele>
        <time>2016-09-29T11:12:26Z</time>
      </trkpt>
      <trkpt lat="45.96567" lon="4.55986">
        <ele>549</ele>
        <time>2016-09-29T11:12:34Z</time>
      </trkpt>
      <trkpt lat="45.96566" lon="4.55985">
        <ele>549</ele>
        <time>2016-09-29T11:12:35Z</time>
      </trkpt>
      <trkpt lat="45.96561" lon="4.55976">
        <ele>547</ele>
        <time>2016-09-29T11:12:43Z</time>
      </trkpt>
      <trkpt lat="45.9656" lon="4.55974">
        <ele>547</ele>
        <time>2016-09-29T11:12:44Z</time>
      </trkpt>
      <trkpt lat="45.96557" lon="4.55964">
        <ele>546</ele>
        <time>2016-09-29T11:12:50Z</time>
      </trkpt>
      <trkpt lat="45.96557" lon="4.55962">
        <ele>546</ele>
        <time>2016-09-29T11:12:51Z</time>
      </trkpt>
      <trkpt lat="45.96553" lon="4.55952">
        <ele>545</ele>
        <time>2016-09-29T11:12:58Z</time>
      </trkpt>
      <trkpt lat="45.96553" lon="4.5595">
        <ele>545</ele>
        <time>2016-09-29T11:12:59Z</time>
      </trkpt>
      <trkpt lat="45.96546" lon="4.55942">
        <ele>544</ele>
        <time>2016-09-29T11:13:06Z</time>
      </trkpt>
      <trkpt lat="45.96545" lon="4.55941">
        <ele>544</ele>
        <time>2016-09-29T11:13:07Z</time>
      </trkpt>
      <trkpt lat="45.9654" lon="4.55931">
        <ele>544</ele>
        <time>2016-09-29T11:13:14Z</time>
      </trkpt>
      <trkpt lat="45.96539" lon="4.5593">
        <ele>544</ele>
        <time>2016-09-29T11:13:15Z</time>
      </trkpt>
      <trkpt lat="45.96531" lon="4.55922">
        <ele>543</ele>
        <time>2016-09-29T11:13:41Z</time>
      </trkpt>
      <trkpt lat="45.96531" lon="4.55922">
        <ele>543</ele>
        <time>2016-09-29T11:13:42Z</time>
      </trkpt>
      <trkpt lat="45.96531" lon="4.55909">
        <ele>536</ele>
        <time>2016-09-29T11:14:23Z</time>
      </trkpt>
      <trkpt lat="45.96531" lon="4.55908">
        <ele>536</ele>
        <time>2016-09-29T11:14:24Z</time>
      </trkpt>
      <trkpt lat="45.96529" lon="4.55896">
        <ele>535</ele>
        <time>2016-09-29T11:14:32Z</time>
      </trkpt>
      <trkpt lat="45.96528" lon="4.55895">
        <ele>535</ele>
        <time>2016-09-29T11:14:33Z</time>
      </trkpt>
      <trkpt lat="45.96523" lon="4.55885">
        <ele>534</ele>
        <time>2016-09-29T11:14:41Z</time>
      </trkpt>
      <trkpt lat="45.96522" lon="4.55884">
        <ele>534</ele>
        <time>2016-09-29T11:14:42Z</time>
      </trkpt>
      <trkpt lat="45.96515" lon="4.55878">
        <ele>533</ele>
        <time>2016-09-29T11:14:49Z</time>
      </trkpt>
      <trkpt lat="45.96514" lon="4.55877">
        <ele>533</ele>
        <time>2016-09-29T11:14:50Z</time>
      </trkpt>
      <trkpt lat="45.96508" lon="4.55869">
        <ele>532</ele>
        <time>2016-09-29T11:14:57Z</time>
      </trkpt>
      <trkpt lat="45.96507" lon="4.55868">
        <ele>532</ele>
        <time>2016-09-29T11:14:58Z</time>
      </trkpt>
      <trkpt lat="45.96502" lon="4.55858">
        <ele>531</ele>
        <time>2016-09-29T11:15:06Z</time>
      </trkpt>
      <trkpt lat="45.96502" lon="4.55857">
        <ele>531</ele>
        <time>2016-09-29T11:15:07Z</time>
      </trkpt>
      <trkpt lat="45.96498" lon="4.55846">
        <ele>525</ele>
        <time>2016-09-29T11:15:16Z</time>
      </trkpt>
      <trkpt lat="45.96497" lon="4.55845">
        <ele>525</ele>
        <time>2016-09-29T11:15:17Z</time>
      </trkpt>
      <trkpt lat="45.96497" lon="4.55832">
        <ele>524</ele>
        <time>2016-09-29T11:15:27Z</time>
      </trkpt>
      <trkpt lat="45.96497" lon="4.55831">
        <ele>524</ele>
        <time>2016-09-29T11:15:28Z</time>
      </trkpt>
      <trkpt lat="45.96497" lon="4.55818">
        <ele>520</ele>
        <time>2016-09-29T11:15:37Z</time>
      </trkpt>
      <trkpt lat="45.96497" lon="4.55817">
        <ele>520</ele>
        <time>2016-09-29T11:15:38Z</time>
      </trkpt>
      <trkpt lat="45.96495" lon="4.55805">
        <ele>518</ele>
        <time>2016-09-29T11:15:48Z</time>
      </trkpt>
      <trkpt lat="45.96495" lon="4.55804">
        <ele>517</ele>
        <time>2016-09-29T11:15:49Z</time>
      </trkpt>
      <trkpt lat="45.96491" lon="4.55792">
        <ele>516</ele>
        <time>2016-09-29T11:15:58Z</time>
      </trkpt>
      <trkpt lat="45.96491" lon="4.55791">
        <ele>516</ele>
        <time>2016-09-29T11:15:59Z</time>
      </trkpt>
      <trkpt lat="45.96488" lon="4.55779">
        <ele>515</ele>
        <time>2016-09-29T11:16:07Z</time>
      </trkpt>
      <trkpt lat="45.96487" lon="4.55778">
        <ele>515</ele>
        <time>2016-09-29T11:16:08Z</time>
      </trkpt>
      <trkpt lat="45.96481" lon="4.5577">
        <ele>514</ele>
        <time>2016-09-29T11:16:16Z</time>
      </trkpt>
      <trkpt lat="45.9648" lon="4.55769">
        <ele>514</ele>
        <time>2016-09-29T11:16:17Z</time>
      </trkpt>
      <trkpt lat="45.96472" lon="4.55765">
        <ele>514</ele>
        <time>2016-09-29T11:16:25Z</time>
      </trkpt>
      <trkpt lat="45.96471" lon="4.55764">
        <ele>513</ele>
        <time>2016-09-29T11:16:26Z</time>
      </trkpt>
      <trkpt lat="45.96462" lon="4.5576">
        <ele>513</ele>
        <time>2016-09-29T11:16:33Z</time>
      </trkpt>
      <trkpt lat="45.96461" lon="4.55759">
        <ele>513</ele>
        <time>2016-09-29T11:16:34Z</time>
      </trkpt>
      <trkpt lat="45.96455" lon="4.55751">
        <ele>512</ele>
        <time>2016-09-29T11:16:41Z</time>
      </trkpt>
      <trkpt lat="45.96454" lon="4.5575">
        <ele>506</ele>
        <time>2016-09-29T11:16:42Z</time>
      </trkpt>
      <trkpt lat="45.96446" lon="4.55746">
        <ele>505</ele>
        <time>2016-09-29T11:16:52Z</time>
      </trkpt>
      <trkpt lat="45.96445" lon="4.55745">
        <ele>505</ele>
        <time>2016-09-29T11:16:53Z</time>
      </trkpt>
      <trkpt lat="45.9644" lon="4.55736">
        <ele>505</ele>
        <time>2016-09-29T11:17:02Z</time>
      </trkpt>
      <trkpt lat="45.96439" lon="4.55735">
        <ele>505</ele>
        <time>2016-09-29T11:17:03Z</time>
      </trkpt>
      <trkpt lat="45.96433" lon="4.55726">
        <ele>504</ele>
        <time>2016-09-29T11:17:12Z</time>
      </trkpt>
      <trkpt lat="45.96433" lon="4.55725">
        <ele>504</ele>
        <time>2016-09-29T11:17:13Z</time>
      </trkpt>
      <trkpt lat="45.96427" lon="4.55716">
        <ele>503</ele>
        <time>2016-09-29T11:17:23Z</time>
      </trkpt>
      <trkpt lat="45.96426" lon="4.55715">
        <ele>503</ele>
        <time>2016-09-29T11:17:24Z</time>
      </trkpt>
      <trkpt lat="45.96421" lon="4.55705">
        <ele>502</ele>
        <time>2016-09-29T11:17:33Z</time>
      </trkpt>
      <trkpt lat="45.9642" lon="4.55703">
        <ele>502</ele>
        <time>2016-09-29T11:17:34Z</time>
      </trkpt>
      <trkpt lat="45.96419" lon="4.55691">
        <ele>501</ele>
        <time>2016-09-29T11:18:14Z</time>
      </trkpt>
      <trkpt lat="45.96418" lon="4.5569">
        <ele>500</ele>
        <time>2016-09-29T11:18:15Z</time>
      </trkpt>
      <trkpt lat="45.96413" lon="4.5568">
        <ele>496</ele>
        <time>2016-09-29T11:18:25Z</time>
      </trkpt>
      <trkpt lat="45.96412" lon="4.55679">
        <ele>496</ele>
        <time>2016-09-29T11:18:26Z</time>
      </trkpt>
      <trkpt lat="45.96408" lon="4.55669">
        <ele>496</ele>
        <time>2016-09-29T11:18:32Z</time>
      </trkpt>
      <trkpt lat="45.96408" lon="4.55667">
        <ele>496</ele>
        <time>2016-09-29T11:18:33Z</time>
      </trkpt>
      <trkpt lat="45.96402" lon="4.55658">
        <ele>493</ele>
        <time>2016-09-29T11:18:41Z</time>
      </trkpt>
      <trkpt lat="45.96402" lon="4.55657">
        <ele>493</ele>
        <time>2016-09-29T11:18:42Z</time>
      </trkpt>
      <trkpt lat="45.96396" lon="4.55648">
        <ele>491</ele>
        <time>2016-09-29T11:18:49Z</time>
      </trkpt>
      <trkpt lat="45.96396" lon="4.55647">
        <ele>491</ele>
        <time>2016-09-29T11:18:50Z</time>
      </trkpt>
      <trkpt lat="45.96393" lon="4.55636">
        <ele>490</ele>
        <time>2016-09-29T11:18:57Z</time>
      </trkpt>
      <trkpt lat="45.96392" lon="4.55635">
        <ele>490</ele>
        <time>2016-09-29T11:18:58Z</time>
      </trkpt>
      <trkpt lat="45.96388" lon="4.55624">
        <ele>490</ele>
        <time>2016-09-29T11:19:06Z</time>
      </trkpt>
      <trkpt lat="45.96387" lon="4.55623">
        <ele>490</ele>
        <time>2016-09-29T11:19:07Z</time>
      </trkpt>
      <trkpt lat="45.96382" lon="4.55613">
        <ele>489</ele>
        <time>2016-09-29T11:19:16Z</time>
      </trkpt>
      <trkpt lat="45.96382" lon="4.55611">
        <ele>489</ele>
        <time>2016-09-29T11:19:17Z</time>
      </trkpt>
      <trkpt lat="45.96377" lon="4.556">
        <ele>489</ele>
        <time>2016-09-29T11:19:26Z</time>
      </trkpt>
      <trkpt lat="45.96377" lon="4.55599">
        <ele>489</ele>
        <time>2016-09-29T11:19:27Z</time>
      </trkpt>
      <trkpt lat="45.96375" lon="4.55587">
        <ele>488</ele>
        <time>2016-09-29T11:19:37Z</time>
      </trkpt>
      <trkpt lat="45.96375" lon="4.55585">
        <ele>488</ele>
        <time>2016-09-29T11:19:38Z</time>
      </trkpt>
      <trkpt lat="45.96367" lon="4.5558">
        <ele>486</ele>
        <time>2016-09-29T11:19:48Z</time>
      </trkpt>
      <trkpt lat="45.96366" lon="4.5558">
        <ele>486</ele>
        <time>2016-09-29T11:19:49Z</time>
      </trkpt>
      <trkpt lat="45.96362" lon="4.55589">
        <ele>488</ele>
        <time>2016-09-29T11:22:05Z</time>
      </trkpt>
      <trkpt lat="45.96361" lon="4.55591">
        <ele>487</ele>
        <time>2016-09-29T11:22:06Z</time>
      </trkpt>
      <trkpt lat="45.96355" lon="4.55598">
        <ele>487</ele>
        <time>2016-09-29T11:22:13Z</time>
      </trkpt>
      <trkpt lat="45.96354" lon="4.55599">
        <ele>487</ele>
        <time>2016-09-29T11:22:14Z</time>
      </trkpt>
      <trkpt lat="45.96348" lon="4.55606">
        <ele>487</ele>
        <time>2016-09-29T11:22:21Z</time>
      </trkpt>
      <trkpt lat="45.96347" lon="4.55607">
        <ele>487</ele>
        <time>2016-09-29T11:22:22Z</time>
      </trkpt>
      <trkpt lat="45.96341" lon="4.55617">
        <ele>488</ele>
        <time>2016-09-29T11:22:30Z</time>
      </trkpt>
      <trkpt lat="45.96341" lon="4.55619">
        <ele>488</ele>
        <time>2016-09-29T11:22:31Z</time>
      </trkpt>
      <trkpt lat="45.96338" lon="4.5563">
        <ele>488</ele>
        <time>2016-09-29T11:22:39Z</time>
      </trkpt>
      <trkpt lat="45.96337" lon="4.55631">
        <ele>488</ele>
        <time>2016-09-29T11:22:40Z</time>
      </trkpt>
      <trkpt lat="45.96334" lon="4.55643">
        <ele>488</ele>
        <time>2016-09-29T11:22:48Z</time>
      </trkpt>
      <trkpt lat="45.96333" lon="4.55644">
        <ele>482</ele>
        <time>2016-09-29T11:22:49Z</time>
      </trkpt>
      <trkpt lat="45.9633" lon="4.55655">
        <ele>484</ele>
        <time>2016-09-29T11:22:56Z</time>
      </trkpt>
      <trkpt lat="45.9633" lon="4.55657">
        <ele>485</ele>
        <time>2016-09-29T11:22:57Z</time>
      </trkpt>
      <trkpt lat="45.96328" lon="4.55668">
        <ele>487</ele>
        <time>2016-09-29T11:23:04Z</time>
      </trkpt>
      <trkpt lat="45.96328" lon="4.5567">
        <ele>487</ele>
        <time>2016-09-29T11:23:05Z</time>
      </trkpt>
      <trkpt lat="45.96327" lon="4.55681">
        <ele>486</ele>
        <time>2016-09-29T11:23:11Z</time>
      </trkpt>
      <trkpt lat="45.96328" lon="4.55683">
        <ele>486</ele>
        <time>2016-09-29T11:23:12Z</time>
      </trkpt>
      <trkpt lat="45.96326" lon="4.55695">
        <ele>485</ele>
        <time>2016-09-29T11:23:20Z</time>
      </trkpt>
      <trkpt lat="45.96324" lon="4.55695">
        <ele>485</ele>
        <time>2016-09-29T11:23:21Z</time>
      </trkpt>
      <trkpt lat="45.96318" lon="4.55703">
        <ele>485</ele>
        <time>2016-09-29T11:23:30Z</time>
      </trkpt>
      <trkpt lat="45.96318" lon="4.55705">
        <ele>485</ele>
        <time>2016-09-29T11:23:31Z</time>
      </trkpt>
      <trkpt lat="45.96318" lon="4.55717">
        <ele>486</ele>
        <time>2016-09-29T11:23:38Z</time>
      </trkpt>
      <trkpt lat="45.96317" lon="4.55719">
        <ele>486</ele>
        <time>2016-09-29T11:23:39Z</time>
      </trkpt>
      <trkpt lat="45.96317" lon="4.55731">
        <ele>486</ele>
        <time>2016-09-29T11:23:46Z</time>
      </trkpt>
      <trkpt lat="45.96318" lon="4.55733">
        <ele>487</ele>
        <time>2016-09-29T11:23:47Z</time>
      </trkpt>
      <trkpt lat="45.9632" lon="4.55744">
        <ele>488</ele>
        <time>2016-09-29T11:23:53Z</time>
      </trkpt>
      <trkpt lat="45.9632" lon="4.55745">
        <ele>488</ele>
        <time>2016-09-29T11:23:54Z</time>
      </trkpt>
      <trkpt lat="45.96313" lon="4.55753">
        <ele>490</ele>
        <time>2016-09-29T11:24:03Z</time>
      </trkpt>
      <trkpt lat="45.96312" lon="4.55754">
        <ele>490</ele>
        <time>2016-09-29T11:24:04Z</time>
      </trkpt>
      <trkpt lat="45.96311" lon="4.55766">
        <ele>490</ele>
        <time>2016-09-29T11:24:12Z</time>
      </trkpt>
      <trkpt lat="45.96311" lon="4.55767">
        <ele>490</ele>
        <time>2016-09-29T11:24:13Z</time>
      </trkpt>
      <trkpt lat="45.96313" lon="4.55779">
        <ele>490</ele>
        <time>2016-09-29T11:24:19Z</time>
      </trkpt>
      <trkpt lat="45.96312" lon="4.5578">
        <ele>490</ele>
        <time>2016-09-29T11:24:20Z</time>
      </trkpt>
      <trkpt lat="45.96312" lon="4.55792">
        <ele>490</ele>
        <time>2016-09-29T11:24:25Z</time>
      </trkpt>
      <trkpt lat="45.96311" lon="4.55794">
        <ele>490</ele>
        <time>2016-09-29T11:24:26Z</time>
      </trkpt>
      <trkpt lat="45.96305" lon="4.55802">
        <ele>491</ele>
        <time>2016-09-29T11:24:33Z</time>
      </trkpt>
      <trkpt lat="45.96304" lon="4.55803">
        <ele>491</ele>
        <time>2016-09-29T11:24:34Z</time>
      </trkpt>
      <trkpt lat="45.96295" lon="4.55803">
        <ele>490</ele>
        <time>2016-09-29T11:24:43Z</time>
      </trkpt>
      <trkpt lat="45.96294" lon="4.55802">
        <ele>490</ele>
        <time>2016-09-29T11:24:44Z</time>
      </trkpt>
      <trkpt lat="45.96285" lon="4.55802">
        <ele>490</ele>
        <time>2016-09-29T11:24:51Z</time>
      </trkpt>
      <trkpt lat="45.96284" lon="4.55802">
        <ele>490</ele>
        <time>2016-09-29T11:24:52Z</time>
      </trkpt>
      <trkpt lat="45.96276" lon="4.55803">
        <ele>490</ele>
        <time>2016-09-29T11:24:59Z</time>
      </trkpt>
      <trkpt lat="45.96274" lon="4.55804">
        <ele>490</ele>
        <time>2016-09-29T11:25:00Z</time>
      </trkpt>
      <trkpt lat="45.96266" lon="4.55808">
        <ele>490</ele>
        <time>2016-09-29T11:25:08Z</time>
      </trkpt>
      <trkpt lat="45.96265" lon="4.55809">
        <ele>490</ele>
        <time>2016-09-29T11:25:09Z</time>
      </trkpt>
      <trkpt lat="45.96257" lon="4.55813">
        <ele>490</ele>
        <time>2016-09-29T11:25:17Z</time>
      </trkpt>
      <trkpt lat="45.96256" lon="4.55813">
        <ele>490</ele>
        <time>2016-09-29T11:25:18Z</time>
      </trkpt>
      <trkpt lat="45.96247" lon="4.55814">
        <ele>488</ele>
        <time>2016-09-29T11:25:26Z</time>
      </trkpt>
      <trkpt lat="45.96246" lon="4.55814">
        <ele>488</ele>
        <time>2016-09-29T11:25:27Z</time>
      </trkpt>
      <trkpt lat="45.96238" lon="4.55816">
        <ele>488</ele>
        <time>2016-09-29T11:25:34Z</time>
      </trkpt>
      <trkpt lat="45.96237" lon="4.55817">
        <ele>488</ele>
        <time>2016-09-29T11:25:35Z</time>
      </trkpt>
      <trkpt lat="45.96229" lon="4.55822">
        <ele>488</ele>
        <time>2016-09-29T11:25:42Z</time>
      </trkpt>
      <trkpt lat="45.96228" lon="4.55822">
        <ele>488</ele>
        <time>2016-09-29T11:25:43Z</time>
      </trkpt>
      <trkpt lat="45.96221" lon="4.55829">
        <ele>488</ele>
        <time>2016-09-29T11:25:49Z</time>
      </trkpt>
      <trkpt lat="45.9622" lon="4.5583">
        <ele>488</ele>
        <time>2016-09-29T11:25:50Z</time>
      </trkpt>
      <trkpt lat="45.96212" lon="4.55835">
        <ele>494</ele>
        <time>2016-09-29T11:25:57Z</time>
      </trkpt>
      <trkpt lat="45.96211" lon="4.55835">
        <ele>494</ele>
        <time>2016-09-29T11:25:58Z</time>
      </trkpt>
      <trkpt lat="45.96203" lon="4.55841">
        <ele>494</ele>
        <time>2016-09-29T11:26:04Z</time>
      </trkpt>
      <trkpt lat="45.96202" lon="4.55841">
        <ele>494</ele>
        <time>2016-09-29T11:26:05Z</time>
      </trkpt>
      <trkpt lat="45.96195" lon="4.55847">
        <ele>494</ele>
        <time>2016-09-29T11:26:11Z</time>
      </trkpt>
      <trkpt lat="45.96194" lon="4.55848">
        <ele>493</ele>
        <time>2016-09-29T11:26:12Z</time>
      </trkpt>
      <trkpt lat="45.96187" lon="4.55854">
        <ele>494</ele>
        <time>2016-09-29T11:26:18Z</time>
      </trkpt>
      <trkpt lat="45.96186" lon="4.55855">
        <ele>494</ele>
        <time>2016-09-29T11:26:19Z</time>
      </trkpt>
      <trkpt lat="45.96179" lon="4.55862">
        <ele>494</ele>
        <time>2016-09-29T11:26:25Z</time>
      </trkpt>
      <trkpt lat="45.96178" lon="4.55863">
        <ele>494</ele>
        <time>2016-09-29T11:26:26Z</time>
      </trkpt>
      <trkpt lat="45.96172" lon="4.5587">
        <ele>495</ele>
        <time>2016-09-29T11:26:32Z</time>
      </trkpt>
      <trkpt lat="45.96171" lon="4.55872">
        <ele>495</ele>
        <time>2016-09-29T11:26:33Z</time>
      </trkpt>
      <trkpt lat="45.96165" lon="4.55881">
        <ele>491</ele>
        <time>2016-09-29T11:26:40Z</time>
      </trkpt>
      <trkpt lat="45.96164" lon="4.55882">
        <ele>491</ele>
        <time>2016-09-29T11:26:41Z</time>
      </trkpt>
      <trkpt lat="45.96158" lon="4.55889">
        <ele>492</ele>
        <time>2016-09-29T11:26:47Z</time>
      </trkpt>
      <trkpt lat="45.96157" lon="4.55891">
        <ele>492</ele>
        <time>2016-09-29T11:26:48Z</time>
      </trkpt>
      <trkpt lat="45.9615" lon="4.55898">
        <ele>492</ele>
        <time>2016-09-29T11:26:54Z</time>
      </trkpt>
      <trkpt lat="45.96149" lon="4.559">
        <ele>492</ele>
        <time>2016-09-29T11:26:55Z</time>
      </trkpt>
      <trkpt lat="45.96144" lon="4.5591">
        <ele>493</ele>
        <time>2016-09-29T11:27:23Z</time>
      </trkpt>
      <trkpt lat="45.96143" lon="4.55912">
        <ele>493</ele>
        <time>2016-09-29T11:27:24Z</time>
      </trkpt>
      <trkpt lat="45.96138" lon="4.55921">
        <ele>497</ele>
        <time>2016-09-29T11:27:31Z</time>
      </trkpt>
      <trkpt lat="45.96138" lon="4.55923">
        <ele>497</ele>
        <time>2016-09-29T11:27:32Z</time>
      </trkpt>
      <trkpt lat="45.96133" lon="4.55933">
        <ele>497</ele>
        <time>2016-09-29T11:27:39Z</time>
      </trkpt>
      <trkpt lat="45.96132" lon="4.55935">
        <ele>496</ele>
        <time>2016-09-29T11:27:40Z</time>
      </trkpt>
      <trkpt lat="45.96127" lon="4.55945">
        <ele>496</ele>
        <time>2016-09-29T11:27:46Z</time>
      </trkpt>
      <trkpt lat="45.96126" lon="4.55946">
        <ele>496</ele>
        <time>2016-09-29T11:27:47Z</time>
      </trkpt>
      <trkpt lat="45.9612" lon="4.55956">
        <ele>496</ele>
        <time>2016-09-29T11:27:54Z</time>
      </trkpt>
      <trkpt lat="45.96119" lon="4.55957">
        <ele>496</ele>
        <time>2016-09-29T11:27:55Z</time>
      </trkpt>
      <trkpt lat="45.96113" lon="4.55965">
        <ele>496</ele>
        <time>2016-09-29T11:28:02Z</time>
      </trkpt>
      <trkpt lat="45.96111" lon="4.55965">
        <ele>496</ele>
        <time>2016-09-29T11:28:03Z</time>
      </trkpt>
      <trkpt lat="45.96106" lon="4.55974">
        <ele>496</ele>
        <time>2016-09-29T11:28:12Z</time>
      </trkpt>
      <trkpt lat="45.96106" lon="4.55975">
        <ele>496</ele>
        <time>2016-09-29T11:28:13Z</time>
      </trkpt>
      <trkpt lat="45.96098" lon="4.55981">
        <ele>496</ele>
        <time>2016-09-29T11:28:24Z</time>
      </trkpt>
      <trkpt lat="45.96097" lon="4.55982">
        <ele>496</ele>
        <time>2016-09-29T11:28:25Z</time>
      </trkpt>
      <trkpt lat="45.96092" lon="4.5599">
        <ele>496</ele>
        <time>2016-09-29T11:28:33Z</time>
      </trkpt>
      <trkpt lat="45.96091" lon="4.55991">
        <ele>496</ele>
        <time>2016-09-29T11:28:34Z</time>
      </trkpt>
      <trkpt lat="45.96084" lon="4.55998">
        <ele>495</ele>
        <time>2016-09-29T11:28:42Z</time>
      </trkpt>
      <trkpt lat="45.96083" lon="4.55998">
        <ele>494</ele>
        <time>2016-09-29T11:28:43Z</time>
      </trkpt>
      <trkpt lat="45.96075" lon="4.56003">
        <ele>493</ele>
        <time>2016-09-29T11:29:04Z</time>
      </trkpt>
      <trkpt lat="45.96074" lon="4.56003">
        <ele>493</ele>
        <time>2016-09-29T11:29:05Z</time>
      </trkpt>
      <trkpt lat="45.96068" lon="4.56002">
        <ele>493</ele>
        <time>2016-09-29T11:29:12Z</time>
      </trkpt>
      <trkpt lat="45.96065" lon="4.56002">
        <ele>492</ele>
        <time>2016-09-29T11:29:13Z</time>
      </trkpt>
      <trkpt lat="45.96057" lon="4.56004">
        <ele>491</ele>
        <time>2016-09-29T11:29:18Z</time>
      </trkpt>
      <trkpt lat="45.96055" lon="4.56004">
        <ele>491</ele>
        <time>2016-09-29T11:29:19Z</time>
      </trkpt>
      <trkpt lat="45.96046" lon="4.56007">
        <ele>490</ele>
        <time>2016-09-29T11:29:24Z</time>
      </trkpt>
      <trkpt lat="45.96045" lon="4.56007">
        <ele>490</ele>
        <time>2016-09-29T11:29:25Z</time>
      </trkpt>
      <trkpt lat="45.96037" lon="4.56012">
        <ele>489</ele>
        <time>2016-09-29T11:29:30Z</time>
      </trkpt>
      <trkpt lat="45.96035" lon="4.56013">
        <ele>489</ele>
        <time>2016-09-29T11:29:31Z</time>
      </trkpt>
      <trkpt lat="45.9603" lon="4.56023">
        <ele>489</ele>
        <time>2016-09-29T11:29:37Z</time>
      </trkpt>
      <trkpt lat="45.96029" lon="4.56024">
        <ele>489</ele>
        <time>2016-09-29T11:29:38Z</time>
      </trkpt>
      <trkpt lat="45.96025" lon="4.56035">
        <ele>489</ele>
        <time>2016-09-29T11:29:45Z</time>
      </trkpt>
      <trkpt lat="45.96025" lon="4.56037">
        <ele>489</ele>
        <time>2016-09-29T11:29:46Z</time>
      </trkpt>
      <trkpt lat="45.96019" lon="4.56046">
        <ele>488</ele>
        <time>2016-09-29T11:30:19Z</time>
      </trkpt>
      <trkpt lat="45.96019" lon="4.56047">
        <ele>488</ele>
        <time>2016-09-29T11:30:20Z</time>
      </trkpt>
      <trkpt lat="45.96017" lon="4.56059">
        <ele>488</ele>
        <time>2016-09-29T11:30:27Z</time>
      </trkpt>
      <trkpt lat="45.96017" lon="4.56061">
        <ele>488</ele>
        <time>2016-09-29T11:30:28Z</time>
      </trkpt>
      <trkpt lat="45.96014" lon="4.56072">
        <ele>487</ele>
        <time>2016-09-29T11:30:36Z</time>
      </trkpt>
      <trkpt lat="45.96014" lon="4.56073">
        <ele>486</ele>
        <time>2016-09-29T11:30:37Z</time>
      </trkpt>
      <trkpt lat="45.96012" lon="4.56085">
        <ele>483</ele>
        <time>2016-09-29T11:30:46Z</time>
      </trkpt>
      <trkpt lat="45.96012" lon="4.56086">
        <ele>483</ele>
        <time>2016-09-29T11:30:47Z</time>
      </trkpt>
      <trkpt lat="45.96017" lon="4.56097">
        <ele>483</ele>
        <time>2016-09-29T11:31:00Z</time>
      </trkpt>
      <trkpt lat="45.96018" lon="4.56098">
        <ele>483</ele>
        <time>2016-09-29T11:31:01Z</time>
      </trkpt>
      <trkpt lat="45.96024" lon="4.56106">
        <ele>483</ele>
        <time>2016-09-29T11:31:12Z</time>
      </trkpt>
      <trkpt lat="45.96024" lon="4.56108">
        <ele>483</ele>
        <time>2016-09-29T11:31:13Z</time>
      </trkpt>
      <trkpt lat="45.96028" lon="4.56119">
        <ele>482</ele>
        <time>2016-09-29T11:31:20Z</time>
      </trkpt>
      <trkpt lat="45.96029" lon="4.5612">
        <ele>482</ele>
        <time>2016-09-29T11:31:21Z</time>
      </trkpt>
      <trkpt lat="45.96033" lon="4.56131">
        <ele>481</ele>
        <time>2016-09-29T11:31:26Z</time>
      </trkpt>
      <trkpt lat="45.96034" lon="4.56132">
        <ele>481</ele>
        <time>2016-09-29T11:31:27Z</time>
      </trkpt>
      <trkpt lat="45.96039" lon="4.5614">
        <ele>481</ele>
        <time>2016-09-29T11:31:31Z</time>
      </trkpt>
      <trkpt lat="45.9604" lon="4.56141">
        <ele>481</ele>
        <time>2016-09-29T11:31:32Z</time>
      </trkpt>
      <trkpt lat="45.96048" lon="4.56147">
        <ele>482</ele>
        <time>2016-09-29T11:31:39Z</time>
      </trkpt>
      <trkpt lat="45.96049" lon="4.56148">
        <ele>482</ele>
        <time>2016-09-29T11:31:40Z</time>
      </trkpt>
      <trkpt lat="45.96056" lon="4.56153">
        <ele>482</ele>
        <time>2016-09-29T11:31:46Z</time>
      </trkpt>
      <trkpt lat="45.96057" lon="4.56155">
        <ele>483</ele>
        <time>2016-09-29T11:31:47Z</time>
      </trkpt>
      <trkpt lat="45.96064" lon="4.5616">
        <ele>483</ele>
        <time>2016-09-29T11:31:53Z</time>
      </trkpt>
      <trkpt lat="45.96065" lon="4.56162">
        <ele>483</ele>
        <time>2016-09-29T11:31:54Z</time>
      </trkpt>
      <trkpt lat="45.96071" lon="4.56168">
        <ele>478</ele>
        <time>2016-09-29T11:32:00Z</time>
      </trkpt>
      <trkpt lat="45.96073" lon="4.56169">
        <ele>479</ele>
        <time>2016-09-29T11:32:01Z</time>
      </trkpt>
      <trkpt lat="45.9608" lon="4.56173">
        <ele>481</ele>
        <time>2016-09-29T11:32:07Z</time>
      </trkpt>
      <trkpt lat="45.96081" lon="4.56173">
        <ele>481</ele>
        <time>2016-09-29T11:32:08Z</time>
      </trkpt>
      <trkpt lat="45.96088" lon="4.56178">
        <ele>486</ele>
        <time>2016-09-29T11:32:14Z</time>
      </trkpt>
      <trkpt lat="45.96089" lon="4.56179">
        <ele>486</ele>
        <time>2016-09-29T11:32:15Z</time>
      </trkpt>
      <trkpt lat="45.9609" lon="4.56191">
        <ele>485</ele>
        <time>2016-09-29T11:32:33Z</time>
      </trkpt>
      <trkpt lat="45.9609" lon="4.56193">
        <ele>485</ele>
        <time>2016-09-29T11:32:34Z</time>
      </trkpt>
      <trkpt lat="45.96095" lon="4.56203">
        <ele>484</ele>
        <time>2016-09-29T11:32:42Z</time>
      </trkpt>
      <trkpt lat="45.96095" lon="4.56205">
        <ele>484</ele>
        <time>2016-09-29T11:32:43Z</time>
      </trkpt>
      <trkpt lat="45.96098" lon="4.56216">
        <ele>483</ele>
        <time>2016-09-29T11:32:52Z</time>
      </trkpt>
      <trkpt lat="45.96099" lon="4.56218">
        <ele>483</ele>
        <time>2016-09-29T11:32:53Z</time>
      </trkpt>
      <trkpt lat="45.96103" lon="4.56229">
        <ele>481</ele>
        <time>2016-09-29T11:33:01Z</time>
      </trkpt>
      <trkpt lat="45.96103" lon="4.56231">
        <ele>481</ele>
        <time>2016-09-29T11:33:02Z</time>
      </trkpt>
      <trkpt lat="45.96102" lon="4.56242">
        <ele>479</ele>
        <time>2016-09-29T11:33:10Z</time>
      </trkpt>
      <trkpt lat="45.96102" lon="4.56244">
        <ele>479</ele>
        <time>2016-09-29T11:33:11Z</time>
      </trkpt>
      <trkpt lat="45.961" lon="4.56232">
        <ele>480</ele>
        <time>2016-09-29T11:33:40Z</time>
      </trkpt>
      <trkpt lat="45.96099" lon="4.56231">
        <ele>480</ele>
        <time>2016-09-29T11:33:41Z</time>
      </trkpt>
      <trkpt lat="45.96097" lon="4.56218">
        <ele>482</ele>
        <time>2016-09-29T11:33:53Z</time>
      </trkpt>
      <trkpt lat="45.96097" lon="4.56218">
        <ele>482</ele>
        <time>2016-09-29T11:33:54Z</time>
      </trkpt>
      <trkpt lat="45.96093" lon="4.56207">
        <ele>484</ele>
        <time>2016-09-29T11:36:21Z</time>
      </trkpt>
      <trkpt lat="45.96092" lon="4.56206">
        <ele>484</ele>
        <time>2016-09-29T11:36:22Z</time>
      </trkpt>
      <trkpt lat="45.96087" lon="4.56197">
        <ele>485</ele>
        <time>2016-09-29T11:36:32Z</time>
      </trkpt>
      <trkpt lat="45.96086" lon="4.56196">
        <ele>485</ele>
        <time>2016-09-29T11:36:33Z</time>
      </trkpt>
      <trkpt lat="45.96083" lon="4.56185">
        <ele>476</ele>
        <time>2016-09-29T11:37:16Z</time>
      </trkpt>
      <trkpt lat="45.96082" lon="4.56184">
        <ele>476</ele>
        <time>2016-09-29T11:37:17Z</time>
      </trkpt>
      <trkpt lat="45.96074" lon="4.56179">
        <ele>477</ele>
        <time>2016-09-29T11:37:23Z</time>
      </trkpt>
      <trkpt lat="45.96072" lon="4.56178">
        <ele>476</ele>
        <time>2016-09-29T11:37:24Z</time>
      </trkpt>
      <trkpt lat="45.96064" lon="4.56175">
        <ele>475</ele>
        <time>2016-09-29T11:37:30Z</time>
      </trkpt>
      <trkpt lat="45.96063" lon="4.56175">
        <ele>474</ele>
        <time>2016-09-29T11:37:31Z</time>
      </trkpt>
      <trkpt lat="45.96055" lon="4.56171">
        <ele>473</ele>
        <time>2016-09-29T11:37:37Z</time>
      </trkpt>
      <trkpt lat="45.96054" lon="4.5617">
        <ele>473</ele>
        <time>2016-09-29T11:37:38Z</time>
      </trkpt>
      <trkpt lat="45.96046" lon="4.56165">
        <ele>481</ele>
        <time>2016-09-29T11:37:44Z</time>
      </trkpt>
      <trkpt lat="45.96045" lon="4.56165">
        <ele>481</ele>
        <time>2016-09-29T11:37:45Z</time>
      </trkpt>
      <trkpt lat="45.96036" lon="4.56163">
        <ele>479</ele>
        <time>2016-09-29T11:37:51Z</time>
      </trkpt>
      <trkpt lat="45.96035" lon="4.56163">
        <ele>479</ele>
        <time>2016-09-29T11:37:52Z</time>
      </trkpt>
      <trkpt lat="45.96026" lon="4.56163">
        <ele>477</ele>
        <time>2016-09-29T11:37:59Z</time>
      </trkpt>
      <trkpt lat="45.96025" lon="4.56162">
        <ele>477</ele>
        <time>2016-09-29T11:38:00Z</time>
      </trkpt>
      <trkpt lat="45.96017" lon="4.56158">
        <ele>475</ele>
        <time>2016-09-29T11:38:06Z</time>
      </trkpt>
      <trkpt lat="45.96016" lon="4.56157">
        <ele>475</ele>
        <time>2016-09-29T11:38:07Z</time>
      </trkpt>
      <trkpt lat="45.96008" lon="4.56153">
        <ele>474</ele>
        <time>2016-09-29T11:38:13Z</time>
      </trkpt>
      <trkpt lat="45.96007" lon="4.56152">
        <ele>474</ele>
        <time>2016-09-29T11:38:14Z</time>
      </trkpt>
      <trkpt lat="45.95998" lon="4.56149">
        <ele>469</ele>
        <time>2016-09-29T11:38:21Z</time>
      </trkpt>
      <trkpt lat="45.95997" lon="4.56149">
        <ele>469</ele>
        <time>2016-09-29T11:38:22Z</time>
      </trkpt>
      <trkpt lat="45.95988" lon="4.56146">
        <ele>469</ele>
        <time>2016-09-29T11:38:29Z</time>
      </trkpt>
      <trkpt lat="45.95987" lon="4.56146">
        <ele>469</ele>
        <time>2016-09-29T11:38:30Z</time>
      </trkpt>
      <trkpt lat="45.95979" lon="4.56141">
        <ele>469</ele>
        <time>2016-09-29T11:38:36Z</time>
      </trkpt>
      <trkpt lat="45.95978" lon="4.56141">
        <ele>469</ele>
        <time>2016-09-29T11:38:37Z</time>
      </trkpt>
      <trkpt lat="45.95971" lon="4.56136">
        <ele>469</ele>
        <time>2016-09-29T11:38:43Z</time>
      </trkpt>
      <trkpt lat="45.9597" lon="4.56135">
        <ele>469</ele>
        <time>2016-09-29T11:38:44Z</time>
      </trkpt>
      <trkpt lat="45.95961" lon="4.5613">
        <ele>469</ele>
        <time>2016-09-29T11:38:51Z</time>
      </trkpt>
      <trkpt lat="45.9596" lon="4.56129">
        <ele>469</ele>
        <time>2016-09-29T11:38:52Z</time>
      </trkpt>
      <trkpt lat="45.95952" lon="4.56125">
        <ele>469</ele>
        <time>2016-09-29T11:38:58Z</time>
      </trkpt>
      <trkpt lat="45.95951" lon="4.56125">
        <ele>469</ele>
        <time>2016-09-29T11:38:59Z</time>
      </trkpt>
      <trkpt lat="45.95943" lon="4.56123">
        <ele>469</ele>
        <time>2016-09-29T11:39:05Z</time>
      </trkpt>
      <trkpt lat="45.95942" lon="4.56123">
        <ele>469</ele>
        <time>2016-09-29T11:39:06Z</time>
      </trkpt>
      <trkpt lat="45.95934" lon="4.56127">
        <ele>468</ele>
        <time>2016-09-29T11:39:13Z</time>
      </trkpt>
      <trkpt lat="45.95933" lon="4.56127">
        <ele>468</ele>
        <time>2016-09-29T11:39:14Z</time>
      </trkpt>
      <trkpt lat="45.95926" lon="4.56134">
        <ele>467</ele>
        <time>2016-09-29T11:39:20Z</time>
      </trkpt>
      <trkpt lat="45.95925" lon="4.56135">
        <ele>466</ele>
        <time>2016-09-29T11:39:21Z</time>
      </trkpt>
      <trkpt lat="45.95918" lon="4.56142">
        <ele>465</ele>
        <time>2016-09-29T11:39:29Z</time>
      </trkpt>
      <trkpt lat="45.95916" lon="4.56142">
        <ele>462</ele>
        <time>2016-09-29T11:39:30Z</time>
      </trkpt>
      <trkpt lat="45.95909" lon="4.56147">
        <ele>461</ele>
        <time>2016-09-29T11:39:38Z</time>
      </trkpt>
      <trkpt lat="45.95908" lon="4.56147">
        <ele>461</ele>
        <time>2016-09-29T11:39:39Z</time>
      </trkpt>
      <trkpt lat="45.959" lon="4.56148">
        <ele>461</ele>
        <time>2016-09-29T11:39:47Z</time>
      </trkpt>
      <trkpt lat="45.95898" lon="4.56148">
        <ele>461</ele>
        <time>2016-09-29T11:39:48Z</time>
      </trkpt>
      <trkpt lat="45.95889" lon="4.56151">
        <ele>462</ele>
        <time>2016-09-29T11:39:53Z</time>
      </trkpt>
      <trkpt lat="45.95888" lon="4.56151">
        <ele>462</ele>
        <time>2016-09-29T11:39:54Z</time>
      </trkpt>
      <trkpt lat="45.95879" lon="4.56155">
        <ele>462</ele>
        <time>2016-09-29T11:40:00Z</time>
      </trkpt>
      <trkpt lat="45.95878" lon="4.56156">
        <ele>462</ele>
        <time>2016-09-29T11:40:01Z</time>
      </trkpt>
      <trkpt lat="45.95871" lon="4.56161">
        <ele>462</ele>
        <time>2016-09-29T11:40:07Z</time>
      </trkpt>
      <trkpt lat="45.95869" lon="4.56162">
        <ele>462</ele>
        <time>2016-09-29T11:40:08Z</time>
      </trkpt>
      <trkpt lat="45.95862" lon="4.56166">
        <ele>461</ele>
        <time>2016-09-29T11:40:13Z</time>
      </trkpt>
      <trkpt lat="45.95861" lon="4.56166">
        <ele>461</ele>
        <time>2016-09-29T11:40:14Z</time>
      </trkpt>
      <trkpt lat="45.95852" lon="4.56168">
        <ele>453</ele>
        <time>2016-09-29T11:40:21Z</time>
      </trkpt>
      <trkpt lat="45.95852" lon="4.56167">
        <ele>453</ele>
        <time>2016-09-29T11:40:22Z</time>
      </trkpt>
      <trkpt lat="45.95843" lon="4.56168">
        <ele>455</ele>
        <time>2016-09-29T11:40:32Z</time>
      </trkpt>
      <trkpt lat="45.95841" lon="4.56169">
        <ele>456</ele>
        <time>2016-09-29T11:40:33Z</time>
      </trkpt>
      <trkpt lat="45.95833" lon="4.56175">
        <ele>456</ele>
        <time>2016-09-29T11:40:47Z</time>
      </trkpt>
      <trkpt lat="45.95833" lon="4.56175">
        <ele>456</ele>
        <time>2016-09-29T11:40:48Z</time>
      </trkpt>
      <trkpt lat="45.95824" lon="4.56179">
        <ele>453</ele>
        <time>2016-09-29T11:40:55Z</time>
      </trkpt>
      <trkpt lat="45.95823" lon="4.5618">
        <ele>453</ele>
        <time>2016-09-29T11:40:56Z</time>
      </trkpt>
      <trkpt lat="45.95816" lon="4.56182">
        <ele>452</ele>
        <time>2016-09-29T11:41:01Z</time>
      </trkpt>
      <trkpt lat="45.95814" lon="4.56182">
        <ele>452</ele>
        <time>2016-09-29T11:41:02Z</time>
      </trkpt>
      <trkpt lat="45.95806" lon="4.56184">
        <ele>451</ele>
        <time>2016-09-29T11:41:10Z</time>
      </trkpt>
      <trkpt lat="45.95805" lon="4.56185">
        <ele>450</ele>
        <time>2016-09-29T11:41:11Z</time>
      </trkpt>
      <trkpt lat="45.95796" lon="4.56188">
        <ele>450</ele>
        <time>2016-09-29T11:41:18Z</time>
      </trkpt>
      <trkpt lat="45.95796" lon="4.56188">
        <ele>450</ele>
        <time>2016-09-29T11:41:19Z</time>
      </trkpt>
      <trkpt lat="45.95788" lon="4.5619">
        <ele>449</ele>
        <time>2016-09-29T11:41:24Z</time>
      </trkpt>
      <trkpt lat="45.95787" lon="4.5619">
        <ele>449</ele>
        <time>2016-09-29T11:41:25Z</time>
      </trkpt>
      <trkpt lat="45.95779" lon="4.56192">
        <ele>449</ele>
        <time>2016-09-29T11:41:30Z</time>
      </trkpt>
      <trkpt lat="45.95777" lon="4.56193">
        <ele>449</ele>
        <time>2016-09-29T11:41:31Z</time>
      </trkpt>
      <trkpt lat="45.9577" lon="4.562">
        <ele>449</ele>
        <time>2016-09-29T11:41:38Z</time>
      </trkpt>
      <trkpt lat="45.9577" lon="4.56201">
        <ele>449</ele>
        <time>2016-09-29T11:41:39Z</time>
      </trkpt>
      <trkpt lat="45.95761" lon="4.56203">
        <ele>448</ele>
        <time>2016-09-29T11:41:47Z</time>
      </trkpt>
      <trkpt lat="45.95761" lon="4.56203">
        <ele>448</ele>
        <time>2016-09-29T11:41:48Z</time>
      </trkpt>
      <trkpt lat="45.95752" lon="4.56202">
        <ele>449</ele>
        <time>2016-09-29T11:42:24Z</time>
      </trkpt>
      <trkpt lat="45.95751" lon="4.56203">
        <ele>448</ele>
        <time>2016-09-29T11:42:25Z</time>
      </trkpt>
      <trkpt lat="45.95742" lon="4.56203">
        <ele>447</ele>
        <time>2016-09-29T11:42:31Z</time>
      </trkpt>
      <trkpt lat="45.95741" lon="4.56203">
        <ele>447</ele>
        <time>2016-09-29T11:42:32Z</time>
      </trkpt>
      <trkpt lat="45.95733" lon="4.56202">
        <ele>447</ele>
        <time>2016-09-29T11:42:38Z</time>
      </trkpt>
      <trkpt lat="45.95731" lon="4.56202">
        <ele>447</ele>
        <time>2016-09-29T11:42:39Z</time>
      </trkpt>
      <trkpt lat="45.95723" lon="4.562">
        <ele>447</ele>
        <time>2016-09-29T11:42:46Z</time>
      </trkpt>
      <trkpt lat="45.95722" lon="4.562">
        <ele>447</ele>
        <time>2016-09-29T11:42:47Z</time>
      </trkpt>
      <trkpt lat="45.95713" lon="4.56198">
        <ele>446</ele>
        <time>2016-09-29T11:42:54Z</time>
      </trkpt>
      <trkpt lat="45.95712" lon="4.56198">
        <ele>446</ele>
        <time>2016-09-29T11:42:55Z</time>
      </trkpt>
      <trkpt lat="45.95704" lon="4.56201">
        <ele>446</ele>
        <time>2016-09-29T11:43:03Z</time>
      </trkpt>
      <trkpt lat="45.95703" lon="4.56202">
        <ele>446</ele>
        <time>2016-09-29T11:43:04Z</time>
      </trkpt>
      <trkpt lat="45.95695" lon="4.56205">
        <ele>446</ele>
        <time>2016-09-29T11:43:10Z</time>
      </trkpt>
      <trkpt lat="45.95694" lon="4.56206">
        <ele>445</ele>
        <time>2016-09-29T11:43:11Z</time>
      </trkpt>
      <trkpt lat="45.95687" lon="4.56212">
        <ele>445</ele>
        <time>2016-09-29T11:43:17Z</time>
      </trkpt>
      <trkpt lat="45.95686" lon="4.56213">
        <ele>445</ele>
        <time>2016-09-29T11:43:18Z</time>
      </trkpt>
      <trkpt lat="45.95678" lon="4.56219">
        <ele>445</ele>
        <time>2016-09-29T11:43:24Z</time>
      </trkpt>
      <trkpt lat="45.95677" lon="4.5622">
        <ele>445</ele>
        <time>2016-09-29T11:43:25Z</time>
      </trkpt>
      <trkpt lat="45.95669" lon="4.56224">
        <ele>444</ele>
        <time>2016-09-29T11:43:31Z</time>
      </trkpt>
      <trkpt lat="45.95668" lon="4.56224">
        <ele>444</ele>
        <time>2016-09-29T11:43:32Z</time>
      </trkpt>
      <trkpt lat="45.95661" lon="4.56232">
        <ele>440</ele>
        <time>2016-09-29T11:43:39Z</time>
      </trkpt>
      <trkpt lat="45.9566" lon="4.56234">
        <ele>440</ele>
        <time>2016-09-29T11:43:40Z</time>
      </trkpt>
      <trkpt lat="45.95654" lon="4.56241">
        <ele>440</ele>
        <time>2016-09-29T11:43:46Z</time>
      </trkpt>
      <trkpt lat="45.95653" lon="4.56242">
        <ele>440</ele>
        <time>2016-09-29T11:43:47Z</time>
      </trkpt>
      <trkpt lat="45.95647" lon="4.56251">
        <ele>437</ele>
        <time>2016-09-29T11:43:54Z</time>
      </trkpt>
      <trkpt lat="45.95646" lon="4.56252">
        <ele>437</ele>
        <time>2016-09-29T11:43:55Z</time>
      </trkpt>
      <trkpt lat="45.95641" lon="4.5626">
        <ele>436</ele>
        <time>2016-09-29T11:44:09Z</time>
      </trkpt>
      <trkpt lat="45.9564" lon="4.56261">
        <ele>435</ele>
        <time>2016-09-29T11:44:10Z</time>
      </trkpt>
      <trkpt lat="45.95634" lon="4.56269">
        <ele>434</ele>
        <time>2016-09-29T11:44:16Z</time>
      </trkpt>
      <trkpt lat="45.95633" lon="4.5627">
        <ele>434</ele>
        <time>2016-09-29T11:44:17Z</time>
      </trkpt>
      <trkpt lat="45.95627" lon="4.5628">
        <ele>433</ele>
        <time>2016-09-29T11:44:23Z</time>
      </trkpt>
      <trkpt lat="45.95626" lon="4.56282">
        <ele>433</ele>
        <time>2016-09-29T11:44:24Z</time>
      </trkpt>
      <trkpt lat="45.9562" lon="4.56291">
        <ele>432</ele>
        <time>2016-09-29T11:44:30Z</time>
      </trkpt>
      <trkpt lat="45.95619" lon="4.56293">
        <ele>432</ele>
        <time>2016-09-29T11:44:31Z</time>
      </trkpt>
      <trkpt lat="45.95613" lon="4.563">
        <ele>431</ele>
        <time>2016-09-29T11:44:36Z</time>
      </trkpt>
      <trkpt lat="45.95612" lon="4.56302">
        <ele>431</ele>
        <time>2016-09-29T11:44:37Z</time>
      </trkpt>
      <trkpt lat="45.95606" lon="4.56311">
        <ele>431</ele>
        <time>2016-09-29T11:44:44Z</time>
      </trkpt>
      <trkpt lat="45.95606" lon="4.56313">
        <ele>430</ele>
        <time>2016-09-29T11:44:45Z</time>
      </trkpt>
      <trkpt lat="45.95603" lon="4.56324">
        <ele>430</ele>
        <time>2016-09-29T11:44:53Z</time>
      </trkpt>
      <trkpt lat="45.95602" lon="4.56326">
        <ele>430</ele>
        <time>2016-09-29T11:44:54Z</time>
      </trkpt>
      <trkpt lat="45.95595" lon="4.56335">
        <ele>424</ele>
        <time>2016-09-29T11:45:33Z</time>
      </trkpt>
      <trkpt lat="45.95595" lon="4.56336">
        <ele>424</ele>
        <time>2016-09-29T11:45:34Z</time>
      </trkpt>
      <trkpt lat="45.9559" lon="4.56346">
        <ele>423</ele>
        <time>2016-09-29T11:45:42Z</time>
      </trkpt>
      <trkpt lat="45.95589" lon="4.56348">
        <ele>423</ele>
        <time>2016-09-29T11:45:43Z</time>
      </trkpt>
      <trkpt lat="45.95584" lon="4.56357">
        <ele>422</ele>
        <time>2016-09-29T11:45:51Z</time>
      </trkpt>
      <trkpt lat="45.95584" lon="4.56358">
        <ele>422</ele>
        <time>2016-09-29T11:45:52Z</time>
      </trkpt>
      <trkpt lat="45.9558" lon="4.56369">
        <ele>416</ele>
        <time>2016-09-29T11:46:01Z</time>
      </trkpt>
      <trkpt lat="45.9558" lon="4.56371">
        <ele>416</ele>
        <time>2016-09-29T11:46:02Z</time>
      </trkpt>
      <trkpt lat="45.9558" lon="4.56382">
        <ele>414</ele>
        <time>2016-09-29T11:46:09Z</time>
      </trkpt>
      <trkpt lat="45.9558" lon="4.56384">
        <ele>414</ele>
        <time>2016-09-29T11:46:10Z</time>
      </trkpt>
      <trkpt lat="45.95576" lon="4.56395">
        <ele>413</ele>
        <time>2016-09-29T11:46:18Z</time>
      </trkpt>
      <trkpt lat="45.95576" lon="4.56396">
        <ele>413</ele>
        <time>2016-09-29T11:46:19Z</time>
      </trkpt>
      <trkpt lat="45.9557" lon="4.56406">
        <ele>413</ele>
        <time>2016-09-29T11:46:29Z</time>
      </trkpt>
      <trkpt lat="45.9557" lon="4.56407">
        <ele>413</ele>
        <time>2016-09-29T11:46:30Z</time>
      </trkpt>
      <trkpt lat="45.95565" lon="4.56417">
        <ele>407</ele>
        <time>2016-09-29T11:46:38Z</time>
      </trkpt>
      <trkpt lat="45.95564" lon="4.56418">
        <ele>407</ele>
        <time>2016-09-29T11:46:39Z</time>
      </trkpt>
      <trkpt lat="45.95557" lon="4.56426">
        <ele>405</ele>
        <time>2016-09-29T11:46:48Z</time>
      </trkpt>
      <trkpt lat="45.95556" lon="4.56427">
        <ele>405</ele>
        <time>2016-09-29T11:46:49Z</time>
      </trkpt>
      <trkpt lat="45.95552" lon="4.56437">
        <ele>403</ele>
        <time>2016-09-29T11:46:57Z</time>
      </trkpt>
      <trkpt lat="45.95551" lon="4.56438">
        <ele>403</ele>
        <time>2016-09-29T11:46:58Z</time>
      </trkpt>
      <trkpt lat="45.95546" lon="4.56448">
        <ele>402</ele>
        <time>2016-09-29T11:47:06Z</time>
      </trkpt>
      <trkpt lat="45.95546" lon="4.56449">
        <ele>402</ele>
        <time>2016-09-29T11:47:07Z</time>
      </trkpt>
      <trkpt lat="45.9554" lon="4.56458">
        <ele>401</ele>
        <time>2016-09-29T11:47:15Z</time>
      </trkpt>
      <trkpt lat="45.9554" lon="4.56459">
        <ele>401</ele>
        <time>2016-09-29T11:47:16Z</time>
      </trkpt>
      <trkpt lat="45.95537" lon="4.56471">
        <ele>400</ele>
        <time>2016-09-29T11:47:25Z</time>
      </trkpt>
      <trkpt lat="45.95536" lon="4.56472">
        <ele>400</ele>
        <time>2016-09-29T11:47:26Z</time>
      </trkpt>
      <trkpt lat="45.95533" lon="4.56484">
        <ele>399</ele>
        <time>2016-09-29T11:47:36Z</time>
      </trkpt>
      <trkpt lat="45.95533" lon="4.56485">
        <ele>399</ele>
        <time>2016-09-29T11:47:37Z</time>
      </trkpt>
      <trkpt lat="45.95527" lon="4.56494">
        <ele>399</ele>
        <time>2016-09-29T11:47:45Z</time>
      </trkpt>
      <trkpt lat="45.95526" lon="4.56495">
        <ele>399</ele>
        <time>2016-09-29T11:47:46Z</time>
      </trkpt>
      <trkpt lat="45.95521" lon="4.56504">
        <ele>393</ele>
        <time>2016-09-29T11:47:53Z</time>
      </trkpt>
      <trkpt lat="45.9552" lon="4.56505">
        <ele>393</ele>
        <time>2016-09-29T11:47:54Z</time>
      </trkpt>
      <trkpt lat="45.95513" lon="4.56512">
        <ele>393</ele>
        <time>2016-09-29T11:48:00Z</time>
      </trkpt>
      <trkpt lat="45.95512" lon="4.56513">
        <ele>393</ele>
        <time>2016-09-29T11:48:01Z</time>
      </trkpt>
      <trkpt lat="45.95504" lon="4.56518">
        <ele>393</ele>
        <time>2016-09-29T11:48:08Z</time>
      </trkpt>
      <trkpt lat="45.95503" lon="4.56519">
        <ele>392</ele>
        <time>2016-09-29T11:48:09Z</time>
      </trkpt>
      <trkpt lat="45.95498" lon="4.56527">
        <ele>388</ele>
        <time>2016-09-29T11:48:15Z</time>
      </trkpt>
      <trkpt lat="45.95497" lon="4.56528">
        <ele>388</ele>
        <time>2016-09-29T11:48:16Z</time>
      </trkpt>
      <trkpt lat="45.95489" lon="4.56533">
        <ele>387</ele>
        <time>2016-09-29T11:48:23Z</time>
      </trkpt>
      <trkpt lat="45.95488" lon="4.56534">
        <ele>387</ele>
        <time>2016-09-29T11:48:24Z</time>
      </trkpt>
      <trkpt lat="45.9548" lon="4.56536">
        <ele>387</ele>
        <time>2016-09-29T11:48:31Z</time>
      </trkpt>
      <trkpt lat="45.95479" lon="4.56536">
        <ele>387</ele>
        <time>2016-09-29T11:48:32Z</time>
      </trkpt>
      <trkpt lat="45.9547" lon="4.56536">
        <ele>386</ele>
        <time>2016-09-29T11:48:41Z</time>
      </trkpt>
      <trkpt lat="45.95469" lon="4.56536">
        <ele>386</ele>
        <time>2016-09-29T11:48:42Z</time>
      </trkpt>
      <trkpt lat="45.95462" lon="4.56538">
        <ele>385</ele>
        <time>2016-09-29T11:48:52Z</time>
      </trkpt>
      <trkpt lat="45.9546" lon="4.56539">
        <ele>385</ele>
        <time>2016-09-29T11:48:53Z</time>
      </trkpt>
      <trkpt lat="45.95451" lon="4.56541">
        <ele>385</ele>
        <time>2016-09-29T11:49:00Z</time>
      </trkpt>
      <trkpt lat="45.9545" lon="4.56541">
        <ele>385</ele>
        <time>2016-09-29T11:49:01Z</time>
      </trkpt>
      <trkpt lat="45.95442" lon="4.56542">
        <ele>384</ele>
        <time>2016-09-29T11:49:07Z</time>
      </trkpt>
      <trkpt lat="45.95441" lon="4.56542">
        <ele>384</ele>
        <time>2016-09-29T11:49:08Z</time>
      </trkpt>
      <trkpt lat="45.95432" lon="4.56543">
        <ele>384</ele>
        <time>2016-09-29T11:49:13Z</time>
      </trkpt>
      <trkpt lat="45.95431" lon="4.56544">
        <ele>383</ele>
        <time>2016-09-29T11:49:14Z</time>
      </trkpt>
      <trkpt lat="45.95423" lon="4.56548">
        <ele>383</ele>
        <time>2016-09-29T11:49:27Z</time>
      </trkpt>
      <trkpt lat="45.95422" lon="4.56548">
        <ele>383</ele>
        <time>2016-09-29T11:49:28Z</time>
      </trkpt>
      <trkpt lat="45.95414" lon="4.5655">
        <ele>376</ele>
        <time>2016-09-29T11:49:43Z</time>
      </trkpt>
      <trkpt lat="45.95413" lon="4.56551">
        <ele>376</ele>
        <time>2016-09-29T11:49:44Z</time>
      </trkpt>
      <trkpt lat="45.95405" lon="4.56555">
        <ele>376</ele>
        <time>2016-09-29T11:49:52Z</time>
      </trkpt>
      <trkpt lat="45.95404" lon="4.56556">
        <ele>376</ele>
        <time>2016-09-29T11:49:53Z</time>
      </trkpt>
      <trkpt lat="45.95396" lon="4.5656">
        <ele>376</ele>
        <time>2016-09-29T11:50:00Z</time>
      </trkpt>
      <trkpt lat="45.95395" lon="4.56561">
        <ele>376</ele>
        <time>2016-09-29T11:50:01Z</time>
      </trkpt>
      <trkpt lat="45.95388" lon="4.56564">
        <ele>375</ele>
        <time>2016-09-29T11:50:08Z</time>
      </trkpt>
      <trkpt lat="45.95387" lon="4.56565">
        <ele>375</ele>
        <time>2016-09-29T11:50:09Z</time>
      </trkpt>
      <trkpt lat="45.95379" lon="4.56568">
        <ele>374</ele>
        <time>2016-09-29T11:50:17Z</time>
      </trkpt>
      <trkpt lat="45.95378" lon="4.56569">
        <ele>374</ele>
        <time>2016-09-29T11:50:18Z</time>
      </trkpt>
      <trkpt lat="45.95369" lon="4.56571">
        <ele>374</ele>
        <time>2016-09-29T11:50:27Z</time>
      </trkpt>
      <trkpt lat="45.95368" lon="4.56571">
        <ele>374</ele>
        <time>2016-09-29T11:50:28Z</time>
      </trkpt>
      <trkpt lat="45.9536" lon="4.56569">
        <ele>373</ele>
        <time>2016-09-29T11:50:37Z</time>
      </trkpt>
      <trkpt lat="45.95359" lon="4.56569">
        <ele>373</ele>
        <time>2016-09-29T11:50:38Z</time>
      </trkpt>
      <trkpt lat="45.9535" lon="4.56571">
        <ele>372</ele>
        <time>2016-09-29T11:50:45Z</time>
      </trkpt>
      <trkpt lat="45.95349" lon="4.56571">
        <ele>372</ele>
        <time>2016-09-29T11:50:46Z</time>
      </trkpt>
      <trkpt lat="45.95341" lon="4.56575">
        <ele>371</ele>
        <time>2016-09-29T11:50:52Z</time>
      </trkpt>
      <trkpt lat="45.9534" lon="4.56576">
        <ele>371</ele>
        <time>2016-09-29T11:50:53Z</time>
      </trkpt>
      <trkpt lat="45.95332" lon="4.56578">
        <ele>368</ele>
        <time>2016-09-29T11:51:05Z</time>
      </trkpt>
      <trkpt lat="45.95331" lon="4.56578">
        <ele>368</ele>
        <time>2016-09-29T11:51:06Z</time>
      </trkpt>
      <trkpt lat="45.95323" lon="4.5658">
        <ele>367</ele>
        <time>2016-09-29T11:51:12Z</time>
      </trkpt>
      <trkpt lat="45.95322" lon="4.56581">
        <ele>366</ele>
        <time>2016-09-29T11:51:13Z</time>
      </trkpt>
      <trkpt lat="45.95313" lon="4.56581">
        <ele>365</ele>
        <time>2016-09-29T11:51:27Z</time>
      </trkpt>
      <trkpt lat="45.95312" lon="4.56581">
        <ele>365</ele>
        <time>2016-09-29T11:51:28Z</time>
      </trkpt>
      <trkpt lat="45.95305" lon="4.56573">
        <ele>364</ele>
        <time>2016-09-29T11:51:38Z</time>
      </trkpt>
      <trkpt lat="45.95304" lon="4.56572">
        <ele>364</ele>
        <time>2016-09-29T11:51:39Z</time>
      </trkpt>
      <trkpt lat="45.95301" lon="4.56561">
        <ele>363</ele>
        <time>2016-09-29T11:51:47Z</time>
      </trkpt>
      <trkpt lat="45.953" lon="4.56561">
        <ele>363</ele>
        <time>2016-09-29T11:51:48Z</time>
      </trkpt>
      <trkpt lat="45.95301" lon="4.56573">
        <ele>363</ele>
        <time>2016-09-29T11:52:42Z</time>
      </trkpt>
      <trkpt lat="45.95301" lon="4.56574">
        <ele>363</ele>
        <time>2016-09-29T11:52:43Z</time>
      </trkpt>
      <trkpt lat="45.953" lon="4.56586">
        <ele>361</ele>
        <time>2016-09-29T11:52:52Z</time>
      </trkpt>
      <trkpt lat="45.953" lon="4.56587">
        <ele>361</ele>
        <time>2016-09-29T11:52:53Z</time>
      </trkpt>
      <trkpt lat="45.95295" lon="4.56597">
        <ele>360</ele>
        <time>2016-09-29T11:53:02Z</time>
      </trkpt>
      <trkpt lat="45.95294" lon="4.56598">
        <ele>360</ele>
        <time>2016-09-29T11:53:03Z</time>
      </trkpt>
      <trkpt lat="45.9529" lon="4.56609">
        <ele>359</ele>
        <time>2016-09-29T11:53:12Z</time>
      </trkpt>
      <trkpt lat="45.95289" lon="4.5661">
        <ele>359</ele>
        <time>2016-09-29T11:53:13Z</time>
      </trkpt>
      <trkpt lat="45.95285" lon="4.56619">
        <ele>359</ele>
        <time>2016-09-29T11:53:23Z</time>
      </trkpt>
      <trkpt lat="45.95285" lon="4.56621">
        <ele>359</ele>
        <time>2016-09-29T11:53:24Z</time>
      </trkpt>
      <trkpt lat="45.95283" lon="4.56632">
        <ele>358</ele>
        <time>2016-09-29T11:53:32Z</time>
      </trkpt>
      <trkpt lat="45.95284" lon="4.56634">
        <ele>358</ele>
        <time>2016-09-29T11:53:33Z</time>
      </trkpt>
      <trkpt lat="45.95284" lon="4.56646">
        <ele>358</ele>
        <time>2016-09-29T11:53:45Z</time>
      </trkpt>
      <trkpt lat="45.95284" lon="4.56647">
        <ele>358</ele>
        <time>2016-09-29T11:53:46Z</time>
      </trkpt>
      <trkpt lat="45.95282" lon="4.56659">
        <ele>357</ele>
        <time>2016-09-29T11:53:55Z</time>
      </trkpt>
      <trkpt lat="45.95282" lon="4.56661">
        <ele>357</ele>
        <time>2016-09-29T11:53:56Z</time>
      </trkpt>
      <trkpt lat="45.95284" lon="4.56672">
        <ele>355</ele>
        <time>2016-09-29T11:54:02Z</time>
      </trkpt>
      <trkpt lat="45.95284" lon="4.56674">
        <ele>355</ele>
        <time>2016-09-29T11:54:03Z</time>
      </trkpt>
      <trkpt lat="45.95288" lon="4.56685">
        <ele>356</ele>
        <time>2016-09-29T11:54:08Z</time>
      </trkpt>
      <trkpt lat="45.95288" lon="4.56686">
        <ele>356</ele>
        <time>2016-09-29T11:54:09Z</time>
      </trkpt>
      <trkpt lat="45.95292" lon="4.56695">
        <ele>356</ele>
        <time>2016-09-29T11:54:14Z</time>
      </trkpt>
      <trkpt lat="45.95293" lon="4.56696">
        <ele>356</ele>
        <time>2016-09-29T11:54:15Z</time>
      </trkpt>
      <trkpt lat="45.95299" lon="4.56703">
        <ele>356</ele>
        <time>2016-09-29T11:54:20Z</time>
      </trkpt>
      <trkpt lat="45.953" lon="4.56704">
        <ele>356</ele>
        <time>2016-09-29T11:54:21Z</time>
      </trkpt>
      <trkpt lat="45.95307" lon="4.56709">
        <ele>356</ele>
        <time>2016-09-29T11:54:26Z</time>
      </trkpt>
      <trkpt lat="45.95309" lon="4.5671">
        <ele>356</ele>
        <time>2016-09-29T11:54:27Z</time>
      </trkpt>
      <trkpt lat="45.95318" lon="4.56712">
        <ele>357</ele>
        <time>2016-09-29T11:54:34Z</time>
      </trkpt>
      <trkpt lat="45.95319" lon="4.56713">
        <ele>357</ele>
        <time>2016-09-29T11:54:35Z</time>
      </trkpt>
      <trkpt lat="45.95319" lon="4.56725">
        <ele>356</ele>
        <time>2016-09-29T11:54:45Z</time>
      </trkpt>
      <trkpt lat="45.95319" lon="4.56727">
        <ele>356</ele>
        <time>2016-09-29T11:54:46Z</time>
      </trkpt>
      <trkpt lat="45.9532" lon="4.56739">
        <ele>356</ele>
        <time>2016-09-29T11:54:52Z</time>
      </trkpt>
      <trkpt lat="45.9532" lon="4.56741">
        <ele>356</ele>
        <time>2016-09-29T11:54:53Z</time>
      </trkpt>
      <trkpt lat="45.9532" lon="4.56754">
        <ele>356</ele>
        <time>2016-09-29T11:55:34Z</time>
      </trkpt>
      <trkpt lat="45.9532" lon="4.56754">
        <ele>356</ele>
        <time>2016-09-29T11:55:35Z</time>
      </trkpt>
      <trkpt lat="45.95321" lon="4.56766">
        <ele>356</ele>
        <time>2016-09-29T11:55:45Z</time>
      </trkpt>
      <trkpt lat="45.95321" lon="4.56768">
        <ele>356</ele>
        <time>2016-09-29T11:55:46Z</time>
      </trkpt>
      <trkpt lat="45.95325" lon="4.56779">
        <ele>355</ele>
        <time>2016-09-29T11:55:52Z</time>
      </trkpt>
      <trkpt lat="45.95325" lon="4.5678">
        <ele>355</ele>
        <time>2016-09-29T11:55:53Z</time>
      </trkpt>
      <trkpt lat="45.95331" lon="4.5679">
        <ele>355</ele>
        <time>2016-09-29T11:56:00Z</time>
      </trkpt>
      <trkpt lat="45.95332" lon="4.56791">
        <ele>355</ele>
        <time>2016-09-29T11:56:01Z</time>
      </trkpt>
      <trkpt lat="45.95337" lon="4.568">
        <ele>360</ele>
        <time>2016-09-29T11:56:09Z</time>
      </trkpt>
      <trkpt lat="45.95338" lon="4.56801">
        <ele>360</ele>
        <time>2016-09-29T11:56:10Z</time>
      </trkpt>
      <trkpt lat="45.95343" lon="4.5681">
        <ele>359</ele>
        <time>2016-09-29T11:56:16Z</time>
      </trkpt>
      <trkpt lat="45.95343" lon="4.56811">
        <ele>359</ele>
        <time>2016-09-29T11:56:17Z</time>
      </trkpt>
      <trkpt lat="45.95347" lon="4.56821">
        <ele>359</ele>
        <time>2016-09-29T11:56:25Z</time>
      </trkpt>
      <trkpt lat="45.95347" lon="4.56823">
        <ele>359</ele>
        <time>2016-09-29T11:56:26Z</time>
      </trkpt>
      <trkpt lat="45.95351" lon="4.56833">
        <ele>359</ele>
        <time>2016-09-29T11:56:33Z</time>
      </trkpt>
      <trkpt lat="45.95351" lon="4.56835">
        <ele>359</ele>
        <time>2016-09-29T11:56:34Z</time>
      </trkpt>
      <trkpt lat="45.95354" lon="4.56845">
        <ele>359</ele>
        <time>2016-09-29T11:56:40Z</time>
      </trkpt>
      <trkpt lat="45.95354" lon="4.56847">
        <ele>359</ele>
        <time>2016-09-29T11:56:41Z</time>
      </trkpt>
      <trkpt lat="45.95354" lon="4.56859">
        <ele>360</ele>
        <time>2016-09-29T11:56:50Z</time>
      </trkpt>
      <trkpt lat="45.95355" lon="4.5686">
        <ele>360</ele>
        <time>2016-09-29T11:56:51Z</time>
      </trkpt>
      <trkpt lat="45.95362" lon="4.56867">
        <ele>360</ele>
        <time>2016-09-29T11:56:58Z</time>
      </trkpt>
      <trkpt lat="45.95362" lon="4.56868">
        <ele>360</ele>
        <time>2016-09-29T11:56:59Z</time>
      </trkpt>
      <trkpt lat="45.9536" lon="4.56855">
        <ele>360</ele>
        <time>2016-09-29T11:58:26Z</time>
      </trkpt>
      <trkpt lat="45.9536" lon="4.56854">
        <ele>360</ele>
        <time>2016-09-29T11:58:27Z</time>
      </trkpt>
      <trkpt lat="45.9536" lon="4.56842">
        <ele>360</ele>
        <time>2016-09-29T11:58:44Z</time>
      </trkpt>
      <trkpt lat="45.95359" lon="4.56841">
        <ele>360</ele>
        <time>2016-09-29T11:58:45Z</time>
      </trkpt>
      <trkpt lat="45.95355" lon="4.56831">
        <ele>360</ele>
        <time>2016-09-29T11:58:58Z</time>
      </trkpt>
      <trkpt lat="45.95354" lon="4.5683">
        <ele>359</ele>
        <time>2016-09-29T11:58:59Z</time>
      </trkpt>
      <trkpt lat="45.95351" lon="4.56818">
        <ele>360</ele>
        <time>2016-09-29T11:59:08Z</time>
      </trkpt>
      <trkpt lat="45.9535" lon="4.56817">
        <ele>360</ele>
        <time>2016-09-29T11:59:09Z</time>
      </trkpt>
      <trkpt lat="45.95345" lon="4.56808">
        <ele>360</ele>
        <time>2016-09-29T11:59:16Z</time>
      </trkpt>
      <trkpt lat="45.95344" lon="4.56807">
        <ele>360</ele>
        <time>2016-09-29T11:59:17Z</time>
      </trkpt>
      <trkpt lat="45.95337" lon="4.56801">
        <ele>360</ele>
        <time>2016-09-29T11:59:26Z</time>
      </trkpt>
      <trkpt lat="45.95336" lon="4.568">
        <ele>360</ele>
        <time>2016-09-29T11:59:27Z</time>
      </trkpt>
      <trkpt lat="45.95332" lon="4.56789">
        <ele>355</ele>
        <time>2016-09-29T11:59:34Z</time>
      </trkpt>
      <trkpt lat="45.95332" lon="4.56787">
        <ele>355</ele>
        <time>2016-09-29T11:59:35Z</time>
      </trkpt>
      <trkpt lat="45.95327" lon="4.56777">
        <ele>356</ele>
        <time>2016-09-29T11:59:43Z</time>
      </trkpt>
      <trkpt lat="45.95327" lon="4.56775">
        <ele>356</ele>
        <time>2016-09-29T11:59:44Z</time>
      </trkpt>
      <trkpt lat="45.95321" lon="4.56765">
        <ele>356</ele>
        <time>2016-09-29T12:00:04Z</time>
      </trkpt>
      <trkpt lat="45.95321" lon="4.56765">
        <ele>356</ele>
        <time>2016-09-29T12:00:05Z</time>
      </trkpt>
      <trkpt lat="45.95313" lon="4.56768">
        <ele>355</ele>
        <time>2016-09-29T12:00:22Z</time>
      </trkpt>
      <trkpt lat="45.95312" lon="4.56769">
        <ele>355</ele>
        <time>2016-09-29T12:00:23Z</time>
      </trkpt>
      <trkpt lat="45.95306" lon="4.56778">
        <ele>355</ele>
        <time>2016-09-29T12:00:32Z</time>
      </trkpt>
      <trkpt lat="45.95305" lon="4.56778">
        <ele>355</ele>
        <time>2016-09-29T12:00:33Z</time>
      </trkpt>
      <trkpt lat="45.95297" lon="4.56785">
        <ele>355</ele>
        <time>2016-09-29T12:00:43Z</time>
      </trkpt>
      <trkpt lat="45.95296" lon="4.56785">
        <ele>355</ele>
        <time>2016-09-29T12:00:44Z</time>
      </trkpt>
      <trkpt lat="45.9529" lon="4.56793">
        <ele>355</ele>
        <time>2016-09-29T12:00:51Z</time>
      </trkpt>
      <trkpt lat="45.9529" lon="4.56794">
        <ele>355</ele>
        <time>2016-09-29T12:00:52Z</time>
      </trkpt>
      <trkpt lat="45.95283" lon="4.56803">
        <ele>355</ele>
        <time>2016-09-29T12:02:47Z</time>
      </trkpt>
      <trkpt lat="45.95283" lon="4.56803">
        <ele>355</ele>
        <time>2016-09-29T12:02:48Z</time>
      </trkpt>
      <trkpt lat="45.9528" lon="4.56815">
        <ele>356</ele>
        <time>2016-09-29T12:03:40Z</time>
      </trkpt>
      <trkpt lat="45.95279" lon="4.56816">
        <ele>356</ele>
        <time>2016-09-29T12:03:41Z</time>
      </trkpt>
      <trkpt lat="45.95276" lon="4.56827">
        <ele>356</ele>
        <time>2016-09-29T12:03:54Z</time>
      </trkpt>
      <trkpt lat="45.95276" lon="4.56828">
        <ele>356</ele>
        <time>2016-09-29T12:03:55Z</time>
      </trkpt>
      <trkpt lat="45.95274" lon="4.5684">
        <ele>358</ele>
        <time>2016-09-29T12:04:07Z</time>
      </trkpt>
      <trkpt lat="45.95274" lon="4.56841">
        <ele>358</ele>
        <time>2016-09-29T12:04:08Z</time>
      </trkpt>
      <trkpt lat="45.95269" lon="4.56851">
        <ele>358</ele>
        <time>2016-09-29T12:04:18Z</time>
      </trkpt>
      <trkpt lat="45.95268" lon="4.56852">
        <ele>358</ele>
        <time>2016-09-29T12:04:19Z</time>
      </trkpt>
      <trkpt lat="45.9527" lon="4.56863">
        <ele>358</ele>
        <time>2016-09-29T12:04:29Z</time>
      </trkpt>
      <trkpt lat="45.9527" lon="4.56865">
        <ele>358</ele>
        <time>2016-09-29T12:04:30Z</time>
      </trkpt>
      <trkpt lat="45.95267" lon="4.56876">
        <ele>359</ele>
        <time>2016-09-29T12:04:39Z</time>
      </trkpt>
      <trkpt lat="45.95267" lon="4.56878">
        <ele>359</ele>
        <time>2016-09-29T12:04:40Z</time>
      </trkpt>
      <trkpt lat="45.9527" lon="4.56889">
        <ele>359</ele>
        <time>2016-09-29T12:04:50Z</time>
      </trkpt>
      <trkpt lat="45.95271" lon="4.5689">
        <ele>359</ele>
        <time>2016-09-29T12:04:51Z</time>
      </trkpt>
      <trkpt lat="45.95273" lon="4.56902">
        <ele>360</ele>
        <time>2016-09-29T12:05:01Z</time>
      </trkpt>
      <trkpt lat="45.95274" lon="4.56903">
        <ele>360</ele>
        <time>2016-09-29T12:05:02Z</time>
      </trkpt>
      <trkpt lat="45.95277" lon="4.56915">
        <ele>360</ele>
        <time>2016-09-29T12:05:12Z</time>
      </trkpt>
      <trkpt lat="45.95277" lon="4.56916">
        <ele>360</ele>
        <time>2016-09-29T12:05:13Z</time>
      </trkpt>
      <trkpt lat="45.95277" lon="4.56928">
        <ele>361</ele>
        <time>2016-09-29T12:05:22Z</time>
      </trkpt>
      <trkpt lat="45.95277" lon="4.56929">
        <ele>361</ele>
        <time>2016-09-29T12:05:23Z</time>
      </trkpt>
      <trkpt lat="45.95272" lon="4.56939">
        <ele>361</ele>
        <time>2016-09-29T12:05:30Z</time>
      </trkpt>
      <trkpt lat="45.95271" lon="4.5694">
        <ele>361</ele>
        <time>2016-09-29T12:05:31Z</time>
      </trkpt>
      <trkpt lat="45.95267" lon="4.56951">
        <ele>362</ele>
        <time>2016-09-29T12:05:39Z</time>
      </trkpt>
      <trkpt lat="45.95266" lon="4.56953">
        <ele>362</ele>
        <time>2016-09-29T12:05:40Z</time>
      </trkpt>
      <trkpt lat="45.95262" lon="4.56963">
        <ele>362</ele>
        <time>2016-09-29T12:05:48Z</time>
      </trkpt>
      <trkpt lat="45.95262" lon="4.56964">
        <ele>362</ele>
        <time>2016-09-29T12:05:49Z</time>
      </trkpt>
      <trkpt lat="45.9526" lon="4.56977">
        <ele>363</ele>
        <time>2016-09-29T12:05:58Z</time>
      </trkpt>
      <trkpt lat="45.9526" lon="4.56978">
        <ele>364</ele>
        <time>2016-09-29T12:05:59Z</time>
      </trkpt>
      <trkpt lat="45.95258" lon="4.56991">
        <ele>366</ele>
        <time>2016-09-29T12:06:07Z</time>
      </trkpt>
      <trkpt lat="45.95258" lon="4.56992">
        <ele>366</ele>
        <time>2016-09-29T12:06:08Z</time>
      </trkpt>
      <trkpt lat="45.95256" lon="4.57004">
        <ele>368</ele>
        <time>2016-09-29T12:06:17Z</time>
      </trkpt>
      <trkpt lat="45.95256" lon="4.57006">
        <ele>368</ele>
        <time>2016-09-29T12:06:18Z</time>
      </trkpt>
      <trkpt lat="45.95255" lon="4.57017">
        <ele>367</ele>
        <time>2016-09-29T12:06:25Z</time>
      </trkpt>
      <trkpt lat="45.95255" lon="4.57019">
        <ele>367</ele>
        <time>2016-09-29T12:06:26Z</time>
      </trkpt>
      <trkpt lat="45.95259" lon="4.57029">
        <ele>367</ele>
        <time>2016-09-29T12:06:33Z</time>
      </trkpt>
      <trkpt lat="45.95259" lon="4.57031">
        <ele>367</ele>
        <time>2016-09-29T12:06:34Z</time>
      </trkpt>
      <trkpt lat="45.95259" lon="4.57043">
        <ele>367</ele>
        <time>2016-09-29T12:06:41Z</time>
      </trkpt>
      <trkpt lat="45.95259" lon="4.57045">
        <ele>367</ele>
        <time>2016-09-29T12:06:42Z</time>
      </trkpt>
      <trkpt lat="45.95262" lon="4.57056">
        <ele>368</ele>
        <time>2016-09-29T12:06:51Z</time>
      </trkpt>
      <trkpt lat="45.95263" lon="4.57057">
        <ele>368</ele>
        <time>2016-09-29T12:06:52Z</time>
      </trkpt>
      <trkpt lat="45.95268" lon="4.57066">
        <ele>368</ele>
        <time>2016-09-29T12:06:59Z</time>
      </trkpt>
      <trkpt lat="45.95268" lon="4.57068">
        <ele>368</ele>
        <time>2016-09-29T12:07:00Z</time>
      </trkpt>
      <trkpt lat="45.95275" lon="4.57076">
        <ele>368</ele>
        <time>2016-09-29T12:07:09Z</time>
      </trkpt>
      <trkpt lat="45.95275" lon="4.57077">
        <ele>368</ele>
        <time>2016-09-29T12:07:10Z</time>
      </trkpt>
      <trkpt lat="45.95282" lon="4.57085">
        <ele>372</ele>
        <time>2016-09-29T12:07:51Z</time>
      </trkpt>
      <trkpt lat="45.95282" lon="4.57086">
        <ele>372</ele>
        <time>2016-09-29T12:07:52Z</time>
      </trkpt>
      <trkpt lat="45.95283" lon="4.57098">
        <ele>373</ele>
        <time>2016-09-29T12:08:01Z</time>
      </trkpt>
      <trkpt lat="45.95283" lon="4.57099">
        <ele>373</ele>
        <time>2016-09-29T12:08:02Z</time>
      </trkpt>
      <trkpt lat="45.95281" lon="4.57111">
        <ele>373</ele>
        <time>2016-09-29T12:08:18Z</time>
      </trkpt>
      <trkpt lat="45.95281" lon="4.57112">
        <ele>373</ele>
        <time>2016-09-29T12:08:19Z</time>
      </trkpt>
      <trkpt lat="45.95283" lon="4.57124">
        <ele>374</ele>
        <time>2016-09-29T12:08:33Z</time>
      </trkpt>
      <trkpt lat="45.95283" lon="4.57125">
        <ele>374</ele>
        <time>2016-09-29T12:08:34Z</time>
      </trkpt>
      <trkpt lat="45.95288" lon="4.57135">
        <ele>375</ele>
        <time>2016-09-29T12:08:48Z</time>
      </trkpt>
      <trkpt lat="45.95289" lon="4.57135">
        <ele>375</ele>
        <time>2016-09-29T12:08:49Z</time>
      </trkpt>
      <trkpt lat="45.95293" lon="4.57146">
        <ele>375</ele>
        <time>2016-09-29T12:09:03Z</time>
      </trkpt>
      <trkpt lat="45.95294" lon="4.57147">
        <ele>375</ele>
        <time>2016-09-29T12:09:04Z</time>
      </trkpt>
      <trkpt lat="45.95299" lon="4.57156">
        <ele>375</ele>
        <time>2016-09-29T12:09:15Z</time>
      </trkpt>
      <trkpt lat="45.953" lon="4.57157">
        <ele>375</ele>
        <time>2016-09-29T12:09:16Z</time>
      </trkpt>
      <trkpt lat="45.95305" lon="4.57166">
        <ele>375</ele>
        <time>2016-09-29T12:09:27Z</time>
      </trkpt>
      <trkpt lat="45.95305" lon="4.57167">
        <ele>384</ele>
        <time>2016-09-29T12:09:28Z</time>
      </trkpt>
      <trkpt lat="45.9531" lon="4.57177">
        <ele>383</ele>
        <time>2016-09-29T12:09:39Z</time>
      </trkpt>
      <trkpt lat="45.9531" lon="4.57178">
        <ele>384</ele>
        <time>2016-09-29T12:09:40Z</time>
      </trkpt>
      <trkpt lat="45.95313" lon="4.57189">
        <ele>385</ele>
        <time>2016-09-29T12:09:52Z</time>
      </trkpt>
      <trkpt lat="45.95313" lon="4.5719">
        <ele>385</ele>
        <time>2016-09-29T12:09:53Z</time>
      </trkpt>
      <trkpt lat="45.95315" lon="4.57203">
        <ele>386</ele>
        <time>2016-09-29T12:10:05Z</time>
      </trkpt>
      <trkpt lat="45.95315" lon="4.57204">
        <ele>386</ele>
        <time>2016-09-29T12:10:06Z</time>
      </trkpt>
      <trkpt lat="45.95316" lon="4.57216">
        <ele>388</ele>
        <time>2016-09-29T12:10:16Z</time>
      </trkpt>
      <trkpt lat="45.95316" lon="4.57217">
        <ele>388</ele>
        <time>2016-09-29T12:10:17Z</time>
      </trkpt>
      <trkpt lat="45.95314" lon="4.57228">
        <ele>389</ele>
        <time>2016-09-29T12:10:29Z</time>
      </trkpt>
      <trkpt lat="45.95314" lon="4.57229">
        <ele>389</ele>
        <time>2016-09-29T12:10:30Z</time>
      </trkpt>
      <trkpt lat="45.95312" lon="4.57241">
        <ele>390</ele>
        <time>2016-09-29T12:10:44Z</time>
      </trkpt>
      <trkpt lat="45.95313" lon="4.57242">
        <ele>390</ele>
        <time>2016-09-29T12:10:45Z</time>
      </trkpt>
      <trkpt lat="45.95314" lon="4.57255">
        <ele>398</ele>
        <time>2016-09-29T12:12:11Z</time>
      </trkpt>
      <trkpt lat="45.95314" lon="4.57256">
        <ele>398</ele>
        <time>2016-09-29T12:12:12Z</time>
      </trkpt>
      <trkpt lat="45.95312" lon="4.57268">
        <ele>400</ele>
        <time>2016-09-29T12:12:23Z</time>
      </trkpt>
      <trkpt lat="45.95312" lon="4.57269">
        <ele>400</ele>
        <time>2016-09-29T12:12:24Z</time>
      </trkpt>
      <trkpt lat="45.9531" lon="4.57281">
        <ele>401</ele>
        <time>2016-09-29T12:12:33Z</time>
      </trkpt>
      <trkpt lat="45.95309" lon="4.57282">
        <ele>402</ele>
        <time>2016-09-29T12:12:34Z</time>
      </trkpt>
      <trkpt lat="45.95304" lon="4.57291">
        <ele>403</ele>
        <time>2016-09-29T12:12:44Z</time>
      </trkpt>
      <trkpt lat="45.95304" lon="4.57292">
        <ele>403</ele>
        <time>2016-09-29T12:12:45Z</time>
      </trkpt>
      <trkpt lat="45.95299" lon="4.57303">
        <ele>405</ele>
        <time>2016-09-29T12:12:56Z</time>
      </trkpt>
      <trkpt lat="45.95298" lon="4.57304">
        <ele>405</ele>
        <time>2016-09-29T12:12:57Z</time>
      </trkpt>
      <trkpt lat="45.95293" lon="4.57314">
        <ele>406</ele>
        <time>2016-09-29T12:13:08Z</time>
      </trkpt>
      <trkpt lat="45.95292" lon="4.57315">
        <ele>406</ele>
        <time>2016-09-29T12:13:09Z</time>
      </trkpt>
      <trkpt lat="45.95288" lon="4.57326">
        <ele>407</ele>
        <time>2016-09-29T12:13:21Z</time>
      </trkpt>
      <trkpt lat="45.95288" lon="4.57326">
        <ele>407</ele>
        <time>2016-09-29T12:13:22Z</time>
      </trkpt>
      <trkpt lat="45.95283" lon="4.57336">
        <ele>415</ele>
        <time>2016-09-29T12:13:34Z</time>
      </trkpt>
      <trkpt lat="45.95282" lon="4.57336">
        <ele>415</ele>
        <time>2016-09-29T12:13:35Z</time>
      </trkpt>
      <trkpt lat="45.95275" lon="4.57344">
        <ele>416</ele>
        <time>2016-09-29T12:13:49Z</time>
      </trkpt>
      <trkpt lat="45.95274" lon="4.57345">
        <ele>416</ele>
        <time>2016-09-29T12:13:50Z</time>
      </trkpt>
      <trkpt lat="45.95267" lon="4.57352">
        <ele>417</ele>
        <time>2016-09-29T12:14:04Z</time>
      </trkpt>
      <trkpt lat="45.95267" lon="4.57352">
        <ele>417</ele>
        <time>2016-09-29T12:14:05Z</time>
      </trkpt>
      <trkpt lat="45.95261" lon="4.57361">
        <ele>417</ele>
        <time>2016-09-29T12:14:19Z</time>
      </trkpt>
      <trkpt lat="45.9526" lon="4.57362">
        <ele>417</ele>
        <time>2016-09-29T12:14:20Z</time>
      </trkpt>
      <trkpt lat="45.95258" lon="4.57374">
        <ele>417</ele>
        <time>2016-09-29T12:14:34Z</time>
      </trkpt>
      <trkpt lat="45.95258" lon="4.57375">
        <ele>418</ele>
        <time>2016-09-29T12:14:35Z</time>
      </trkpt>
      <trkpt lat="45.95254" lon="4.57386">
        <ele>419</ele>
        <time>2016-09-29T12:14:47Z</time>
      </trkpt>
      <trkpt lat="45.95254" lon="4.57386">
        <ele>419</ele>
        <time>2016-09-29T12:14:48Z</time>
      </trkpt>
      <trkpt lat="45.95247" lon="4.57393">
        <ele>429</ele>
        <time>2016-09-29T12:14:59Z</time>
      </trkpt>
      <trkpt lat="45.95246" lon="4.57393">
        <ele>429</ele>
        <time>2016-09-29T12:15:00Z</time>
      </trkpt>
      <trkpt lat="45.95239" lon="4.57401">
        <ele>429</ele>
        <time>2016-09-29T12:15:10Z</time>
      </trkpt>
      <trkpt lat="45.95239" lon="4.57402">
        <ele>429</ele>
        <time>2016-09-29T12:15:11Z</time>
      </trkpt>
      <trkpt lat="45.95233" lon="4.57411">
        <ele>429</ele>
        <time>2016-09-29T12:15:21Z</time>
      </trkpt>
      <trkpt lat="45.95232" lon="4.57412">
        <ele>430</ele>
        <time>2016-09-29T12:15:22Z</time>
      </trkpt>
      <trkpt lat="45.95226" lon="4.57421">
        <ele>435</ele>
        <time>2016-09-29T12:15:31Z</time>
      </trkpt>
      <trkpt lat="45.95225" lon="4.57421">
        <ele>435</ele>
        <time>2016-09-29T12:15:32Z</time>
      </trkpt>
      <trkpt lat="45.95219" lon="4.5743">
        <ele>437</ele>
        <time>2016-09-29T12:19:35Z</time>
      </trkpt>
      <trkpt lat="45.95219" lon="4.57431">
        <ele>437</ele>
        <time>2016-09-29T12:19:36Z</time>
      </trkpt>
      <trkpt lat="45.95223" lon="4.57442">
        <ele>437</ele>
        <time>2016-09-29T12:19:46Z</time>
      </trkpt>
      <trkpt lat="45.95223" lon="4.57442">
        <ele>437</ele>
        <time>2016-09-29T12:19:47Z</time>
      </trkpt>
      <trkpt lat="45.95229" lon="4.57451">
        <ele>437</ele>
        <time>2016-09-29T12:19:56Z</time>
      </trkpt>
      <trkpt lat="45.95229" lon="4.57452">
        <ele>437</ele>
        <time>2016-09-29T12:19:57Z</time>
      </trkpt>
      <trkpt lat="45.95235" lon="4.57461">
        <ele>436</ele>
        <time>2016-09-29T12:20:10Z</time>
      </trkpt>
      <trkpt lat="45.95235" lon="4.57462">
        <ele>436</ele>
        <time>2016-09-29T12:20:11Z</time>
      </trkpt>
      <trkpt lat="45.95242" lon="4.57471">
        <ele>436</ele>
        <time>2016-09-29T12:20:20Z</time>
      </trkpt>
      <trkpt lat="45.95242" lon="4.57472">
        <ele>436</ele>
        <time>2016-09-29T12:20:21Z</time>
      </trkpt>
      <trkpt lat="45.95248" lon="4.57481">
        <ele>435</ele>
        <time>2016-09-29T12:20:29Z</time>
      </trkpt>
      <trkpt lat="45.95248" lon="4.57482">
        <ele>434</ele>
        <time>2016-09-29T12:20:30Z</time>
      </trkpt>
      <trkpt lat="45.95249" lon="4.57495">
        <ele>432</ele>
        <time>2016-09-29T12:20:42Z</time>
      </trkpt>
      <trkpt lat="45.95249" lon="4.57495">
        <ele>432</ele>
        <time>2016-09-29T12:20:43Z</time>
      </trkpt>
      <trkpt lat="45.95255" lon="4.57505">
        <ele>428</ele>
        <time>2016-09-29T12:20:51Z</time>
      </trkpt>
      <trkpt lat="45.95255" lon="4.57507">
        <ele>427</ele>
        <time>2016-09-29T12:20:52Z</time>
      </trkpt>
      <trkpt lat="45.95255" lon="4.57519">
        <ele>425</ele>
        <time>2016-09-29T12:21:35Z</time>
      </trkpt>
      <trkpt lat="45.95255" lon="4.5752">
        <ele>425</ele>
        <time>2016-09-29T12:21:36Z</time>
      </trkpt>
      <trkpt lat="45.95256" lon="4.57532">
        <ele>424</ele>
        <time>2016-09-29T12:21:46Z</time>
      </trkpt>
      <trkpt lat="45.95255" lon="4.57533">
        <ele>424</ele>
        <time>2016-09-29T12:21:47Z</time>
      </trkpt>
      <trkpt lat="45.95248" lon="4.5754">
        <ele>437</ele>
        <time>2016-09-29T12:21:57Z</time>
      </trkpt>
      <trkpt lat="45.95248" lon="4.57541">
        <ele>437</ele>
        <time>2016-09-29T12:21:58Z</time>
      </trkpt>
      <trkpt lat="45.95241" lon="4.57549">
        <ele>438</ele>
        <time>2016-09-29T12:23:03Z</time>
      </trkpt>
      <trkpt lat="45.95241" lon="4.57549">
        <ele>438</ele>
        <time>2016-09-29T12:23:04Z</time>
      </trkpt>
      <trkpt lat="45.95237" lon="4.5756">
        <ele>437</ele>
        <time>2016-09-29T12:24:00Z</time>
      </trkpt>
      <trkpt lat="45.95237" lon="4.57561">
        <ele>437</ele>
        <time>2016-09-29T12:24:01Z</time>
      </trkpt>
      <trkpt lat="45.95233" lon="4.57572">
        <ele>437</ele>
        <time>2016-09-29T12:24:14Z</time>
      </trkpt>
      <trkpt lat="45.95233" lon="4.57573">
        <ele>437</ele>
        <time>2016-09-29T12:24:15Z</time>
      </trkpt>
      <trkpt lat="45.9523" lon="4.57584">
        <ele>438</ele>
        <time>2016-09-29T12:24:26Z</time>
      </trkpt>
      <trkpt lat="45.9523" lon="4.57585">
        <ele>439</ele>
        <time>2016-09-29T12:24:27Z</time>
      </trkpt>
      <trkpt lat="45.95222" lon="4.57591">
        <ele>440</ele>
        <time>2016-09-29T12:24:35Z</time>
      </trkpt>
      <trkpt lat="45.95221" lon="4.57593">
        <ele>440</ele>
        <time>2016-09-29T12:24:36Z</time>
      </trkpt>
      <trkpt lat="45.95214" lon="4.57599">
        <ele>441</ele>
        <time>2016-09-29T12:24:45Z</time>
      </trkpt>
      <trkpt lat="45.95213" lon="4.576">
        <ele>441</ele>
        <time>2016-09-29T12:24:46Z</time>
      </trkpt>
      <trkpt lat="45.95206" lon="4.57606">
        <ele>442</ele>
        <time>2016-09-29T12:24:53Z</time>
      </trkpt>
      <trkpt lat="45.95205" lon="4.57607">
        <ele>442</ele>
        <time>2016-09-29T12:24:54Z</time>
      </trkpt>
      <trkpt lat="45.95197" lon="4.5761">
        <ele>442</ele>
        <time>2016-09-29T12:25:01Z</time>
      </trkpt>
      <trkpt lat="45.95196" lon="4.57611">
        <ele>442</ele>
        <time>2016-09-29T12:25:02Z</time>
      </trkpt>
      <trkpt lat="45.95189" lon="4.57616">
        <ele>443</ele>
        <time>2016-09-29T12:25:11Z</time>
      </trkpt>
      <trkpt lat="45.95188" lon="4.57617">
        <ele>443</ele>
        <time>2016-09-29T12:25:12Z</time>
      </trkpt>
      <trkpt lat="45.95182" lon="4.57625">
        <ele>443</ele>
        <time>2016-09-29T12:25:21Z</time>
      </trkpt>
      <trkpt lat="45.95181" lon="4.57626">
        <ele>443</ele>
        <time>2016-09-29T12:25:22Z</time>
      </trkpt>
      <trkpt lat="45.95173" lon="4.57632">
        <ele>443</ele>
        <time>2016-09-29T12:25:30Z</time>
      </trkpt>
      <trkpt lat="45.95172" lon="4.57633">
        <ele>443</ele>
        <time>2016-09-29T12:25:31Z</time>
      </trkpt>
      <trkpt lat="45.95165" lon="4.57639">
        <ele>446</ele>
        <time>2016-09-29T12:25:39Z</time>
      </trkpt>
      <trkpt lat="45.95164" lon="4.5764">
        <ele>446</ele>
        <time>2016-09-29T12:25:40Z</time>
      </trkpt>
      <trkpt lat="45.95158" lon="4.57645">
        <ele>446</ele>
        <time>2016-09-29T12:25:47Z</time>
      </trkpt>
      <trkpt lat="45.95156" lon="4.57646">
        <ele>446</ele>
        <time>2016-09-29T12:25:48Z</time>
      </trkpt>
      <trkpt lat="45.9515" lon="4.57653">
        <ele>446</ele>
        <time>2016-09-29T12:25:55Z</time>
      </trkpt>
      <trkpt lat="45.95149" lon="4.57653">
        <ele>446</ele>
        <time>2016-09-29T12:25:56Z</time>
      </trkpt>
      <trkpt lat="45.95141" lon="4.57658">
        <ele>447</ele>
        <time>2016-09-29T12:26:04Z</time>
      </trkpt>
      <trkpt lat="45.9514" lon="4.57659">
        <ele>447</ele>
        <time>2016-09-29T12:26:05Z</time>
      </trkpt>
      <trkpt lat="45.95133" lon="4.57666">
        <ele>447</ele>
        <time>2016-09-29T12:26:24Z</time>
      </trkpt>
      <trkpt lat="45.95133" lon="4.57666">
        <ele>447</ele>
        <time>2016-09-29T12:26:25Z</time>
      </trkpt>
      <trkpt lat="45.95126" lon="4.57674">
        <ele>451</ele>
        <time>2016-09-29T12:27:09Z</time>
      </trkpt>
      <trkpt lat="45.95125" lon="4.57674">
        <ele>451</ele>
        <time>2016-09-29T12:27:10Z</time>
      </trkpt>
      <trkpt lat="45.95119" lon="4.57683">
        <ele>451</ele>
        <time>2016-09-29T12:27:18Z</time>
      </trkpt>
      <trkpt lat="45.95118" lon="4.57683">
        <ele>451</ele>
        <time>2016-09-29T12:27:19Z</time>
      </trkpt>
      <trkpt lat="45.9511" lon="4.57689">
        <ele>452</ele>
        <time>2016-09-29T12:27:27Z</time>
      </trkpt>
      <trkpt lat="45.95109" lon="4.5769">
        <ele>452</ele>
        <time>2016-09-29T12:27:28Z</time>
      </trkpt>
      <trkpt lat="45.95102" lon="4.57696">
        <ele>452</ele>
        <time>2016-09-29T12:27:35Z</time>
      </trkpt>
      <trkpt lat="45.95101" lon="4.57697">
        <ele>452</ele>
        <time>2016-09-29T12:27:36Z</time>
      </trkpt>
      <trkpt lat="45.95094" lon="4.57703">
        <ele>452</ele>
        <time>2016-09-29T12:27:43Z</time>
      </trkpt>
      <trkpt lat="45.95093" lon="4.57704">
        <ele>452</ele>
        <time>2016-09-29T12:27:44Z</time>
      </trkpt>
      <trkpt lat="45.95089" lon="4.57713">
        <ele>453</ele>
        <time>2016-09-29T12:27:53Z</time>
      </trkpt>
      <trkpt lat="45.95088" lon="4.57714">
        <ele>453</ele>
        <time>2016-09-29T12:27:54Z</time>
      </trkpt>
      <trkpt lat="45.95082" lon="4.57723">
        <ele>455</ele>
        <time>2016-09-29T12:28:01Z</time>
      </trkpt>
      <trkpt lat="45.95082" lon="4.57724">
        <ele>455</ele>
        <time>2016-09-29T12:28:02Z</time>
      </trkpt>
      <trkpt lat="45.95075" lon="4.57731">
        <ele>455</ele>
        <time>2016-09-29T12:28:10Z</time>
      </trkpt>
      <trkpt lat="45.95074" lon="4.57732">
        <ele>455</ele>
        <time>2016-09-29T12:28:11Z</time>
      </trkpt>
      <trkpt lat="45.95067" lon="4.57738">
        <ele>455</ele>
        <time>2016-09-29T12:28:19Z</time>
      </trkpt>
      <trkpt lat="45.95066" lon="4.57739">
        <ele>455</ele>
        <time>2016-09-29T12:28:20Z</time>
      </trkpt>
      <trkpt lat="45.95059" lon="4.57745">
        <ele>455</ele>
        <time>2016-09-29T12:28:28Z</time>
      </trkpt>
      <trkpt lat="45.95058" lon="4.57745">
        <ele>455</ele>
        <time>2016-09-29T12:28:29Z</time>
      </trkpt>
      <trkpt lat="45.9505" lon="4.57749">
        <ele>456</ele>
        <time>2016-09-29T12:28:38Z</time>
      </trkpt>
      <trkpt lat="45.95049" lon="4.57749">
        <ele>456</ele>
        <time>2016-09-29T12:28:39Z</time>
      </trkpt>
      <trkpt lat="45.95041" lon="4.57755">
        <ele>459</ele>
        <time>2016-09-29T12:28:47Z</time>
      </trkpt>
      <trkpt lat="45.9504" lon="4.57755">
        <ele>459</ele>
        <time>2016-09-29T12:28:48Z</time>
      </trkpt>
      <trkpt lat="45.95031" lon="4.57759">
        <ele>459</ele>
        <time>2016-09-29T12:28:55Z</time>
      </trkpt>
      <trkpt lat="45.9503" lon="4.57758">
        <ele>459</ele>
        <time>2016-09-29T12:28:56Z</time>
      </trkpt>
      <trkpt lat="45.95022" lon="4.57761">
        <ele>459</ele>
        <time>2016-09-29T12:29:03Z</time>
      </trkpt>
      <trkpt lat="45.95021" lon="4.57762">
        <ele>459</ele>
        <time>2016-09-29T12:29:04Z</time>
      </trkpt>
      <trkpt lat="45.95013" lon="4.57769">
        <ele>459</ele>
        <time>2016-09-29T12:29:12Z</time>
      </trkpt>
      <trkpt lat="45.95012" lon="4.57769">
        <ele>459</ele>
        <time>2016-09-29T12:29:13Z</time>
      </trkpt>
      <trkpt lat="45.95004" lon="4.57774">
        <ele>459</ele>
        <time>2016-09-29T12:29:22Z</time>
      </trkpt>
      <trkpt lat="45.95003" lon="4.57775">
        <ele>459</ele>
        <time>2016-09-29T12:29:23Z</time>
      </trkpt>
      <trkpt lat="45.94995" lon="4.57776">
        <ele>461</ele>
        <time>2016-09-29T12:29:35Z</time>
      </trkpt>
      <trkpt lat="45.94994" lon="4.57776">
        <ele>461</ele>
        <time>2016-09-29T12:29:36Z</time>
      </trkpt>
      <trkpt lat="45.94986" lon="4.57778">
        <ele>462</ele>
        <time>2016-09-29T12:29:41Z</time>
      </trkpt>
      <trkpt lat="45.94985" lon="4.57779">
        <ele>462</ele>
        <time>2016-09-29T12:29:42Z</time>
      </trkpt>
      <trkpt lat="45.94977" lon="4.57782">
        <ele>462</ele>
        <time>2016-09-29T12:29:47Z</time>
      </trkpt>
      <trkpt lat="45.94976" lon="4.57783">
        <ele>462</ele>
        <time>2016-09-29T12:29:48Z</time>
      </trkpt>
      <trkpt lat="45.94968" lon="4.57789">
        <ele>463</ele>
        <time>2016-09-29T12:29:57Z</time>
      </trkpt>
      <trkpt lat="45.94967" lon="4.57789">
        <ele>463</ele>
        <time>2016-09-29T12:29:58Z</time>
      </trkpt>
      <trkpt lat="45.94958" lon="4.5779">
        <ele>463</ele>
        <time>2016-09-29T12:30:06Z</time>
      </trkpt>
      <trkpt lat="45.94957" lon="4.5779">
        <ele>464</ele>
        <time>2016-09-29T12:30:07Z</time>
      </trkpt>
      <trkpt lat="45.94949" lon="4.57792">
        <ele>464</ele>
        <time>2016-09-29T12:30:15Z</time>
      </trkpt>
      <trkpt lat="45.94947" lon="4.57792">
        <ele>464</ele>
        <time>2016-09-29T12:30:16Z</time>
      </trkpt>
      <trkpt lat="45.9494" lon="4.57793">
        <ele>464</ele>
        <time>2016-09-29T12:30:22Z</time>
      </trkpt>
      <trkpt lat="45.94938" lon="4.57794">
        <ele>464</ele>
        <time>2016-09-29T12:30:23Z</time>
      </trkpt>
      <trkpt lat="45.9493" lon="4.57796">
        <ele>465</ele>
        <time>2016-09-29T12:30:33Z</time>
      </trkpt>
      <trkpt lat="45.94928" lon="4.57797">
        <ele>465</ele>
        <time>2016-09-29T12:30:34Z</time>
      </trkpt>
      <trkpt lat="45.9492" lon="4.57797">
        <ele>465</ele>
        <time>2016-09-29T12:30:42Z</time>
      </trkpt>
      <trkpt lat="45.94919" lon="4.57797">
        <ele>465</ele>
        <time>2016-09-29T12:30:43Z</time>
      </trkpt>
      <trkpt lat="45.94911" lon="4.57798">
        <ele>469</ele>
        <time>2016-09-29T12:30:50Z</time>
      </trkpt>
      <trkpt lat="45.94909" lon="4.57798">
        <ele>469</ele>
        <time>2016-09-29T12:30:51Z</time>
      </trkpt>
      <trkpt lat="45.94901" lon="4.578">
        <ele>469</ele>
        <time>2016-09-29T12:30:58Z</time>
      </trkpt>
      <trkpt lat="45.949" lon="4.57801">
        <ele>469</ele>
        <time>2016-09-29T12:30:59Z</time>
      </trkpt>
      <trkpt lat="45.94892" lon="4.57804">
        <ele>470</ele>
        <time>2016-09-29T12:31:05Z</time>
      </trkpt>
      <trkpt lat="45.9489" lon="4.57805">
        <ele>470</ele>
        <time>2016-09-29T12:31:06Z</time>
      </trkpt>
      <trkpt lat="45.94883" lon="4.57812">
        <ele>470</ele>
        <time>2016-09-29T12:31:14Z</time>
      </trkpt>
      <trkpt lat="45.94883" lon="4.57812">
        <ele>470</ele>
        <time>2016-09-29T12:31:15Z</time>
      </trkpt>
      <trkpt lat="45.94875" lon="4.57813">
        <ele>470</ele>
        <time>2016-09-29T12:31:23Z</time>
      </trkpt>
      <trkpt lat="45.94873" lon="4.57812">
        <ele>470</ele>
        <time>2016-09-29T12:31:24Z</time>
      </trkpt>
      <trkpt lat="45.94866" lon="4.57814">
        <ele>470</ele>
        <time>2016-09-29T12:31:30Z</time>
      </trkpt>
      <trkpt lat="45.94864" lon="4.57815">
        <ele>470</ele>
        <time>2016-09-29T12:31:31Z</time>
      </trkpt>
      <trkpt lat="45.94856" lon="4.57816">
        <ele>471</ele>
        <time>2016-09-29T12:31:38Z</time>
      </trkpt>
      <trkpt lat="45.94855" lon="4.57816">
        <ele>471</ele>
        <time>2016-09-29T12:31:39Z</time>
      </trkpt>
      <trkpt lat="45.94847" lon="4.57816">
        <ele>471</ele>
        <time>2016-09-29T12:31:45Z</time>
      </trkpt>
      <trkpt lat="45.94846" lon="4.57816">
        <ele>471</ele>
        <time>2016-09-29T12:31:46Z</time>
      </trkpt>
      <trkpt lat="45.94837" lon="4.57817">
        <ele>471</ele>
        <time>2016-09-29T12:31:53Z</time>
      </trkpt>
      <trkpt lat="45.94836" lon="4.57818">
        <ele>471</ele>
        <time>2016-09-29T12:31:54Z</time>
      </trkpt>
      <trkpt lat="45.94828" lon="4.5782">
        <ele>474</ele>
        <time>2016-09-29T12:32:01Z</time>
      </trkpt>
      <trkpt lat="45.94827" lon="4.57819">
        <ele>474</ele>
        <time>2016-09-29T12:32:02Z</time>
      </trkpt>
      <trkpt lat="45.94818" lon="4.5782">
        <ele>474</ele>
        <time>2016-09-29T12:32:09Z</time>
      </trkpt>
      <trkpt lat="45.94817" lon="4.57821">
        <ele>474</ele>
        <time>2016-09-29T12:32:10Z</time>
      </trkpt>
      <trkpt lat="45.94808" lon="4.57823">
        <ele>475</ele>
        <time>2016-09-29T12:32:18Z</time>
      </trkpt>
      <trkpt lat="45.94807" lon="4.57823">
        <ele>475</ele>
        <time>2016-09-29T12:32:19Z</time>
      </trkpt>
      <trkpt lat="45.94799" lon="4.57822">
        <ele>476</ele>
        <time>2016-09-29T12:32:26Z</time>
      </trkpt>
      <trkpt lat="45.94797" lon="4.57822">
        <ele>476</ele>
        <time>2016-09-29T12:32:27Z</time>
      </trkpt>
      <trkpt lat="45.94789" lon="4.57824">
        <ele>476</ele>
        <time>2016-09-29T12:32:33Z</time>
      </trkpt>
      <trkpt lat="45.94788" lon="4.57824">
        <ele>476</ele>
        <time>2016-09-29T12:32:34Z</time>
      </trkpt>
      <trkpt lat="45.9478" lon="4.57828">
        <ele>477</ele>
        <time>2016-09-29T12:32:41Z</time>
      </trkpt>
      <trkpt lat="45.94779" lon="4.57828">
        <ele>477</ele>
        <time>2016-09-29T12:32:42Z</time>
      </trkpt>
      <trkpt lat="45.9477" lon="4.57827">
        <ele>477</ele>
        <time>2016-09-29T12:32:48Z</time>
      </trkpt>
      <trkpt lat="45.94769" lon="4.57827">
        <ele>477</ele>
        <time>2016-09-29T12:32:49Z</time>
      </trkpt>
      <trkpt lat="45.9476" lon="4.57831">
        <ele>477</ele>
        <time>2016-09-29T12:32:56Z</time>
      </trkpt>
      <trkpt lat="45.9476" lon="4.57831">
        <ele>478</ele>
        <time>2016-09-29T12:32:57Z</time>
      </trkpt>
      <trkpt lat="45.94751" lon="4.57832">
        <ele>478</ele>
        <time>2016-09-29T12:34:01Z</time>
      </trkpt>
      <trkpt lat="45.9475" lon="4.57832">
        <ele>478</ele>
        <time>2016-09-29T12:34:02Z</time>
      </trkpt>
      <trkpt lat="45.94742" lon="4.57837">
        <ele>479</ele>
        <time>2016-09-29T12:34:29Z</time>
      </trkpt>
      <trkpt lat="45.94742" lon="4.57837">
        <ele>479</ele>
        <time>2016-09-29T12:34:30Z</time>
      </trkpt>
      <trkpt lat="45.94733" lon="4.57837">
        <ele>480</ele>
        <time>2016-09-29T12:34:39Z</time>
      </trkpt>
      <trkpt lat="45.94732" lon="4.57837">
        <ele>480</ele>
        <time>2016-09-29T12:34:40Z</time>
      </trkpt>
      <trkpt lat="45.94724" lon="4.57842">
        <ele>481</ele>
        <time>2016-09-29T12:34:53Z</time>
      </trkpt>
      <trkpt lat="45.94723" lon="4.57843">
        <ele>481</ele>
        <time>2016-09-29T12:34:54Z</time>
      </trkpt>
      <trkpt lat="45.94721" lon="4.57854">
        <ele>481</ele>
        <time>2016-09-29T12:35:02Z</time>
      </trkpt>
      <trkpt lat="45.94721" lon="4.57856">
        <ele>481</ele>
        <time>2016-09-29T12:35:03Z</time>
      </trkpt>
      <trkpt lat="45.94718" lon="4.57867">
        <ele>482</ele>
        <time>2016-09-29T12:35:11Z</time>
      </trkpt>
      <trkpt lat="45.94717" lon="4.57869">
        <ele>482</ele>
        <time>2016-09-29T12:35:12Z</time>
      </trkpt>
      <trkpt lat="45.94712" lon="4.57878">
        <ele>482</ele>
        <time>2016-09-29T12:35:20Z</time>
      </trkpt>
      <trkpt lat="45.94712" lon="4.5788">
        <ele>482</ele>
        <time>2016-09-29T12:35:21Z</time>
      </trkpt>
      <trkpt lat="45.94709" lon="4.57892">
        <ele>483</ele>
        <time>2016-09-29T12:35:28Z</time>
      </trkpt>
      <trkpt lat="45.94709" lon="4.57893">
        <ele>483</ele>
        <time>2016-09-29T12:35:29Z</time>
      </trkpt>
      <trkpt lat="45.94705" lon="4.57905">
        <ele>483</ele>
        <time>2016-09-29T12:35:36Z</time>
      </trkpt>
      <trkpt lat="45.94704" lon="4.57906">
        <ele>483</ele>
        <time>2016-09-29T12:35:37Z</time>
      </trkpt>
      <trkpt lat="45.947" lon="4.57917">
        <ele>487</ele>
        <time>2016-09-29T12:35:44Z</time>
      </trkpt>
      <trkpt lat="45.94699" lon="4.57919">
        <ele>487</ele>
        <time>2016-09-29T12:35:45Z</time>
      </trkpt>
      <trkpt lat="45.94695" lon="4.5793">
        <ele>487</ele>
        <time>2016-09-29T12:35:52Z</time>
      </trkpt>
      <trkpt lat="45.94695" lon="4.57931">
        <ele>487</ele>
        <time>2016-09-29T12:35:53Z</time>
      </trkpt>
      <trkpt lat="45.9469" lon="4.57939">
        <ele>488</ele>
        <time>2016-09-29T12:36:00Z</time>
      </trkpt>
      <trkpt lat="45.94689" lon="4.57941">
        <ele>488</ele>
        <time>2016-09-29T12:36:01Z</time>
      </trkpt>
      <trkpt lat="45.94686" lon="4.57953">
        <ele>488</ele>
        <time>2016-09-29T12:36:13Z</time>
      </trkpt>
      <trkpt lat="45.94687" lon="4.57954">
        <ele>488</ele>
        <time>2016-09-29T12:36:14Z</time>
      </trkpt>
      <trkpt lat="45.94687" lon="4.57966">
        <ele>489</ele>
        <time>2016-09-29T12:36:21Z</time>
      </trkpt>
      <trkpt lat="45.94687" lon="4.57968">
        <ele>489</ele>
        <time>2016-09-29T12:36:22Z</time>
      </trkpt>
      <trkpt lat="45.94686" lon="4.5798">
        <ele>490</ele>
        <time>2016-09-29T12:36:28Z</time>
      </trkpt>
      <trkpt lat="45.94686" lon="4.57981">
        <ele>490</ele>
        <time>2016-09-29T12:36:29Z</time>
      </trkpt>
      <trkpt lat="45.94686" lon="4.57994">
        <ele>491</ele>
        <time>2016-09-29T12:36:37Z</time>
      </trkpt>
      <trkpt lat="45.94686" lon="4.57995">
        <ele>491</ele>
        <time>2016-09-29T12:36:38Z</time>
      </trkpt>
      <trkpt lat="45.94685" lon="4.58008">
        <ele>496</ele>
        <time>2016-09-29T12:36:46Z</time>
      </trkpt>
      <trkpt lat="45.94685" lon="4.58009">
        <ele>496</ele>
        <time>2016-09-29T12:36:47Z</time>
      </trkpt>
      <trkpt lat="45.94685" lon="4.58022">
        <ele>497</ele>
        <time>2016-09-29T12:37:01Z</time>
      </trkpt>
      <trkpt lat="45.94685" lon="4.58023">
        <ele>497</ele>
        <time>2016-09-29T12:37:02Z</time>
      </trkpt>
      <trkpt lat="45.94687" lon="4.58035">
        <ele>498</ele>
        <time>2016-09-29T12:37:12Z</time>
      </trkpt>
      <trkpt lat="45.94687" lon="4.58037">
        <ele>498</ele>
        <time>2016-09-29T12:37:13Z</time>
      </trkpt>
      <trkpt lat="45.94686" lon="4.58049">
        <ele>499</ele>
        <time>2016-09-29T12:37:24Z</time>
      </trkpt>
      <trkpt lat="45.94687" lon="4.5805">
        <ele>499</ele>
        <time>2016-09-29T12:37:25Z</time>
      </trkpt>
      <trkpt lat="45.9469" lon="4.58061">
        <ele>500</ele>
        <time>2016-09-29T12:37:39Z</time>
      </trkpt>
      <trkpt lat="45.9469" lon="4.58063">
        <ele>500</ele>
        <time>2016-09-29T12:37:40Z</time>
      </trkpt>
      <trkpt lat="45.94695" lon="4.58072">
        <ele>500</ele>
        <time>2016-09-29T12:37:49Z</time>
      </trkpt>
      <trkpt lat="45.94696" lon="4.58073">
        <ele>500</ele>
        <time>2016-09-29T12:37:50Z</time>
      </trkpt>
      <trkpt lat="45.94702" lon="4.58081">
        <ele>501</ele>
        <time>2016-09-29T12:37:58Z</time>
      </trkpt>
      <trkpt lat="45.94703" lon="4.58081">
        <ele>501</ele>
        <time>2016-09-29T12:37:59Z</time>
      </trkpt>
      <trkpt lat="45.94711" lon="4.58088">
        <ele>511</ele>
        <time>2016-09-29T12:38:17Z</time>
      </trkpt>
      <trkpt lat="45.94711" lon="4.58088">
        <ele>511</ele>
        <time>2016-09-29T12:38:18Z</time>
      </trkpt>
      <trkpt lat="45.94719" lon="4.58092">
        <ele>511</ele>
        <time>2016-09-29T12:38:36Z</time>
      </trkpt>
      <trkpt lat="45.9472" lon="4.58093">
        <ele>511</ele>
        <time>2016-09-29T12:38:37Z</time>
      </trkpt>
      <trkpt lat="45.94728" lon="4.58094">
        <ele>512</ele>
        <time>2016-09-29T12:38:48Z</time>
      </trkpt>
      <trkpt lat="45.94729" lon="4.58094">
        <ele>512</ele>
        <time>2016-09-29T12:38:49Z</time>
      </trkpt>
      <trkpt lat="45.94737" lon="4.58094">
        <ele>512</ele>
        <time>2016-09-29T12:38:58Z</time>
      </trkpt>
      <trkpt lat="45.94738" lon="4.58094">
        <ele>512</ele>
        <time>2016-09-29T12:38:59Z</time>
      </trkpt>
      <trkpt lat="45.94747" lon="4.58096">
        <ele>512</ele>
        <time>2016-09-29T12:39:09Z</time>
      </trkpt>
      <trkpt lat="45.94747" lon="4.58096">
        <ele>512</ele>
        <time>2016-09-29T12:39:10Z</time>
      </trkpt>
      <trkpt lat="45.94745" lon="4.58109">
        <ele>513</ele>
        <time>2016-09-29T12:40:25Z</time>
      </trkpt>
      <trkpt lat="45.94745" lon="4.5811">
        <ele>513</ele>
        <time>2016-09-29T12:40:26Z</time>
      </trkpt>
      <trkpt lat="45.94741" lon="4.5812">
        <ele>514</ele>
        <time>2016-09-29T12:40:35Z</time>
      </trkpt>
      <trkpt lat="45.9474" lon="4.58121">
        <ele>514</ele>
        <time>2016-09-29T12:40:36Z</time>
      </trkpt>
      <trkpt lat="45.94734" lon="4.58129">
        <ele>515</ele>
        <time>2016-09-29T12:40:46Z</time>
      </trkpt>
      <trkpt lat="45.94733" lon="4.58129">
        <ele>515</ele>
        <time>2016-09-29T12:40:47Z</time>
      </trkpt>
      <trkpt lat="45.94728" lon="4.58139">
        <ele>516</ele>
        <time>2016-09-29T12:41:06Z</time>
      </trkpt>
      <trkpt lat="45.94728" lon="4.58141">
        <ele>516</ele>
        <time>2016-09-29T12:41:07Z</time>
      </trkpt>
      <trkpt lat="45.94725" lon="4.58153">
        <ele>518</ele>
        <time>2016-09-29T12:41:16Z</time>
      </trkpt>
      <trkpt lat="45.94725" lon="4.58154">
        <ele>518</ele>
        <time>2016-09-29T12:41:17Z</time>
      </trkpt>
      <trkpt lat="45.9472" lon="4.58164">
        <ele>518</ele>
        <time>2016-09-29T12:41:39Z</time>
      </trkpt>
      <trkpt lat="45.9472" lon="4.58165">
        <ele>518</ele>
        <time>2016-09-29T12:41:40Z</time>
      </trkpt>
      <trkpt lat="45.94716" lon="4.58176">
        <ele>526</ele>
        <time>2016-09-29T12:41:54Z</time>
      </trkpt>
      <trkpt lat="45.94716" lon="4.58177">
        <ele>526</ele>
        <time>2016-09-29T12:41:55Z</time>
      </trkpt>
      <trkpt lat="45.94709" lon="4.58183">
        <ele>525</ele>
        <time>2016-09-29T12:42:03Z</time>
      </trkpt>
      <trkpt lat="45.94708" lon="4.58185">
        <ele>525</ele>
        <time>2016-09-29T12:42:04Z</time>
      </trkpt>
      <trkpt lat="45.94699" lon="4.58186">
        <ele>524</ele>
        <time>2016-09-29T12:42:16Z</time>
      </trkpt>
      <trkpt lat="45.94699" lon="4.58186">
        <ele>524</ele>
        <time>2016-09-29T12:42:17Z</time>
      </trkpt>
      <trkpt lat="45.94692" lon="4.58194">
        <ele>525</ele>
        <time>2016-09-29T12:42:25Z</time>
      </trkpt>
      <trkpt lat="45.94692" lon="4.58196">
        <ele>525</ele>
        <time>2016-09-29T12:42:26Z</time>
      </trkpt>
      <trkpt lat="45.94685" lon="4.58203">
        <ele>525</ele>
        <time>2016-09-29T12:42:34Z</time>
      </trkpt>
      <trkpt lat="45.94684" lon="4.58204">
        <ele>525</ele>
        <time>2016-09-29T12:42:35Z</time>
      </trkpt>
      <trkpt lat="45.94679" lon="4.58213">
        <ele>526</ele>
        <time>2016-09-29T12:42:43Z</time>
      </trkpt>
      <trkpt lat="45.94678" lon="4.58214">
        <ele>526</ele>
        <time>2016-09-29T12:42:44Z</time>
      </trkpt>
      <trkpt lat="45.94674" lon="4.58223">
        <ele>526</ele>
        <time>2016-09-29T12:42:52Z</time>
      </trkpt>
      <trkpt lat="45.94673" lon="4.58225">
        <ele>526</ele>
        <time>2016-09-29T12:42:53Z</time>
      </trkpt>
      <trkpt lat="45.9467" lon="4.58236">
        <ele>527</ele>
        <time>2016-09-29T12:43:02Z</time>
      </trkpt>
      <trkpt lat="45.9467" lon="4.58237">
        <ele>527</ele>
        <time>2016-09-29T12:43:03Z</time>
      </trkpt>
      <trkpt lat="45.94665" lon="4.58248">
        <ele>527</ele>
        <time>2016-09-29T12:43:12Z</time>
      </trkpt>
      <trkpt lat="45.94664" lon="4.5825">
        <ele>527</ele>
        <time>2016-09-29T12:43:13Z</time>
      </trkpt>
      <trkpt lat="45.94662" lon="4.58261">
        <ele>526</ele>
        <time>2016-09-29T12:43:50Z</time>
      </trkpt>
      <trkpt lat="45.94661" lon="4.58262">
        <ele>526</ele>
        <time>2016-09-29T12:43:51Z</time>
      </trkpt>
      <trkpt lat="45.94657" lon="4.58273">
        <ele>524</ele>
        <time>2016-09-29T12:49:08Z</time>
      </trkpt>
      <trkpt lat="45.94656" lon="4.58273">
        <ele>524</ele>
        <time>2016-09-29T12:49:09Z</time>
      </trkpt>
      <trkpt lat="45.94648" lon="4.58278">
        <ele>524</ele>
        <time>2016-09-29T12:49:18Z</time>
      </trkpt>
      <trkpt lat="45.94647" lon="4.58278">
        <ele>524</ele>
        <time>2016-09-29T12:49:19Z</time>
      </trkpt>
      <trkpt lat="45.9464" lon="4.58283">
        <ele>523</ele>
        <time>2016-09-29T12:49:27Z</time>
      </trkpt>
      <trkpt lat="45.94639" lon="4.58283">
        <ele>523</ele>
        <time>2016-09-29T12:49:28Z</time>
      </trkpt>
      <trkpt lat="45.94631" lon="4.58284">
        <ele>523</ele>
        <time>2016-09-29T12:49:34Z</time>
      </trkpt>
      <trkpt lat="45.94629" lon="4.58284">
        <ele>523</ele>
        <time>2016-09-29T12:49:35Z</time>
      </trkpt>
      <trkpt lat="45.94621" lon="4.58288">
        <ele>523</ele>
        <time>2016-09-29T12:49:43Z</time>
      </trkpt>
      <trkpt lat="45.9462" lon="4.58288">
        <ele>523</ele>
        <time>2016-09-29T12:49:44Z</time>
      </trkpt>
      <trkpt lat="45.94612" lon="4.58291">
        <ele>522</ele>
        <time>2016-09-29T12:49:51Z</time>
      </trkpt>
      <trkpt lat="45.94611" lon="4.58292">
        <ele>522</ele>
        <time>2016-09-29T12:49:52Z</time>
      </trkpt>
      <trkpt lat="45.94603" lon="4.58297">
        <ele>522</ele>
        <time>2016-09-29T12:49:59Z</time>
      </trkpt>
      <trkpt lat="45.94601" lon="4.58297">
        <ele>522</ele>
        <time>2016-09-29T12:50:00Z</time>
      </trkpt>
      <trkpt lat="45.94593" lon="4.583">
        <ele>522</ele>
        <time>2016-09-29T12:50:06Z</time>
      </trkpt>
      <trkpt lat="45.94592" lon="4.583">
        <ele>522</ele>
        <time>2016-09-29T12:50:07Z</time>
      </trkpt>
      <trkpt lat="45.94583" lon="4.58299">
        <ele>520</ele>
        <time>2016-09-29T12:50:13Z</time>
      </trkpt>
      <trkpt lat="45.94581" lon="4.58299">
        <ele>520</ele>
        <time>2016-09-29T12:50:14Z</time>
      </trkpt>
      <trkpt lat="45.94573" lon="4.583">
        <ele>520</ele>
        <time>2016-09-29T12:50:20Z</time>
      </trkpt>
      <trkpt lat="45.94571" lon="4.58301">
        <ele>520</ele>
        <time>2016-09-29T12:50:21Z</time>
      </trkpt>
      <trkpt lat="45.94563" lon="4.58304">
        <ele>520</ele>
        <time>2016-09-29T12:50:27Z</time>
      </trkpt>
      <trkpt lat="45.94561" lon="4.58305">
        <ele>520</ele>
        <time>2016-09-29T12:50:28Z</time>
      </trkpt>
      <trkpt lat="45.94554" lon="4.58307">
        <ele>520</ele>
        <time>2016-09-29T12:50:34Z</time>
      </trkpt>
      <trkpt lat="45.94553" lon="4.58307">
        <ele>520</ele>
        <time>2016-09-29T12:50:35Z</time>
      </trkpt>
      <trkpt lat="45.94544" lon="4.58309">
        <ele>519</ele>
        <time>2016-09-29T12:50:42Z</time>
      </trkpt>
      <trkpt lat="45.94543" lon="4.5831">
        <ele>519</ele>
        <time>2016-09-29T12:50:43Z</time>
      </trkpt>
      <trkpt lat="45.94535" lon="4.58315">
        <ele>519</ele>
        <time>2016-09-29T12:50:51Z</time>
      </trkpt>
      <trkpt lat="45.94534" lon="4.58316">
        <ele>519</ele>
        <time>2016-09-29T12:50:52Z</time>
      </trkpt>
      <trkpt lat="45.94526" lon="4.5832">
        <ele>519</ele>
        <time>2016-09-29T12:50:59Z</time>
      </trkpt>
      <trkpt lat="45.94525" lon="4.58321">
        <ele>519</ele>
        <time>2016-09-29T12:51:00Z</time>
      </trkpt>
      <trkpt lat="45.94517" lon="4.58324">
        <ele>519</ele>
        <time>2016-09-29T12:51:07Z</time>
      </trkpt>
      <trkpt lat="45.94516" lon="4.58325">
        <ele>519</ele>
        <time>2016-09-29T12:51:08Z</time>
      </trkpt>
      <trkpt lat="45.94508" lon="4.58329">
        <ele>520</ele>
        <time>2016-09-29T12:51:14Z</time>
      </trkpt>
      <trkpt lat="45.94506" lon="4.58329">
        <ele>520</ele>
        <time>2016-09-29T12:51:15Z</time>
      </trkpt>
      <trkpt lat="45.94498" lon="4.58333">
        <ele>520</ele>
        <time>2016-09-29T12:51:22Z</time>
      </trkpt>
      <trkpt lat="45.94497" lon="4.58333">
        <ele>519</ele>
        <time>2016-09-29T12:51:23Z</time>
      </trkpt>
      <trkpt lat="45.94489" lon="4.58337">
        <ele>519</ele>
        <time>2016-09-29T12:51:29Z</time>
      </trkpt>
      <trkpt lat="45.94488" lon="4.58338">
        <ele>519</ele>
        <time>2016-09-29T12:51:30Z</time>
      </trkpt>
      <trkpt lat="45.94481" lon="4.58344">
        <ele>518</ele>
        <time>2016-09-29T12:51:36Z</time>
      </trkpt>
      <trkpt lat="45.94479" lon="4.58345">
        <ele>518</ele>
        <time>2016-09-29T12:51:37Z</time>
      </trkpt>
      <trkpt lat="45.94471" lon="4.58351">
        <ele>517</ele>
        <time>2016-09-29T12:51:43Z</time>
      </trkpt>
      <trkpt lat="45.9447" lon="4.58352">
        <ele>517</ele>
        <time>2016-09-29T12:51:44Z</time>
      </trkpt>
      <trkpt lat="45.94463" lon="4.58357">
        <ele>517</ele>
        <time>2016-09-29T12:51:50Z</time>
      </trkpt>
      <trkpt lat="45.94462" lon="4.58358">
        <ele>517</ele>
        <time>2016-09-29T12:51:51Z</time>
      </trkpt>
      <trkpt lat="45.94454" lon="4.58363">
        <ele>517</ele>
        <time>2016-09-29T12:51:57Z</time>
      </trkpt>
      <trkpt lat="45.94453" lon="4.58363">
        <ele>517</ele>
        <time>2016-09-29T12:51:58Z</time>
      </trkpt>
      <trkpt lat="45.94445" lon="4.58367">
        <ele>517</ele>
        <time>2016-09-29T12:52:04Z</time>
      </trkpt>
      <trkpt lat="45.94443" lon="4.58368">
        <ele>517</ele>
        <time>2016-09-29T12:52:05Z</time>
      </trkpt>
      <trkpt lat="45.94435" lon="4.58369">
        <ele>517</ele>
        <time>2016-09-29T12:52:11Z</time>
      </trkpt>
      <trkpt lat="45.94434" lon="4.58369">
        <ele>517</ele>
        <time>2016-09-29T12:52:12Z</time>
      </trkpt>
      <trkpt lat="45.94425" lon="4.58369">
        <ele>517</ele>
        <time>2016-09-29T12:52:19Z</time>
      </trkpt>
      <trkpt lat="45.94424" lon="4.58369">
        <ele>517</ele>
        <time>2016-09-29T12:52:20Z</time>
      </trkpt>
      <trkpt lat="45.94415" lon="4.58368">
        <ele>515</ele>
        <time>2016-09-29T12:52:27Z</time>
      </trkpt>
      <trkpt lat="45.94414" lon="4.58368">
        <ele>515</ele>
        <time>2016-09-29T12:52:28Z</time>
      </trkpt>
      <trkpt lat="45.94406" lon="4.58368">
        <ele>515</ele>
        <time>2016-09-29T12:52:35Z</time>
      </trkpt>
      <trkpt lat="45.94405" lon="4.58368">
        <ele>515</ele>
        <time>2016-09-29T12:52:36Z</time>
      </trkpt>
      <trkpt lat="45.94396" lon="4.58366">
        <ele>515</ele>
        <time>2016-09-29T12:52:42Z</time>
      </trkpt>
      <trkpt lat="45.94395" lon="4.58366">
        <ele>515</ele>
        <time>2016-09-29T12:52:43Z</time>
      </trkpt>
      <trkpt lat="45.94387" lon="4.58363">
        <ele>514</ele>
        <time>2016-09-29T12:52:49Z</time>
      </trkpt>
      <trkpt lat="45.94386" lon="4.58363">
        <ele>514</ele>
        <time>2016-09-29T12:52:50Z</time>
      </trkpt>
      <trkpt lat="45.94378" lon="4.58358">
        <ele>514</ele>
        <time>2016-09-29T12:52:58Z</time>
      </trkpt>
      <trkpt lat="45.94377" lon="4.58358">
        <ele>514</ele>
        <time>2016-09-29T12:52:59Z</time>
      </trkpt>
      <trkpt lat="45.94369" lon="4.58352">
        <ele>514</ele>
        <time>2016-09-29T12:53:06Z</time>
      </trkpt>
      <trkpt lat="45.94368" lon="4.58351">
        <ele>514</ele>
        <time>2016-09-29T12:53:07Z</time>
      </trkpt>
      <trkpt lat="45.9436" lon="4.58346">
        <ele>514</ele>
        <time>2016-09-29T12:53:13Z</time>
      </trkpt>
      <trkpt lat="45.94359" lon="4.58346">
        <ele>514</ele>
        <time>2016-09-29T12:53:14Z</time>
      </trkpt>
      <trkpt lat="45.94351" lon="4.58343">
        <ele>514</ele>
        <time>2016-09-29T12:53:20Z</time>
      </trkpt>
      <trkpt lat="45.9435" lon="4.58343">
        <ele>514</ele>
        <time>2016-09-29T12:53:21Z</time>
      </trkpt>
      <trkpt lat="45.94342" lon="4.58341">
        <ele>514</ele>
        <time>2016-09-29T12:53:27Z</time>
      </trkpt>
      <trkpt lat="45.94341" lon="4.58341">
        <ele>514</ele>
        <time>2016-09-29T12:53:28Z</time>
      </trkpt>
      <trkpt lat="45.94333" lon="4.58342">
        <ele>513</ele>
        <time>2016-09-29T12:53:34Z</time>
      </trkpt>
      <trkpt lat="45.94331" lon="4.58342">
        <ele>513</ele>
        <time>2016-09-29T12:53:35Z</time>
      </trkpt>
      <trkpt lat="45.94324" lon="4.58341">
        <ele>512</ele>
        <time>2016-09-29T12:53:41Z</time>
      </trkpt>
      <trkpt lat="45.94322" lon="4.58341">
        <ele>512</ele>
        <time>2016-09-29T12:53:42Z</time>
      </trkpt>
      <trkpt lat="45.94314" lon="4.58339">
        <ele>511</ele>
        <time>2016-09-29T12:53:48Z</time>
      </trkpt>
      <trkpt lat="45.94313" lon="4.58338">
        <ele>511</ele>
        <time>2016-09-29T12:53:49Z</time>
      </trkpt>
      <trkpt lat="45.94305" lon="4.58339">
        <ele>510</ele>
        <time>2016-09-29T12:53:56Z</time>
      </trkpt>
      <trkpt lat="45.94304" lon="4.5834">
        <ele>510</ele>
        <time>2016-09-29T12:53:57Z</time>
      </trkpt>
      <trkpt lat="45.94295" lon="4.58343">
        <ele>509</ele>
        <time>2016-09-29T12:54:04Z</time>
      </trkpt>
      <trkpt lat="45.94294" lon="4.58342">
        <ele>509</ele>
        <time>2016-09-29T12:54:05Z</time>
      </trkpt>
      <trkpt lat="45.94286" lon="4.58342">
        <ele>509</ele>
        <time>2016-09-29T12:54:10Z</time>
      </trkpt>
      <trkpt lat="45.94284" lon="4.58342">
        <ele>509</ele>
        <time>2016-09-29T12:54:11Z</time>
      </trkpt>
      <trkpt lat="45.94275" lon="4.58343">
        <ele>508</ele>
        <time>2016-09-29T12:54:17Z</time>
      </trkpt>
      <trkpt lat="45.94274" lon="4.58343">
        <ele>508</ele>
        <time>2016-09-29T12:54:18Z</time>
      </trkpt>
      <trkpt lat="45.94265" lon="4.58342">
        <ele>508</ele>
        <time>2016-09-29T12:54:24Z</time>
      </trkpt>
      <trkpt lat="45.94264" lon="4.58342">
        <ele>508</ele>
        <time>2016-09-29T12:54:25Z</time>
      </trkpt>
      <trkpt lat="45.94256" lon="4.58342">
        <ele>508</ele>
        <time>2016-09-29T12:54:31Z</time>
      </trkpt>
      <trkpt lat="45.94255" lon="4.58343">
        <ele>508</ele>
        <time>2016-09-29T12:54:32Z</time>
      </trkpt>
      <trkpt lat="45.94246" lon="4.58345">
        <ele>506</ele>
        <time>2016-09-29T12:54:39Z</time>
      </trkpt>
      <trkpt lat="45.94245" lon="4.58346">
        <ele>506</ele>
        <time>2016-09-29T12:54:40Z</time>
      </trkpt>
      <trkpt lat="45.94243" lon="4.58357">
        <ele>505</ele>
        <time>2016-09-29T12:54:48Z</time>
      </trkpt>
      <trkpt lat="45.94243" lon="4.58359">
        <ele>505</ele>
        <time>2016-09-29T12:54:49Z</time>
      </trkpt>
      <trkpt lat="45.9424" lon="4.58369">
        <ele>504</ele>
        <time>2016-09-29T12:54:56Z</time>
      </trkpt>
      <trkpt lat="45.9424" lon="4.58371">
        <ele>504</ele>
        <time>2016-09-29T12:54:57Z</time>
      </trkpt>
      <trkpt lat="45.94237" lon="4.58383">
        <ele>503</ele>
        <time>2016-09-29T12:55:04Z</time>
      </trkpt>
      <trkpt lat="45.94237" lon="4.58385">
        <ele>503</ele>
        <time>2016-09-29T12:55:05Z</time>
      </trkpt>
      <trkpt lat="45.94233" lon="4.58396">
        <ele>503</ele>
        <time>2016-09-29T12:55:12Z</time>
      </trkpt>
      <trkpt lat="45.94233" lon="4.58398">
        <ele>503</ele>
        <time>2016-09-29T12:55:13Z</time>
      </trkpt>
      <trkpt lat="45.94228" lon="4.58407">
        <ele>503</ele>
        <time>2016-09-29T12:55:18Z</time>
      </trkpt>
      <trkpt lat="45.94227" lon="4.58409">
        <ele>503</ele>
        <time>2016-09-29T12:55:19Z</time>
      </trkpt>
      <trkpt lat="45.94221" lon="4.58417">
        <ele>501</ele>
        <time>2016-09-29T12:55:25Z</time>
      </trkpt>
      <trkpt lat="45.9422" lon="4.58419">
        <ele>501</ele>
        <time>2016-09-29T12:55:26Z</time>
      </trkpt>
      <trkpt lat="45.94214" lon="4.58427">
        <ele>500</ele>
        <time>2016-09-29T12:55:33Z</time>
      </trkpt>
      <trkpt lat="45.94213" lon="4.58428">
        <ele>500</ele>
        <time>2016-09-29T12:55:34Z</time>
      </trkpt>
      <trkpt lat="45.94208" lon="4.58437">
        <ele>500</ele>
        <time>2016-09-29T12:55:41Z</time>
      </trkpt>
      <trkpt lat="45.94207" lon="4.58439">
        <ele>500</ele>
        <time>2016-09-29T12:55:42Z</time>
      </trkpt>
      <trkpt lat="45.94202" lon="4.58447">
        <ele>500</ele>
        <time>2016-09-29T12:55:49Z</time>
      </trkpt>
      <trkpt lat="45.94201" lon="4.58448">
        <ele>500</ele>
        <time>2016-09-29T12:55:50Z</time>
      </trkpt>
      <trkpt lat="45.94194" lon="4.58456">
        <ele>500</ele>
        <time>2016-09-29T12:55:57Z</time>
      </trkpt>
      <trkpt lat="45.94193" lon="4.58457">
        <ele>500</ele>
        <time>2016-09-29T12:55:58Z</time>
      </trkpt>
      <trkpt lat="45.94187" lon="4.58465">
        <ele>499</ele>
        <time>2016-09-29T12:56:05Z</time>
      </trkpt>
      <trkpt lat="45.94186" lon="4.58466">
        <ele>499</ele>
        <time>2016-09-29T12:56:06Z</time>
      </trkpt>
      <trkpt lat="45.94179" lon="4.58473">
        <ele>499</ele>
        <time>2016-09-29T12:56:14Z</time>
      </trkpt>
      <trkpt lat="45.94178" lon="4.58474">
        <ele>499</ele>
        <time>2016-09-29T12:56:15Z</time>
      </trkpt>
      <trkpt lat="45.94172" lon="4.58482">
        <ele>499</ele>
        <time>2016-09-29T12:56:22Z</time>
      </trkpt>
      <trkpt lat="45.94171" lon="4.58483">
        <ele>499</ele>
        <time>2016-09-29T12:56:23Z</time>
      </trkpt>
      <trkpt lat="45.94165" lon="4.58492">
        <ele>498</ele>
        <time>2016-09-29T12:56:30Z</time>
      </trkpt>
      <trkpt lat="45.94164" lon="4.58493">
        <ele>498</ele>
        <time>2016-09-29T12:56:31Z</time>
      </trkpt>
      <trkpt lat="45.94158" lon="4.585">
        <ele>498</ele>
        <time>2016-09-29T12:56:37Z</time>
      </trkpt>
      <trkpt lat="45.94157" lon="4.58501">
        <ele>497</ele>
        <time>2016-09-29T12:56:38Z</time>
      </trkpt>
      <trkpt lat="45.94149" lon="4.58507">
        <ele>496</ele>
        <time>2016-09-29T12:56:44Z</time>
      </trkpt>
      <trkpt lat="45.94148" lon="4.58508">
        <ele>496</ele>
        <time>2016-09-29T12:56:45Z</time>
      </trkpt>
      <trkpt lat="45.94141" lon="4.58512">
        <ele>495</ele>
        <time>2016-09-29T12:56:50Z</time>
      </trkpt>
      <trkpt lat="45.9414" lon="4.58513">
        <ele>495</ele>
        <time>2016-09-29T12:56:51Z</time>
      </trkpt>
      <trkpt lat="45.94132" lon="4.58518">
        <ele>495</ele>
        <time>2016-09-29T12:56:57Z</time>
      </trkpt>
      <trkpt lat="45.94131" lon="4.58519">
        <ele>495</ele>
        <time>2016-09-29T12:56:58Z</time>
      </trkpt>
      <trkpt lat="45.94125" lon="4.58526">
        <ele>494</ele>
        <time>2016-09-29T12:57:04Z</time>
      </trkpt>
      <trkpt lat="45.94124" lon="4.58527">
        <ele>494</ele>
        <time>2016-09-29T12:57:05Z</time>
      </trkpt>
      <trkpt lat="45.94118" lon="4.58535">
        <ele>494</ele>
        <time>2016-09-29T12:57:11Z</time>
      </trkpt>
      <trkpt lat="45.94117" lon="4.58536">
        <ele>494</ele>
        <time>2016-09-29T12:57:12Z</time>
      </trkpt>
      <trkpt lat="45.9411" lon="4.58543">
        <ele>493</ele>
        <time>2016-09-29T12:57:19Z</time>
      </trkpt>
      <trkpt lat="45.94109" lon="4.58544">
        <ele>493</ele>
        <time>2016-09-29T12:57:20Z</time>
      </trkpt>
      <trkpt lat="45.94101" lon="4.5855">
        <ele>493</ele>
        <time>2016-09-29T12:57:27Z</time>
      </trkpt>
      <trkpt lat="45.941" lon="4.58551">
        <ele>493</ele>
        <time>2016-09-29T12:57:28Z</time>
      </trkpt>
      <trkpt lat="45.94094" lon="4.58557">
        <ele>492</ele>
        <time>2016-09-29T12:57:34Z</time>
      </trkpt>
      <trkpt lat="45.94092" lon="4.58558">
        <ele>492</ele>
        <time>2016-09-29T12:57:35Z</time>
      </trkpt>
      <trkpt lat="45.94086" lon="4.58565">
        <ele>491</ele>
        <time>2016-09-29T12:57:41Z</time>
      </trkpt>
      <trkpt lat="45.94085" lon="4.58566">
        <ele>491</ele>
        <time>2016-09-29T12:57:42Z</time>
      </trkpt>
      <trkpt lat="45.94078" lon="4.58573">
        <ele>488</ele>
        <time>2016-09-29T12:57:48Z</time>
      </trkpt>
      <trkpt lat="45.94077" lon="4.58575">
        <ele>488</ele>
        <time>2016-09-29T12:57:49Z</time>
      </trkpt>
      <trkpt lat="45.94071" lon="4.58584">
        <ele>486</ele>
        <time>2016-09-29T12:57:56Z</time>
      </trkpt>
      <trkpt lat="45.9407" lon="4.58585">
        <ele>485</ele>
        <time>2016-09-29T12:57:57Z</time>
      </trkpt>
      <trkpt lat="45.94064" lon="4.58593">
        <ele>484</ele>
        <time>2016-09-29T12:58:04Z</time>
      </trkpt>
      <trkpt lat="45.94063" lon="4.58594">
        <ele>484</ele>
        <time>2016-09-29T12:58:05Z</time>
      </trkpt>
      <trkpt lat="45.94058" lon="4.58604">
        <ele>483</ele>
        <time>2016-09-29T12:58:12Z</time>
      </trkpt>
      <trkpt lat="45.94058" lon="4.58606">
        <ele>483</ele>
        <time>2016-09-29T12:58:13Z</time>
      </trkpt>
      <trkpt lat="45.94051" lon="4.58615">
        <ele>483</ele>
        <time>2016-09-29T12:58:20Z</time>
      </trkpt>
      <trkpt lat="45.9405" lon="4.58615">
        <ele>482</ele>
        <time>2016-09-29T12:58:21Z</time>
      </trkpt>
      <trkpt lat="45.94044" lon="4.58623">
        <ele>482</ele>
        <time>2016-09-29T12:58:27Z</time>
      </trkpt>
      <trkpt lat="45.94043" lon="4.58625">
        <ele>482</ele>
        <time>2016-09-29T12:58:28Z</time>
      </trkpt>
      <trkpt lat="45.94037" lon="4.58632">
        <ele>481</ele>
        <time>2016-09-29T12:58:41Z</time>
      </trkpt>
      <trkpt lat="45.94036" lon="4.58633">
        <ele>481</ele>
        <time>2016-09-29T12:58:42Z</time>
      </trkpt>
      <trkpt lat="45.94029" lon="4.58641">
        <ele>481</ele>
        <time>2016-09-29T12:58:49Z</time>
      </trkpt>
      <trkpt lat="45.94028" lon="4.58642">
        <ele>481</ele>
        <time>2016-09-29T12:58:50Z</time>
      </trkpt>
      <trkpt lat="45.94021" lon="4.58649">
        <ele>480</ele>
        <time>2016-09-29T12:58:57Z</time>
      </trkpt>
      <trkpt lat="45.9402" lon="4.5865">
        <ele>480</ele>
        <time>2016-09-29T12:58:58Z</time>
      </trkpt>
      <trkpt lat="45.94012" lon="4.58654">
        <ele>479</ele>
        <time>2016-09-29T12:59:04Z</time>
      </trkpt>
      <trkpt lat="45.94011" lon="4.58654">
        <ele>479</ele>
        <time>2016-09-29T12:59:05Z</time>
      </trkpt>
      <trkpt lat="45.94003" lon="4.58658">
        <ele>478</ele>
        <time>2016-09-29T12:59:11Z</time>
      </trkpt>
      <trkpt lat="45.94002" lon="4.58659">
        <ele>478</ele>
        <time>2016-09-29T12:59:12Z</time>
      </trkpt>
      <trkpt lat="45.93995" lon="4.58665">
        <ele>475</ele>
        <time>2016-09-29T12:59:18Z</time>
      </trkpt>
      <trkpt lat="45.93994" lon="4.58667">
        <ele>474</ele>
        <time>2016-09-29T12:59:19Z</time>
      </trkpt>
      <trkpt lat="45.93987" lon="4.58672">
        <ele>472</ele>
        <time>2016-09-29T12:59:25Z</time>
      </trkpt>
      <trkpt lat="45.93985" lon="4.58673">
        <ele>472</ele>
        <time>2016-09-29T12:59:26Z</time>
      </trkpt>
      <trkpt lat="45.93978" lon="4.58677">
        <ele>470</ele>
        <time>2016-09-29T12:59:33Z</time>
      </trkpt>
      <trkpt lat="45.93976" lon="4.58678">
        <ele>470</ele>
        <time>2016-09-29T12:59:34Z</time>
      </trkpt>
      <trkpt lat="45.93968" lon="4.58679">
        <ele>469</ele>
        <time>2016-09-29T12:59:40Z</time>
      </trkpt>
      <trkpt lat="45.93967" lon="4.58679">
        <ele>469</ele>
        <time>2016-09-29T12:59:41Z</time>
      </trkpt>
      <trkpt lat="45.93958" lon="4.58679">
        <ele>468</ele>
        <time>2016-09-29T12:59:48Z</time>
      </trkpt>
      <trkpt lat="45.93957" lon="4.58679">
        <ele>468</ele>
        <time>2016-09-29T12:59:49Z</time>
      </trkpt>
      <trkpt lat="45.93948" lon="4.58679">
        <ele>467</ele>
        <time>2016-09-29T12:59:56Z</time>
      </trkpt>
      <trkpt lat="45.93947" lon="4.58679">
        <ele>467</ele>
        <time>2016-09-29T12:59:57Z</time>
      </trkpt>
      <trkpt lat="45.93939" lon="4.58681">
        <ele>466</ele>
        <time>2016-09-29T13:00:03Z</time>
      </trkpt>
      <trkpt lat="45.93937" lon="4.58681">
        <ele>466</ele>
        <time>2016-09-29T13:00:04Z</time>
      </trkpt>
      <trkpt lat="45.9393" lon="4.58681">
        <ele>466</ele>
        <time>2016-09-29T13:00:10Z</time>
      </trkpt>
      <trkpt lat="45.93928" lon="4.58681">
        <ele>465</ele>
        <time>2016-09-29T13:00:11Z</time>
      </trkpt>
      <trkpt lat="45.93921" lon="4.58678">
        <ele>465</ele>
        <time>2016-09-29T13:00:16Z</time>
      </trkpt>
      <trkpt lat="45.93919" lon="4.58678">
        <ele>465</ele>
        <time>2016-09-29T13:00:17Z</time>
      </trkpt>
      <trkpt lat="45.93911" lon="4.58674">
        <ele>461</ele>
        <time>2016-09-29T13:00:23Z</time>
      </trkpt>
      <trkpt lat="45.9391" lon="4.58674">
        <ele>461</ele>
        <time>2016-09-29T13:00:24Z</time>
      </trkpt>
      <trkpt lat="45.93901" lon="4.58672">
        <ele>460</ele>
        <time>2016-09-29T13:00:45Z</time>
      </trkpt>
      <trkpt lat="45.939" lon="4.58672">
        <ele>460</ele>
        <time>2016-09-29T13:00:46Z</time>
      </trkpt>
      <trkpt lat="45.93891" lon="4.58671">
        <ele>458</ele>
        <time>2016-09-29T13:00:53Z</time>
      </trkpt>
      <trkpt lat="45.9389" lon="4.58671">
        <ele>458</ele>
        <time>2016-09-29T13:00:54Z</time>
      </trkpt>
      <trkpt lat="45.93882" lon="4.58668">
        <ele>457</ele>
        <time>2016-09-29T13:01:00Z</time>
      </trkpt>
      <trkpt lat="45.93881" lon="4.58668">
        <ele>457</ele>
        <time>2016-09-29T13:01:01Z</time>
      </trkpt>
      <trkpt lat="45.93872" lon="4.58666">
        <ele>460</ele>
        <time>2016-09-29T13:01:07Z</time>
      </trkpt>
      <trkpt lat="45.93871" lon="4.58667">
        <ele>460</ele>
        <time>2016-09-29T13:01:08Z</time>
      </trkpt>
      <trkpt lat="45.93863" lon="4.58668">
        <ele>455</ele>
        <time>2016-09-29T13:01:14Z</time>
      </trkpt>
      <trkpt lat="45.93861" lon="4.58668">
        <ele>455</ele>
        <time>2016-09-29T13:01:15Z</time>
      </trkpt>
      <trkpt lat="45.93853" lon="4.58667">
        <ele>455</ele>
        <time>2016-09-29T13:01:22Z</time>
      </trkpt>
      <trkpt lat="45.93852" lon="4.58667">
        <ele>454</ele>
        <time>2016-09-29T13:01:23Z</time>
      </trkpt>
      <trkpt lat="45.93844" lon="4.5867">
        <ele>454</ele>
        <time>2016-09-29T13:01:29Z</time>
      </trkpt>
      <trkpt lat="45.93843" lon="4.5867">
        <ele>454</ele>
        <time>2016-09-29T13:01:30Z</time>
      </trkpt>
      <trkpt lat="45.93834" lon="4.58672">
        <ele>453</ele>
        <time>2016-09-29T13:01:37Z</time>
      </trkpt>
      <trkpt lat="45.93833" lon="4.58671">
        <ele>452</ele>
        <time>2016-09-29T13:01:38Z</time>
      </trkpt>
      <trkpt lat="45.93824" lon="4.5867">
        <ele>451</ele>
        <time>2016-09-29T13:01:44Z</time>
      </trkpt>
      <trkpt lat="45.93823" lon="4.5867">
        <ele>450</ele>
        <time>2016-09-29T13:01:45Z</time>
      </trkpt>
      <trkpt lat="45.93814" lon="4.5867">
        <ele>449</ele>
        <time>2016-09-29T13:01:51Z</time>
      </trkpt>
      <trkpt lat="45.93813" lon="4.5867">
        <ele>449</ele>
        <time>2016-09-29T13:01:52Z</time>
      </trkpt>
      <trkpt lat="45.93804" lon="4.58674">
        <ele>448</ele>
        <time>2016-09-29T13:01:58Z</time>
      </trkpt>
      <trkpt lat="45.93803" lon="4.58675">
        <ele>448</ele>
        <time>2016-09-29T13:01:59Z</time>
      </trkpt>
      <trkpt lat="45.93795" lon="4.5868">
        <ele>447</ele>
        <time>2016-09-29T13:02:05Z</time>
      </trkpt>
      <trkpt lat="45.93794" lon="4.58681">
        <ele>447</ele>
        <time>2016-09-29T13:02:06Z</time>
      </trkpt>
      <trkpt lat="45.93786" lon="4.58686">
        <ele>446</ele>
        <time>2016-09-29T13:02:13Z</time>
      </trkpt>
      <trkpt lat="45.93785" lon="4.58686">
        <ele>446</ele>
        <time>2016-09-29T13:02:14Z</time>
      </trkpt>
      <trkpt lat="45.93778" lon="4.58691">
        <ele>446</ele>
        <time>2016-09-29T13:02:20Z</time>
      </trkpt>
      <trkpt lat="45.93776" lon="4.58692">
        <ele>446</ele>
        <time>2016-09-29T13:02:21Z</time>
      </trkpt>
      <trkpt lat="45.93769" lon="4.58698">
        <ele>445</ele>
        <time>2016-09-29T13:02:28Z</time>
      </trkpt>
      <trkpt lat="45.93768" lon="4.58699">
        <ele>445</ele>
        <time>2016-09-29T13:02:29Z</time>
      </trkpt>
      <trkpt lat="45.93762" lon="4.58707">
        <ele>445</ele>
        <time>2016-09-29T13:02:35Z</time>
      </trkpt>
      <trkpt lat="45.93761" lon="4.58708">
        <ele>445</ele>
        <time>2016-09-29T13:02:36Z</time>
      </trkpt>
      <trkpt lat="45.93754" lon="4.58715">
        <ele>444</ele>
        <time>2016-09-29T13:02:42Z</time>
      </trkpt>
      <trkpt lat="45.93753" lon="4.58715">
        <ele>444</ele>
        <time>2016-09-29T13:02:43Z</time>
      </trkpt>
      <trkpt lat="45.93745" lon="4.58722">
        <ele>440</ele>
        <time>2016-09-29T13:02:50Z</time>
      </trkpt>
      <trkpt lat="45.93744" lon="4.58723">
        <ele>440</ele>
        <time>2016-09-29T13:02:51Z</time>
      </trkpt>
      <trkpt lat="45.93736" lon="4.58728">
        <ele>440</ele>
        <time>2016-09-29T13:02:57Z</time>
      </trkpt>
      <trkpt lat="45.93735" lon="4.58729">
        <ele>440</ele>
        <time>2016-09-29T13:02:58Z</time>
      </trkpt>
      <trkpt lat="45.93728" lon="4.58737">
        <ele>440</ele>
        <time>2016-09-29T13:03:05Z</time>
      </trkpt>
      <trkpt lat="45.93727" lon="4.58738">
        <ele>440</ele>
        <time>2016-09-29T13:03:06Z</time>
      </trkpt>
      <trkpt lat="45.93719" lon="4.58744">
        <ele>440</ele>
        <time>2016-09-29T13:03:13Z</time>
      </trkpt>
      <trkpt lat="45.93718" lon="4.58744">
        <ele>440</ele>
        <time>2016-09-29T13:03:14Z</time>
      </trkpt>
      <trkpt lat="45.93711" lon="4.58749">
        <ele>439</ele>
        <time>2016-09-29T13:03:20Z</time>
      </trkpt>
      <trkpt lat="45.9371" lon="4.5875">
        <ele>435</ele>
        <time>2016-09-29T13:03:21Z</time>
      </trkpt>
      <trkpt lat="45.93703" lon="4.58756">
        <ele>435</ele>
        <time>2016-09-29T13:03:26Z</time>
      </trkpt>
      <trkpt lat="45.93702" lon="4.58757">
        <ele>435</ele>
        <time>2016-09-29T13:03:27Z</time>
      </trkpt>
      <trkpt lat="45.93694" lon="4.58762">
        <ele>435</ele>
        <time>2016-09-29T13:03:33Z</time>
      </trkpt>
      <trkpt lat="45.93693" lon="4.58763">
        <ele>434</ele>
        <time>2016-09-29T13:03:34Z</time>
      </trkpt>
      <trkpt lat="45.93685" lon="4.58769">
        <ele>434</ele>
        <time>2016-09-29T13:03:42Z</time>
      </trkpt>
      <trkpt lat="45.93684" lon="4.5877">
        <ele>434</ele>
        <time>2016-09-29T13:03:43Z</time>
      </trkpt>
      <trkpt lat="45.93676" lon="4.58775">
        <ele>434</ele>
        <time>2016-09-29T13:03:51Z</time>
      </trkpt>
      <trkpt lat="45.93675" lon="4.58776">
        <ele>434</ele>
        <time>2016-09-29T13:03:52Z</time>
      </trkpt>
      <trkpt lat="45.93668" lon="4.58781">
        <ele>434</ele>
        <time>2016-09-29T13:03:58Z</time>
      </trkpt>
      <trkpt lat="45.93667" lon="4.58782">
        <ele>434</ele>
        <time>2016-09-29T13:03:59Z</time>
      </trkpt>
      <trkpt lat="45.93659" lon="4.58785">
        <ele>432</ele>
        <time>2016-09-29T13:04:05Z</time>
      </trkpt>
      <trkpt lat="45.93657" lon="4.58785">
        <ele>432</ele>
        <time>2016-09-29T13:04:06Z</time>
      </trkpt>
      <trkpt lat="45.93649" lon="4.5879">
        <ele>431</ele>
        <time>2016-09-29T13:04:13Z</time>
      </trkpt>
      <trkpt lat="45.93648" lon="4.58791">
        <ele>431</ele>
        <time>2016-09-29T13:04:14Z</time>
      </trkpt>
      <trkpt lat="45.9364" lon="4.58793">
        <ele>431</ele>
        <time>2016-09-29T13:04:20Z</time>
      </trkpt>
      <trkpt lat="45.93639" lon="4.58794">
        <ele>431</ele>
        <time>2016-09-29T13:04:21Z</time>
      </trkpt>
      <trkpt lat="45.93631" lon="4.58797">
        <ele>430</ele>
        <time>2016-09-29T13:04:28Z</time>
      </trkpt>
      <trkpt lat="45.9363" lon="4.58797">
        <ele>430</ele>
        <time>2016-09-29T13:04:29Z</time>
      </trkpt>
      <trkpt lat="45.93623" lon="4.58802">
        <ele>430</ele>
        <time>2016-09-29T13:04:35Z</time>
      </trkpt>
      <trkpt lat="45.93622" lon="4.58803">
        <ele>430</ele>
        <time>2016-09-29T13:04:36Z</time>
      </trkpt>
      <trkpt lat="45.93613" lon="4.58806">
        <ele>429</ele>
        <time>2016-09-29T13:04:43Z</time>
      </trkpt>
      <trkpt lat="45.93612" lon="4.58806">
        <ele>429</ele>
        <time>2016-09-29T13:04:44Z</time>
      </trkpt>
      <trkpt lat="45.93604" lon="4.58809">
        <ele>429</ele>
        <time>2016-09-29T13:04:50Z</time>
      </trkpt>
      <trkpt lat="45.93603" lon="4.5881">
        <ele>428</ele>
        <time>2016-09-29T13:04:51Z</time>
      </trkpt>
      <trkpt lat="45.93594" lon="4.58814">
        <ele>428</ele>
        <time>2016-09-29T13:04:58Z</time>
      </trkpt>
      <trkpt lat="45.93593" lon="4.58815">
        <ele>428</ele>
        <time>2016-09-29T13:04:59Z</time>
      </trkpt>
      <trkpt lat="45.93585" lon="4.58818">
        <ele>427</ele>
        <time>2016-09-29T13:05:13Z</time>
      </trkpt>
      <trkpt lat="45.93584" lon="4.58819">
        <ele>427</ele>
        <time>2016-09-29T13:05:14Z</time>
      </trkpt>
      <trkpt lat="45.93578" lon="4.58824">
        <ele>424</ele>
        <time>2016-09-29T13:05:21Z</time>
      </trkpt>
      <trkpt lat="45.93576" lon="4.58825">
        <ele>424</ele>
        <time>2016-09-29T13:05:22Z</time>
      </trkpt>
      <trkpt lat="45.9357" lon="4.5883">
        <ele>424</ele>
        <time>2016-09-29T13:05:27Z</time>
      </trkpt>
      <trkpt lat="45.93568" lon="4.58831">
        <ele>424</ele>
        <time>2016-09-29T13:05:28Z</time>
      </trkpt>
      <trkpt lat="45.93561" lon="4.58835">
        <ele>419</ele>
        <time>2016-09-29T13:05:33Z</time>
      </trkpt>
      <trkpt lat="45.9356" lon="4.58836">
        <ele>419</ele>
        <time>2016-09-29T13:05:34Z</time>
      </trkpt>
      <trkpt lat="45.93551" lon="4.5884">
        <ele>418</ele>
        <time>2016-09-29T13:05:40Z</time>
      </trkpt>
      <trkpt lat="45.9355" lon="4.5884">
        <ele>418</ele>
        <time>2016-09-29T13:05:41Z</time>
      </trkpt>
      <trkpt lat="45.93541" lon="4.58841">
        <ele>417</ele>
        <time>2016-09-29T13:05:47Z</time>
      </trkpt>
      <trkpt lat="45.9354" lon="4.58841">
        <ele>417</ele>
        <time>2016-09-29T13:05:48Z</time>
      </trkpt>
      <trkpt lat="45.93532" lon="4.58844">
        <ele>416</ele>
        <time>2016-09-29T13:05:54Z</time>
      </trkpt>
      <trkpt lat="45.93531" lon="4.58844">
        <ele>416</ele>
        <time>2016-09-29T13:05:55Z</time>
      </trkpt>
      <trkpt lat="45.93523" lon="4.58847">
        <ele>416</ele>
        <time>2016-09-29T13:06:01Z</time>
      </trkpt>
      <trkpt lat="45.93522" lon="4.58848">
        <ele>416</ele>
        <time>2016-09-29T13:06:02Z</time>
      </trkpt>
      <trkpt lat="45.93514" lon="4.58851">
        <ele>415</ele>
        <time>2016-09-29T13:06:08Z</time>
      </trkpt>
      <trkpt lat="45.93513" lon="4.58852">
        <ele>415</ele>
        <time>2016-09-29T13:06:09Z</time>
      </trkpt>
      <trkpt lat="45.93504" lon="4.58855">
        <ele>415</ele>
        <time>2016-09-29T13:06:16Z</time>
      </trkpt>
      <trkpt lat="45.93503" lon="4.58855">
        <ele>415</ele>
        <time>2016-09-29T13:06:17Z</time>
      </trkpt>
      <trkpt lat="45.93496" lon="4.58862">
        <ele>411</ele>
        <time>2016-09-29T13:06:23Z</time>
      </trkpt>
      <trkpt lat="45.93495" lon="4.58862">
        <ele>411</ele>
        <time>2016-09-29T13:06:24Z</time>
      </trkpt>
      <trkpt lat="45.93491" lon="4.58874">
        <ele>410</ele>
        <time>2016-09-29T13:06:33Z</time>
      </trkpt>
      <trkpt lat="45.93491" lon="4.58875">
        <ele>410</ele>
        <time>2016-09-29T13:06:34Z</time>
      </trkpt>
      <trkpt lat="45.93484" lon="4.58883">
        <ele>409</ele>
        <time>2016-09-29T13:06:41Z</time>
      </trkpt>
      <trkpt lat="45.93483" lon="4.58884">
        <ele>409</ele>
        <time>2016-09-29T13:06:42Z</time>
      </trkpt>
      <trkpt lat="45.93476" lon="4.5889">
        <ele>409</ele>
        <time>2016-09-29T13:06:48Z</time>
      </trkpt>
      <trkpt lat="45.93475" lon="4.58891">
        <ele>409</ele>
        <time>2016-09-29T13:06:49Z</time>
      </trkpt>
      <trkpt lat="45.93469" lon="4.58899">
        <ele>408</ele>
        <time>2016-09-29T13:06:55Z</time>
      </trkpt>
      <trkpt lat="45.93468" lon="4.589">
        <ele>408</ele>
        <time>2016-09-29T13:06:56Z</time>
      </trkpt>
      <trkpt lat="45.93463" lon="4.58908">
        <ele>408</ele>
        <time>2016-09-29T13:07:02Z</time>
      </trkpt>
      <trkpt lat="45.93462" lon="4.58909">
        <ele>408</ele>
        <time>2016-09-29T13:07:03Z</time>
      </trkpt>
      <trkpt lat="45.93454" lon="4.58916">
        <ele>407</ele>
        <time>2016-09-29T13:07:09Z</time>
      </trkpt>
      <trkpt lat="45.93453" lon="4.58917">
        <ele>401</ele>
        <time>2016-09-29T13:07:10Z</time>
      </trkpt>
      <trkpt lat="45.93445" lon="4.58924">
        <ele>401</ele>
        <time>2016-09-29T13:07:16Z</time>
      </trkpt>
      <trkpt lat="45.93444" lon="4.58925">
        <ele>401</ele>
        <time>2016-09-29T13:07:17Z</time>
      </trkpt>
      <trkpt lat="45.93436" lon="4.58931">
        <ele>401</ele>
        <time>2016-09-29T13:07:25Z</time>
      </trkpt>
      <trkpt lat="45.93435" lon="4.58932">
        <ele>401</ele>
        <time>2016-09-29T13:07:26Z</time>
      </trkpt>
      <trkpt lat="45.93428" lon="4.58938">
        <ele>400</ele>
        <time>2016-09-29T13:07:33Z</time>
      </trkpt>
      <trkpt lat="45.93427" lon="4.58939">
        <ele>400</ele>
        <time>2016-09-29T13:07:34Z</time>
      </trkpt>
      <trkpt lat="45.9342" lon="4.58945">
        <ele>400</ele>
        <time>2016-09-29T13:07:41Z</time>
      </trkpt>
      <trkpt lat="45.93419" lon="4.58946">
        <ele>400</ele>
        <time>2016-09-29T13:07:42Z</time>
      </trkpt>
      <trkpt lat="45.93412" lon="4.58952">
        <ele>399</ele>
        <time>2016-09-29T13:07:49Z</time>
      </trkpt>
      <trkpt lat="45.93411" lon="4.58953">
        <ele>399</ele>
        <time>2016-09-29T13:07:50Z</time>
      </trkpt>
      <trkpt lat="45.93405" lon="4.58961">
        <ele>398</ele>
        <time>2016-09-29T13:07:57Z</time>
      </trkpt>
      <trkpt lat="45.93404" lon="4.58962">
        <ele>398</ele>
        <time>2016-09-29T13:07:58Z</time>
      </trkpt>
      <trkpt lat="45.93397" lon="4.58969">
        <ele>398</ele>
        <time>2016-09-29T13:08:05Z</time>
      </trkpt>
      <trkpt lat="45.93396" lon="4.5897">
        <ele>398</ele>
        <time>2016-09-29T13:08:06Z</time>
      </trkpt>
      <trkpt lat="45.93389" lon="4.58978">
        <ele>398</ele>
        <time>2016-09-29T13:08:14Z</time>
      </trkpt>
      <trkpt lat="45.93388" lon="4.58979">
        <ele>398</ele>
        <time>2016-09-29T13:08:15Z</time>
      </trkpt>
      <trkpt lat="45.93382" lon="4.58987">
        <ele>397</ele>
        <time>2016-09-29T13:08:22Z</time>
      </trkpt>
      <trkpt lat="45.93381" lon="4.58988">
        <ele>397</ele>
        <time>2016-09-29T13:08:23Z</time>
      </trkpt>
      <trkpt lat="45.93375" lon="4.58996">
        <ele>397</ele>
        <time>2016-09-29T13:08:29Z</time>
      </trkpt>
      <trkpt lat="45.93374" lon="4.58998">
        <ele>397</ele>
        <time>2016-09-29T13:08:30Z</time>
      </trkpt>
      <trkpt lat="45.9337" lon="4.59009">
        <ele>390</ele>
        <time>2016-09-29T13:08:37Z</time>
      </trkpt>
      <trkpt lat="45.93369" lon="4.5901">
        <ele>390</ele>
        <time>2016-09-29T13:08:38Z</time>
      </trkpt>
      <trkpt lat="45.93364" lon="4.59019">
        <ele>389</ele>
        <time>2016-09-29T13:11:04Z</time>
      </trkpt>
      <trkpt lat="45.93364" lon="4.5902">
        <ele>389</ele>
        <time>2016-09-29T13:11:05Z</time>
      </trkpt>
      <trkpt lat="45.9336" lon="4.5903">
        <ele>388</ele>
        <time>2016-09-29T13:11:14Z</time>
      </trkpt>
      <trkpt lat="45.93359" lon="4.59032">
        <ele>388</ele>
        <time>2016-09-29T13:11:15Z</time>
      </trkpt>
      <trkpt lat="45.93355" lon="4.59042">
        <ele>387</ele>
        <time>2016-09-29T13:11:22Z</time>
      </trkpt>
      <trkpt lat="45.93354" lon="4.59044">
        <ele>387</ele>
        <time>2016-09-29T13:11:23Z</time>
      </trkpt>
      <trkpt lat="45.93349" lon="4.59053">
        <ele>386</ele>
        <time>2016-09-29T13:11:30Z</time>
      </trkpt>
      <trkpt lat="45.93348" lon="4.59054">
        <ele>386</ele>
        <time>2016-09-29T13:11:31Z</time>
      </trkpt>
      <trkpt lat="45.93342" lon="4.59063">
        <ele>385</ele>
        <time>2016-09-29T13:11:38Z</time>
      </trkpt>
      <trkpt lat="45.93341" lon="4.59065">
        <ele>385</ele>
        <time>2016-09-29T13:11:39Z</time>
      </trkpt>
      <trkpt lat="45.93334" lon="4.59072">
        <ele>383</ele>
        <time>2016-09-29T13:11:46Z</time>
      </trkpt>
      <trkpt lat="45.93333" lon="4.59073">
        <ele>384</ele>
        <time>2016-09-29T13:11:47Z</time>
      </trkpt>
      <trkpt lat="45.93326" lon="4.59078">
        <ele>383</ele>
        <time>2016-09-29T13:11:53Z</time>
      </trkpt>
      <trkpt lat="45.93324" lon="4.5908">
        <ele>383</ele>
        <time>2016-09-29T13:11:54Z</time>
      </trkpt>
      <trkpt lat="45.93318" lon="4.59087">
        <ele>378</ele>
        <time>2016-09-29T13:12:01Z</time>
      </trkpt>
      <trkpt lat="45.93317" lon="4.59088">
        <ele>378</ele>
        <time>2016-09-29T13:12:02Z</time>
      </trkpt>
      <trkpt lat="45.93309" lon="4.59092">
        <ele>377</ele>
        <time>2016-09-29T13:12:09Z</time>
      </trkpt>
      <trkpt lat="45.93307" lon="4.59093">
        <ele>377</ele>
        <time>2016-09-29T13:12:10Z</time>
      </trkpt>
      <trkpt lat="45.93299" lon="4.59096">
        <ele>377</ele>
        <time>2016-09-29T13:12:16Z</time>
      </trkpt>
      <trkpt lat="45.93298" lon="4.59096">
        <ele>377</ele>
        <time>2016-09-29T13:12:17Z</time>
      </trkpt>
      <trkpt lat="45.9329" lon="4.59098">
        <ele>377</ele>
        <time>2016-09-29T13:12:23Z</time>
      </trkpt>
      <trkpt lat="45.93289" lon="4.59099">
        <ele>377</ele>
        <time>2016-09-29T13:12:24Z</time>
      </trkpt>
      <trkpt lat="45.93281" lon="4.59102">
        <ele>377</ele>
        <time>2016-09-29T13:12:31Z</time>
      </trkpt>
      <trkpt lat="45.9328" lon="4.59102">
        <ele>377</ele>
        <time>2016-09-29T13:12:32Z</time>
      </trkpt>
      <trkpt lat="45.93272" lon="4.59105">
        <ele>377</ele>
        <time>2016-09-29T13:12:40Z</time>
      </trkpt>
      <trkpt lat="45.9327" lon="4.59106">
        <ele>377</ele>
        <time>2016-09-29T13:12:41Z</time>
      </trkpt>
      <trkpt lat="45.93262" lon="4.59107">
        <ele>377</ele>
        <time>2016-09-29T13:12:48Z</time>
      </trkpt>
      <trkpt lat="45.93262" lon="4.59108">
        <ele>377</ele>
        <time>2016-09-29T13:12:49Z</time>
      </trkpt>
      <trkpt lat="45.93253" lon="4.59111">
        <ele>377</ele>
        <time>2016-09-29T13:13:22Z</time>
      </trkpt>
      <trkpt lat="45.93253" lon="4.59112">
        <ele>377</ele>
        <time>2016-09-29T13:13:23Z</time>
      </trkpt>
      <trkpt lat="45.93244" lon="4.59116">
        <ele>377</ele>
        <time>2016-09-29T13:13:33Z</time>
      </trkpt>
      <trkpt lat="45.93244" lon="4.59117">
        <ele>377</ele>
        <time>2016-09-29T13:13:34Z</time>
      </trkpt>
      <trkpt lat="45.93235" lon="4.59118">
        <ele>376</ele>
        <time>2016-09-29T13:14:02Z</time>
      </trkpt>
      <trkpt lat="45.93235" lon="4.59118">
        <ele>376</ele>
        <time>2016-09-29T13:14:03Z</time>
      </trkpt>
      <trkpt lat="45.93227" lon="4.59124">
        <ele>375</ele>
        <time>2016-09-29T13:15:34Z</time>
      </trkpt>
      <trkpt lat="45.93227" lon="4.59125">
        <ele>375</ele>
        <time>2016-09-29T13:15:35Z</time>
      </trkpt>
      <trkpt lat="45.9322" lon="4.59133">
        <ele>375</ele>
        <time>2016-09-29T13:15:45Z</time>
      </trkpt>
      <trkpt lat="45.93219" lon="4.59133">
        <ele>374</ele>
        <time>2016-09-29T13:15:46Z</time>
      </trkpt>
      <trkpt lat="45.93213" lon="4.59142">
        <ele>374</ele>
        <time>2016-09-29T13:15:56Z</time>
      </trkpt>
      <trkpt lat="45.93212" lon="4.59142">
        <ele>374</ele>
        <time>2016-09-29T13:15:57Z</time>
      </trkpt>
      <trkpt lat="45.93205" lon="4.59148">
        <ele>373</ele>
        <time>2016-09-29T13:16:07Z</time>
      </trkpt>
      <trkpt lat="45.93204" lon="4.59149">
        <ele>373</ele>
        <time>2016-09-29T13:16:08Z</time>
      </trkpt>
      <trkpt lat="45.93199" lon="4.59158">
        <ele>372</ele>
        <time>2016-09-29T13:16:15Z</time>
      </trkpt>
      <trkpt lat="45.93198" lon="4.5916">
        <ele>372</ele>
        <time>2016-09-29T13:16:16Z</time>
      </trkpt>
      <trkpt lat="45.93191" lon="4.59167">
        <ele>365</ele>
        <time>2016-09-29T13:16:23Z</time>
      </trkpt>
      <trkpt lat="45.9319" lon="4.59167">
        <ele>365</ele>
        <time>2016-09-29T13:16:24Z</time>
      </trkpt>
      <trkpt lat="45.93183" lon="4.59173">
        <ele>365</ele>
        <time>2016-09-29T13:16:32Z</time>
      </trkpt>
      <trkpt lat="45.93182" lon="4.59174">
        <ele>365</ele>
        <time>2016-09-29T13:16:33Z</time>
      </trkpt>
      <trkpt lat="45.93175" lon="4.59181">
        <ele>365</ele>
        <time>2016-09-29T13:16:42Z</time>
      </trkpt>
      <trkpt lat="45.93174" lon="4.59181">
        <ele>365</ele>
        <time>2016-09-29T13:16:43Z</time>
      </trkpt>
      <trkpt lat="45.93166" lon="4.59186">
        <ele>364</ele>
        <time>2016-09-29T13:16:52Z</time>
      </trkpt>
      <trkpt lat="45.93165" lon="4.59186">
        <ele>364</ele>
        <time>2016-09-29T13:16:53Z</time>
      </trkpt>
      <trkpt lat="45.93156" lon="4.59188">
        <ele>364</ele>
        <time>2016-09-29T13:17:07Z</time>
      </trkpt>
      <trkpt lat="45.93156" lon="4.59188">
        <ele>364</ele>
        <time>2016-09-29T13:17:08Z</time>
      </trkpt>
      <trkpt lat="45.93149" lon="4.59195">
        <ele>363</ele>
        <time>2016-09-29T13:17:16Z</time>
      </trkpt>
      <trkpt lat="45.93149" lon="4.59196">
        <ele>363</ele>
        <time>2016-09-29T13:17:17Z</time>
      </trkpt>
      <trkpt lat="45.93142" lon="4.59204">
        <ele>363</ele>
        <time>2016-09-29T13:17:28Z</time>
      </trkpt>
      <trkpt lat="45.93141" lon="4.59204">
        <ele>363</ele>
        <time>2016-09-29T13:17:29Z</time>
      </trkpt>
      <trkpt lat="45.93133" lon="4.59206">
        <ele>362</ele>
        <time>2016-09-29T13:17:35Z</time>
      </trkpt>
      <trkpt lat="45.93132" lon="4.59207">
        <ele>362</ele>
        <time>2016-09-29T13:17:36Z</time>
      </trkpt>
      <trkpt lat="45.93124" lon="4.59209">
        <ele>362</ele>
        <time>2016-09-29T13:17:49Z</time>
      </trkpt>
      <trkpt lat="45.93123" lon="4.59209">
        <ele>362</ele>
        <time>2016-09-29T13:17:50Z</time>
      </trkpt>
      <trkpt lat="45.93114" lon="4.59212">
        <ele>362</ele>
        <time>2016-09-29T13:18:07Z</time>
      </trkpt>
      <trkpt lat="45.93114" lon="4.59212">
        <ele>362</ele>
        <time>2016-09-29T13:18:08Z</time>
      </trkpt>
      <trkpt lat="45.93105" lon="4.59211">
        <ele>362</ele>
        <time>2016-09-29T13:18:53Z</time>
      </trkpt>
      <trkpt lat="45.93104" lon="4.59211">
        <ele>362</ele>
        <time>2016-09-29T13:18:54Z</time>
      </trkpt>
      <trkpt lat="45.93096" lon="4.59211">
        <ele>362</ele>
        <time>2016-09-29T13:19:40Z</time>
      </trkpt>
      <trkpt lat="45.93095" lon="4.59211">
        <ele>362</ele>
        <time>2016-09-29T13:19:41Z</time>
      </trkpt>
      <trkpt lat="45.93087" lon="4.59214">
        <ele>361</ele>
        <time>2016-09-29T13:19:49Z</time>
      </trkpt>
      <trkpt lat="45.93086" lon="4.59215">
        <ele>361</ele>
        <time>2016-09-29T13:19:50Z</time>
      </trkpt>
      <trkpt lat="45.93077" lon="4.59218">
        <ele>362</ele>
        <time>2016-09-29T13:19:57Z</time>
      </trkpt>
      <trkpt lat="45.93076" lon="4.59218">
        <ele>362</ele>
        <time>2016-09-29T13:19:58Z</time>
      </trkpt>
      <trkpt lat="45.93068" lon="4.59215">
        <ele>363</ele>
        <time>2016-09-29T13:20:08Z</time>
      </trkpt>
      <trkpt lat="45.93066" lon="4.59215">
        <ele>363</ele>
        <time>2016-09-29T13:20:09Z</time>
      </trkpt>
      <trkpt lat="45.93059" lon="4.59217">
        <ele>363</ele>
        <time>2016-09-29T13:20:14Z</time>
      </trkpt>
      <trkpt lat="45.93057" lon="4.59217">
        <ele>363</ele>
        <time>2016-09-29T13:20:15Z</time>
      </trkpt>
      <trkpt lat="45.9305" lon="4.59219">
        <ele>363</ele>
        <time>2016-09-29T13:20:20Z</time>
      </trkpt>
      <trkpt lat="45.93048" lon="4.59219">
        <ele>363</ele>
        <time>2016-09-29T13:20:21Z</time>
      </trkpt>
      <trkpt lat="45.9304" lon="4.59219">
        <ele>363</ele>
        <time>2016-09-29T13:20:27Z</time>
      </trkpt>
      <trkpt lat="45.93039" lon="4.59219">
        <ele>363</ele>
        <time>2016-09-29T13:20:28Z</time>
      </trkpt>
      <trkpt lat="45.93032" lon="4.59222">
        <ele>362</ele>
        <time>2016-09-29T13:20:34Z</time>
      </trkpt>
      <trkpt lat="45.9303" lon="4.59223">
        <ele>362</ele>
        <time>2016-09-29T13:20:35Z</time>
      </trkpt>
      <trkpt lat="45.93021" lon="4.59225">
        <ele>362</ele>
        <time>2016-09-29T13:20:43Z</time>
      </trkpt>
      <trkpt lat="45.9302" lon="4.59225">
        <ele>362</ele>
        <time>2016-09-29T13:20:44Z</time>
      </trkpt>
      <trkpt lat="45.93011" lon="4.59228">
        <ele>361</ele>
        <time>2016-09-29T13:20:52Z</time>
      </trkpt>
      <trkpt lat="45.93011" lon="4.59228">
        <ele>361</ele>
        <time>2016-09-29T13:20:53Z</time>
      </trkpt>
      <trkpt lat="45.93003" lon="4.59231">
        <ele>360</ele>
        <time>2016-09-29T13:21:00Z</time>
      </trkpt>
      <trkpt lat="45.93001" lon="4.59232">
        <ele>360</ele>
        <time>2016-09-29T13:21:01Z</time>
      </trkpt>
      <trkpt lat="45.92994" lon="4.59239">
        <ele>360</ele>
        <time>2016-09-29T13:21:08Z</time>
      </trkpt>
      <trkpt lat="45.92993" lon="4.59239">
        <ele>360</ele>
        <time>2016-09-29T13:21:09Z</time>
      </trkpt>
      <trkpt lat="45.92986" lon="4.59241">
        <ele>361</ele>
        <time>2016-09-29T13:21:15Z</time>
      </trkpt>
      <trkpt lat="45.92984" lon="4.59241">
        <ele>361</ele>
        <time>2016-09-29T13:21:16Z</time>
      </trkpt>
      <trkpt lat="45.92976" lon="4.59242">
        <ele>362</ele>
        <time>2016-09-29T13:21:23Z</time>
      </trkpt>
      <trkpt lat="45.92975" lon="4.59242">
        <ele>362</ele>
        <time>2016-09-29T13:21:24Z</time>
      </trkpt>
      <trkpt lat="45.92966" lon="4.59242">
        <ele>363</ele>
        <time>2016-09-29T13:21:31Z</time>
      </trkpt>
      <trkpt lat="45.92965" lon="4.59242">
        <ele>363</ele>
        <time>2016-09-29T13:21:32Z</time>
      </trkpt>
      <trkpt lat="45.92957" lon="4.59242">
        <ele>364</ele>
        <time>2016-09-29T13:21:38Z</time>
      </trkpt>
      <trkpt lat="45.92955" lon="4.59242">
        <ele>364</ele>
        <time>2016-09-29T13:21:39Z</time>
      </trkpt>
      <trkpt lat="45.92946" lon="4.59242">
        <ele>364</ele>
        <time>2016-09-29T13:21:45Z</time>
      </trkpt>
      <trkpt lat="45.92945" lon="4.59241">
        <ele>363</ele>
        <time>2016-09-29T13:21:46Z</time>
      </trkpt>
      <trkpt lat="45.92937" lon="4.59241">
        <ele>363</ele>
        <time>2016-09-29T13:21:53Z</time>
      </trkpt>
      <trkpt lat="45.92936" lon="4.59242">
        <ele>363</ele>
        <time>2016-09-29T13:21:54Z</time>
      </trkpt>
      <trkpt lat="45.92927" lon="4.59244">
        <ele>361</ele>
        <time>2016-09-29T13:22:01Z</time>
      </trkpt>
      <trkpt lat="45.92926" lon="4.59244">
        <ele>361</ele>
        <time>2016-09-29T13:22:02Z</time>
      </trkpt>
      <trkpt lat="45.92919" lon="4.59239">
        <ele>361</ele>
        <time>2016-09-29T13:22:09Z</time>
      </trkpt>
      <trkpt lat="45.92917" lon="4.59239">
        <ele>361</ele>
        <time>2016-09-29T13:22:10Z</time>
      </trkpt>
      <trkpt lat="45.92909" lon="4.59239">
        <ele>361</ele>
        <time>2016-09-29T13:22:18Z</time>
      </trkpt>
      <trkpt lat="45.92908" lon="4.59238">
        <ele>361</ele>
        <time>2016-09-29T13:22:19Z</time>
      </trkpt>
      <trkpt lat="45.929" lon="4.5924">
        <ele>362</ele>
        <time>2016-09-29T13:22:27Z</time>
      </trkpt>
      <trkpt lat="45.92899" lon="4.59239">
        <ele>362</ele>
        <time>2016-09-29T13:22:28Z</time>
      </trkpt>
      <trkpt lat="45.92891" lon="4.59237">
        <ele>362</ele>
        <time>2016-09-29T13:22:35Z</time>
      </trkpt>
      <trkpt lat="45.9289" lon="4.59236">
        <ele>363</ele>
        <time>2016-09-29T13:22:36Z</time>
      </trkpt>
      <trkpt lat="45.92881" lon="4.59237">
        <ele>362</ele>
        <time>2016-09-29T13:22:43Z</time>
      </trkpt>
      <trkpt lat="45.9288" lon="4.59237">
        <ele>362</ele>
        <time>2016-09-29T13:22:44Z</time>
      </trkpt>
      <trkpt lat="45.92871" lon="4.59234">
        <ele>362</ele>
        <time>2016-09-29T13:22:50Z</time>
      </trkpt>
      <trkpt lat="45.9287" lon="4.59234">
        <ele>362</ele>
        <time>2016-09-29T13:22:51Z</time>
      </trkpt>
      <trkpt lat="45.92862" lon="4.59234">
        <ele>361</ele>
        <time>2016-09-29T13:22:56Z</time>
      </trkpt>
      <trkpt lat="45.92861" lon="4.59234">
        <ele>361</ele>
        <time>2016-09-29T13:22:57Z</time>
      </trkpt>
      <trkpt lat="45.92852" lon="4.59233">
        <ele>360</ele>
        <time>2016-09-29T13:23:04Z</time>
      </trkpt>
      <trkpt lat="45.9285" lon="4.59232">
        <ele>360</ele>
        <time>2016-09-29T13:23:05Z</time>
      </trkpt>
      <trkpt lat="45.92843" lon="4.59228">
        <ele>360</ele>
        <time>2016-09-29T13:23:11Z</time>
      </trkpt>
      <trkpt lat="45.92841" lon="4.59227">
        <ele>360</ele>
        <time>2016-09-29T13:23:12Z</time>
      </trkpt>
      <trkpt lat="45.92833" lon="4.59225">
        <ele>357</ele>
        <time>2016-09-29T13:23:18Z</time>
      </trkpt>
      <trkpt lat="45.92832" lon="4.59225">
        <ele>357</ele>
        <time>2016-09-29T13:23:19Z</time>
      </trkpt>
      <trkpt lat="45.92823" lon="4.59222">
        <ele>357</ele>
        <time>2016-09-29T13:23:26Z</time>
      </trkpt>
      <trkpt lat="45.92822" lon="4.59221">
        <ele>358</ele>
        <time>2016-09-29T13:23:27Z</time>
      </trkpt>
      <trkpt lat="45.92815" lon="4.59217">
        <ele>358</ele>
        <time>2016-09-29T13:23:33Z</time>
      </trkpt>
      <trkpt lat="45.92814" lon="4.59217">
        <ele>358</ele>
        <time>2016-09-29T13:23:34Z</time>
      </trkpt>
      <trkpt lat="45.92805" lon="4.59215">
        <ele>358</ele>
        <time>2016-09-29T13:23:42Z</time>
      </trkpt>
      <trkpt lat="45.92804" lon="4.59214">
        <ele>358</ele>
        <time>2016-09-29T13:23:43Z</time>
      </trkpt>
      <trkpt lat="45.92797" lon="4.59208">
        <ele>359</ele>
        <time>2016-09-29T13:23:49Z</time>
      </trkpt>
      <trkpt lat="45.92795" lon="4.59207">
        <ele>359</ele>
        <time>2016-09-29T13:23:50Z</time>
      </trkpt>
      <trkpt lat="45.92787" lon="4.59204">
        <ele>359</ele>
        <time>2016-09-29T13:23:57Z</time>
      </trkpt>
      <trkpt lat="45.92786" lon="4.59204">
        <ele>359</ele>
        <time>2016-09-29T13:23:58Z</time>
      </trkpt>
      <trkpt lat="45.92778" lon="4.59207">
        <ele>358</ele>
        <time>2016-09-29T13:24:04Z</time>
      </trkpt>
      <trkpt lat="45.92776" lon="4.59207">
        <ele>358</ele>
        <time>2016-09-29T13:24:05Z</time>
      </trkpt>
      <trkpt lat="45.92768" lon="4.59205">
        <ele>358</ele>
        <time>2016-09-29T13:24:13Z</time>
      </trkpt>
      <trkpt lat="45.92766" lon="4.59204">
        <ele>358</ele>
        <time>2016-09-29T13:24:14Z</time>
      </trkpt>
      <trkpt lat="45.92759" lon="4.59199">
        <ele>359</ele>
        <time>2016-09-29T13:24:20Z</time>
      </trkpt>
      <trkpt lat="45.92757" lon="4.59198">
        <ele>359</ele>
        <time>2016-09-29T13:24:21Z</time>
      </trkpt>
      <trkpt lat="45.92749" lon="4.59195">
        <ele>356</ele>
        <time>2016-09-29T13:24:27Z</time>
      </trkpt>
      <trkpt lat="45.92748" lon="4.59195">
        <ele>356</ele>
        <time>2016-09-29T13:24:28Z</time>
      </trkpt>
      <trkpt lat="45.9274" lon="4.59194">
        <ele>356</ele>
        <time>2016-09-29T13:24:34Z</time>
      </trkpt>
      <trkpt lat="45.92739" lon="4.59193">
        <ele>356</ele>
        <time>2016-09-29T13:24:35Z</time>
      </trkpt>
      <trkpt lat="45.92731" lon="4.59194">
        <ele>356</ele>
        <time>2016-09-29T13:24:40Z</time>
      </trkpt>
      <trkpt lat="45.9273" lon="4.59194">
        <ele>356</ele>
        <time>2016-09-29T13:24:41Z</time>
      </trkpt>
      <trkpt lat="45.92722" lon="4.59192">
        <ele>356</ele>
        <time>2016-09-29T13:24:46Z</time>
      </trkpt>
      <trkpt lat="45.92721" lon="4.59191">
        <ele>356</ele>
        <time>2016-09-29T13:24:47Z</time>
      </trkpt>
      <trkpt lat="45.92713" lon="4.59192">
        <ele>355</ele>
        <time>2016-09-29T13:24:54Z</time>
      </trkpt>
      <trkpt lat="45.92711" lon="4.59191">
        <ele>355</ele>
        <time>2016-09-29T13:24:55Z</time>
      </trkpt>
      <trkpt lat="45.92703" lon="4.59188">
        <ele>355</ele>
        <time>2016-09-29T13:25:03Z</time>
      </trkpt>
      <trkpt lat="45.92702" lon="4.59188">
        <ele>355</ele>
        <time>2016-09-29T13:25:04Z</time>
      </trkpt>
      <trkpt lat="45.92694" lon="4.59183">
        <ele>356</ele>
        <time>2016-09-29T13:25:10Z</time>
      </trkpt>
      <trkpt lat="45.92693" lon="4.59182">
        <ele>356</ele>
        <time>2016-09-29T13:25:11Z</time>
      </trkpt>
      <trkpt lat="45.92694" lon="4.59171">
        <ele>357</ele>
        <time>2016-09-29T13:25:29Z</time>
      </trkpt>
      <trkpt lat="45.92694" lon="4.59169">
        <ele>357</ele>
        <time>2016-09-29T13:25:30Z</time>
      </trkpt>
      <trkpt lat="45.92698" lon="4.59181">
        <ele>356</ele>
        <time>2016-09-29T13:27:01Z</time>
      </trkpt>
      <trkpt lat="45.92698" lon="4.59181">
        <ele>356</ele>
        <time>2016-09-29T13:27:02Z</time>
      </trkpt>
      <trkpt lat="45.92703" lon="4.59192">
        <ele>355</ele>
        <time>2016-09-29T13:27:22Z</time>
      </trkpt>
      <trkpt lat="45.92704" lon="4.59192">
        <ele>355</ele>
        <time>2016-09-29T13:27:23Z</time>
      </trkpt>
      <trkpt lat="45.92712" lon="4.59194">
        <ele>355</ele>
        <time>2016-09-29T13:27:32Z</time>
      </trkpt>
      <trkpt lat="45.92713" lon="4.59194">
        <ele>355</ele>
        <time>2016-09-29T13:27:33Z</time>
      </trkpt>
      <trkpt lat="45.92722" lon="4.59192">
        <ele>355</ele>
        <time>2016-09-29T13:27:43Z</time>
      </trkpt>
      <trkpt lat="45.92722" lon="4.59192">
        <ele>356</ele>
        <time>2016-09-29T13:27:44Z</time>
      </trkpt>
      <trkpt lat="45.9273" lon="4.59193">
        <ele>356</ele>
        <time>2016-09-29T13:27:52Z</time>
      </trkpt>
      <trkpt lat="45.92732" lon="4.59194">
        <ele>356</ele>
        <time>2016-09-29T13:27:53Z</time>
      </trkpt>
      <trkpt lat="45.9274" lon="4.59198">
        <ele>355</ele>
        <time>2016-09-29T13:28:00Z</time>
      </trkpt>
      <trkpt lat="45.92741" lon="4.59198">
        <ele>355</ele>
        <time>2016-09-29T13:28:01Z</time>
      </trkpt>
      <trkpt lat="45.92748" lon="4.59204">
        <ele>355</ele>
        <time>2016-09-29T13:28:09Z</time>
      </trkpt>
      <trkpt lat="45.92749" lon="4.59205">
        <ele>355</ele>
        <time>2016-09-29T13:28:10Z</time>
      </trkpt>
      <trkpt lat="45.92754" lon="4.59215">
        <ele>356</ele>
        <time>2016-09-29T13:28:17Z</time>
      </trkpt>
      <trkpt lat="45.92755" lon="4.59216">
        <ele>356</ele>
        <time>2016-09-29T13:28:18Z</time>
      </trkpt>
      <trkpt lat="45.92758" lon="4.59226">
        <ele>355</ele>
        <time>2016-09-29T13:28:26Z</time>
      </trkpt>
      <trkpt lat="45.92759" lon="4.59229">
        <ele>354</ele>
        <time>2016-09-29T13:28:27Z</time>
      </trkpt>
      <trkpt lat="45.92762" lon="4.5924">
        <ele>352</ele>
        <time>2016-09-29T13:28:36Z</time>
      </trkpt>
      <trkpt lat="45.92762" lon="4.59242">
        <ele>352</ele>
        <time>2016-09-29T13:28:37Z</time>
      </trkpt>
      <trkpt lat="45.92766" lon="4.59253">
        <ele>348</ele>
        <time>2016-09-29T13:28:45Z</time>
      </trkpt>
      <trkpt lat="45.92767" lon="4.59255">
        <ele>348</ele>
        <time>2016-09-29T13:28:46Z</time>
      </trkpt>
      <trkpt lat="45.92768" lon="4.59267">
        <ele>348</ele>
        <time>2016-09-29T13:28:52Z</time>
      </trkpt>
      <trkpt lat="45.92768" lon="4.59268">
        <ele>348</ele>
        <time>2016-09-29T13:28:53Z</time>
      </trkpt>
      <trkpt lat="45.9277" lon="4.5928">
        <ele>349</ele>
        <time>2016-09-29T13:28:59Z</time>
      </trkpt>
      <trkpt lat="45.9277" lon="4.59282">
        <ele>349</ele>
        <time>2016-09-29T13:29:00Z</time>
      </trkpt>
      <trkpt lat="45.92767" lon="4.59293">
        <ele>349</ele>
        <time>2016-09-29T13:29:08Z</time>
      </trkpt>
      <trkpt lat="45.92767" lon="4.59295">
        <ele>349</ele>
        <time>2016-09-29T13:29:09Z</time>
      </trkpt>
      <trkpt lat="45.92768" lon="4.59307">
        <ele>350</ele>
        <time>2016-09-29T13:29:17Z</time>
      </trkpt>
      <trkpt lat="45.92768" lon="4.59309">
        <ele>350</ele>
        <time>2016-09-29T13:29:18Z</time>
      </trkpt>
      <trkpt lat="45.92765" lon="4.5932">
        <ele>350</ele>
        <time>2016-09-29T13:29:27Z</time>
      </trkpt>
      <trkpt lat="45.92764" lon="4.59322">
        <ele>350</ele>
        <time>2016-09-29T13:29:28Z</time>
      </trkpt>
      <trkpt lat="45.92759" lon="4.59331">
        <ele>351</ele>
        <time>2016-09-29T13:29:36Z</time>
      </trkpt>
      <trkpt lat="45.92758" lon="4.59332">
        <ele>351</ele>
        <time>2016-09-29T13:29:37Z</time>
      </trkpt>
      <trkpt lat="45.92751" lon="4.59341">
        <ele>354</ele>
        <time>2016-09-29T13:29:45Z</time>
      </trkpt>
      <trkpt lat="45.92751" lon="4.59342">
        <ele>354</ele>
        <time>2016-09-29T13:29:46Z</time>
      </trkpt>
      <trkpt lat="45.92744" lon="4.5935">
        <ele>355</ele>
        <time>2016-09-29T13:29:57Z</time>
      </trkpt>
      <trkpt lat="45.92743" lon="4.59351">
        <ele>355</ele>
        <time>2016-09-29T13:29:58Z</time>
      </trkpt>
      <trkpt lat="45.92736" lon="4.59355">
        <ele>355</ele>
        <time>2016-09-29T13:30:05Z</time>
      </trkpt>
      <trkpt lat="45.92734" lon="4.59356">
        <ele>355</ele>
        <time>2016-09-29T13:30:06Z</time>
      </trkpt>
      <trkpt lat="45.92727" lon="4.59359">
        <ele>356</ele>
        <time>2016-09-29T13:30:10Z</time>
      </trkpt>
      <trkpt lat="45.92725" lon="4.5936">
        <ele>356</ele>
        <time>2016-09-29T13:30:11Z</time>
      </trkpt>
      <trkpt lat="45.92718" lon="4.59363">
        <ele>356</ele>
        <time>2016-09-29T13:30:15Z</time>
      </trkpt>
      <trkpt lat="45.92716" lon="4.59364">
        <ele>356</ele>
        <time>2016-09-29T13:30:16Z</time>
      </trkpt>
      <trkpt lat="45.92709" lon="4.59369">
        <ele>356</ele>
        <time>2016-09-29T13:30:21Z</time>
      </trkpt>
      <trkpt lat="45.92708" lon="4.5937">
        <ele>356</ele>
        <time>2016-09-29T13:30:22Z</time>
      </trkpt>
      <trkpt lat="45.92701" lon="4.59376">
        <ele>356</ele>
        <time>2016-09-29T13:30:28Z</time>
      </trkpt>
      <trkpt lat="45.927" lon="4.59377">
        <ele>356</ele>
        <time>2016-09-29T13:30:29Z</time>
      </trkpt>
      <trkpt lat="45.92692" lon="4.5938">
        <ele>356</ele>
        <time>2016-09-29T13:30:36Z</time>
      </trkpt>
      <trkpt lat="45.92691" lon="4.59382">
        <ele>356</ele>
        <time>2016-09-29T13:30:37Z</time>
      </trkpt>
      <trkpt lat="45.92686" lon="4.59391">
        <ele>357</ele>
        <time>2016-09-29T13:30:44Z</time>
      </trkpt>
      <trkpt lat="45.92685" lon="4.59393">
        <ele>357</ele>
        <time>2016-09-29T13:30:45Z</time>
      </trkpt>
      <trkpt lat="45.92682" lon="4.59404">
        <ele>357</ele>
        <time>2016-09-29T13:30:53Z</time>
      </trkpt>
      <trkpt lat="45.92681" lon="4.59406">
        <ele>357</ele>
        <time>2016-09-29T13:30:54Z</time>
      </trkpt>
      <trkpt lat="45.92674" lon="4.59412">
        <ele>357</ele>
        <time>2016-09-29T13:31:00Z</time>
      </trkpt>
      <trkpt lat="45.92672" lon="4.59414">
        <ele>357</ele>
        <time>2016-09-29T13:31:01Z</time>
      </trkpt>
      <trkpt lat="45.92664" lon="4.5942">
        <ele>357</ele>
        <time>2016-09-29T13:31:07Z</time>
      </trkpt>
      <trkpt lat="45.92663" lon="4.59421">
        <ele>358</ele>
        <time>2016-09-29T13:31:08Z</time>
      </trkpt>
      <trkpt lat="45.92657" lon="4.59429">
        <ele>358</ele>
        <time>2016-09-29T13:31:15Z</time>
      </trkpt>
      <trkpt lat="45.92656" lon="4.5943">
        <ele>358</ele>
        <time>2016-09-29T13:31:16Z</time>
      </trkpt>
      <trkpt lat="45.92651" lon="4.59439">
        <ele>359</ele>
        <time>2016-09-29T13:31:23Z</time>
      </trkpt>
      <trkpt lat="45.9265" lon="4.5944">
        <ele>359</ele>
        <time>2016-09-29T13:31:24Z</time>
      </trkpt>
      <trkpt lat="45.92645" lon="4.5945">
        <ele>359</ele>
        <time>2016-09-29T13:31:31Z</time>
      </trkpt>
      <trkpt lat="45.92645" lon="4.59452">
        <ele>360</ele>
        <time>2016-09-29T13:31:32Z</time>
      </trkpt>
      <trkpt lat="45.92639" lon="4.5946">
        <ele>360</ele>
        <time>2016-09-29T13:31:39Z</time>
      </trkpt>
      <trkpt lat="45.92639" lon="4.59462">
        <ele>360</ele>
        <time>2016-09-29T13:31:40Z</time>
      </trkpt>
      <trkpt lat="45.92631" lon="4.59468">
        <ele>360</ele>
        <time>2016-09-29T13:31:48Z</time>
      </trkpt>
      <trkpt lat="45.9263" lon="4.59468">
        <ele>360</ele>
        <time>2016-09-29T13:31:49Z</time>
      </trkpt>
      <trkpt lat="45.92622" lon="4.59472">
        <ele>360</ele>
        <time>2016-09-29T13:31:56Z</time>
      </trkpt>
      <trkpt lat="45.92621" lon="4.59472">
        <ele>360</ele>
        <time>2016-09-29T13:31:57Z</time>
      </trkpt>
      <trkpt lat="45.92613" lon="4.59472">
        <ele>360</ele>
        <time>2016-09-29T13:32:11Z</time>
      </trkpt>
      <trkpt lat="45.92611" lon="4.59472">
        <ele>360</ele>
        <time>2016-09-29T13:32:12Z</time>
      </trkpt>
      <trkpt lat="45.92603" lon="4.59472">
        <ele>360</ele>
        <time>2016-09-29T13:32:16Z</time>
      </trkpt>
      <trkpt lat="45.92602" lon="4.59471">
        <ele>360</ele>
        <time>2016-09-29T13:32:17Z</time>
      </trkpt>
      <trkpt lat="45.92593" lon="4.5947">
        <ele>360</ele>
        <time>2016-09-29T13:32:22Z</time>
      </trkpt>
      <trkpt lat="45.92591" lon="4.5947">
        <ele>360</ele>
        <time>2016-09-29T13:32:23Z</time>
      </trkpt>
      <trkpt lat="45.92582" lon="4.59469">
        <ele>361</ele>
        <time>2016-09-29T13:32:28Z</time>
      </trkpt>
      <trkpt lat="45.92581" lon="4.59469">
        <ele>361</ele>
        <time>2016-09-29T13:32:29Z</time>
      </trkpt>
      <trkpt lat="45.92572" lon="4.59468">
        <ele>361</ele>
        <time>2016-09-29T13:32:36Z</time>
      </trkpt>
      <trkpt lat="45.92571" lon="4.59467">
        <ele>361</ele>
        <time>2016-09-29T13:32:37Z</time>
      </trkpt>
      <trkpt lat="45.92562" lon="4.59466">
        <ele>361</ele>
        <time>2016-09-29T13:32:44Z</time>
      </trkpt>
      <trkpt lat="45.92561" lon="4.59465">
        <ele>361</ele>
        <time>2016-09-29T13:32:45Z</time>
      </trkpt>
      <trkpt lat="45.92554" lon="4.59462">
        <ele>360</ele>
        <time>2016-09-29T13:32:50Z</time>
      </trkpt>
      <trkpt lat="45.92552" lon="4.59461">
        <ele>360</ele>
        <time>2016-09-29T13:32:51Z</time>
      </trkpt>
      <trkpt lat="45.92545" lon="4.59454">
        <ele>360</ele>
        <time>2016-09-29T13:32:58Z</time>
      </trkpt>
      <trkpt lat="45.92543" lon="4.59453">
        <ele>360</ele>
        <time>2016-09-29T13:32:59Z</time>
      </trkpt>
      <trkpt lat="45.92536" lon="4.59452">
        <ele>360</ele>
        <time>2016-09-29T13:33:04Z</time>
      </trkpt>
      <trkpt lat="45.92534" lon="4.59452">
        <ele>360</ele>
        <time>2016-09-29T13:33:05Z</time>
      </trkpt>
      <trkpt lat="45.92526" lon="4.59452">
        <ele>360</ele>
        <time>2016-09-29T13:33:10Z</time>
      </trkpt>
      <trkpt lat="45.92525" lon="4.59452">
        <ele>360</ele>
        <time>2016-09-29T13:33:11Z</time>
      </trkpt>
      <trkpt lat="45.92516" lon="4.59453">
        <ele>360</ele>
        <time>2016-09-29T13:33:19Z</time>
      </trkpt>
      <trkpt lat="45.92515" lon="4.59452">
        <ele>360</ele>
        <time>2016-09-29T13:33:20Z</time>
      </trkpt>
      <trkpt lat="45.92507" lon="4.59451">
        <ele>360</ele>
        <time>2016-09-29T13:33:27Z</time>
      </trkpt>
      <trkpt lat="45.92505" lon="4.59451">
        <ele>360</ele>
        <time>2016-09-29T13:33:28Z</time>
      </trkpt>
      <trkpt lat="45.92497" lon="4.59451">
        <ele>363</ele>
        <time>2016-09-29T13:33:37Z</time>
      </trkpt>
      <trkpt lat="45.92496" lon="4.59451">
        <ele>363</ele>
        <time>2016-09-29T13:33:38Z</time>
      </trkpt>
      <trkpt lat="45.92488" lon="4.5945">
        <ele>363</ele>
        <time>2016-09-29T13:33:43Z</time>
      </trkpt>
      <trkpt lat="45.92486" lon="4.5945">
        <ele>363</ele>
        <time>2016-09-29T13:33:44Z</time>
      </trkpt>
      <trkpt lat="45.92478" lon="4.5945">
        <ele>363</ele>
        <time>2016-09-29T13:33:50Z</time>
      </trkpt>
      <trkpt lat="45.92477" lon="4.5945">
        <ele>363</ele>
        <time>2016-09-29T13:33:51Z</time>
      </trkpt>
      <trkpt lat="45.92469" lon="4.59447">
        <ele>363</ele>
        <time>2016-09-29T13:33:58Z</time>
      </trkpt>
      <trkpt lat="45.92468" lon="4.59447">
        <ele>364</ele>
        <time>2016-09-29T13:33:59Z</time>
      </trkpt>
      <trkpt lat="45.92459" lon="4.59445">
        <ele>364</ele>
        <time>2016-09-29T13:34:06Z</time>
      </trkpt>
      <trkpt lat="45.92458" lon="4.59445">
        <ele>364</ele>
        <time>2016-09-29T13:34:07Z</time>
      </trkpt>
      <trkpt lat="45.9245" lon="4.59443">
        <ele>364</ele>
        <time>2016-09-29T13:34:12Z</time>
      </trkpt>
      <trkpt lat="45.92449" lon="4.59443">
        <ele>364</ele>
        <time>2016-09-29T13:34:13Z</time>
      </trkpt>
      <trkpt lat="45.9244" lon="4.59441">
        <ele>364</ele>
        <time>2016-09-29T13:34:19Z</time>
      </trkpt>
      <trkpt lat="45.92439" lon="4.59441">
        <ele>364</ele>
        <time>2016-09-29T13:34:20Z</time>
      </trkpt>
      <trkpt lat="45.92431" lon="4.59438">
        <ele>364</ele>
        <time>2016-09-29T13:34:26Z</time>
      </trkpt>
      <trkpt lat="45.9243" lon="4.59438">
        <ele>363</ele>
        <time>2016-09-29T13:34:27Z</time>
      </trkpt>
      <trkpt lat="45.92423" lon="4.5943">
        <ele>362</ele>
        <time>2016-09-29T13:34:34Z</time>
      </trkpt>
      <trkpt lat="45.92423" lon="4.59429">
        <ele>362</ele>
        <time>2016-09-29T13:34:35Z</time>
      </trkpt>
      <trkpt lat="45.92415" lon="4.59422">
        <ele>362</ele>
        <time>2016-09-29T13:34:45Z</time>
      </trkpt>
      <trkpt lat="45.92415" lon="4.59422">
        <ele>362</ele>
        <time>2016-09-29T13:34:46Z</time>
      </trkpt>
      <trkpt lat="45.92407" lon="4.59416">
        <ele>357</ele>
        <time>2016-09-29T13:34:55Z</time>
      </trkpt>
      <trkpt lat="45.92406" lon="4.59416">
        <ele>357</ele>
        <time>2016-09-29T13:34:56Z</time>
      </trkpt>
      <trkpt lat="45.92397" lon="4.59411">
        <ele>356</ele>
        <time>2016-09-29T13:35:03Z</time>
      </trkpt>
      <trkpt lat="45.92396" lon="4.59411">
        <ele>356</ele>
        <time>2016-09-29T13:35:04Z</time>
      </trkpt>
      <trkpt lat="45.92387" lon="4.59409">
        <ele>355</ele>
        <time>2016-09-29T13:35:10Z</time>
      </trkpt>
      <trkpt lat="45.92386" lon="4.59409">
        <ele>355</ele>
        <time>2016-09-29T13:35:11Z</time>
      </trkpt>
      <trkpt lat="45.92378" lon="4.5941">
        <ele>355</ele>
        <time>2016-09-29T13:35:16Z</time>
      </trkpt>
      <trkpt lat="45.92377" lon="4.5941">
        <ele>355</ele>
        <time>2016-09-29T13:35:17Z</time>
      </trkpt>
      <trkpt lat="45.92368" lon="4.59409">
        <ele>356</ele>
        <time>2016-09-29T13:35:23Z</time>
      </trkpt>
      <trkpt lat="45.92366" lon="4.59409">
        <ele>356</ele>
        <time>2016-09-29T13:35:24Z</time>
      </trkpt>
      <trkpt lat="45.92359" lon="4.59408">
        <ele>357</ele>
        <time>2016-09-29T13:35:29Z</time>
      </trkpt>
      <trkpt lat="45.92357" lon="4.59408">
        <ele>357</ele>
        <time>2016-09-29T13:35:30Z</time>
      </trkpt>
      <trkpt lat="45.9235" lon="4.59409">
        <ele>359</ele>
        <time>2016-09-29T13:35:35Z</time>
      </trkpt>
      <trkpt lat="45.92348" lon="4.59409">
        <ele>359</ele>
        <time>2016-09-29T13:35:36Z</time>
      </trkpt>
      <trkpt lat="45.9234" lon="4.59408">
        <ele>361</ele>
        <time>2016-09-29T13:35:43Z</time>
      </trkpt>
      <trkpt lat="45.92339" lon="4.59408">
        <ele>361</ele>
        <time>2016-09-29T13:35:44Z</time>
      </trkpt>
      <trkpt lat="45.9233" lon="4.59412">
        <ele>363</ele>
        <time>2016-09-29T13:35:51Z</time>
      </trkpt>
      <trkpt lat="45.92329" lon="4.59413">
        <ele>363</ele>
        <time>2016-09-29T13:35:52Z</time>
      </trkpt>
      <trkpt lat="45.92321" lon="4.59418">
        <ele>368</ele>
        <time>2016-09-29T13:36:02Z</time>
      </trkpt>
      <trkpt lat="45.9232" lon="4.59418">
        <ele>369</ele>
        <time>2016-09-29T13:36:03Z</time>
      </trkpt>
      <trkpt lat="45.92312" lon="4.59421">
        <ele>369</ele>
        <time>2016-09-29T13:36:09Z</time>
      </trkpt>
      <trkpt lat="45.92311" lon="4.59422">
        <ele>370</ele>
        <time>2016-09-29T13:36:10Z</time>
      </trkpt>
      <trkpt lat="45.92303" lon="4.59425">
        <ele>370</ele>
        <time>2016-09-29T13:36:16Z</time>
      </trkpt>
      <trkpt lat="45.92302" lon="4.59426">
        <ele>370</ele>
        <time>2016-09-29T13:36:17Z</time>
      </trkpt>
      <trkpt lat="45.92294" lon="4.59429">
        <ele>370</ele>
        <time>2016-09-29T13:36:22Z</time>
      </trkpt>
      <trkpt lat="45.92293" lon="4.59429">
        <ele>370</ele>
        <time>2016-09-29T13:36:23Z</time>
      </trkpt>
      <trkpt lat="45.92284" lon="4.59428">
        <ele>370</ele>
        <time>2016-09-29T13:36:28Z</time>
      </trkpt>
      <trkpt lat="45.92283" lon="4.59428">
        <ele>369</ele>
        <time>2016-09-29T13:36:29Z</time>
      </trkpt>
      <trkpt lat="45.92274" lon="4.59429">
        <ele>369</ele>
        <time>2016-09-29T13:36:35Z</time>
      </trkpt>
      <trkpt lat="45.92273" lon="4.59429">
        <ele>369</ele>
        <time>2016-09-29T13:36:36Z</time>
      </trkpt>
      <trkpt lat="45.92264" lon="4.59429">
        <ele>367</ele>
        <time>2016-09-29T13:36:43Z</time>
      </trkpt>
      <trkpt lat="45.92263" lon="4.59429">
        <ele>367</ele>
        <time>2016-09-29T13:36:44Z</time>
      </trkpt>
      <trkpt lat="45.92255" lon="4.59431">
        <ele>366</ele>
        <time>2016-09-29T13:36:50Z</time>
      </trkpt>
      <trkpt lat="45.92253" lon="4.59431">
        <ele>366</ele>
        <time>2016-09-29T13:36:51Z</time>
      </trkpt>
      <trkpt lat="45.92245" lon="4.59431">
        <ele>365</ele>
        <time>2016-09-29T13:36:56Z</time>
      </trkpt>
      <trkpt lat="45.92244" lon="4.59431">
        <ele>365</ele>
        <time>2016-09-29T13:36:57Z</time>
      </trkpt>
      <trkpt lat="45.92236" lon="4.59432">
        <ele>366</ele>
        <time>2016-09-29T13:37:03Z</time>
      </trkpt>
      <trkpt lat="45.92235" lon="4.59433">
        <ele>366</ele>
        <time>2016-09-29T13:37:04Z</time>
      </trkpt>
      <trkpt lat="45.92227" lon="4.59435">
        <ele>367</ele>
        <time>2016-09-29T13:37:11Z</time>
      </trkpt>
      <trkpt lat="45.92226" lon="4.59436">
        <ele>367</ele>
        <time>2016-09-29T13:37:12Z</time>
      </trkpt>
      <trkpt lat="45.92217" lon="4.59437">
        <ele>367</ele>
        <time>2016-09-29T13:37:18Z</time>
      </trkpt>
      <trkpt lat="45.92216" lon="4.59437">
        <ele>367</ele>
        <time>2016-09-29T13:37:19Z</time>
      </trkpt>
      <trkpt lat="45.92208" lon="4.59437">
        <ele>367</ele>
        <time>2016-09-29T13:37:24Z</time>
      </trkpt>
      <trkpt lat="45.92206" lon="4.59438">
        <ele>367</ele>
        <time>2016-09-29T13:37:25Z</time>
      </trkpt>
      <trkpt lat="45.92198" lon="4.5944">
        <ele>367</ele>
        <time>2016-09-29T13:37:32Z</time>
      </trkpt>
      <trkpt lat="45.92197" lon="4.5944">
        <ele>367</ele>
        <time>2016-09-29T13:37:33Z</time>
      </trkpt>
      <trkpt lat="45.92188" lon="4.59442">
        <ele>367</ele>
        <time>2016-09-29T13:37:39Z</time>
      </trkpt>
      <trkpt lat="45.92186" lon="4.59442">
        <ele>367</ele>
        <time>2016-09-29T13:37:40Z</time>
      </trkpt>
      <trkpt lat="45.92178" lon="4.59444">
        <ele>367</ele>
        <time>2016-09-29T13:37:46Z</time>
      </trkpt>
      <trkpt lat="45.92177" lon="4.59444">
        <ele>367</ele>
        <time>2016-09-29T13:37:47Z</time>
      </trkpt>
      <trkpt lat="45.92169" lon="4.59447">
        <ele>367</ele>
        <time>2016-09-29T13:37:55Z</time>
      </trkpt>
      <trkpt lat="45.92168" lon="4.59447">
        <ele>367</ele>
        <time>2016-09-29T13:37:56Z</time>
      </trkpt>
      <trkpt lat="45.9216" lon="4.59452">
        <ele>363</ele>
        <time>2016-09-29T13:38:04Z</time>
      </trkpt>
      <trkpt lat="45.92159" lon="4.59452">
        <ele>363</ele>
        <time>2016-09-29T13:38:05Z</time>
      </trkpt>
      <trkpt lat="45.92152" lon="4.59458">
        <ele>363</ele>
        <time>2016-09-29T13:38:13Z</time>
      </trkpt>
      <trkpt lat="45.92151" lon="4.59459">
        <ele>363</ele>
        <time>2016-09-29T13:38:14Z</time>
      </trkpt>
      <trkpt lat="45.92144" lon="4.59465">
        <ele>363</ele>
        <time>2016-09-29T13:38:20Z</time>
      </trkpt>
      <trkpt lat="45.92143" lon="4.59466">
        <ele>363</ele>
        <time>2016-09-29T13:38:21Z</time>
      </trkpt>
      <trkpt lat="45.92137" lon="4.59473">
        <ele>363</ele>
        <time>2016-09-29T13:38:27Z</time>
      </trkpt>
      <trkpt lat="45.92136" lon="4.59475">
        <ele>364</ele>
        <time>2016-09-29T13:38:28Z</time>
      </trkpt>
      <trkpt lat="45.9213" lon="4.59484">
        <ele>364</ele>
        <time>2016-09-29T13:38:34Z</time>
      </trkpt>
      <trkpt lat="45.92129" lon="4.59486">
        <ele>364</ele>
        <time>2016-09-29T13:38:35Z</time>
      </trkpt>
      <trkpt lat="45.92127" lon="4.59498">
        <ele>364</ele>
        <time>2016-09-29T13:38:41Z</time>
      </trkpt>
      <trkpt lat="45.92127" lon="4.595">
        <ele>364</ele>
        <time>2016-09-29T13:38:42Z</time>
      </trkpt>
      <trkpt lat="45.92125" lon="4.59512">
        <ele>368</ele>
        <time>2016-09-29T13:38:48Z</time>
      </trkpt>
      <trkpt lat="45.92125" lon="4.59514">
        <ele>368</ele>
        <time>2016-09-29T13:38:49Z</time>
      </trkpt>
      <trkpt lat="45.92125" lon="4.59526">
        <ele>369</ele>
        <time>2016-09-29T13:38:55Z</time>
      </trkpt>
      <trkpt lat="45.92125" lon="4.59528">
        <ele>369</ele>
        <time>2016-09-29T13:38:56Z</time>
      </trkpt>
      <trkpt lat="45.92126" lon="4.5954">
        <ele>369</ele>
        <time>2016-09-29T13:39:02Z</time>
      </trkpt>
      <trkpt lat="45.92126" lon="4.59541">
        <ele>369</ele>
        <time>2016-09-29T13:39:03Z</time>
      </trkpt>
      <trkpt lat="45.92124" lon="4.59553">
        <ele>369</ele>
        <time>2016-09-29T13:39:10Z</time>
      </trkpt>
      <trkpt lat="45.92124" lon="4.59555">
        <ele>369</ele>
        <time>2016-09-29T13:39:11Z</time>
      </trkpt>
      <trkpt lat="45.92124" lon="4.59567">
        <ele>369</ele>
        <time>2016-09-29T13:39:18Z</time>
      </trkpt>
      <trkpt lat="45.92124" lon="4.59569">
        <ele>369</ele>
        <time>2016-09-29T13:39:19Z</time>
      </trkpt>
      <trkpt lat="45.92124" lon="4.59582">
        <ele>370</ele>
        <time>2016-09-29T13:39:26Z</time>
      </trkpt>
      <trkpt lat="45.92124" lon="4.59584">
        <ele>373</ele>
        <time>2016-09-29T13:39:27Z</time>
      </trkpt>
      <trkpt lat="45.92123" lon="4.59596">
        <ele>373</ele>
        <time>2016-09-29T13:39:34Z</time>
      </trkpt>
      <trkpt lat="45.92123" lon="4.59598">
        <ele>373</ele>
        <time>2016-09-29T13:39:35Z</time>
      </trkpt>
      <trkpt lat="45.92122" lon="4.5961">
        <ele>374</ele>
        <time>2016-09-29T13:39:42Z</time>
      </trkpt>
      <trkpt lat="45.92123" lon="4.59612">
        <ele>374</ele>
        <time>2016-09-29T13:39:43Z</time>
      </trkpt>
      <trkpt lat="45.92116" lon="4.59621">
        <ele>374</ele>
        <time>2016-09-29T13:40:04Z</time>
      </trkpt>
      <trkpt lat="45.92116" lon="4.59621">
        <ele>374</ele>
        <time>2016-09-29T13:40:05Z</time>
      </trkpt>
      <trkpt lat="45.92111" lon="4.59631">
        <ele>374</ele>
        <time>2016-09-29T13:41:32Z</time>
      </trkpt>
      <trkpt lat="45.92111" lon="4.59632">
        <ele>374</ele>
        <time>2016-09-29T13:41:33Z</time>
      </trkpt>
      <trkpt lat="45.92107" lon="4.59643">
        <ele>375</ele>
        <time>2016-09-29T13:45:49Z</time>
      </trkpt>
      <trkpt lat="45.92107" lon="4.59644">
        <ele>375</ele>
        <time>2016-09-29T13:45:50Z</time>
      </trkpt>
      <trkpt lat="45.921" lon="4.59653">
        <ele>375</ele>
        <time>2016-09-29T13:45:58Z</time>
      </trkpt>
      <trkpt lat="45.92099" lon="4.59654">
        <ele>375</ele>
        <time>2016-09-29T13:45:59Z</time>
      </trkpt>
      <trkpt lat="45.92093" lon="4.59662">
        <ele>374</ele>
        <time>2016-09-29T13:46:06Z</time>
      </trkpt>
      <trkpt lat="45.92092" lon="4.59663">
        <ele>374</ele>
        <time>2016-09-29T13:46:07Z</time>
      </trkpt>
      <trkpt lat="45.92085" lon="4.5967">
        <ele>375</ele>
        <time>2016-09-29T13:46:14Z</time>
      </trkpt>
      <trkpt lat="45.92084" lon="4.5967">
        <ele>375</ele>
        <time>2016-09-29T13:46:15Z</time>
      </trkpt>
      <trkpt lat="45.92077" lon="4.59676">
        <ele>373</ele>
        <time>2016-09-29T13:46:21Z</time>
      </trkpt>
      <trkpt lat="45.92076" lon="4.59677">
        <ele>372</ele>
        <time>2016-09-29T13:46:22Z</time>
      </trkpt>
      <trkpt lat="45.92068" lon="4.59684">
        <ele>372</ele>
        <time>2016-09-29T13:46:28Z</time>
      </trkpt>
      <trkpt lat="45.92067" lon="4.59685">
        <ele>372</ele>
        <time>2016-09-29T13:46:29Z</time>
      </trkpt>
      <trkpt lat="45.92061" lon="4.59692">
        <ele>371</ele>
        <time>2016-09-29T13:46:34Z</time>
      </trkpt>
      <trkpt lat="45.9206" lon="4.59694">
        <ele>371</ele>
        <time>2016-09-29T13:46:35Z</time>
      </trkpt>
      <trkpt lat="45.92054" lon="4.59702">
        <ele>371</ele>
        <time>2016-09-29T13:46:41Z</time>
      </trkpt>
      <trkpt lat="45.92054" lon="4.59704">
        <ele>371</ele>
        <time>2016-09-29T13:46:42Z</time>
      </trkpt>
      <trkpt lat="45.92049" lon="4.59714">
        <ele>371</ele>
        <time>2016-09-29T13:46:49Z</time>
      </trkpt>
      <trkpt lat="45.92049" lon="4.59716">
        <ele>371</ele>
        <time>2016-09-29T13:46:50Z</time>
      </trkpt>
      <trkpt lat="45.92045" lon="4.59727">
        <ele>370</ele>
        <time>2016-09-29T13:46:56Z</time>
      </trkpt>
      <trkpt lat="45.92045" lon="4.59729">
        <ele>370</ele>
        <time>2016-09-29T13:46:57Z</time>
      </trkpt>
      <trkpt lat="45.92044" lon="4.5974">
        <ele>370</ele>
        <time>2016-09-29T13:47:04Z</time>
      </trkpt>
      <trkpt lat="45.92044" lon="4.59742">
        <ele>370</ele>
        <time>2016-09-29T13:47:05Z</time>
      </trkpt>
      <trkpt lat="45.92044" lon="4.59754">
        <ele>370</ele>
        <time>2016-09-29T13:47:12Z</time>
      </trkpt>
      <trkpt lat="45.92044" lon="4.59755">
        <ele>370</ele>
        <time>2016-09-29T13:47:13Z</time>
      </trkpt>
      <trkpt lat="45.92046" lon="4.59767">
        <ele>370</ele>
        <time>2016-09-29T13:47:20Z</time>
      </trkpt>
      <trkpt lat="45.92046" lon="4.59769">
        <ele>370</ele>
        <time>2016-09-29T13:47:21Z</time>
      </trkpt>
      <trkpt lat="45.92052" lon="4.59779">
        <ele>371</ele>
        <time>2016-09-29T13:47:27Z</time>
      </trkpt>
      <trkpt lat="45.92053" lon="4.59781">
        <ele>371</ele>
        <time>2016-09-29T13:47:28Z</time>
      </trkpt>
      <trkpt lat="45.92058" lon="4.59789">
        <ele>371</ele>
        <time>2016-09-29T13:47:34Z</time>
      </trkpt>
      <trkpt lat="45.92059" lon="4.5979">
        <ele>371</ele>
        <time>2016-09-29T13:47:35Z</time>
      </trkpt>
      <trkpt lat="45.92063" lon="4.598">
        <ele>371</ele>
        <time>2016-09-29T13:47:41Z</time>
      </trkpt>
      <trkpt lat="45.92064" lon="4.59801">
        <ele>371</ele>
        <time>2016-09-29T13:47:42Z</time>
      </trkpt>
      <trkpt lat="45.9207" lon="4.59811">
        <ele>372</ele>
        <time>2016-09-29T13:47:48Z</time>
      </trkpt>
      <trkpt lat="45.92071" lon="4.59813">
        <ele>372</ele>
        <time>2016-09-29T13:47:49Z</time>
      </trkpt>
      <trkpt lat="45.92076" lon="4.59821">
        <ele>373</ele>
        <time>2016-09-29T13:47:55Z</time>
      </trkpt>
      <trkpt lat="45.92077" lon="4.59822">
        <ele>373</ele>
        <time>2016-09-29T13:47:56Z</time>
      </trkpt>
      <trkpt lat="45.92084" lon="4.5983">
        <ele>376</ele>
        <time>2016-09-29T13:48:04Z</time>
      </trkpt>
      <trkpt lat="45.92085" lon="4.59831">
        <ele>376</ele>
        <time>2016-09-29T13:48:05Z</time>
      </trkpt>
      <trkpt lat="45.92091" lon="4.59839">
        <ele>376</ele>
        <time>2016-09-29T13:48:12Z</time>
      </trkpt>
      <trkpt lat="45.92092" lon="4.5984">
        <ele>376</ele>
        <time>2016-09-29T13:48:13Z</time>
      </trkpt>
      <trkpt lat="45.92098" lon="4.59847">
        <ele>376</ele>
        <time>2016-09-29T13:48:20Z</time>
      </trkpt>
      <trkpt lat="45.92099" lon="4.59848">
        <ele>376</ele>
        <time>2016-09-29T13:48:21Z</time>
      </trkpt>
      <trkpt lat="45.92106" lon="4.59853">
        <ele>376</ele>
        <time>2016-09-29T13:48:27Z</time>
      </trkpt>
      <trkpt lat="45.92107" lon="4.59854">
        <ele>377</ele>
        <time>2016-09-29T13:48:28Z</time>
      </trkpt>
      <trkpt lat="45.92115" lon="4.59858">
        <ele>377</ele>
        <time>2016-09-29T13:48:34Z</time>
      </trkpt>
      <trkpt lat="45.92116" lon="4.59859">
        <ele>377</ele>
        <time>2016-09-29T13:48:35Z</time>
      </trkpt>
      <trkpt lat="45.92125" lon="4.59864">
        <ele>377</ele>
        <time>2016-09-29T13:48:42Z</time>
      </trkpt>
      <trkpt lat="45.92126" lon="4.59865">
        <ele>377</ele>
        <time>2016-09-29T13:48:43Z</time>
      </trkpt>
      <trkpt lat="45.92133" lon="4.5987">
        <ele>378</ele>
        <time>2016-09-29T13:48:49Z</time>
      </trkpt>
      <trkpt lat="45.92133" lon="4.59871">
        <ele>378</ele>
        <time>2016-09-29T13:48:50Z</time>
      </trkpt>
      <trkpt lat="45.92141" lon="4.59878">
        <ele>378</ele>
        <time>2016-09-29T13:48:58Z</time>
      </trkpt>
      <trkpt lat="45.92142" lon="4.59878">
        <ele>378</ele>
        <time>2016-09-29T13:48:59Z</time>
      </trkpt>
      <trkpt lat="45.92149" lon="4.59885">
        <ele>378</ele>
        <time>2016-09-29T13:49:06Z</time>
      </trkpt>
      <trkpt lat="45.9215" lon="4.59886">
        <ele>378</ele>
        <time>2016-09-29T13:49:07Z</time>
      </trkpt>
      <trkpt lat="45.92156" lon="4.59893">
        <ele>378</ele>
        <time>2016-09-29T13:49:13Z</time>
      </trkpt>
      <trkpt lat="45.92157" lon="4.59894">
        <ele>378</ele>
        <time>2016-09-29T13:49:14Z</time>
      </trkpt>
      <trkpt lat="45.92164" lon="4.59902">
        <ele>378</ele>
        <time>2016-09-29T13:49:21Z</time>
      </trkpt>
      <trkpt lat="45.92165" lon="4.59903">
        <ele>378</ele>
        <time>2016-09-29T13:49:22Z</time>
      </trkpt>
      <trkpt lat="45.92172" lon="4.5991">
        <ele>381</ele>
        <time>2016-09-29T13:49:28Z</time>
      </trkpt>
      <trkpt lat="45.92173" lon="4.59911">
        <ele>381</ele>
        <time>2016-09-29T13:49:29Z</time>
      </trkpt>
      <trkpt lat="45.92179" lon="4.59919">
        <ele>381</ele>
        <time>2016-09-29T13:49:36Z</time>
      </trkpt>
      <trkpt lat="45.9218" lon="4.59919">
        <ele>381</ele>
        <time>2016-09-29T13:49:37Z</time>
      </trkpt>
      <trkpt lat="45.92185" lon="4.5993">
        <ele>382</ele>
        <time>2016-09-29T13:49:46Z</time>
      </trkpt>
      <trkpt lat="45.92185" lon="4.59931">
        <ele>382</ele>
        <time>2016-09-29T13:49:47Z</time>
      </trkpt>
      <trkpt lat="45.92186" lon="4.59942">
        <ele>382</ele>
        <time>2016-09-29T13:50:22Z</time>
      </trkpt>
      <trkpt lat="45.92186" lon="4.59944">
        <ele>382</ele>
        <time>2016-09-29T13:50:23Z</time>
      </trkpt>
      <trkpt lat="45.92187" lon="4.59955">
        <ele>383</ele>
        <time>2016-09-29T13:50:31Z</time>
      </trkpt>
      <trkpt lat="45.92187" lon="4.59957">
        <ele>383</ele>
        <time>2016-09-29T13:50:32Z</time>
      </trkpt>
      <trkpt lat="45.92185" lon="4.59969">
        <ele>382</ele>
        <time>2016-09-29T13:50:38Z</time>
      </trkpt>
      <trkpt lat="45.92185" lon="4.5997">
        <ele>382</ele>
        <time>2016-09-29T13:50:39Z</time>
      </trkpt>
      <trkpt lat="45.92185" lon="4.59983">
        <ele>382</ele>
        <time>2016-09-29T13:50:59Z</time>
      </trkpt>
      <trkpt lat="45.92185" lon="4.59984">
        <ele>382</ele>
        <time>2016-09-29T13:51:00Z</time>
      </trkpt>
      <trkpt lat="45.92182" lon="4.59995">
        <ele>382</ele>
        <time>2016-09-29T13:51:06Z</time>
      </trkpt>
      <trkpt lat="45.92182" lon="4.59997">
        <ele>382</ele>
        <time>2016-09-29T13:51:07Z</time>
      </trkpt>
      <trkpt lat="45.92181" lon="4.60009">
        <ele>384</ele>
        <time>2016-09-29T13:51:13Z</time>
      </trkpt>
      <trkpt lat="45.92181" lon="4.6001">
        <ele>384</ele>
        <time>2016-09-29T13:51:14Z</time>
      </trkpt>
      <trkpt lat="45.92176" lon="4.60019">
        <ele>385</ele>
        <time>2016-09-29T13:51:21Z</time>
      </trkpt>
      <trkpt lat="45.92175" lon="4.6002">
        <ele>385</ele>
        <time>2016-09-29T13:51:22Z</time>
      </trkpt>
      <trkpt lat="45.92169" lon="4.60027">
        <ele>386</ele>
        <time>2016-09-29T13:51:29Z</time>
      </trkpt>
      <trkpt lat="45.92168" lon="4.60028">
        <ele>386</ele>
        <time>2016-09-29T13:51:30Z</time>
      </trkpt>
      <trkpt lat="45.92161" lon="4.60035">
        <ele>384</ele>
        <time>2016-09-29T13:51:37Z</time>
      </trkpt>
      <trkpt lat="45.9216" lon="4.60036">
        <ele>384</ele>
        <time>2016-09-29T13:51:38Z</time>
      </trkpt>
      <trkpt lat="45.92153" lon="4.60041">
        <ele>384</ele>
        <time>2016-09-29T13:51:44Z</time>
      </trkpt>
      <trkpt lat="45.92151" lon="4.60042">
        <ele>384</ele>
        <time>2016-09-29T13:51:45Z</time>
      </trkpt>
      <trkpt lat="45.92144" lon="4.60045">
        <ele>385</ele>
        <time>2016-09-29T13:51:50Z</time>
      </trkpt>
      <trkpt lat="45.92143" lon="4.60046">
        <ele>385</ele>
        <time>2016-09-29T13:51:51Z</time>
      </trkpt>
      <trkpt lat="45.92135" lon="4.6005">
        <ele>385</ele>
        <time>2016-09-29T13:51:56Z</time>
      </trkpt>
      <trkpt lat="45.92134" lon="4.60051">
        <ele>385</ele>
        <time>2016-09-29T13:51:57Z</time>
      </trkpt>
      <trkpt lat="45.92125" lon="4.60053">
        <ele>384</ele>
        <time>2016-09-29T13:52:03Z</time>
      </trkpt>
      <trkpt lat="45.92123" lon="4.60054">
        <ele>384</ele>
        <time>2016-09-29T13:52:04Z</time>
      </trkpt>
      <trkpt lat="45.92116" lon="4.60057">
        <ele>384</ele>
        <time>2016-09-29T13:52:10Z</time>
      </trkpt>
      <trkpt lat="45.92115" lon="4.60058">
        <ele>384</ele>
        <time>2016-09-29T13:52:11Z</time>
      </trkpt>
      <trkpt lat="45.92106" lon="4.6006">
        <ele>384</ele>
        <time>2016-09-29T13:52:18Z</time>
      </trkpt>
      <trkpt lat="45.92105" lon="4.6006">
        <ele>384</ele>
        <time>2016-09-29T13:52:19Z</time>
      </trkpt>
      <trkpt lat="45.92097" lon="4.6006">
        <ele>384</ele>
        <time>2016-09-29T13:52:25Z</time>
      </trkpt>
      <trkpt lat="45.92095" lon="4.6006">
        <ele>384</ele>
        <time>2016-09-29T13:52:26Z</time>
      </trkpt>
      <trkpt lat="45.92087" lon="4.60062">
        <ele>384</ele>
        <time>2016-09-29T13:52:32Z</time>
      </trkpt>
      <trkpt lat="45.92086" lon="4.60062">
        <ele>384</ele>
        <time>2016-09-29T13:52:33Z</time>
      </trkpt>
      <trkpt lat="45.92079" lon="4.60066">
        <ele>384</ele>
        <time>2016-09-29T13:52:39Z</time>
      </trkpt>
      <trkpt lat="45.92077" lon="4.60067">
        <ele>384</ele>
        <time>2016-09-29T13:52:40Z</time>
      </trkpt>
      <trkpt lat="45.92071" lon="4.60074">
        <ele>384</ele>
        <time>2016-09-29T13:52:46Z</time>
      </trkpt>
      <trkpt lat="45.9207" lon="4.60075">
        <ele>384</ele>
        <time>2016-09-29T13:52:47Z</time>
      </trkpt>
      <trkpt lat="45.92064" lon="4.60082">
        <ele>384</ele>
        <time>2016-09-29T13:52:53Z</time>
      </trkpt>
      <trkpt lat="45.92063" lon="4.60084">
        <ele>386</ele>
        <time>2016-09-29T13:52:54Z</time>
      </trkpt>
      <trkpt lat="45.92058" lon="4.60093">
        <ele>386</ele>
        <time>2016-09-29T13:53:00Z</time>
      </trkpt>
      <trkpt lat="45.92057" lon="4.60095">
        <ele>385</ele>
        <time>2016-09-29T13:53:01Z</time>
      </trkpt>
      <trkpt lat="45.92054" lon="4.60105">
        <ele>385</ele>
        <time>2016-09-29T13:53:07Z</time>
      </trkpt>
      <trkpt lat="45.92053" lon="4.60107">
        <ele>385</ele>
        <time>2016-09-29T13:53:08Z</time>
      </trkpt>
      <trkpt lat="45.92051" lon="4.60118">
        <ele>385</ele>
        <time>2016-09-29T13:53:14Z</time>
      </trkpt>
      <trkpt lat="45.92051" lon="4.6012">
        <ele>385</ele>
        <time>2016-09-29T13:53:15Z</time>
      </trkpt>
      <trkpt lat="45.92049" lon="4.60133">
        <ele>386</ele>
        <time>2016-09-29T13:53:21Z</time>
      </trkpt>
      <trkpt lat="45.92049" lon="4.60135">
        <ele>386</ele>
        <time>2016-09-29T13:53:22Z</time>
      </trkpt>
      <trkpt lat="45.92049" lon="4.60146">
        <ele>386</ele>
        <time>2016-09-29T13:53:28Z</time>
      </trkpt>
      <trkpt lat="45.92048" lon="4.60148">
        <ele>386</ele>
        <time>2016-09-29T13:53:29Z</time>
      </trkpt>
      <trkpt lat="45.92049" lon="4.6016">
        <ele>386</ele>
        <time>2016-09-29T13:53:36Z</time>
      </trkpt>
      <trkpt lat="45.92049" lon="4.60162">
        <ele>386</ele>
        <time>2016-09-29T13:53:37Z</time>
      </trkpt>
      <trkpt lat="45.92051" lon="4.60173">
        <ele>384</ele>
        <time>2016-09-29T13:53:43Z</time>
      </trkpt>
      <trkpt lat="45.92052" lon="4.60175">
        <ele>384</ele>
        <time>2016-09-29T13:53:44Z</time>
      </trkpt>
      <trkpt lat="45.92056" lon="4.60186">
        <ele>384</ele>
        <time>2016-09-29T13:53:51Z</time>
      </trkpt>
      <trkpt lat="45.92056" lon="4.60187">
        <ele>384</ele>
        <time>2016-09-29T13:53:52Z</time>
      </trkpt>
      <trkpt lat="45.92061" lon="4.60196">
        <ele>384</ele>
        <time>2016-09-29T13:53:58Z</time>
      </trkpt>
      <trkpt lat="45.92062" lon="4.60197">
        <ele>384</ele>
        <time>2016-09-29T13:53:59Z</time>
      </trkpt>
      <trkpt lat="45.92068" lon="4.60206">
        <ele>384</ele>
        <time>2016-09-29T13:54:06Z</time>
      </trkpt>
      <trkpt lat="45.92069" lon="4.60207">
        <ele>384</ele>
        <time>2016-09-29T13:54:07Z</time>
      </trkpt>
      <trkpt lat="45.92075" lon="4.60214">
        <ele>384</ele>
        <time>2016-09-29T13:54:14Z</time>
      </trkpt>
      <trkpt lat="45.92076" lon="4.60216">
        <ele>384</ele>
        <time>2016-09-29T13:54:15Z</time>
      </trkpt>
      <trkpt lat="45.9208" lon="4.60225">
        <ele>384</ele>
        <time>2016-09-29T13:54:22Z</time>
      </trkpt>
      <trkpt lat="45.92081" lon="4.60226">
        <ele>384</ele>
        <time>2016-09-29T13:54:23Z</time>
      </trkpt>
      <trkpt lat="45.92086" lon="4.60236">
        <ele>389</ele>
        <time>2016-09-29T13:54:29Z</time>
      </trkpt>
      <trkpt lat="45.92086" lon="4.60237">
        <ele>389</ele>
        <time>2016-09-29T13:54:30Z</time>
      </trkpt>
      <trkpt lat="45.92093" lon="4.60245">
        <ele>389</ele>
        <time>2016-09-29T13:54:36Z</time>
      </trkpt>
      <trkpt lat="45.92094" lon="4.60246">
        <ele>389</ele>
        <time>2016-09-29T13:54:37Z</time>
      </trkpt>
      <trkpt lat="45.92102" lon="4.60252">
        <ele>388</ele>
        <time>2016-09-29T13:54:44Z</time>
      </trkpt>
      <trkpt lat="45.92103" lon="4.60252">
        <ele>388</ele>
        <time>2016-09-29T13:54:45Z</time>
      </trkpt>
      <trkpt lat="45.9211" lon="4.60259">
        <ele>388</ele>
        <time>2016-09-29T13:54:53Z</time>
      </trkpt>
      <trkpt lat="45.92111" lon="4.6026">
        <ele>388</ele>
        <time>2016-09-29T13:54:54Z</time>
      </trkpt>
      <trkpt lat="45.92118" lon="4.60268">
        <ele>389</ele>
        <time>2016-09-29T13:55:01Z</time>
      </trkpt>
      <trkpt lat="45.92119" lon="4.60269">
        <ele>389</ele>
        <time>2016-09-29T13:55:02Z</time>
      </trkpt>
      <trkpt lat="45.92126" lon="4.60276">
        <ele>389</ele>
        <time>2016-09-29T13:55:09Z</time>
      </trkpt>
      <trkpt lat="45.92128" lon="4.60277">
        <ele>389</ele>
        <time>2016-09-29T13:55:10Z</time>
      </trkpt>
      <trkpt lat="45.92133" lon="4.60284">
        <ele>390</ele>
        <time>2016-09-29T13:55:16Z</time>
      </trkpt>
      <trkpt lat="45.92134" lon="4.60286">
        <ele>390</ele>
        <time>2016-09-29T13:55:17Z</time>
      </trkpt>
      <trkpt lat="45.92138" lon="4.60296">
        <ele>389</ele>
        <time>2016-09-29T13:55:23Z</time>
      </trkpt>
      <trkpt lat="45.92139" lon="4.60298">
        <ele>389</ele>
        <time>2016-09-29T13:55:24Z</time>
      </trkpt>
      <trkpt lat="45.92143" lon="4.60307">
        <ele>390</ele>
        <time>2016-09-29T13:55:30Z</time>
      </trkpt>
      <trkpt lat="45.92144" lon="4.60309">
        <ele>390</ele>
        <time>2016-09-29T13:55:31Z</time>
      </trkpt>
      <trkpt lat="45.92151" lon="4.60317">
        <ele>390</ele>
        <time>2016-09-29T13:55:38Z</time>
      </trkpt>
      <trkpt lat="45.92152" lon="4.60318">
        <ele>390</ele>
        <time>2016-09-29T13:55:39Z</time>
      </trkpt>
      <trkpt lat="45.92157" lon="4.60326">
        <ele>391</ele>
        <time>2016-09-29T13:55:45Z</time>
      </trkpt>
      <trkpt lat="45.92158" lon="4.60327">
        <ele>391</ele>
        <time>2016-09-29T13:55:46Z</time>
      </trkpt>
      <trkpt lat="45.92163" lon="4.60337">
        <ele>391</ele>
        <time>2016-09-29T13:55:53Z</time>
      </trkpt>
      <trkpt lat="45.92164" lon="4.60339">
        <ele>391</ele>
        <time>2016-09-29T13:55:54Z</time>
      </trkpt>
      <trkpt lat="45.92169" lon="4.60348">
        <ele>395</ele>
        <time>2016-09-29T13:56:02Z</time>
      </trkpt>
      <trkpt lat="45.92169" lon="4.60349">
        <ele>395</ele>
        <time>2016-09-29T13:56:03Z</time>
      </trkpt>
      <trkpt lat="45.92175" lon="4.60358">
        <ele>395</ele>
        <time>2016-09-29T13:56:10Z</time>
      </trkpt>
      <trkpt lat="45.92176" lon="4.60359">
        <ele>395</ele>
        <time>2016-09-29T13:56:11Z</time>
      </trkpt>
      <trkpt lat="45.9218" lon="4.60369">
        <ele>395</ele>
        <time>2016-09-29T13:56:17Z</time>
      </trkpt>
      <trkpt lat="45.92181" lon="4.60371">
        <ele>395</ele>
        <time>2016-09-29T13:56:18Z</time>
      </trkpt>
      <trkpt lat="45.92186" lon="4.6038">
        <ele>395</ele>
        <time>2016-09-29T13:56:24Z</time>
      </trkpt>
      <trkpt lat="45.92187" lon="4.60382">
        <ele>395</ele>
        <time>2016-09-29T13:56:25Z</time>
      </trkpt>
      <trkpt lat="45.92192" lon="4.6039">
        <ele>395</ele>
        <time>2016-09-29T13:56:31Z</time>
      </trkpt>
      <trkpt lat="45.92193" lon="4.60392">
        <ele>395</ele>
        <time>2016-09-29T13:56:32Z</time>
      </trkpt>
      <trkpt lat="45.922" lon="4.604">
        <ele>395</ele>
        <time>2016-09-29T13:56:38Z</time>
      </trkpt>
      <trkpt lat="45.92201" lon="4.60401">
        <ele>395</ele>
        <time>2016-09-29T13:56:39Z</time>
      </trkpt>
      <trkpt lat="45.92209" lon="4.60408">
        <ele>396</ele>
        <time>2016-09-29T13:56:45Z</time>
      </trkpt>
      <trkpt lat="45.9221" lon="4.60409">
        <ele>396</ele>
        <time>2016-09-29T13:56:46Z</time>
      </trkpt>
      <trkpt lat="45.92216" lon="4.60417">
        <ele>393</ele>
        <time>2016-09-29T13:56:52Z</time>
      </trkpt>
      <trkpt lat="45.92217" lon="4.60418">
        <ele>393</ele>
        <time>2016-09-29T13:56:53Z</time>
      </trkpt>
      <trkpt lat="45.92224" lon="4.60426">
        <ele>394</ele>
        <time>2016-09-29T13:57:00Z</time>
      </trkpt>
      <trkpt lat="45.92225" lon="4.60427">
        <ele>394</ele>
        <time>2016-09-29T13:57:01Z</time>
      </trkpt>
      <trkpt lat="45.92231" lon="4.60435">
        <ele>394</ele>
        <time>2016-09-29T13:57:08Z</time>
      </trkpt>
      <trkpt lat="45.92232" lon="4.60436">
        <ele>394</ele>
        <time>2016-09-29T13:57:09Z</time>
      </trkpt>
      <trkpt lat="45.92239" lon="4.60444">
        <ele>394</ele>
        <time>2016-09-29T13:57:15Z</time>
      </trkpt>
      <trkpt lat="45.9224" lon="4.60445">
        <ele>394</ele>
        <time>2016-09-29T13:57:16Z</time>
      </trkpt>
      <trkpt lat="45.92246" lon="4.60454">
        <ele>393</ele>
        <time>2016-09-29T13:57:23Z</time>
      </trkpt>
      <trkpt lat="45.92246" lon="4.60455">
        <ele>393</ele>
        <time>2016-09-29T13:57:24Z</time>
      </trkpt>
      <trkpt lat="45.92251" lon="4.60464">
        <ele>401</ele>
        <time>2016-09-29T13:57:31Z</time>
      </trkpt>
      <trkpt lat="45.92253" lon="4.60465">
        <ele>401</ele>
        <time>2016-09-29T13:57:32Z</time>
      </trkpt>
      <trkpt lat="45.9226" lon="4.60473">
        <ele>400</ele>
        <time>2016-09-29T13:57:39Z</time>
      </trkpt>
      <trkpt lat="45.9226" lon="4.60474">
        <ele>400</ele>
        <time>2016-09-29T13:57:40Z</time>
      </trkpt>
      <trkpt lat="45.92266" lon="4.60484">
        <ele>399</ele>
        <time>2016-09-29T13:57:47Z</time>
      </trkpt>
      <trkpt lat="45.92267" lon="4.60485">
        <ele>399</ele>
        <time>2016-09-29T13:57:48Z</time>
      </trkpt>
      <trkpt lat="45.92275" lon="4.60492">
        <ele>400</ele>
        <time>2016-09-29T13:57:54Z</time>
      </trkpt>
      <trkpt lat="45.92276" lon="4.60492">
        <ele>400</ele>
        <time>2016-09-29T13:57:55Z</time>
      </trkpt>
      <trkpt lat="45.92284" lon="4.60498">
        <ele>401</ele>
        <time>2016-09-29T13:58:01Z</time>
      </trkpt>
      <trkpt lat="45.92285" lon="4.60499">
        <ele>402</ele>
        <time>2016-09-29T13:58:02Z</time>
      </trkpt>
      <trkpt lat="45.92294" lon="4.60501">
        <ele>398</ele>
        <time>2016-09-29T13:58:08Z</time>
      </trkpt>
      <trkpt lat="45.92294" lon="4.60502">
        <ele>398</ele>
        <time>2016-09-29T13:58:09Z</time>
      </trkpt>
      <trkpt lat="45.92301" lon="4.60509">
        <ele>399</ele>
        <time>2016-09-29T13:58:16Z</time>
      </trkpt>
      <trkpt lat="45.92302" lon="4.6051">
        <ele>399</ele>
        <time>2016-09-29T13:58:17Z</time>
      </trkpt>
      <trkpt lat="45.9231" lon="4.60512">
        <ele>400</ele>
        <time>2016-09-29T13:58:23Z</time>
      </trkpt>
      <trkpt lat="45.92312" lon="4.60513">
        <ele>400</ele>
        <time>2016-09-29T13:58:24Z</time>
      </trkpt>
      <trkpt lat="45.92319" lon="4.60516">
        <ele>401</ele>
        <time>2016-09-29T13:58:29Z</time>
      </trkpt>
      <trkpt lat="45.9232" lon="4.60517">
        <ele>401</ele>
        <time>2016-09-29T13:58:30Z</time>
      </trkpt>
      <trkpt lat="45.92328" lon="4.60522">
        <ele>401</ele>
        <time>2016-09-29T13:58:36Z</time>
      </trkpt>
      <trkpt lat="45.92329" lon="4.60523">
        <ele>401</ele>
        <time>2016-09-29T13:58:37Z</time>
      </trkpt>
      <trkpt lat="45.92335" lon="4.6053">
        <ele>409</ele>
        <time>2016-09-29T13:58:43Z</time>
      </trkpt>
      <trkpt lat="45.92336" lon="4.60532">
        <ele>409</ele>
        <time>2016-09-29T13:58:44Z</time>
      </trkpt>
      <trkpt lat="45.92341" lon="4.6054">
        <ele>409</ele>
        <time>2016-09-29T13:58:50Z</time>
      </trkpt>
      <trkpt lat="45.92342" lon="4.60541">
        <ele>409</ele>
        <time>2016-09-29T13:58:51Z</time>
      </trkpt>
      <trkpt lat="45.92348" lon="4.60548">
        <ele>408</ele>
        <time>2016-09-29T13:58:57Z</time>
      </trkpt>
      <trkpt lat="45.92349" lon="4.6055">
        <ele>408</ele>
        <time>2016-09-29T13:58:58Z</time>
      </trkpt>
      <trkpt lat="45.92355" lon="4.60559">
        <ele>408</ele>
        <time>2016-09-29T13:59:05Z</time>
      </trkpt>
      <trkpt lat="45.92356" lon="4.6056">
        <ele>408</ele>
        <time>2016-09-29T13:59:06Z</time>
      </trkpt>
      <trkpt lat="45.9236" lon="4.60569">
        <ele>408</ele>
        <time>2016-09-29T13:59:12Z</time>
      </trkpt>
      <trkpt lat="45.92361" lon="4.60571">
        <ele>408</ele>
        <time>2016-09-29T13:59:13Z</time>
      </trkpt>
      <trkpt lat="45.92364" lon="4.60583">
        <ele>408</ele>
        <time>2016-09-29T13:59:20Z</time>
      </trkpt>
      <trkpt lat="45.92364" lon="4.60585">
        <ele>405</ele>
        <time>2016-09-29T13:59:21Z</time>
      </trkpt>
      <trkpt lat="45.92368" lon="4.60597">
        <ele>406</ele>
        <time>2016-09-29T13:59:28Z</time>
      </trkpt>
      <trkpt lat="45.92368" lon="4.60598">
        <ele>406</ele>
        <time>2016-09-29T13:59:29Z</time>
      </trkpt>
      <trkpt lat="45.92372" lon="4.6061">
        <ele>407</ele>
        <time>2016-09-29T13:59:36Z</time>
      </trkpt>
      <trkpt lat="45.92372" lon="4.60612">
        <ele>407</ele>
        <time>2016-09-29T13:59:37Z</time>
      </trkpt>
      <trkpt lat="45.92376" lon="4.60622">
        <ele>407</ele>
        <time>2016-09-29T13:59:43Z</time>
      </trkpt>
      <trkpt lat="45.92376" lon="4.60624">
        <ele>407</ele>
        <time>2016-09-29T13:59:44Z</time>
      </trkpt>
      <trkpt lat="45.9238" lon="4.60635">
        <ele>407</ele>
        <time>2016-09-29T13:59:51Z</time>
      </trkpt>
      <trkpt lat="45.9238" lon="4.60637">
        <ele>407</ele>
        <time>2016-09-29T13:59:52Z</time>
      </trkpt>
      <trkpt lat="45.92384" lon="4.60648">
        <ele>408</ele>
        <time>2016-09-29T13:59:59Z</time>
      </trkpt>
      <trkpt lat="45.92384" lon="4.6065">
        <ele>408</ele>
        <time>2016-09-29T14:00:00Z</time>
      </trkpt>
      <trkpt lat="45.92387" lon="4.6066">
        <ele>409</ele>
        <time>2016-09-29T14:00:06Z</time>
      </trkpt>
      <trkpt lat="45.92388" lon="4.60662">
        <ele>409</ele>
        <time>2016-09-29T14:00:07Z</time>
      </trkpt>
      <trkpt lat="45.92393" lon="4.60671">
        <ele>408</ele>
        <time>2016-09-29T14:00:13Z</time>
      </trkpt>
      <trkpt lat="45.92394" lon="4.60673">
        <ele>408</ele>
        <time>2016-09-29T14:00:14Z</time>
      </trkpt>
      <trkpt lat="45.92396" lon="4.60685">
        <ele>408</ele>
        <time>2016-09-29T14:00:20Z</time>
      </trkpt>
      <trkpt lat="45.92396" lon="4.60686">
        <ele>408</ele>
        <time>2016-09-29T14:00:21Z</time>
      </trkpt>
      <trkpt lat="45.92401" lon="4.60696">
        <ele>407</ele>
        <time>2016-09-29T14:00:27Z</time>
      </trkpt>
      <trkpt lat="45.92402" lon="4.60697">
        <ele>407</ele>
        <time>2016-09-29T14:00:28Z</time>
      </trkpt>
      <trkpt lat="45.92407" lon="4.60706">
        <ele>407</ele>
        <time>2016-09-29T14:00:34Z</time>
      </trkpt>
      <trkpt lat="45.92408" lon="4.60708">
        <ele>407</ele>
        <time>2016-09-29T14:00:35Z</time>
      </trkpt>
      <trkpt lat="45.92412" lon="4.60717">
        <ele>407</ele>
        <time>2016-09-29T14:00:42Z</time>
      </trkpt>
      <trkpt lat="45.92413" lon="4.60719">
        <ele>407</ele>
        <time>2016-09-29T14:00:43Z</time>
      </trkpt>
      <trkpt lat="45.92418" lon="4.60728">
        <ele>412</ele>
        <time>2016-09-29T14:00:49Z</time>
      </trkpt>
      <trkpt lat="45.92419" lon="4.6073">
        <ele>412</ele>
        <time>2016-09-29T14:00:50Z</time>
      </trkpt>
      <trkpt lat="45.92424" lon="4.60738">
        <ele>411</ele>
        <time>2016-09-29T14:00:56Z</time>
      </trkpt>
      <trkpt lat="45.92425" lon="4.60739">
        <ele>411</ele>
        <time>2016-09-29T14:00:57Z</time>
      </trkpt>
      <trkpt lat="45.92432" lon="4.60747">
        <ele>411</ele>
        <time>2016-09-29T14:01:04Z</time>
      </trkpt>
      <trkpt lat="45.92433" lon="4.60748">
        <ele>411</ele>
        <time>2016-09-29T14:01:05Z</time>
      </trkpt>
      <trkpt lat="45.9244" lon="4.60755">
        <ele>410</ele>
        <time>2016-09-29T14:01:12Z</time>
      </trkpt>
      <trkpt lat="45.92441" lon="4.60756">
        <ele>410</ele>
        <time>2016-09-29T14:01:13Z</time>
      </trkpt>
      <trkpt lat="45.92448" lon="4.60762">
        <ele>411</ele>
        <time>2016-09-29T14:01:21Z</time>
      </trkpt>
      <trkpt lat="45.92449" lon="4.60762">
        <ele>411</ele>
        <time>2016-09-29T14:01:22Z</time>
      </trkpt>
      <trkpt lat="45.92455" lon="4.60769">
        <ele>412</ele>
        <time>2016-09-29T14:01:29Z</time>
      </trkpt>
      <trkpt lat="45.92456" lon="4.6077">
        <ele>412</ele>
        <time>2016-09-29T14:01:30Z</time>
      </trkpt>
      <trkpt lat="45.92462" lon="4.60778">
        <ele>412</ele>
        <time>2016-09-29T14:01:37Z</time>
      </trkpt>
      <trkpt lat="45.92463" lon="4.60779">
        <ele>412</ele>
        <time>2016-09-29T14:01:38Z</time>
      </trkpt>
      <trkpt lat="45.9247" lon="4.60787">
        <ele>412</ele>
        <time>2016-09-29T14:01:44Z</time>
      </trkpt>
      <trkpt lat="45.92471" lon="4.60788">
        <ele>412</ele>
        <time>2016-09-29T14:01:45Z</time>
      </trkpt>
      <trkpt lat="45.92478" lon="4.60794">
        <ele>412</ele>
        <time>2016-09-29T14:01:51Z</time>
      </trkpt>
      <trkpt lat="45.92479" lon="4.60795">
        <ele>412</ele>
        <time>2016-09-29T14:01:52Z</time>
      </trkpt>
      <trkpt lat="45.92486" lon="4.60802">
        <ele>413</ele>
        <time>2016-09-29T14:01:59Z</time>
      </trkpt>
      <trkpt lat="45.92487" lon="4.60804">
        <ele>413</ele>
        <time>2016-09-29T14:02:00Z</time>
      </trkpt>
      <trkpt lat="45.92491" lon="4.60815">
        <ele>413</ele>
        <time>2016-09-29T14:02:07Z</time>
      </trkpt>
      <trkpt lat="45.92491" lon="4.60817">
        <ele>413</ele>
        <time>2016-09-29T14:02:08Z</time>
      </trkpt>
      <trkpt lat="45.92496" lon="4.60826">
        <ele>413</ele>
        <time>2016-09-29T14:02:15Z</time>
      </trkpt>
      <trkpt lat="45.92496" lon="4.60828">
        <ele>413</ele>
        <time>2016-09-29T14:02:16Z</time>
      </trkpt>
      <trkpt lat="45.925" lon="4.60837">
        <ele>414</ele>
        <time>2016-09-29T14:02:22Z</time>
      </trkpt>
      <trkpt lat="45.925" lon="4.60839">
        <ele>415</ele>
        <time>2016-09-29T14:02:23Z</time>
      </trkpt>
      <trkpt lat="45.92503" lon="4.6085">
        <ele>415</ele>
        <time>2016-09-29T14:02:29Z</time>
      </trkpt>
      <trkpt lat="45.92503" lon="4.60851">
        <ele>415</ele>
        <time>2016-09-29T14:02:30Z</time>
      </trkpt>
      <trkpt lat="45.92506" lon="4.60863">
        <ele>416</ele>
        <time>2016-09-29T14:02:36Z</time>
      </trkpt>
      <trkpt lat="45.92506" lon="4.60865">
        <ele>416</ele>
        <time>2016-09-29T14:02:37Z</time>
      </trkpt>
      <trkpt lat="45.92509" lon="4.60877">
        <ele>416</ele>
        <time>2016-09-29T14:02:43Z</time>
      </trkpt>
      <trkpt lat="45.92509" lon="4.60879">
        <ele>416</ele>
        <time>2016-09-29T14:02:44Z</time>
      </trkpt>
      <trkpt lat="45.92508" lon="4.60892">
        <ele>415</ele>
        <time>2016-09-29T14:02:50Z</time>
      </trkpt>
      <trkpt lat="45.92508" lon="4.60894">
        <ele>415</ele>
        <time>2016-09-29T14:02:51Z</time>
      </trkpt>
      <trkpt lat="45.92506" lon="4.60906">
        <ele>415</ele>
        <time>2016-09-29T14:02:58Z</time>
      </trkpt>
      <trkpt lat="45.92506" lon="4.60908">
        <ele>414</ele>
        <time>2016-09-29T14:02:59Z</time>
      </trkpt>
      <trkpt lat="45.92504" lon="4.6092">
        <ele>414</ele>
        <time>2016-09-29T14:03:05Z</time>
      </trkpt>
      <trkpt lat="45.92504" lon="4.60922">
        <ele>414</ele>
        <time>2016-09-29T14:03:06Z</time>
      </trkpt>
      <trkpt lat="45.92503" lon="4.60934">
        <ele>415</ele>
        <time>2016-09-29T14:03:12Z</time>
      </trkpt>
      <trkpt lat="45.92503" lon="4.60936">
        <ele>415</ele>
        <time>2016-09-29T14:03:13Z</time>
      </trkpt>
      <trkpt lat="45.92502" lon="4.60947">
        <ele>416</ele>
        <time>2016-09-29T14:03:19Z</time>
      </trkpt>
      <trkpt lat="45.92502" lon="4.60949">
        <ele>416</ele>
        <time>2016-09-29T14:03:20Z</time>
      </trkpt>
      <trkpt lat="45.92501" lon="4.60961">
        <ele>417</ele>
        <time>2016-09-29T14:03:27Z</time>
      </trkpt>
      <trkpt lat="45.925" lon="4.60963">
        <ele>417</ele>
        <time>2016-09-29T14:03:28Z</time>
      </trkpt>
      <trkpt lat="45.92496" lon="4.60974">
        <ele>415</ele>
        <time>2016-09-29T14:03:36Z</time>
      </trkpt>
      <trkpt lat="45.92496" lon="4.60976">
        <ele>415</ele>
        <time>2016-09-29T14:03:37Z</time>
      </trkpt>
      <trkpt lat="45.92494" lon="4.60988">
        <ele>416</ele>
        <time>2016-09-29T14:04:43Z</time>
      </trkpt>
      <trkpt lat="45.92494" lon="4.60989">
        <ele>416</ele>
        <time>2016-09-29T14:04:44Z</time>
      </trkpt>
      <trkpt lat="45.92499" lon="4.60999">
        <ele>417</ele>
        <time>2016-09-29T14:04:51Z</time>
      </trkpt>
      <trkpt lat="45.925" lon="4.61">
        <ele>417</ele>
        <time>2016-09-29T14:04:52Z</time>
      </trkpt>
      <trkpt lat="45.92505" lon="4.6101">
        <ele>418</ele>
        <time>2016-09-29T14:04:59Z</time>
      </trkpt>
      <trkpt lat="45.92506" lon="4.61012">
        <ele>418</ele>
        <time>2016-09-29T14:05:00Z</time>
      </trkpt>
      <trkpt lat="45.92508" lon="4.61023">
        <ele>418</ele>
        <time>2016-09-29T14:05:07Z</time>
      </trkpt>
      <trkpt lat="45.92509" lon="4.61025">
        <ele>418</ele>
        <time>2016-09-29T14:05:08Z</time>
      </trkpt>
      <trkpt lat="45.92511" lon="4.61036">
        <ele>419</ele>
        <time>2016-09-29T14:05:15Z</time>
      </trkpt>
      <trkpt lat="45.92512" lon="4.61038">
        <ele>419</ele>
        <time>2016-09-29T14:05:16Z</time>
      </trkpt>
      <trkpt lat="45.92515" lon="4.61049">
        <ele>419</ele>
        <time>2016-09-29T14:05:23Z</time>
      </trkpt>
      <trkpt lat="45.92516" lon="4.61051">
        <ele>419</ele>
        <time>2016-09-29T14:05:24Z</time>
      </trkpt>
      <trkpt lat="45.92521" lon="4.61061">
        <ele>419</ele>
        <time>2016-09-29T14:05:31Z</time>
      </trkpt>
      <trkpt lat="45.92522" lon="4.61062">
        <ele>419</ele>
        <time>2016-09-29T14:05:32Z</time>
      </trkpt>
      <trkpt lat="45.92526" lon="4.61072">
        <ele>419</ele>
        <time>2016-09-29T14:05:39Z</time>
      </trkpt>
      <trkpt lat="45.92527" lon="4.61073">
        <ele>419</ele>
        <time>2016-09-29T14:05:40Z</time>
      </trkpt>
      <trkpt lat="45.92532" lon="4.61083">
        <ele>419</ele>
        <time>2016-09-29T14:05:47Z</time>
      </trkpt>
      <trkpt lat="45.92532" lon="4.61084">
        <ele>418</ele>
        <time>2016-09-29T14:05:48Z</time>
      </trkpt>
      <trkpt lat="45.92537" lon="4.61093">
        <ele>418</ele>
        <time>2016-09-29T14:05:53Z</time>
      </trkpt>
      <trkpt lat="45.92537" lon="4.61095">
        <ele>418</ele>
        <time>2016-09-29T14:05:54Z</time>
      </trkpt>
      <trkpt lat="45.92538" lon="4.61108">
        <ele>417</ele>
        <time>2016-09-29T14:06:00Z</time>
      </trkpt>
      <trkpt lat="45.92539" lon="4.6111">
        <ele>417</ele>
        <time>2016-09-29T14:06:01Z</time>
      </trkpt>
      <trkpt lat="45.9254" lon="4.61122">
        <ele>417</ele>
        <time>2016-09-29T14:07:02Z</time>
      </trkpt>
      <trkpt lat="45.92539" lon="4.61123">
        <ele>417</ele>
        <time>2016-09-29T14:07:03Z</time>
      </trkpt>
      <trkpt lat="45.92532" lon="4.6113">
        <ele>417</ele>
        <time>2016-09-29T14:07:11Z</time>
      </trkpt>
      <trkpt lat="45.92531" lon="4.61132">
        <ele>417</ele>
        <time>2016-09-29T14:07:12Z</time>
      </trkpt>
      <trkpt lat="45.92524" lon="4.61136">
        <ele>417</ele>
        <time>2016-09-29T14:07:19Z</time>
      </trkpt>
      <trkpt lat="45.92523" lon="4.61136">
        <ele>416</ele>
        <time>2016-09-29T14:07:20Z</time>
      </trkpt>
      <trkpt lat="45.92515" lon="4.61138">
        <ele>416</ele>
        <time>2016-09-29T14:07:27Z</time>
      </trkpt>
      <trkpt lat="45.92514" lon="4.61138">
        <ele>416</ele>
        <time>2016-09-29T14:07:28Z</time>
      </trkpt>
      <trkpt lat="45.92505" lon="4.61142">
        <ele>416</ele>
        <time>2016-09-29T14:07:35Z</time>
      </trkpt>
      <trkpt lat="45.92504" lon="4.61143">
        <ele>416</ele>
        <time>2016-09-29T14:07:36Z</time>
      </trkpt>
      <trkpt lat="45.925" lon="4.61155">
        <ele>415</ele>
        <time>2016-09-29T14:07:43Z</time>
      </trkpt>
      <trkpt lat="45.925" lon="4.61157">
        <ele>415</ele>
        <time>2016-09-29T14:07:44Z</time>
      </trkpt>
      <trkpt lat="45.925" lon="4.61169">
        <ele>414</ele>
        <time>2016-09-29T14:07:50Z</time>
      </trkpt>
      <trkpt lat="45.925" lon="4.61171">
        <ele>413</ele>
        <time>2016-09-29T14:07:51Z</time>
      </trkpt>
      <trkpt lat="45.92499" lon="4.61182">
        <ele>412</ele>
        <time>2016-09-29T14:07:57Z</time>
      </trkpt>
      <trkpt lat="45.92498" lon="4.61184">
        <ele>412</ele>
        <time>2016-09-29T14:07:58Z</time>
      </trkpt>
      <trkpt lat="45.92497" lon="4.61196">
        <ele>411</ele>
        <time>2016-09-29T14:08:06Z</time>
      </trkpt>
      <trkpt lat="45.92497" lon="4.61198">
        <ele>410</ele>
        <time>2016-09-29T14:08:07Z</time>
      </trkpt>
      <trkpt lat="45.92499" lon="4.6121">
        <ele>409</ele>
        <time>2016-09-29T14:08:14Z</time>
      </trkpt>
      <trkpt lat="45.92499" lon="4.61211">
        <ele>409</ele>
        <time>2016-09-29T14:08:15Z</time>
      </trkpt>
      <trkpt lat="45.92498" lon="4.61223">
        <ele>408</ele>
        <time>2016-09-29T14:08:21Z</time>
      </trkpt>
      <trkpt lat="45.92499" lon="4.61224">
        <ele>408</ele>
        <time>2016-09-29T14:08:22Z</time>
      </trkpt>
      <trkpt lat="45.92499" lon="4.61236">
        <ele>406</ele>
        <time>2016-09-29T14:08:29Z</time>
      </trkpt>
      <trkpt lat="45.92499" lon="4.61237">
        <ele>406</ele>
        <time>2016-09-29T14:08:30Z</time>
      </trkpt>
      <trkpt lat="45.925" lon="4.61249">
        <ele>403</ele>
        <time>2016-09-29T14:08:37Z</time>
      </trkpt>
      <trkpt lat="45.92501" lon="4.61251">
        <ele>403</ele>
        <time>2016-09-29T14:08:38Z</time>
      </trkpt>
      <trkpt lat="45.92502" lon="4.61263">
        <ele>403</ele>
        <time>2016-09-29T14:08:45Z</time>
      </trkpt>
      <trkpt lat="45.92501" lon="4.61265">
        <ele>402</ele>
        <time>2016-09-29T14:08:46Z</time>
      </trkpt>
      <trkpt lat="45.92502" lon="4.61277">
        <ele>402</ele>
        <time>2016-09-29T14:08:53Z</time>
      </trkpt>
      <trkpt lat="45.92502" lon="4.61279">
        <ele>402</ele>
        <time>2016-09-29T14:08:54Z</time>
      </trkpt>
      <trkpt lat="45.92503" lon="4.6129">
        <ele>401</ele>
        <time>2016-09-29T14:09:01Z</time>
      </trkpt>
      <trkpt lat="45.92504" lon="4.61292">
        <ele>401</ele>
        <time>2016-09-29T14:09:02Z</time>
      </trkpt>
      <trkpt lat="45.92505" lon="4.61304">
        <ele>400</ele>
        <time>2016-09-29T14:09:09Z</time>
      </trkpt>
      <trkpt lat="45.92505" lon="4.61305">
        <ele>400</ele>
        <time>2016-09-29T14:09:10Z</time>
      </trkpt>
      <trkpt lat="45.92506" lon="4.61318">
        <ele>399</ele>
        <time>2016-09-29T14:09:17Z</time>
      </trkpt>
      <trkpt lat="45.92506" lon="4.6132">
        <ele>399</ele>
        <time>2016-09-29T14:09:18Z</time>
      </trkpt>
      <trkpt lat="45.92507" lon="4.61331">
        <ele>398</ele>
        <time>2016-09-29T14:09:24Z</time>
      </trkpt>
      <trkpt lat="45.92507" lon="4.61333">
        <ele>398</ele>
        <time>2016-09-29T14:09:25Z</time>
      </trkpt>
      <trkpt lat="45.92508" lon="4.61345">
        <ele>396</ele>
        <time>2016-09-29T14:09:31Z</time>
      </trkpt>
      <trkpt lat="45.92508" lon="4.61347">
        <ele>395</ele>
        <time>2016-09-29T14:09:32Z</time>
      </trkpt>
      <trkpt lat="45.9251" lon="4.61359">
        <ele>395</ele>
        <time>2016-09-29T14:09:39Z</time>
      </trkpt>
      <trkpt lat="45.9251" lon="4.6136">
        <ele>395</ele>
        <time>2016-09-29T14:09:40Z</time>
      </trkpt>
      <trkpt lat="45.9251" lon="4.61372">
        <ele>394</ele>
        <time>2016-09-29T14:09:46Z</time>
      </trkpt>
      <trkpt lat="45.9251" lon="4.61374">
        <ele>394</ele>
        <time>2016-09-29T14:09:47Z</time>
      </trkpt>
      <trkpt lat="45.92511" lon="4.61386">
        <ele>393</ele>
        <time>2016-09-29T14:09:53Z</time>
      </trkpt>
      <trkpt lat="45.92511" lon="4.61388">
        <ele>393</ele>
        <time>2016-09-29T14:09:54Z</time>
      </trkpt>
      <trkpt lat="45.92511" lon="4.61401">
        <ele>391</ele>
        <time>2016-09-29T14:10:01Z</time>
      </trkpt>
      <trkpt lat="45.92511" lon="4.61403">
        <ele>391</ele>
        <time>2016-09-29T14:10:02Z</time>
      </trkpt>
      <trkpt lat="45.92509" lon="4.61414">
        <ele>389</ele>
        <time>2016-09-29T14:10:09Z</time>
      </trkpt>
      <trkpt lat="45.92508" lon="4.61416">
        <ele>389</ele>
        <time>2016-09-29T14:10:10Z</time>
      </trkpt>
      <trkpt lat="45.92507" lon="4.61428">
        <ele>387</ele>
        <time>2016-09-29T14:10:17Z</time>
      </trkpt>
      <trkpt lat="45.92507" lon="4.6143">
        <ele>387</ele>
        <time>2016-09-29T14:10:18Z</time>
      </trkpt>
      <trkpt lat="45.92507" lon="4.61442">
        <ele>387</ele>
        <time>2016-09-29T14:10:25Z</time>
      </trkpt>
      <trkpt lat="45.92507" lon="4.61444">
        <ele>387</ele>
        <time>2016-09-29T14:10:26Z</time>
      </trkpt>
      <trkpt lat="45.92508" lon="4.61456">
        <ele>387</ele>
        <time>2016-09-29T14:10:34Z</time>
      </trkpt>
      <trkpt lat="45.92508" lon="4.61458">
        <ele>387</ele>
        <time>2016-09-29T14:10:35Z</time>
      </trkpt>
      <trkpt lat="45.9251" lon="4.61471">
        <ele>386</ele>
        <time>2016-09-29T14:10:42Z</time>
      </trkpt>
      <trkpt lat="45.9251" lon="4.61472">
        <ele>386</ele>
        <time>2016-09-29T14:10:43Z</time>
      </trkpt>
      <trkpt lat="45.92514" lon="4.61482">
        <ele>386</ele>
        <time>2016-09-29T14:10:48Z</time>
      </trkpt>
      <trkpt lat="45.92515" lon="4.61484">
        <ele>386</ele>
        <time>2016-09-29T14:10:49Z</time>
      </trkpt>
      <trkpt lat="45.92518" lon="4.61494">
        <ele>386</ele>
        <time>2016-09-29T14:10:55Z</time>
      </trkpt>
      <trkpt lat="45.92519" lon="4.61495">
        <ele>386</ele>
        <time>2016-09-29T14:10:56Z</time>
      </trkpt>
      <trkpt lat="45.92523" lon="4.61506">
        <ele>383</ele>
        <time>2016-09-29T14:11:03Z</time>
      </trkpt>
      <trkpt lat="45.92523" lon="4.61507">
        <ele>383</ele>
        <time>2016-09-29T14:11:04Z</time>
      </trkpt>
      <trkpt lat="45.92529" lon="4.61516">
        <ele>383</ele>
        <time>2016-09-29T14:11:11Z</time>
      </trkpt>
      <trkpt lat="45.9253" lon="4.61518">
        <ele>383</ele>
        <time>2016-09-29T14:11:12Z</time>
      </trkpt>
      <trkpt lat="45.92533" lon="4.61528">
        <ele>383</ele>
        <time>2016-09-29T14:11:18Z</time>
      </trkpt>
      <trkpt lat="45.92534" lon="4.6153">
        <ele>383</ele>
        <time>2016-09-29T14:11:19Z</time>
      </trkpt>
      <trkpt lat="45.92539" lon="4.6154">
        <ele>382</ele>
        <time>2016-09-29T14:11:25Z</time>
      </trkpt>
      <trkpt lat="45.92539" lon="4.61541">
        <ele>382</ele>
        <time>2016-09-29T14:11:26Z</time>
      </trkpt>
      <trkpt lat="45.92543" lon="4.61551">
        <ele>382</ele>
        <time>2016-09-29T14:11:32Z</time>
      </trkpt>
      <trkpt lat="45.92544" lon="4.61553">
        <ele>382</ele>
        <time>2016-09-29T14:11:33Z</time>
      </trkpt>
      <trkpt lat="45.92549" lon="4.61562">
        <ele>382</ele>
        <time>2016-09-29T14:11:39Z</time>
      </trkpt>
      <trkpt lat="45.9255" lon="4.61564">
        <ele>382</ele>
        <time>2016-09-29T14:11:40Z</time>
      </trkpt>
      <trkpt lat="45.92556" lon="4.61572">
        <ele>382</ele>
        <time>2016-09-29T14:11:46Z</time>
      </trkpt>
      <trkpt lat="45.92557" lon="4.61573">
        <ele>382</ele>
        <time>2016-09-29T14:11:47Z</time>
      </trkpt>
      <trkpt lat="45.92561" lon="4.61582">
        <ele>382</ele>
        <time>2016-09-29T14:11:53Z</time>
      </trkpt>
      <trkpt lat="45.92562" lon="4.61584">
        <ele>378</ele>
        <time>2016-09-29T14:11:54Z</time>
      </trkpt>
      <trkpt lat="45.92567" lon="4.61592">
        <ele>378</ele>
        <time>2016-09-29T14:12:00Z</time>
      </trkpt>
      <trkpt lat="45.92568" lon="4.61593">
        <ele>378</ele>
        <time>2016-09-29T14:12:01Z</time>
      </trkpt>
      <trkpt lat="45.92574" lon="4.61601">
        <ele>378</ele>
        <time>2016-09-29T14:12:07Z</time>
      </trkpt>
      <trkpt lat="45.92575" lon="4.61602">
        <ele>378</ele>
        <time>2016-09-29T14:12:08Z</time>
      </trkpt>
      <trkpt lat="45.92579" lon="4.61613">
        <ele>377</ele>
        <time>2016-09-29T14:12:16Z</time>
      </trkpt>
      <trkpt lat="45.92579" lon="4.61615">
        <ele>376</ele>
        <time>2016-09-29T14:12:17Z</time>
      </trkpt>
      <trkpt lat="45.9258" lon="4.61626">
        <ele>375</ele>
        <time>2016-09-29T14:12:23Z</time>
      </trkpt>
      <trkpt lat="45.9258" lon="4.61628">
        <ele>375</ele>
        <time>2016-09-29T14:12:24Z</time>
      </trkpt>
      <trkpt lat="45.92581" lon="4.61639">
        <ele>374</ele>
        <time>2016-09-29T14:12:29Z</time>
      </trkpt>
      <trkpt lat="45.92581" lon="4.61641">
        <ele>374</ele>
        <time>2016-09-29T14:12:30Z</time>
      </trkpt>
      <trkpt lat="45.92582" lon="4.61652">
        <ele>373</ele>
        <time>2016-09-29T14:12:35Z</time>
      </trkpt>
      <trkpt lat="45.92582" lon="4.61654">
        <ele>373</ele>
        <time>2016-09-29T14:12:36Z</time>
      </trkpt>
      <trkpt lat="45.92582" lon="4.61666">
        <ele>371</ele>
        <time>2016-09-29T14:12:42Z</time>
      </trkpt>
      <trkpt lat="45.92582" lon="4.61667">
        <ele>371</ele>
        <time>2016-09-29T14:12:43Z</time>
      </trkpt>
      <trkpt lat="45.92584" lon="4.61678">
        <ele>372</ele>
        <time>2016-09-29T14:12:49Z</time>
      </trkpt>
      <trkpt lat="45.92584" lon="4.6168">
        <ele>372</ele>
        <time>2016-09-29T14:12:50Z</time>
      </trkpt>
      <trkpt lat="45.92583" lon="4.61691">
        <ele>370</ele>
        <time>2016-09-29T14:12:56Z</time>
      </trkpt>
      <trkpt lat="45.92583" lon="4.61693">
        <ele>370</ele>
        <time>2016-09-29T14:12:57Z</time>
      </trkpt>
      <trkpt lat="45.92584" lon="4.61705">
        <ele>372</ele>
        <time>2016-09-29T14:13:03Z</time>
      </trkpt>
      <trkpt lat="45.92585" lon="4.61707">
        <ele>372</ele>
        <time>2016-09-29T14:13:04Z</time>
      </trkpt>
      <trkpt lat="45.92586" lon="4.61718">
        <ele>372</ele>
        <time>2016-09-29T14:13:11Z</time>
      </trkpt>
      <trkpt lat="45.92586" lon="4.6172">
        <ele>372</ele>
        <time>2016-09-29T14:13:12Z</time>
      </trkpt>
      <trkpt lat="45.92586" lon="4.61733">
        <ele>372</ele>
        <time>2016-09-29T14:13:19Z</time>
      </trkpt>
      <trkpt lat="45.92586" lon="4.61734">
        <ele>372</ele>
        <time>2016-09-29T14:13:20Z</time>
      </trkpt>
      <trkpt lat="45.92583" lon="4.61745">
        <ele>370</ele>
        <time>2016-09-29T14:13:27Z</time>
      </trkpt>
      <trkpt lat="45.92582" lon="4.61746">
        <ele>370</ele>
        <time>2016-09-29T14:13:28Z</time>
      </trkpt>
      <trkpt lat="45.9258" lon="4.61759">
        <ele>369</ele>
        <time>2016-09-29T14:13:34Z</time>
      </trkpt>
      <trkpt lat="45.9258" lon="4.61761">
        <ele>369</ele>
        <time>2016-09-29T14:13:35Z</time>
      </trkpt>
      <trkpt lat="45.92578" lon="4.61771">
        <ele>368</ele>
        <time>2016-09-29T14:13:40Z</time>
      </trkpt>
      <trkpt lat="45.92578" lon="4.61773">
        <ele>368</ele>
        <time>2016-09-29T14:13:41Z</time>
      </trkpt>
      <trkpt lat="45.92574" lon="4.61784">
        <ele>368</ele>
        <time>2016-09-29T14:13:47Z</time>
      </trkpt>
      <trkpt lat="45.92573" lon="4.61786">
        <ele>368</ele>
        <time>2016-09-29T14:13:48Z</time>
      </trkpt>
      <trkpt lat="45.92571" lon="4.61798">
        <ele>368</ele>
        <time>2016-09-29T14:14:30Z</time>
      </trkpt>
      <trkpt lat="45.92571" lon="4.61799">
        <ele>368</ele>
        <time>2016-09-29T14:14:31Z</time>
      </trkpt>
      <trkpt lat="45.92564" lon="4.61806">
        <ele>367</ele>
        <time>2016-09-29T14:15:31Z</time>
      </trkpt>
      <trkpt lat="45.92563" lon="4.61806">
        <ele>367</ele>
        <time>2016-09-29T14:15:32Z</time>
      </trkpt>
      <trkpt lat="45.92556" lon="4.61813">
        <ele>367</ele>
        <time>2016-09-29T14:15:39Z</time>
      </trkpt>
      <trkpt lat="45.92555" lon="4.61814">
        <ele>367</ele>
        <time>2016-09-29T14:15:40Z</time>
      </trkpt>
      <trkpt lat="45.92549" lon="4.61821">
        <ele>367</ele>
        <time>2016-09-29T14:15:47Z</time>
      </trkpt>
      <trkpt lat="45.92548" lon="4.61822">
        <ele>367</ele>
        <time>2016-09-29T14:15:48Z</time>
      </trkpt>
      <trkpt lat="45.92542" lon="4.61829">
        <ele>367</ele>
        <time>2016-09-29T14:15:57Z</time>
      </trkpt>
      <trkpt lat="45.92541" lon="4.6183">
        <ele>367</ele>
        <time>2016-09-29T14:15:58Z</time>
      </trkpt>
      <trkpt lat="45.92534" lon="4.61837">
        <ele>365</ele>
        <time>2016-09-29T14:16:05Z</time>
      </trkpt>
      <trkpt lat="45.92533" lon="4.61838">
        <ele>365</ele>
        <time>2016-09-29T14:16:06Z</time>
      </trkpt>
      <trkpt lat="45.92525" lon="4.61845">
        <ele>364</ele>
        <time>2016-09-29T14:16:13Z</time>
      </trkpt>
      <trkpt lat="45.92524" lon="4.61846">
        <ele>364</ele>
        <time>2016-09-29T14:16:14Z</time>
      </trkpt>
      <trkpt lat="45.92516" lon="4.61848">
        <ele>364</ele>
        <time>2016-09-29T14:16:20Z</time>
      </trkpt>
      <trkpt lat="45.92515" lon="4.61848">
        <ele>364</ele>
        <time>2016-09-29T14:16:21Z</time>
      </trkpt>
      <trkpt lat="45.92508" lon="4.61855">
        <ele>364</ele>
        <time>2016-09-29T14:16:29Z</time>
      </trkpt>
      <trkpt lat="45.92506" lon="4.61855">
        <ele>364</ele>
        <time>2016-09-29T14:16:30Z</time>
      </trkpt>
      <trkpt lat="45.92498" lon="4.61855">
        <ele>362</ele>
        <time>2016-09-29T14:16:36Z</time>
      </trkpt>
      <trkpt lat="45.92497" lon="4.61856">
        <ele>362</ele>
        <time>2016-09-29T14:16:37Z</time>
      </trkpt>
      <trkpt lat="45.92491" lon="4.61863">
        <ele>361</ele>
        <time>2016-09-29T14:16:43Z</time>
      </trkpt>
      <trkpt lat="45.9249" lon="4.61864">
        <ele>361</ele>
        <time>2016-09-29T14:16:44Z</time>
      </trkpt>
      <trkpt lat="45.92483" lon="4.61872">
        <ele>360</ele>
        <time>2016-09-29T14:16:51Z</time>
      </trkpt>
      <trkpt lat="45.92482" lon="4.61873">
        <ele>360</ele>
        <time>2016-09-29T14:16:52Z</time>
      </trkpt>
      <trkpt lat="45.92476" lon="4.61883">
        <ele>360</ele>
        <time>2016-09-29T14:16:59Z</time>
      </trkpt>
      <trkpt lat="45.92476" lon="4.61884">
        <ele>360</ele>
        <time>2016-09-29T14:17:00Z</time>
      </trkpt>
      <trkpt lat="45.92468" lon="4.61888">
        <ele>360</ele>
        <time>2016-09-29T14:17:06Z</time>
      </trkpt>
      <trkpt lat="45.92466" lon="4.61888">
        <ele>360</ele>
        <time>2016-09-29T14:17:07Z</time>
      </trkpt>
      <trkpt lat="45.92458" lon="4.6189">
        <ele>359</ele>
        <time>2016-09-29T14:17:14Z</time>
      </trkpt>
      <trkpt lat="45.92457" lon="4.6189">
        <ele>359</ele>
        <time>2016-09-29T14:17:15Z</time>
      </trkpt>
      <trkpt lat="45.92449" lon="4.61889">
        <ele>359</ele>
        <time>2016-09-29T14:17:23Z</time>
      </trkpt>
      <trkpt lat="45.92448" lon="4.61889">
        <ele>359</ele>
        <time>2016-09-29T14:17:24Z</time>
      </trkpt>
      <trkpt lat="45.9244" lon="4.61892">
        <ele>359</ele>
        <time>2016-09-29T14:17:31Z</time>
      </trkpt>
      <trkpt lat="45.92439" lon="4.61892">
        <ele>359</ele>
        <time>2016-09-29T14:17:32Z</time>
      </trkpt>
      <trkpt lat="45.92431" lon="4.61897">
        <ele>358</ele>
        <time>2016-09-29T14:17:50Z</time>
      </trkpt>
      <trkpt lat="45.92431" lon="4.61897">
        <ele>358</ele>
        <time>2016-09-29T14:17:51Z</time>
      </trkpt>
      <trkpt lat="45.92425" lon="4.61902">
        <ele>357</ele>
        <time>2016-09-29T14:20:10Z</time>
      </trkpt>
      <trkpt lat="45.92423" lon="4.61904">
        <ele>357</ele>
        <time>2016-09-29T14:20:11Z</time>
      </trkpt>
      <trkpt lat="45.92417" lon="4.61909">
        <ele>356</ele>
        <time>2016-09-29T14:20:13Z</time>
      </trkpt>
      <trkpt lat="45.92414" lon="4.61911">
        <ele>356</ele>
        <time>2016-09-29T14:20:14Z</time>
      </trkpt>
      <trkpt lat="45.92407" lon="4.61914">
        <ele>356</ele>
        <time>2016-09-29T14:20:16Z</time>
      </trkpt>
      <trkpt lat="45.92404" lon="4.61914">
        <ele>356</ele>
        <time>2016-09-29T14:20:17Z</time>
      </trkpt>
      <trkpt lat="45.92398" lon="4.61911">
        <ele>357</ele>
        <time>2016-09-29T14:20:19Z</time>
      </trkpt>
      <trkpt lat="45.92395" lon="4.61908">
        <ele>357</ele>
        <time>2016-09-29T14:20:20Z</time>
      </trkpt>
      <trkpt lat="45.92392" lon="4.61899">
        <ele>357</ele>
        <time>2016-09-29T14:20:22Z</time>
      </trkpt>
      <trkpt lat="45.92392" lon="4.61894">
        <ele>357</ele>
        <time>2016-09-29T14:20:23Z</time>
      </trkpt>
      <trkpt lat="45.92391" lon="4.61884">
        <ele>358</ele>
        <time>2016-09-29T14:20:25Z</time>
      </trkpt>
      <trkpt lat="45.9239" lon="4.61879">
        <ele>358</ele>
        <time>2016-09-29T14:20:26Z</time>
      </trkpt>
      <trkpt lat="45.9239" lon="4.61866">
        <ele>358</ele>
        <time>2016-09-29T14:20:33Z</time>
      </trkpt>
      <trkpt lat="45.92391" lon="4.61864">
        <ele>359</ele>
        <time>2016-09-29T14:20:34Z</time>
      </trkpt>
      <trkpt lat="45.92396" lon="4.61859">
        <ele>359</ele>
        <time>2016-09-29T14:20:36Z</time>
      </trkpt>
      <trkpt lat="45.924" lon="4.61858">
        <ele>359</ele>
        <time>2016-09-29T14:20:37Z</time>
      </trkpt>
      <trkpt lat="45.92409" lon="4.61856">
        <ele>359</ele>
        <time>2016-09-29T14:20:39Z</time>
      </trkpt>
      <trkpt lat="45.92413" lon="4.61855">
        <ele>359</ele>
        <time>2016-09-29T14:20:40Z</time>
      </trkpt>
      <trkpt lat="45.92418" lon="4.61854">
        <ele>360</ele>
        <time>2016-09-29T14:20:41Z</time>
      </trkpt>
      <trkpt lat="45.92424" lon="4.61852">
        <ele>360</ele>
        <time>2016-09-29T14:20:42Z</time>
      </trkpt>
      <trkpt lat="45.92429" lon="4.61852">
        <ele>360</ele>
        <time>2016-09-29T14:20:43Z</time>
      </trkpt>
      <trkpt lat="45.92435" lon="4.61851">
        <ele>360</ele>
        <time>2016-09-29T14:20:44Z</time>
      </trkpt>
      <trkpt lat="45.92441" lon="4.61851">
        <ele>360</ele>
        <time>2016-09-29T14:20:45Z</time>
      </trkpt>
      <trkpt lat="45.92447" lon="4.61852">
        <ele>360</ele>
        <time>2016-09-29T14:20:46Z</time>
      </trkpt>
      <trkpt lat="45.92454" lon="4.61853">
        <ele>360</ele>
        <time>2016-09-29T14:20:47Z</time>
      </trkpt>
      <trkpt lat="45.9246" lon="4.61856">
        <ele>360</ele>
        <time>2016-09-29T14:20:48Z</time>
      </trkpt>
      <trkpt lat="45.92467" lon="4.61858">
        <ele>360</ele>
        <time>2016-09-29T14:20:49Z</time>
      </trkpt>
      <trkpt lat="45.92474" lon="4.61861">
        <ele>361</ele>
        <time>2016-09-29T14:20:50Z</time>
      </trkpt>
      <trkpt lat="45.9248" lon="4.61863">
        <ele>361</ele>
        <time>2016-09-29T14:20:51Z</time>
      </trkpt>
      <trkpt lat="45.92487" lon="4.61864">
        <ele>361</ele>
        <time>2016-09-29T14:20:52Z</time>
      </trkpt>
      <trkpt lat="45.92493" lon="4.61864">
        <ele>361</ele>
        <time>2016-09-29T14:20:53Z</time>
      </trkpt>
      <trkpt lat="45.92499" lon="4.61861">
        <ele>361</ele>
        <time>2016-09-29T14:20:54Z</time>
      </trkpt>
      <trkpt lat="45.92505" lon="4.61857">
        <ele>364</ele>
        <time>2016-09-29T14:20:55Z</time>
      </trkpt>
      <trkpt lat="45.92509" lon="4.61852">
        <ele>364</ele>
        <time>2016-09-29T14:20:56Z</time>
      </trkpt>
      <trkpt lat="45.92514" lon="4.61848">
        <ele>364</ele>
        <time>2016-09-29T14:20:57Z</time>
      </trkpt>
      <trkpt lat="45.92519" lon="4.61843">
        <ele>364</ele>
        <time>2016-09-29T14:20:58Z</time>
      </trkpt>
      <trkpt lat="45.92524" lon="4.6184">
        <ele>364</ele>
        <time>2016-09-29T14:20:59Z</time>
      </trkpt>
      <trkpt lat="45.92528" lon="4.61836">
        <ele>364</ele>
        <time>2016-09-29T14:21:00Z</time>
      </trkpt>
      <trkpt lat="45.92533" lon="4.61833">
        <ele>365</ele>
        <time>2016-09-29T14:21:01Z</time>
      </trkpt>
      <trkpt lat="45.92537" lon="4.61832">
        <ele>366</ele>
        <time>2016-09-29T14:21:02Z</time>
      </trkpt>
      <trkpt lat="45.92546" lon="4.61828">
        <ele>367</ele>
        <time>2016-09-29T14:21:15Z</time>
      </trkpt>
      <trkpt lat="45.92546" lon="4.61829">
        <ele>367</ele>
        <time>2016-09-29T14:21:16Z</time>
      </trkpt>
      <trkpt lat="45.92546" lon="4.61828">
        <ele>367</ele>
        <time>2016-09-29T14:21:44.883Z</time>
      </trkpt>
    </trkseg>
  </trk>
</gpx>